# Wetter Temperatur Luftdruck Luftfeuchtigkeit Sichtweite Windgeschwindigkeit Windrichtung Zeit
1 Clear 29 1010 45 10000 4.6 280 23:58 04.08.2020
2 Clear 29 1010 40 10000 4.1 280 23:40 04.08.2020
3 Clear 30 1010 38 10000 4.6 280 23:20 04.08.2020
4 Clear 32 1009 43 10000 3.1 230 22:30 04.08.2020
5 Clear 33 1009 43 10000 4.1 220 21:59 04.08.2020
6 Clear 35 1009 34 10000 3.6 210 20:44 04.08.2020
7 Clear 35 1009 36 10000 2.1 250 19:32 04.08.2020
8 Clear 35 1010 30 10000 1.5 280 18:33 04.08.2020
9 Clear 35 1010 34 10000 2.1 220 17:31 04.08.2020
10 Clear 33 1012 52 10000 3.6 230 16:28 04.08.2020
11 Clear 31 1012 52 10000 3.6 230 15:40 04.08.2020
12 Clear 30 1012 55 10000 2.6 200 14:51 04.08.2020
13 Clouds 29 1013 62 10000 4.1 250 13:47 04.08.2020
14 Clouds 27 1013 69 10000 4.1 210 11:35 04.08.2020
15 Clouds 26 1012 74 10000 3.1 200 10:57 04.08.2020
16 Clouds 25 1013 78 10000 3.1 210 10:35 04.08.2020
17 Clouds 23 1012 83 10000 1 0 09:38 04.08.2020
18 Clouds 21 1012 88 10000 1 240 07:32 04.08.2020
19 Clouds 22 1011 69 10000 2.1 200 06:47 04.08.2020
20 Clouds 26 1011 47 10000 4.1 200 23:22 03.08.2020
21 Clouds 27 1011 45 10000 5.7 210 22:23 03.08.2020
22 Clouds 29 1010 39 10000 5.7 210 21:28 03.08.2020
23 Clouds 29 1010 37 10000 5.7 210 20:57 03.08.2020
24 Clouds 32 1010 29 10000 5.1 210 19:47 03.08.2020
25 Clouds 32 1010 29 10000 5.1 210 19:25 03.08.2020
26 Clouds 33 1011 24 10000 5.1 210 18:34 03.08.2020
27 Clouds 34 1011 26 10000 4.1 200 17:54 03.08.2020
28 Clouds 33 1013 31 10000 3.1 190 16:39 03.08.2020
29 Clouds 33 1013 31 10000 3.1 190 15:47 03.08.2020
30 Clouds 31 1013 35 10000 2.6 210 14:29 03.08.2020
31 Clouds 30 1014 39 10000 3.1 210 13:36 03.08.2020
32 Clouds 29 1014 42 10000 1 0 12:39 03.08.2020
33 Clouds 26 1014 50 10000 1 0 11:34 03.08.2020
34 Clouds 24 1014 73 10000 1.5 210 10:21 03.08.2020
35 Clouds 21 1014 77 10000 1 0 09:26 03.08.2020
36 Clear 23 1014 64 10000 1 0 03:42 03.08.2020
37 Clear 23 1014 57 10000 2.1 180 02:23 03.08.2020
38 Clear 24 1014 57 10000 3.6 200 01:20 03.08.2020
39 Clear 24 1014 53 10000 4.1 210 00:42 03.08.2020
40 Clear 29 1012 35 10000 6.7 220 21:46 02.08.2020
41 Clear 32 1012 35 10000 6.7 220 21:22 02.08.2020
42 Clear 32 1012 38 10000 6.7 210 20:37 02.08.2020
43 Clear 34 1012 30 10000 7.2 220 19:59 02.08.2020
44 Clear 35 1012 28 10000 6.2 210 19:39 02.08.2020
45 Clear 37 1012 22 10000 7.2 210 18:50 02.08.2020
46 Clear 36 1012 22 10000 7.2 210 18:28 02.08.2020
47 Clouds 37 1013 19 10000 4.1 230 16:39 02.08.2020
48 Clear 37 1014 16 10000 1.5 150 15:18 02.08.2020
49 Clear 36 1015 14 10000 1 270 14:46 02.08.2020
50 Clear 35 1015 19 10000 0.5 40 13:53 02.08.2020
51 Clear 34 1015 20 10000 0.5 140 13:26 02.08.2020
52 Clear 34 1016 22 10000 2.1 50 12:48 02.08.2020
53 Clear 31 1016 35 10000 2.1 60 11:31 02.08.2020
54 Clear 29 1016 39 10000 3.6 20 10:50 02.08.2020
55 Clear 27 1016 47 10000 2.6 30 10:20 02.08.2020
56 Clear 24 1015 60 10000 1 40 08:57 02.08.2020
57 Clear 24 1015 68 10000 1.5 40 08:24 02.08.2020
58 Clear 24 1015 64 10000 1.5 160 06:52 02.08.2020
59 Clear 25 1014 65 10000 2.1 160 04:45 02.08.2020
60 Clear 26 1015 54 10000 3.6 170 01:32 02.08.2020
61 Clear 27 1015 48 10000 2.6 210 00:20 02.08.2020
62 Clear 29 1014 40 10000 5.1 210 22:46 01.08.2020
63 Clear 37 1013 17 10000 8.7 230 20:46 01.08.2020
64 Clear 37 1013 17 10000 8.7 230 20:25 01.08.2020
65 Clear 37 1013 17 10000 8.7 230 20:25 01.08.2020
66 Clear 39 1013 21 10000 6.2 240 19:26 01.08.2020
67 Clear 40 1013 14 10000 2.6 250 18:39 01.08.2020
68 Clear 41 1014 12 10000 1.5 290 17:43 01.08.2020
69 Clear 40 1014 16 10000 1.5 220 16:31 01.08.2020
70 Clear 39 1015 21 10000 2.1 0 15:44 01.08.2020
71 Clear 39 1015 21 10000 2.1 0 15:21 01.08.2020
72 Clear 37 1016 23 10000 1.5 80 14:29 01.08.2020
73 Clear 35 1017 32 10000 1.5 80 13:19 01.08.2020
74 Clear 30 1017 62 10000 2.1 90 11:45 01.08.2020
75 Clear 29 1017 65 10000 2.6 60 10:55 01.08.2020
76 Clear 24 1016 94 10000 2.1 200 07:27 01.08.2020
77 Clear 26 1015 69 10000 4.6 210 03:19 01.08.2020
78 Clear 27 1016 61 10000 3.6 210 01:53 01.08.2020
79 Clear 28 1015 58 10000 2.6 200 01:31 01.08.2020
80 Clear 31 1014 43 10000 3.1 270 23:36 31.07.2020
81 Clear 34 1013 46 10000 3.6 220 21:59 31.07.2020
82 Clear 35 1013 37 10000 4.1 240 20:44 31.07.2020
83 Clouds 36 1013 37 10000 4.1 240 20:24 31.07.2020
84 Clouds 36 1013 30 10000 4.1 230 19:53 31.07.2020
85 Clouds 37 1013 23 10000 4.1 210 17:55 31.07.2020
86 Clear 37 1014 30 10000 2.6 230 16:43 31.07.2020
87 Clear 36 1014 41 10000 3.1 250 16:24 31.07.2020
88 Clear 35 1014 39 10000 1.5 0 14:53 31.07.2020
89 Clear 33 1015 49 10000 1 0 13:41 31.07.2020
90 Clear 32 1015 58 10000 1 0 12:44 31.07.2020
91 Clear 30 1015 65 10000 0.5 0 11:59 31.07.2020
92 Clear 29 1015 65 10000 0.5 0 11:30 31.07.2020
93 Clear 28 1015 78 10000 0.5 0 10:41 31.07.2020
94 Clear 25 1014 94 8000 1 0 09:40 31.07.2020
95 Clear 23 1014 94 9000 1 0 08:55 31.07.2020
96 Clear 23 1014 94 10000 1.5 150 08:18 31.07.2020
97 Clear 25 1013 78 10000 2.1 220 05:36 31.07.2020
98 Clear 26 1014 74 10000 3.6 210 02:37 31.07.2020
99 Clear 26 1014 74 10000 3.6 210 01:49 31.07.2020
100 Clear 27 1013 69 10000 4.1 210 00:27 31.07.2020
101 Clear 29 1013 62 10000 4.1 210 23:29 30.07.2020
102 Clear 30 1011 55 10000 3.6 210 22:42 30.07.2020
103 Clear 32 1011 49 10000 4.6 220 21:47 30.07.2020
104 Clear 34 1010 39 10000 5.7 250 21:18 30.07.2020
105 Clear 34 1010 37 10000 5.7 240 20:47 30.07.2020
106 Clear 36 1010 39 10000 4.1 230 19:33 30.07.2020
107 Clear 36 1010 32 10000 4.6 240 18:42 30.07.2020
108 Clear 37 1011 27 10000 5.7 240 17:38 30.07.2020
109 Clear 36 1011 37 10000 4.1 220 16:51 30.07.2020
110 Clear 36 1012 41 10000 3.1 220 16:32 30.07.2020
111 Clear 35 1012 41 10000 3.1 220 15:43 30.07.2020
112 Clear 34 1012 44 10000 3.6 240 15:19 30.07.2020
113 Clear 33 1012 46 10000 3.6 210 14:42 30.07.2020
114 Clear 33 1012 46 10000 3.6 210 14:24 30.07.2020
115 Clear 33 1012 46 10000 3.6 220 13:58 30.07.2020
116 Clear 32 1013 48 10000 1 0 13:20 30.07.2020
117 Clear 32 1013 48 10000 1 0 12:58 30.07.2020
118 Clear 31 1013 58 10000 2.1 220 12:18 30.07.2020
119 Clear 28 1013 65 10000 1.5 290 10:44 30.07.2020
120 Clear 28 1013 65 10000 1.5 290 10:23 30.07.2020
121 Clear 25 1012 69 10000 1 0 09:21 30.07.2020
122 Clear 25 1011 78 10000 1 300 08:53 30.07.2020
123 Clear 24 1011 73 10000 0.5 320 07:55 30.07.2020
124 Clear 27 1012 45 10000 3.1 260 02:52 30.07.2020
125 Clear 27 1011 54 10000 4.1 210 01:38 30.07.2020
126 Clear 29 1011 48 10000 3.1 220 23:54 29.07.2020
127 Clear 31 1010 43 10000 4.6 220 22:42 29.07.2020
128 Clear 33 1009 41 10000 4.6 220 22:20 29.07.2020
129 Clear 34 1009 41 10000 5.1 220 21:38 29.07.2020
130 Clear 35 1009 36 10000 5.1 220 20:48 29.07.2020
131 Clear 35 1009 36 10000 5.1 220 20:25 29.07.2020
132 Clear 36 1009 32 10000 4.6 220 19:48 29.07.2020
133 Clear 36 1009 32 10000 4.6 220 19:25 29.07.2020
134 Clear 37 1010 30 10000 3.6 230 18:51 29.07.2020
135 Clear 36 1010 30 10000 3.6 230 18:26 29.07.2020
136 Clear 36 1010 30 10000 4.6 220 17:53 29.07.2020
137 Clear 36 1011 26 10000 3.6 210 16:50 29.07.2020
138 Clear 34 1012 41 10000 3.1 210 15:59 29.07.2020
139 Clear 34 1012 41 10000 3.1 210 15:41 29.07.2020
140 Clear 33 1012 52 10000 2.6 200 15:18 29.07.2020
141 Clear 32 1012 52 10000 2.1 230 14:21 29.07.2020
142 Clear 30 1013 62 10000 2.6 0 13:45 29.07.2020
143 Clear 30 1013 69 10000 3.1 220 13:18 29.07.2020
144 Clear 28 1013 69 10000 2.1 200 12:23 29.07.2020
145 Clear 27 1013 74 10000 3.1 210 11:48 29.07.2020
146 Clear 27 1013 65 10000 1.5 210 11:27 29.07.2020
147 Clouds 26 1013 83 10000 1.5 230 10:39 29.07.2020
148 Clear 24 1012 88 10000 0.5 0 09:41 29.07.2020
149 Clear 22 1012 88 10000 0.5 0 08:25 29.07.2020
150 Clear 22 1012 88 10000 1.5 210 07:49 29.07.2020
151 Clear 23 1011 78 10000 1.5 200 06:28 29.07.2020
152 Clear 24 1012 65 10000 1.5 190 02:47 29.07.2020
153 Clear 26 1012 54 10000 3.6 210 00:38 29.07.2020
154 Clear 29 1011 48 10000 4.1 220 22:55 28.07.2020
155 Clear 31 1011 41 10000 5.1 210 22:20 28.07.2020
156 Clear 31 1011 41 10000 5.1 210 22:20 28.07.2020
157 Clear 34 1010 34 10000 5.1 220 21:48 28.07.2020
158 Clear 35 1010 34 10000 5.1 220 21:23 28.07.2020
159 Clear 36 1010 30 10000 4.6 210 20:44 28.07.2020
160 Clear 37 1010 26 10000 6.2 220 20:20 28.07.2020
161 Clear 37 1011 26 10000 6.2 220 19:47 28.07.2020
162 Clear 37 1011 29 10000 5.1 220 19:21 28.07.2020
163 Clear 37 1011 32 10000 5.1 220 18:51 28.07.2020
164 Clear 37 1011 35 10000 5.1 230 18:21 28.07.2020
165 Clear 37 1012 30 10000 3.6 220 17:22 28.07.2020
166 Clear 37 1011 29 10000 3.6 240 17:22 28.07.2020
167 Clear 37 1012 27 10000 3.6 240 16:45 28.07.2020
168 Clear 35 1013 41 10000 2.6 230 15:43 28.07.2020
169 Clear 34 1013 44 10000 2.6 160 14:58 28.07.2020
170 Clear 33 1013 46 10000 2.1 170 14:38 28.07.2020
171 Clear 32 1013 49 10000 1.5 240 13:53 28.07.2020
172 Clear 31 1014 58 10000 1.5 180 12:59 28.07.2020
173 Clear 30 1014 62 10000 1 0 12:26 28.07.2020
174 Clear 29 1014 65 10000 1.5 210 11:58 28.07.2020
175 Clear 28 1014 74 10000 0.5 0 11:25 28.07.2020
176 Clear 27 1014 69 10000 0.5 50 10:44 28.07.2020
177 Mist 25 1014 88 5000 1 0 10:23 28.07.2020
178 Clouds 24 1014 88 8000 1 0 09:45 28.07.2020
179 Clouds 24 1014 88 8000 1 0 09:27 28.07.2020
180 Clear 23 1014 94 10000 0.5 230 08:48 28.07.2020
181 Clear 22 1014 94 9000 1.04 48 08:27 28.07.2020
182 Clear 22 1014 88 10000 1.5 140 07:49 28.07.2020
183 Clear 24 1014 83 10000 3.6 220 03:40 28.07.2020
184 Clear 24 1015 73 10000 4.1 210 02:20 28.07.2020
185 Clear 25 1015 73 10000 3.6 200 01:48 28.07.2020
186 Clear 26 1014 61 10000 3.1 190 00:26 28.07.2020
187 Clear 28 1014 48 10000 3.6 220 23:27 27.07.2020
188 Clear 29 1014 37 10000 5.1 220 22:56 27.07.2020
189 Clear 30 1013 35 10000 3.1 220 22:22 27.07.2020
190 Clear 31 1013 27 10000 4.6 240 21:50 27.07.2020
191 Clear 32 1013 27 10000 4.6 240 21:30 27.07.2020
192 Clear 33 1012 30 10000 6.7 240 20:43 27.07.2020
193 Clear 34 1012 30 10000 6.2 220 20:21 27.07.2020
194 Clear 34 1012 30 10000 6.2 220 19:45 27.07.2020
195 Clear 34 1010 36 10000 3.58 244 19:26 27.07.2020
196 Clear 35 1013 32 10000 6.2 230 18:34 27.07.2020
197 Clear 34 1013 38 10000 5.1 210 17:47 27.07.2020
198 Clear 34 1013 38 10000 5.1 210 17:26 27.07.2020
199 Clear 34 1014 46 10000 5.1 210 16:27 27.07.2020
200 Clear 33 1014 46 10000 5.1 210 15:55 27.07.2020
201 Clear 33 1014 46 10000 5.1 210 15:36 27.07.2020
202 Clear 32 1014 49 10000 5.1 220 15:18 27.07.2020
203 Clear 32 1014 52 10000 4.6 220 14:43 27.07.2020
204 Clear 32 1014 52 10000 4.6 220 14:43 27.07.2020
205 Clear 31 1015 55 10000 4.6 240 14:20 27.07.2020
206 Clear 30 1015 62 10000 4.6 240 13:31 27.07.2020
207 Clear 30 1015 62 10000 3.1 230 12:54 27.07.2020
208 Clouds 29 1015 62 10000 2.6 210 12:35 27.07.2020
209 Clear 29 1015 69 10000 3.6 230 11:58 27.07.2020
210 Clear 28 1015 74 10000 3.1 210 11:22 27.07.2020
211 Clear 27 1015 78 10000 2.6 210 10:41 27.07.2020
212 Clear 25 1014 78 10000 2.6 250 09:43 27.07.2020
213 Clear 25 1014 73 10000 2.1 250 09:21 27.07.2020
214 Clear 25 1014 73 10000 2.1 250 08:59 27.07.2020
215 Clear 24 1014 69 10000 0.5 0 08:40 27.07.2020
216 Clear 25 1013 60 10000 2.1 260 07:51 27.07.2020
217 Clouds 26 1013 50 10000 2.1 320 06:46 27.07.2020
218 Clouds 26 1013 50 10000 2.1 320 06:25 27.07.2020
219 Clear 28 1013 51 10000 4.6 240 02:19 27.07.2020
220 Clear 29 1013 45 10000 5.7 230 00:53 27.07.2020
221 Clear 30 1010 40 10000 5.1 220 23:34 26.07.2020
222 Clear 32 1010 38 10000 5.1 210 22:59 26.07.2020
223 Clear 32 1009 38 10000 4.1 210 22:38 26.07.2020
224 Clear 35 1008 32 10000 5.1 210 22:18 26.07.2020
225 Clear 35 1008 25 10000 4.1 220 21:43 26.07.2020
226 Clear 38 1008 22 10000 3.1 210 21:21 26.07.2020
227 Clear 38 1008 21 10000 2.6 220 20:49 26.07.2020
228 Clear 39 1008 21 10000 2.6 220 20:24 26.07.2020
229 Clear 40 1008 19 10000 4.1 220 19:44 26.07.2020
230 Clear 41 1009 14 10000 3.6 260 19:23 26.07.2020
231 Clear 40 1009 16 10000 3.6 300 18:46 26.07.2020
232 Clear 42 1009 16 10000 3.6 300 18:27 26.07.2020
233 Clear 41 1009 18 10000 3.6 300 17:49 26.07.2020
234 Clear 41 1009 18 10000 3.6 300 17:26 26.07.2020
235 Clear 41 1010 16 10000 2.1 240 16:53 26.07.2020
236 Clear 41 1010 16 10000 2.1 240 16:27 26.07.2020
237 Clear 39 1011 20 10000 2.1 210 15:45 26.07.2020
238 Clear 39 1011 20 10000 2.1 210 15:25 26.07.2020
239 Clear 38 1011 22 10000 1.5 270 14:59 26.07.2020
240 Clear 37 1011 23 10000 1.5 190 14:37 26.07.2020
241 Clear 36 1012 26 10000 1.5 210 13:54 26.07.2020
242 Clear 35 1012 28 10000 1 340 13:20 26.07.2020
243 Clear 34 1012 28 10000 1 40 12:44 26.07.2020
244 Clear 34 1012 28 10000 1 40 12:23 26.07.2020
245 Clear 32 1012 33 10000 0.5 140 11:51 26.07.2020
246 Clear 32 1012 33 10000 0.5 140 11:32 26.07.2020
247 Clear 30 1012 39 10000 1 0 10:50 26.07.2020
248 Clear 28 1012 48 10000 0.5 0 10:23 26.07.2020
249 Clear 27 1012 51 10000 1 0 09:41 26.07.2020
250 Clear 25 1012 57 10000 1 90 08:56 26.07.2020
251 Clear 24 1011 64 10000 1.5 70 08:19 26.07.2020
252 Clear 25 1011 61 10000 0.5 160 06:57 26.07.2020
253 Clear 26 1011 51 10000 2.1 200 03:53 26.07.2020
254 Clear 28 1011 42 10000 2.6 200 01:45 26.07.2020
255 Clear 30 1011 33 10000 3.6 280 00:31 26.07.2020
256 Clear 32 1010 30 10000 3.6 250 23:40 25.07.2020
257 Clear 33 1010 28 10000 4.1 240 22:57 25.07.2020
258 Clear 34 1010 28 10000 4.6 250 22:22 25.07.2020
259 Clear 36 1009 23 10000 4.6 250 21:29 25.07.2020
260 Clear 37 1009 22 10000 5.1 260 20:57 25.07.2020
261 Clear 38 1009 21 10000 4.6 240 20:36 25.07.2020
262 Clear 38 1009 24 10000 4.1 230 19:53 25.07.2020
263 Clear 39 1009 24 10000 4.1 230 19:24 25.07.2020
264 Clear 39 1010 20 10000 2.6 230 18:44 25.07.2020
265 Clear 39 1010 20 10000 2.6 230 18:24 25.07.2020
266 Clear 39 1010 21 10000 2.6 180 17:57 25.07.2020
267 Clear 39 1010 18 10000 2.6 210 17:36 25.07.2020
268 Clear 39 1010 18 10000 3.1 220 17:18 25.07.2020
269 Clear 39 1011 19 10000 3.1 200 16:47 25.07.2020
270 Clear 38 1011 21 10000 2.1 240 16:24 25.07.2020
271 Clear 38 1011 23 10000 2.6 190 15:42 25.07.2020
272 Clear 38 1011 23 10000 2.6 0 15:21 25.07.2020
273 Clear 37 1012 25 10000 1.5 190 14:37 25.07.2020
274 Clear 36 1012 30 10000 1.5 240 14:18 25.07.2020
275 Clear 36 1012 30 10000 2.1 210 13:40 25.07.2020
276 Clear 34 1012 29 10000 1.5 210 13:21 25.07.2020
277 Clear 34 1012 29 10000 1.5 210 12:54 25.07.2020
278 Clear 33 1012 33 10000 1.5 290 12:19 25.07.2020
279 Clear 32 1012 37 10000 1.5 310 11:42 25.07.2020
280 Clear 31 1012 37 10000 1.5 310 11:20 25.07.2020
281 Clear 30 1012 37 10000 1 310 10:42 25.07.2020
282 Clear 29 1012 42 10000 0.5 260 10:24 25.07.2020
283 Clear 27 1012 42 10000 1.4 81 09:47 25.07.2020
284 Clear 26 1012 47 10000 0.5 0 09:24 25.07.2020
285 Clear 25 1012 50 10000 1.26 39 08:57 25.07.2020
286 Clear 25 1011 53 10000 1 0 08:24 25.07.2020
287 Clear 24 1011 56 10000 2.1 40 07:52 25.07.2020
288 Clear 24 1011 53 10000 1.5 50 07:31 25.07.2020
289 Clear 24 1011 50 10000 1 0 06:29 25.07.2020
290 Clear 26 1011 50 10000 3.1 150 03:22 25.07.2020
291 Clear 27 1011 39 10000 1 0 02:32 25.07.2020
292 Clear 29 1011 37 10000 2.1 190 01:36 25.07.2020
293 Clear 28 1012 39 10000 3.1 200 01:18 25.07.2020
294 Clear 28 1012 39 10000 2.6 210 00:44 25.07.2020
295 Clear 29 1011 37 10000 4.1 200 00:21 25.07.2020
296 Clear 30 1011 38 10000 3.1 210 23:49 24.07.2020
297 Clear 30 1011 38 10000 3.1 210 23:29 24.07.2020
298 Clear 31 1011 35 10000 4.1 220 22:57 24.07.2020
299 Clear 32 1010 31 10000 4.1 220 22:39 24.07.2020
300 Clear 34 1010 19 10000 5.1 240 22:20 24.07.2020
301 Clear 36 1010 17 10000 4.6 260 21:43 24.07.2020
302 Clear 37 1010 17 10000 4.6 260 21:24 24.07.2020
303 Clear 38 1010 16 10000 4.6 250 20:43 24.07.2020
304 Clear 38 1010 16 10000 4.6 250 20:23 24.07.2020
305 Clear 39 1010 18 10000 5.1 270 19:44 24.07.2020
306 Clear 39 1010 18 10000 5.1 270 19:24 24.07.2020
307 Clear 39 1010 20 10000 4.6 240 18:34 24.07.2020
308 Clear 39 1011 21 10000 4.6 210 17:54 24.07.2020
309 Clear 39 1011 20 10000 4.1 230 17:20 24.07.2020
310 Clear 38 1011 21 10000 3.6 230 16:53 24.07.2020
311 Clear 38 1011 21 10000 3.6 230 16:30 24.07.2020
312 Clear 38 1012 30 10000 4.6 210 15:59 24.07.2020
313 Clear 38 1012 30 10000 4.6 210 15:41 24.07.2020
314 Clear 37 1012 32 10000 3.1 0 15:19 24.07.2020
315 Clear 36 1012 32 10000 3.6 210 14:42 24.07.2020
316 Clear 36 1013 28 10000 1.5 220 13:55 24.07.2020
317 Clear 35 1013 38 10000 2.6 210 13:37 24.07.2020
318 Clear 35 1013 43 10000 3.1 210 13:19 24.07.2020
319 Clear 33 1013 43 10000 2.1 230 12:38 24.07.2020
320 Clear 33 1013 40 10000 2.1 180 12:18 24.07.2020
321 Clear 32 1013 43 10000 1 0 11:23 24.07.2020
322 Clear 30 1013 51 10000 1 0 10:58 24.07.2020
323 Clear 29 1013 51 10000 0.5 0 10:40 24.07.2020
324 Clear 28 1013 61 10000 1 0 10:18 24.07.2020
325 Clear 27 1013 65 10000 1.5 160 09:41 24.07.2020
326 Clear 26 1013 65 10000 1.5 160 09:23 24.07.2020
327 Clear 25 1013 73 10000 1 150 08:55 24.07.2020
328 Clear 24 1012 78 10000 0.5 0 08:36 24.07.2020
329 Clear 24 1012 83 10000 0.5 300 07:57 24.07.2020
330 Clear 24 1012 73 10000 0.5 300 07:37 24.07.2020
331 Clear 24 1012 60 10000 2.1 160 07:18 24.07.2020
332 Clear 25 1012 57 10000 0.5 160 05:57 24.07.2020
333 Clear 25 1012 57 10000 1 160 05:32 24.07.2020
334 Clear 25 1013 54 10000 3.6 170 04:40 24.07.2020
335 Clear 27 1013 48 10000 4.1 190 01:59 24.07.2020
336 Clear 28 1013 40 10000 2.6 190 00:49 24.07.2020
337 Clear 29 1013 40 10000 2.6 190 00:26 24.07.2020
338 Clear 30 1013 31 10000 3.1 240 23:45 23.07.2020
339 Clear 31 1013 35 10000 4.1 230 23:23 23.07.2020
340 Clear 32 1012 33 10000 5.1 220 22:44 23.07.2020
341 Clear 33 1012 33 10000 5.1 220 22:23 23.07.2020
342 Clear 33 1012 26 10000 5.7 240 21:56 23.07.2020
343 Clear 34 1012 26 10000 5.1 240 21:37 23.07.2020
344 Clear 35 1012 28 10000 5.1 230 21:19 23.07.2020
345 Clear 35 1012 28 10000 5.1 230 20:54 23.07.2020
346 Clear 36 1012 30 10000 6.7 220 20:36 23.07.2020
347 Clear 36 1012 29 10000 7.2 230 20:18 23.07.2020
348 Clear 37 1012 30 10000 7.2 230 19:40 23.07.2020
349 Clear 37 1012 29 10000 5.7 240 19:22 23.07.2020
350 Clear 37 1012 29 10000 5.7 240 18:55 23.07.2020
351 Clear 37 1012 24 10000 2.1 280 18:37 23.07.2020
352 Clear 38 1012 22 10000 1 310 18:19 23.07.2020
353 Clear 38 1013 24 10000 2.6 260 17:40 23.07.2020
354 Clear 37 1013 25 10000 3.6 250 17:22 23.07.2020
355 Clear 37 1013 27 10000 3.6 220 16:41 23.07.2020
356 Clear 37 1014 34 10000 4.1 230 16:22 23.07.2020
357 Clear 35 1014 34 10000 4.1 230 15:44 23.07.2020
358 Clear 35 1015 39 10000 3.1 220 15:23 23.07.2020
359 Clear 34 1015 46 10000 2.1 220 14:41 23.07.2020
360 Clear 34 1015 46 10000 2.1 220 14:23 23.07.2020
361 Clear 33 1015 49 10000 3.1 210 13:59 23.07.2020
362 Clear 32 1015 46 10000 2.1 190 13:41 23.07.2020
363 Clear 33 1015 46 10000 2.1 190 13:22 23.07.2020
364 Clear 31 1016 55 10000 1.5 120 12:46 23.07.2020
365 Clear 30 1016 62 10000 1 0 12:23 23.07.2020
366 Clear 30 1016 65 10000 1 0 11:52 23.07.2020
367 Clear 30 1016 65 10000 1 0 11:52 23.07.2020
368 Clear 28 1016 65 10000 1 0 11:27 23.07.2020
369 Clear 28 1016 65 10000 1 0 11:27 23.07.2020
370 Clear 28 1016 69 10000 1 0 10:59 23.07.2020
371 Clear 27 1016 74 10000 1 0 10:40 23.07.2020
372 Clear 27 1016 78 10000 1 0 10:20 23.07.2020
373 Clear 25 1016 83 10000 0.5 0 09:49 23.07.2020
374 Clear 24 1016 83 10000 0.5 0 09:29 23.07.2020
375 Clear 23 1016 83 10000 0.72 135 08:58 23.07.2020
376 Clear 23 1016 94 10000 0.5 210 08:40 23.07.2020
377 Clear 23 1016 88 10000 1 0 07:58 23.07.2020
378 Clear 22 1015 94 10000 1 0 07:37 23.07.2020
379 Clear 22 1015 94 10000 1 0 07:37 23.07.2020
380 Clear 23 1015 83 10000 2.1 180 06:52 23.07.2020
381 Clear 23 1015 83 10000 2.1 180 06:33 23.07.2020
382 Clear 23 1015 78 10000 1.5 180 05:46 23.07.2020
383 Clear 24 1015 78 10000 2.6 190 04:57 23.07.2020
384 Clear 24 1015 78 10000 2.1 210 04:33 23.07.2020
385 Clear 24 1016 69 10000 3.6 220 03:20 23.07.2020
386 Clear 27 1016 51 10000 4.6 270 00:37 23.07.2020
387 Clear 28 1016 51 10000 4.1 280 00:18 23.07.2020
388 Clear 28 1015 51 10000 4.6 270 23:42 22.07.2020
389 Clear 28 1015 51 10000 4.6 270 23:23 22.07.2020
390 Clear 29 1015 54 10000 5.1 220 22:41 22.07.2020
391 Clear 29 1015 54 10000 5.1 220 22:23 22.07.2020
392 Clear 30 1014 51 10000 4.6 220 21:57 22.07.2020
393 Clear 31 1014 48 10000 5.1 220 21:39 22.07.2020
394 Clear 31 1014 46 10000 5.7 230 21:18 22.07.2020
395 Clear 31 1014 46 10000 5.7 230 20:57 22.07.2020
396 Clear 33 1014 43 10000 4.6 230 20:37 22.07.2020
397 Clear 32 1014 46 10000 5.7 230 20:19 22.07.2020
398 Clear 33 1014 43 10000 6.2 220 19:46 22.07.2020
399 Clear 33 1014 43 10000 6.2 220 19:28 22.07.2020
400 Clear 35 1014 34 10000 3.1 220 18:59 22.07.2020
401 Clear 34 1014 36 10000 3.1 220 18:34 22.07.2020
402 Clear 34 1015 34 10000 2.6 260 17:59 22.07.2020
403 Clear 33 1015 36 10000 1 20 17:41 22.07.2020
404 Clear 33 1015 36 10000 1 20 17:22 22.07.2020
405 Clear 33 1015 36 10000 2.6 270 16:56 22.07.2020
406 Clear 32 1016 43 10000 3.1 190 16:37 22.07.2020
407 Clear 32 1016 43 10000 3.1 190 16:19 22.07.2020
408 Clear 31 1016 43 10000 3.1 190 15:46 22.07.2020
409 Clear 31 1016 43 10000 3.1 190 15:26 22.07.2020
410 Clear 30 1017 48 10000 1.5 0 14:56 22.07.2020
411 Clear 30 1017 48 10000 2.6 190 14:38 22.07.2020
412 Clouds 30 1017 51 10000 2.6 220 14:18 22.07.2020
413 Clouds 30 1017 51 10000 3.1 220 13:40 22.07.2020
414 Clouds 29 1017 51 10000 1 0 13:22 22.07.2020
415 Clouds 29 1017 51 10000 1 0 13:22 22.07.2020
416 Clouds 29 1017 54 10000 2.1 200 12:47 22.07.2020
417 Clouds 28 1017 54 10000 2.1 200 12:28 22.07.2020
418 Clouds 27 1017 65 10000 2.6 200 11:57 22.07.2020
419 Clouds 27 1017 69 10000 1.5 0 11:39 22.07.2020
420 Clouds 26 1017 73 10000 2.1 240 11:19 22.07.2020
421 Clouds 25 1017 73 10000 2.1 200 10:42 22.07.2020
422 Clouds 25 1017 73 10000 2.1 200 10:24 22.07.2020
423 Clouds 25 1017 73 10000 1.5 220 09:59 22.07.2020
424 Clouds 24 1017 78 10000 1 0 09:40 22.07.2020
425 Clouds 23 1016 83 10000 1.5 170 09:20 22.07.2020
426 Clouds 23 1016 88 10000 2.1 170 08:40 22.07.2020
427 Clouds 23 1016 83 10000 1 230 08:21 22.07.2020
428 Clouds 23 1016 83 10000 0.5 140 07:37 22.07.2020
429 Clouds 24 1016 73 10000 0.5 0 07:18 22.07.2020
430 Clouds 24 1016 73 10000 0.5 0 06:18 22.07.2020
431 Clouds 24 1016 73 10000 0.5 0 05:54 22.07.2020
432 Clouds 24 1016 73 10000 1 0 05:26 22.07.2020
433 Clouds 24 1016 73 10000 2.1 320 04:24 22.07.2020
434 Clouds 24 1016 69 10000 3.1 230 02:53 22.07.2020
435 Clouds 24 1016 69 10000 4.1 230 01:44 22.07.2020
436 Clear 25 1015 73 10000 4.6 220 00:33 22.07.2020
437 Clear 25 1015 65 10000 4.1 220 23:56 21.07.2020
438 Clear 26 1015 65 10000 4.6 220 23:38 21.07.2020
439 Clear 26 1014 65 10000 4.6 220 23:18 21.07.2020
440 Clear 26 1014 65 10000 4.6 220 22:56 21.07.2020
441 Clear 27 1014 65 10000 5.1 210 22:37 21.07.2020
442 Clear 27 1013 61 10000 5.7 220 22:19 21.07.2020
443 Clear 28 1013 61 10000 5.7 220 21:55 21.07.2020
444 Clear 28 1013 58 10000 5.1 220 21:36 21.07.2020
445 Clear 29 1012 51 10000 4.6 230 21:18 21.07.2020
446 Clear 29 1012 51 10000 5.1 220 20:43 21.07.2020
447 Clear 30 1012 51 10000 5.1 220 20:23 21.07.2020
448 Clear 30 1012 48 10000 4.6 240 19:46 21.07.2020
449 Clear 31 1012 48 10000 5.7 230 19:22 21.07.2020
450 Clear 31 1012 46 10000 5.7 230 18:56 21.07.2020
451 Clear 31 1012 46 10000 5.7 230 18:37 21.07.2020
452 Clear 32 1013 46 10000 5.7 240 18:18 21.07.2020
453 Clear 32 1013 46 10000 6.2 240 17:39 21.07.2020
454 Clear 33 1013 43 10000 4.1 270 17:21 21.07.2020
455 Clear 32 1013 46 10000 4.1 240 16:42 21.07.2020
456 Clear 32 1013 52 10000 4.1 210 16:22 21.07.2020
457 Clear 32 1013 52 10000 4.1 210 15:48 21.07.2020
458 Clear 32 1013 52 10000 4.1 210 15:28 21.07.2020
459 Clear 31 1013 52 10000 3.6 220 14:59 21.07.2020
460 Clear 30 1013 52 10000 3.6 220 14:40 21.07.2020
461 Clouds 31 1014 58 10000 3.6 280 14:19 21.07.2020
462 Clouds 29 1014 62 10000 4.1 260 13:43 21.07.2020
463 Rain 29 1014 62 10000 4.1 260 13:25 21.07.2020
464 Thunderstorm 28 1014 69 10000 4.1 260 12:59 21.07.2020
465 Clouds 28 1014 61 10000 4.1 270 12:41 21.07.2020
466 Clouds 27 1014 69 10000 4.1 280 12:20 21.07.2020
467 Rain 27 1014 69 10000 4.1 280 11:55 21.07.2020
468 Rain 26 1014 69 10000 2.6 270 11:37 21.07.2020
469 Rain 26 1014 65 10000 2.6 250 11:18 21.07.2020
470 Clouds 26 1013 65 10000 3.6 280 10:42 21.07.2020
471 Clouds 27 1012 57 10000 2.6 250 10:21 21.07.2020
472 Clouds 26 1013 57 10000 2.6 260 09:46 21.07.2020
473 Clouds 26 1013 57 10000 2.6 260 09:25 21.07.2020
474 Clouds 25 1012 57 10000 1 290 08:47 21.07.2020
475 Clouds 25 1012 57 10000 1 290 08:26 21.07.2020
476 Clouds 25 1012 50 10000 1.5 270 07:58 21.07.2020
477 Clouds 26 1012 50 10000 1.5 270 07:40 21.07.2020
478 Clouds 26 1012 50 10000 3.1 270 07:21 21.07.2020
479 Thunderstorm 26 1012 50 10000 2.6 260 06:40 21.07.2020
480 Rain 28 1011 51 10000 2.6 320 04:31 21.07.2020
481 Rain 29 1012 39 10000 3.6 330 03:32 21.07.2020
482 Clouds 30 1012 38 10000 2.1 340 02:23 21.07.2020
483 Clouds 32 1010 31 10000 3.1 230 00:59 21.07.2020
484 Clouds 31 1010 43 10000 0.5 0 00:38 21.07.2020
485 Clouds 33 1010 38 10000 0.5 0 00:19 21.07.2020
486 Clouds 32 1009 43 10000 0.5 0 23:46 20.07.2020
487 Clouds 32 1009 43 10000 0.5 0 23:27 20.07.2020
488 Clouds 32 1009 43 10000 0.5 0 23:27 20.07.2020
489 Clouds 33 1009 38 10000 1.5 180 22:59 20.07.2020
490 Clouds 34 1009 36 10000 2.1 200 22:39 20.07.2020
491 Clouds 35 1009 34 10000 3.6 220 22:18 20.07.2020
492 Clouds 35 1008 30 10000 4.6 220 21:45 20.07.2020
493 Clouds 36 1008 30 10000 4.6 220 21:27 20.07.2020
494 Clouds 37 1008 24 10000 6.7 210 20:59 20.07.2020
495 Clouds 38 1008 20 10000 6.2 220 20:41 20.07.2020
496 Clouds 38 1007 34 10000 3.58 202 20:20 20.07.2020
497 Clouds 39 1006 27 10000 3.58 205 19:39 20.07.2020
498 Clouds 40 1006 27 10000 4.02 224 19:19 20.07.2020
499 Clouds 42 1007 14 10000 3.6 340 18:58 20.07.2020
500 Clouds 42 1008 16 10000 4.1 300 18:40 20.07.2020
501 Clouds 41 1008 16 10000 3.1 320 18:19 20.07.2020
502 Clouds 41 1009 16 10000 3.1 310 17:44 20.07.2020
503 Clear 41 1009 16 10000 3.1 310 17:24 20.07.2020
504 Clear 41 1010 20 10000 3.6 310 16:50 20.07.2020
505 Clear 40 1010 21 10000 1.5 20 16:21 20.07.2020
506 Clear 40 1010 21 10000 1.5 20 15:47 20.07.2020
507 Clear 39 1011 25 10000 2.6 40 15:20 20.07.2020
508 Clear 39 1011 25 10000 2.6 40 14:57 20.07.2020
509 Clear 38 1011 25 10000 2.6 40 14:38 20.07.2020
510 Clear 38 1011 25 10000 2.6 80 14:19 20.07.2020
511 Clear 37 1011 25 10000 2.6 80 13:57 20.07.2020
512 Clear 36 1011 36 10000 2.1 50 13:39 20.07.2020
513 Clear 36 1012 34 10000 3.1 50 13:19 20.07.2020
514 Clear 34 1012 34 10000 3.1 50 12:55 20.07.2020
515 Clear 33 1012 40 6000 3.1 60 12:37 20.07.2020
516 Clear 32 1012 43 10000 3.1 30 12:18 20.07.2020
517 Clear 30 1012 51 10000 2.1 20 11:44 20.07.2020
518 Clear 30 1012 51 10000 2.1 20 11:23 20.07.2020
519 Clear 28 1012 61 10000 1.5 340 10:59 20.07.2020
520 Clear 28 1012 61 10000 1.5 340 10:41 20.07.2020
521 Clear 26 1012 65 10000 1 0 10:21 20.07.2020
522 Clear 25 1012 65 10000 1 0 09:43 20.07.2020
523 Clear 25 1012 65 10000 1 0 09:23 20.07.2020
524 Clear 23 1012 78 10000 1 50 08:50 20.07.2020
525 Clear 23 1012 78 10000 1 50 08:27 20.07.2020
526 Clear 23 1012 83 10000 0.5 0 07:57 20.07.2020
527 Clear 23 1012 83 10000 0.5 0 07:37 20.07.2020
528 Clear 24 1012 78 10000 1.5 40 07:18 20.07.2020
529 Clear 23 1012 78 10000 1.5 40 06:39 20.07.2020
530 Clear 24 1012 69 10000 3.1 190 03:59 20.07.2020
531 Clear 26 1013 57 10000 2.6 180 02:20 20.07.2020
532 Clear 29 1012 45 10000 1.5 220 00:48 20.07.2020
533 Clear 29 1012 40 10000 1.5 220 23:57 19.07.2020
534 Clear 32 1012 35 10000 2.6 230 23:37 19.07.2020
535 Clear 31 1012 31 10000 3.1 230 23:19 19.07.2020
536 Clear 34 1012 30 10000 4.1 240 22:42 19.07.2020
537 Clear 33 1011 28 10000 3.6 250 22:20 19.07.2020
538 Clear 34 1011 28 10000 3.6 250 21:56 19.07.2020
539 Clear 34 1011 26 10000 3.6 250 21:37 19.07.2020
540 Clear 35 1011 26 10000 4.6 240 21:19 19.07.2020
541 Clear 35 1011 26 10000 4.6 240 20:54 19.07.2020
542 Clear 35 1011 25 10000 4.6 240 20:36 19.07.2020
543 Clear 36 1011 23 10000 5.7 270 20:18 19.07.2020
544 Clear 37 1011 25 10000 4.6 240 19:40 19.07.2020
545 Clear 37 1012 23 10000 5.7 240 19:20 19.07.2020
546 Clear 37 1010 31 10000 2.68 269 18:59 19.07.2020
547 Clear 37 1012 29 10000 5.1 230 18:40 19.07.2020
548 Clear 36 1012 34 10000 4.6 220 18:22 19.07.2020
549 Clear 36 1012 30 10000 4.6 230 17:43 19.07.2020
550 Clear 36 1012 30 10000 4.6 230 17:24 19.07.2020
551 Clear 36 1013 30 10000 4.1 230 16:55 19.07.2020
552 Clear 36 1013 30 10000 3.6 210 16:37 19.07.2020
553 Clear 35 1013 32 10000 4.6 230 16:18 19.07.2020
554 Clear 34 1014 34 10000 4.1 230 15:44 19.07.2020
555 Clear 34 1014 34 10000 4.1 230 15:25 19.07.2020
556 Clear 33 1014 36 10000 3.6 220 14:47 19.07.2020
557 Clear 33 1014 36 10000 3.6 220 14:26 19.07.2020
558 Clear 32 1014 40 10000 3.6 240 13:57 19.07.2020
559 Clear 31 1014 43 10000 3.6 220 13:39 19.07.2020
560 Clear 31 1015 45 10000 3.6 230 13:19 19.07.2020
561 Clear 30 1015 48 10000 3.1 230 12:45 19.07.2020
562 Clear 30 1015 48 10000 3.1 230 12:24 19.07.2020
563 Clear 29 1015 54 10000 2.1 260 11:44 19.07.2020
564 Clear 28 1015 54 10000 2.1 260 11:26 19.07.2020
565 Clear 27 1015 69 10000 2.6 300 10:57 19.07.2020
566 Clear 27 1015 73 10000 2.1 280 10:39 19.07.2020
567 Clear 26 1015 78 10000 2.1 330 10:20 19.07.2020
568 Clear 25 1014 78 10000 2.1 340 09:44 19.07.2020
569 Clear 24 1014 83 10000 1.5 360 09:21 19.07.2020
570 Clear 23 1014 88 10000 1 0 08:47 19.07.2020
571 Clear 23 1014 88 10000 1 0 08:26 19.07.2020
572 Clear 23 1014 88 10000 1.5 220 07:47 19.07.2020
573 Clear 23 1014 88 10000 1.5 220 07:26 19.07.2020
574 Clear 23 1014 83 10000 1 0 06:48 19.07.2020
575 Clear 23 1014 78 10000 1.5 170 06:21 19.07.2020
576 Clear 23 1014 78 10000 2.1 210 05:51 19.07.2020
577 Clear 24 1014 83 10000 4.1 220 04:44 19.07.2020
578 Clear 25 1014 65 10000 3.1 210 02:46 19.07.2020
579 Clear 25 1014 65 10000 3.1 210 02:23 19.07.2020
580 Clear 26 1014 57 10000 3.6 210 01:44 19.07.2020
581 Clear 26 1014 57 10000 4.1 210 00:53 19.07.2020
582 Clear 27 1014 58 10000 3.6 210 00:23 19.07.2020
583 Clear 27 1014 58 10000 3.6 210 23:55 18.07.2020
584 Clear 29 1013 54 10000 4.1 220 23:37 18.07.2020
585 Clear 29 1013 48 10000 4.1 210 23:18 18.07.2020
586 Clear 30 1012 33 10000 4.6 240 22:40 18.07.2020
587 Clear 31 1012 31 10000 5.1 260 22:19 18.07.2020
588 Clear 31 1012 33 10000 5.7 240 21:48 18.07.2020
589 Clear 33 1012 33 10000 5.7 240 21:29 18.07.2020
590 Clear 33 1012 36 10000 5.7 230 20:58 18.07.2020
591 Clear 34 1011 34 10000 5.7 240 20:40 18.07.2020
592 Clear 34 1010 43 10000 4.02 241 20:20 18.07.2020
593 Clear 35 1011 28 10000 6.2 250 19:41 18.07.2020
594 Clear 35 1011 30 10000 5.7 240 19:21 18.07.2020
595 Clear 35 1012 30 10000 6.7 260 18:46 18.07.2020
596 Clear 36 1012 28 10000 6.2 220 18:22 18.07.2020
597 Clear 36 1012 32 10000 5.7 230 17:54 18.07.2020
598 Clear 36 1012 32 10000 5.7 230 17:36 18.07.2020
599 Clear 36 1012 32 10000 5.7 240 17:18 18.07.2020
600 Clear 35 1012 32 10000 4.1 220 16:41 18.07.2020
601 Clear 35 1013 32 10000 4.1 240 16:21 18.07.2020
602 Clear 35 1013 32 10000 4.1 240 15:57 18.07.2020
603 Clear 34 1013 36 10000 4.1 220 15:38 18.07.2020
604 Clear 35 1013 36 10000 4.6 240 15:19 18.07.2020
605 Clear 33 1013 38 10000 4.1 220 14:40 18.07.2020
606 Clear 33 1013 35 10000 4.1 240 14:22 18.07.2020
607 Clear 32 1014 35 10000 3.1 260 13:45 18.07.2020
608 Clear 32 1014 35 10000 3.1 260 13:27 18.07.2020
609 Clear 32 1014 38 10000 2.6 290 12:58 18.07.2020
610 Clear 31 1014 40 10000 1 250 12:40 18.07.2020
611 Clear 30 1014 45 10000 1.5 320 12:20 18.07.2020
612 Clear 30 1014 45 10000 1.5 320 11:58 18.07.2020
613 Clear 29 1013 48 10000 1.5 300 11:39 18.07.2020
614 Clear 29 1014 47 10000 2.6 310 11:19 18.07.2020
615 Clear 28 1013 47 10000 2.6 280 10:47 18.07.2020
616 Clear 27 1013 47 10000 2.6 280 10:27 18.07.2020
617 Clear 26 1013 54 10000 3.1 290 09:56 18.07.2020
618 Clear 26 1013 57 10000 3.6 300 09:37 18.07.2020
619 Clear 26 1013 57 10000 2.6 300 09:19 18.07.2020
620 Clear 25 1013 57 10000 1 0 08:44 18.07.2020
621 Clear 25 1013 57 10000 1 0 08:24 18.07.2020
622 Clear 25 1012 61 10000 2.6 230 07:44 18.07.2020
623 Clear 25 1012 65 10000 3.1 220 07:23 18.07.2020
624 Clear 25 1012 65 10000 4.1 220 06:52 18.07.2020
625 Clear 25 1012 65 10000 4.1 220 06:52 18.07.2020
626 Clear 26 1012 57 10000 4.1 210 05:26 18.07.2020
627 Clear 26 1012 57 10000 3.6 210 04:29 18.07.2020
628 Clear 27 1012 51 10000 3.1 210 02:39 18.07.2020
629 Clear 27 1012 51 10000 3.1 210 02:39 18.07.2020
630 Clear 28 1012 42 10000 3.6 240 01:27 18.07.2020
631 Clear 30 1012 38 10000 3.1 260 00:42 18.07.2020
632 Clear 31 1012 35 10000 6.2 280 00:22 18.07.2020
633 Clear 32 1011 35 10000 6.2 260 23:40 17.07.2020
634 Clear 32 1011 33 10000 4.6 260 23:21 17.07.2020
635 Clear 32 1011 33 10000 4.6 260 22:59 17.07.2020
636 Clear 32 1011 30 10000 5.7 260 22:39 17.07.2020
637 Clear 33 1010 30 10000 6.7 250 22:19 17.07.2020
638 Clear 34 1010 28 10000 5.7 240 21:43 17.07.2020
639 Clear 34 1010 28 10000 5.7 240 21:24 17.07.2020
640 Clear 35 1010 28 10000 6.7 240 20:59 17.07.2020
641 Clear 36 1010 25 10000 5.7 230 20:40 17.07.2020
642 Clear 36 1008 34 10000 3.58 248 20:21 17.07.2020
643 Clear 36 1008 32 10000 3.58 235 19:54 17.07.2020
644 Clear 37 1010 18 10000 3.6 230 19:36 17.07.2020
645 Clear 38 1010 17 10000 3.6 220 19:18 17.07.2020
646 Clear 39 1010 16 10000 2.1 240 18:42 17.07.2020
647 Clear 39 1010 16 10000 2.1 240 18:24 17.07.2020
648 Clear 38 1011 18 10000 3.1 180 17:43 17.07.2020
649 Clear 38 1011 18 10000 3.1 180 17:25 17.07.2020
650 Clear 37 1012 18 10000 3.1 230 16:44 17.07.2020
651 Clear 37 1012 19 10000 3.6 210 16:23 17.07.2020
652 Clear 37 1012 19 10000 3.6 210 15:56 17.07.2020
653 Clear 37 1012 19 10000 3.6 210 15:37 17.07.2020
654 Clear 37 1012 25 10000 3.6 200 15:18 17.07.2020
655 Clear 36 1012 25 10000 3.6 200 14:40 17.07.2020
656 Clouds 36 1013 20 10000 1 60 14:21 17.07.2020
657 Clouds 36 1013 30 10000 4.1 200 13:55 17.07.2020
658 Clouds 36 1013 30 10000 4.1 200 13:36 17.07.2020
659 Clouds 35 1013 20 10000 2.1 130 13:18 17.07.2020
660 Clouds 34 1013 20 10000 2.1 130 12:39 17.07.2020
661 Clouds 33 1013 27 10000 2.1 20 12:20 17.07.2020
662 Clouds 32 1013 27 10000 2.1 20 11:54 17.07.2020
663 Clouds 32 1013 27 10000 2.1 20 11:36 17.07.2020
664 Clear 31 1013 35 10000 2.6 40 11:18 17.07.2020
665 Clear 30 1013 35 10000 2.6 40 10:54 17.07.2020
666 Clear 29 1013 35 10000 2.6 40 10:36 17.07.2020
667 Clouds 28 1013 51 10000 2.1 360 10:18 17.07.2020
668 Clouds 27 1013 51 10000 2.1 360 09:40 17.07.2020
669 Clear 24 1013 60 10000 1 0 09:20 17.07.2020
670 Clear 24 1013 60 10000 1 0 08:48 17.07.2020
671 Clear 24 1013 60 10000 1 0 08:29 17.07.2020
672 Clear 23 1013 64 10000 1.5 10 07:57 17.07.2020
673 Clear 23 1013 64 10000 1.5 10 07:38 17.07.2020
674 Clear 24 1013 60 10000 2.1 40 07:18 17.07.2020
675 Clear 24 1013 60 10000 1 90 06:41 17.07.2020
676 Clear 27 1013 51 10000 2.1 290 05:49 17.07.2020
677 Clear 27 1013 51 10000 1.5 310 03:56 17.07.2020
678 Clear 27 1013 37 10000 3.1 240 02:23 17.07.2020
679 Clear 29 1013 37 10000 4.6 220 01:18 17.07.2020
680 Clear 29 1013 35 10000 4.6 220 00:42 17.07.2020
681 Clear 30 1012 35 10000 4.1 210 00:20 17.07.2020
682 Clear 31 1012 35 10000 4.1 210 23:43 16.07.2020
683 Clear 32 1011 33 10000 4.6 210 23:20 16.07.2020
684 Clear 33 1011 28 10000 3.6 210 22:46 16.07.2020
685 Clear 34 1011 28 10000 3.6 210 22:25 16.07.2020
686 Clear 34 1011 26 10000 3.1 220 21:57 16.07.2020
687 Clear 36 1011 18 10000 2.6 160 21:39 16.07.2020
688 Clear 39 1011 16 10000 3.6 90 21:21 16.07.2020
689 Clear 37 1011 16 10000 3.6 90 20:59 16.07.2020
690 Clear 38 1011 15 10000 4.1 90 20:41 16.07.2020
691 Clear 39 1011 14 10000 3.1 90 20:22 16.07.2020
692 Clear 40 1011 14 10000 3.1 90 19:57 16.07.2020
693 Clear 40 1011 15 10000 4.1 90 19:39 16.07.2020
694 Clear 40 1011 15 10000 4.6 90 19:21 16.07.2020
695 Clear 39 1011 16 10000 3.6 100 18:42 16.07.2020
696 Clear 39 1011 16 10000 4.1 90 18:23 16.07.2020
697 Clear 39 1011 17 10000 3.6 80 17:55 16.07.2020
698 Clear 39 1011 17 10000 3.6 80 17:36 16.07.2020
699 Clear 39 1011 17 10000 5.1 100 17:18 16.07.2020
700 Clear 39 1012 17 10000 3.1 90 16:42 16.07.2020
701 Clear 39 1012 22 10000 3.1 0 16:22 16.07.2020
702 Clear 39 1012 22 10000 3.1 0 15:59 16.07.2020
703 Clear 39 1012 22 10000 3.1 0 15:40 16.07.2020
704 Clear 38 1013 20 10000 2.1 90 15:22 16.07.2020
705 Clear 38 1013 20 10000 2.1 90 14:55 16.07.2020
706 Clear 37 1013 20 10000 2.1 90 14:36 16.07.2020
707 Clouds 37 1013 22 10000 3.6 100 14:18 16.07.2020
708 Clouds 36 1013 22 10000 3.6 100 13:39 16.07.2020
709 Clouds 35 1014 26 10000 4.1 60 13:20 16.07.2020
710 Clouds 35 1014 26 10000 4.1 60 12:56 16.07.2020
711 Clouds 35 1014 26 10000 4.1 60 12:38 16.07.2020
712 Clouds 34 1014 26 10000 4.6 90 12:18 16.07.2020
713 Clouds 33 1014 29 10000 3.6 90 11:38 16.07.2020
714 Clouds 32 1013 35 10000 3.6 60 11:19 16.07.2020
715 Clouds 31 1013 35 10000 3.6 60 10:57 16.07.2020
716 Clouds 30 1013 35 10000 3.6 60 10:39 16.07.2020
717 Clouds 28 1013 42 10000 3.1 30 10:19 16.07.2020
718 Clouds 28 1013 42 10000 3.1 30 09:48 16.07.2020
719 Clouds 27 1013 42 10000 3.1 30 09:28 16.07.2020
720 Clouds 25 1013 41 10000 3.1 40 08:45 16.07.2020
721 Clouds 25 1013 41 10000 3.1 40 08:27 16.07.2020
722 Clear 25 1013 47 10000 2.6 30 07:59 16.07.2020
723 Clear 25 1013 47 10000 2.6 30 07:59 16.07.2020
724 Clear 25 1013 47 10000 2.6 30 07:41 16.07.2020
725 Clear 24 1013 50 10000 3.1 50 07:21 16.07.2020
726 Clear 25 1013 50 10000 3.1 40 06:46 16.07.2020
727 Clear 24 1013 57 10000 2.1 30 06:20 16.07.2020
728 Clear 25 1013 53 10000 0.5 0 05:44 16.07.2020
729 Clear 25 1013 53 10000 1.5 60 05:18 16.07.2020
730 Clear 26 1013 53 10000 1 70 03:54 16.07.2020
731 Clear 27 1013 47 10000 1 0 03:35 16.07.2020
732 Clear 27 1013 47 10000 1 0 02:35 16.07.2020
733 Clear 28 1013 42 10000 3.6 230 01:54 16.07.2020
734 Clear 28 1013 42 10000 3.6 230 01:28 16.07.2020
735 Clear 29 1013 40 10000 3.1 210 00:45 16.07.2020
736 Clear 29 1013 40 10000 3.1 210 00:25 16.07.2020
737 Clear 30 1012 40 10000 3.1 210 23:57 15.07.2020
738 Clear 31 1011 40 10000 5.1 230 23:37 15.07.2020
739 Clear 31 1011 40 10000 4.6 220 23:19 15.07.2020
740 Clear 33 1011 21 10000 2.6 140 22:40 15.07.2020
741 Clear 34 1010 20 10000 3.6 110 22:20 15.07.2020
742 Clear 34 1010 20 10000 3.6 110 21:59 15.07.2020
743 Clear 35 1010 18 10000 4.1 100 21:41 15.07.2020
744 Clear 36 1010 18 10000 4.1 100 21:23 15.07.2020
745 Clear 36 1010 17 10000 4.1 110 20:59 15.07.2020
746 Clear 37 1010 16 10000 4.6 110 20:39 15.07.2020
747 Clear 37 1010 16 10000 4.6 90 20:20 15.07.2020
748 Clear 37 1010 16 10000 4.6 90 19:58 15.07.2020
749 Clear 37 1010 15 10000 6.2 80 19:39 15.07.2020
750 Clear 38 1010 16 10000 6.2 90 19:20 15.07.2020
751 Clear 38 1010 16 10000 6.2 90 18:58 15.07.2020
752 Clear 38 1010 17 10000 7.2 80 18:39 15.07.2020
753 Clear 38 1010 18 10000 5.7 90 18:20 15.07.2020
754 Clear 39 1010 18 10000 5.7 90 17:55 15.07.2020
755 Clear 38 1010 19 10000 5.7 70 17:36 15.07.2020
756 Clear 38 1011 19 10000 6.2 50 17:18 15.07.2020
757 Clear 38 1011 21 10000 4.6 60 16:41 15.07.2020
758 Clear 38 1011 21 10000 4.6 60 16:23 15.07.2020
759 Clear 37 1011 23 10000 2.6 0 15:58 15.07.2020
760 Clear 37 1011 23 10000 2.6 0 15:39 15.07.2020
761 Clear 36 1012 22 10000 2.6 0 15:21 15.07.2020
762 Clear 36 1012 22 10000 2.6 0 14:54 15.07.2020
763 Clear 36 1012 22 10000 2.6 0 14:36 15.07.2020
764 Clear 35 1012 27 10000 2.1 0 14:18 15.07.2020
765 Clear 34 1012 27 10000 2.1 0 13:42 15.07.2020
766 Clear 34 1013 27 10000 1.5 110 13:21 15.07.2020
767 Clear 33 1013 38 10000 3.1 360 12:54 15.07.2020
768 Clear 32 1013 38 10000 3.1 360 12:36 15.07.2020
769 Clear 32 1013 40 10000 2.6 20 12:18 15.07.2020
770 Clear 31 1013 35 10000 2.6 80 11:42 15.07.2020
771 Clear 30 1013 42 10000 2.1 60 11:21 15.07.2020
772 Clear 29 1013 42 10000 2.1 60 10:56 15.07.2020
773 Clear 28 1012 54 10000 2.6 20 10:38 15.07.2020
774 Clear 26 1012 54 10000 4.1 30 10:20 15.07.2020
775 Clear 26 1012 54 10000 4.1 30 09:43 15.07.2020
776 Clear 25 1012 54 10000 4.1 30 09:25 15.07.2020
777 Clear 23 1011 69 10000 1 0 08:49 15.07.2020
778 Clouds 23 1011 69 10000 1 0 08:28 15.07.2020
779 Clouds 23 1011 69 10000 1 0 07:54 15.07.2020
780 Clouds 23 1011 69 10000 1 0 07:32 15.07.2020
781 Clouds 23 1011 69 10000 1.5 40 06:48 15.07.2020
782 Clouds 23 1011 69 10000 1.5 40 06:26 15.07.2020
783 Clouds 24 1011 64 10000 1.5 30 05:51 15.07.2020
784 Clouds 24 1012 64 10000 1.5 50 04:29 15.07.2020
785 Clouds 25 1012 61 10000 2.1 20 03:55 15.07.2020
786 Clouds 25 1012 61 10000 3.1 230 02:24 15.07.2020
787 Clouds 25 1011 57 10000 6.2 240 01:47 15.07.2020
788 Clouds 26 1011 51 10000 4.6 230 00:59 15.07.2020
789 Clouds 26 1011 51 10000 3.6 210 00:40 15.07.2020
790 Clouds 27 1011 48 10000 4.1 220 00:21 15.07.2020
791 Clouds 28 1010 39 10000 5.1 220 23:39 14.07.2020
792 Clouds 28 1010 40 10000 5.1 220 23:21 14.07.2020
793 Clouds 30 1010 35 10000 4.6 230 22:39 14.07.2020
794 Clouds 31 1009 33 10000 6.7 230 22:19 14.07.2020
795 Clouds 31 1009 33 10000 6.7 230 21:55 14.07.2020
796 Clouds 32 1009 31 10000 6.2 240 21:37 14.07.2020
797 Clouds 33 1009 30 10000 7.7 220 21:19 14.07.2020
798 Clouds 33 1008 30 10000 9.3 220 20:42 14.07.2020
799 Clear 34 1008 30 10000 9.3 220 20:22 14.07.2020
800 Clear 35 1008 28 10000 9.3 220 19:59 14.07.2020
801 Clear 35 1008 28 10000 9.3 220 19:39 14.07.2020
802 Clear 36 1008 28 10000 8.7 220 19:21 14.07.2020
803 Clear 36 1009 30 10000 7.2 220 18:46 14.07.2020
804 Clear 36 1009 28 10000 5.7 220 18:21 14.07.2020
805 Clear 36 1009 28 10000 5.7 220 17:59 14.07.2020
806 Clear 37 1010 27 10000 5.1 220 17:41 14.07.2020
807 Clear 37 1010 27 10000 5.1 220 17:22 14.07.2020
808 Clear 36 1010 26 10000 5.1 210 16:57 14.07.2020
809 Clear 36 1012 26 10000 5.1 210 16:38 14.07.2020
810 Clear 35 1012 26 10000 5.1 210 16:20 14.07.2020
811 Clear 35 1012 26 10000 5.1 210 15:46 14.07.2020
812 Clear 35 1012 26 10000 5.1 210 15:23 14.07.2020
813 Clear 34 1012 31 10000 3.6 190 14:58 14.07.2020
814 Clear 33 1012 31 10000 3.6 190 14:40 14.07.2020
815 Clouds 33 1013 35 10000 3.1 260 14:20 14.07.2020
816 Clouds 33 1013 35 10000 3.1 260 13:42 14.07.2020
817 Clouds 33 1013 35 10000 3.1 260 13:23 14.07.2020
818 Clouds 32 1013 43 10000 2.1 300 12:56 14.07.2020
819 Clouds 32 1013 43 10000 2.1 300 12:37 14.07.2020
820 Clouds 30 1014 48 10000 2.1 50 12:19 14.07.2020
821 Clouds 30 1014 48 10000 2.1 50 11:44 14.07.2020
822 Clear 29 1014 48 10000 2.1 50 11:23 14.07.2020
823 Clear 29 1014 54 10000 1.5 350 10:56 14.07.2020
824 Clear 28 1014 54 10000 1.5 350 10:38 14.07.2020
825 Clear 26 1014 65 10000 1.5 20 10:18 14.07.2020
826 Clear 26 1014 65 10000 1.5 20 09:40 14.07.2020
827 Clear 25 1014 65 10000 1.5 20 09:22 14.07.2020
828 Clear 24 1014 69 10000 1 60 08:57 14.07.2020
829 Clear 24 1014 69 10000 1 60 08:37 14.07.2020
830 Clear 24 1014 78 10000 1 80 08:18 14.07.2020
831 Clear 23 1014 78 10000 1 0 07:42 14.07.2020
832 Clear 24 1014 73 10000 1.5 340 07:19 14.07.2020
833 Clear 24 1014 73 10000 2.1 330 06:50 14.07.2020
834 Clear 24 1014 73 10000 2.1 340 06:25 14.07.2020
835 Clear 24 1014 73 10000 2.1 340 05:49 14.07.2020
836 Clear 24 1015 73 10000 2.1 330 04:39 14.07.2020
837 Clear 24 1015 65 10000 2.6 260 03:54 14.07.2020
838 Clear 24 1015 73 10000 2.6 230 03:19 14.07.2020
839 Clear 25 1015 73 10000 4.1 230 02:27 14.07.2020
840 Clear 25 1015 69 10000 4.1 220 01:41 14.07.2020
841 Clear 25 1015 65 10000 4.6 220 01:21 14.07.2020
842 Clear 26 1015 57 10000 4.6 220 00:41 14.07.2020
843 Clear 27 1014 51 10000 5.1 220 00:21 14.07.2020
844 Clear 28 1014 48 10000 5.7 220 23:38 13.07.2020
845 Clear 29 1014 45 10000 4.6 220 23:19 13.07.2020
846 Clear 29 1014 45 10000 4.6 220 22:57 13.07.2020
847 Clear 30 1013 43 10000 5.1 230 22:38 13.07.2020
848 Clear 31 1013 43 10000 5.7 220 22:19 13.07.2020
849 Clear 31 1013 43 10000 5.7 220 21:54 13.07.2020
850 Clear 32 1013 38 10000 6.2 220 21:36 13.07.2020
851 Clear 32 1013 38 10000 6.2 220 21:36 13.07.2020
852 Clear 33 1012 36 10000 7.2 220 21:18 13.07.2020
853 Clear 34 1012 36 10000 6.7 220 20:42 13.07.2020
854 Clear 35 1012 36 10000 6.7 220 20:23 13.07.2020
855 Clouds 36 1012 32 10000 5.1 210 19:59 13.07.2020
856 Clouds 36 1012 34 10000 5.1 220 19:41 13.07.2020
857 Clear 36 1012 32 10000 5.1 230 19:22 13.07.2020
858 Clear 36 1012 32 10000 5.1 230 18:56 13.07.2020
859 Clear 36 1013 29 10000 2.6 200 18:38 13.07.2020
860 Clear 37 1013 30 10000 2.6 250 18:19 13.07.2020
861 Clear 37 1013 30 10000 2.1 210 17:43 13.07.2020
862 Clear 36 1013 30 10000 2.1 210 17:22 13.07.2020
863 Clear 36 1014 32 10000 2.1 200 16:59 13.07.2020
864 Clear 35 1014 34 10000 3.6 220 16:41 13.07.2020
865 Clear 35 1016 43 10000 2.6 170 16:20 13.07.2020
866 Clear 33 1016 43 10000 2.6 170 15:58 13.07.2020
867 Clear 33 1016 43 10000 2.6 170 15:39 13.07.2020
868 Clear 33 1016 43 10000 2.1 190 15:20 13.07.2020
869 Clear 33 1016 43 10000 2.1 190 14:57 13.07.2020
870 Clear 32 1016 43 10000 2.1 190 14:39 13.07.2020
871 Clear 32 1017 48 10000 2.6 180 14:20 13.07.2020
872 Clear 32 1017 48 10000 2.6 180 13:55 13.07.2020
873 Clear 31 1017 48 10000 2.6 180 13:37 13.07.2020
874 Clear 31 1017 55 10000 1.5 0 13:18 13.07.2020
875 Clear 30 1017 55 10000 1.5 0 12:42 13.07.2020
876 Clear 30 1017 58 10000 1.5 0 12:22 13.07.2020
877 Clear 29 1017 58 10000 1.5 0 11:54 13.07.2020
878 Clear 29 1017 58 10000 1.5 0 11:36 13.07.2020
879 Clear 28 1017 61 10000 1.5 290 11:18 13.07.2020
880 Clear 27 1017 61 10000 1.5 290 10:38 13.07.2020
881 Clear 26 1016 73 10000 2.1 300 10:19 13.07.2020
882 Clear 25 1016 73 10000 2.1 300 09:42 13.07.2020
883 Clear 25 1016 73 10000 2.1 300 09:23 13.07.2020
884 Clear 24 1016 78 10000 1.5 320 08:51 13.07.2020
885 Clear 24 1016 78 10000 1.5 320 08:33 13.07.2020
886 Clear 23 1016 83 10000 1.5 310 07:42 13.07.2020
887 Clear 23 1016 83 10000 2.1 330 07:19 13.07.2020
888 Clear 23 1016 78 10000 1.5 350 06:42 13.07.2020
889 Clear 24 1016 78 10000 2.1 270 06:22 13.07.2020
890 Clear 24 1016 78 10000 5.7 220 04:37 13.07.2020
891 Clear 25 1015 69 10000 3.6 190 01:57 13.07.2020
892 Clear 26 1015 65 10000 4.1 210 01:28 13.07.2020
893 Clear 26 1015 61 10000 3.1 200 00:59 13.07.2020
894 Clear 27 1014 54 10000 3.1 200 00:27 13.07.2020
895 Clear 28 1013 48 10000 3.1 210 23:58 12.07.2020
896 Clear 29 1013 48 10000 3.1 210 23:40 12.07.2020
897 Clear 30 1013 40 10000 3.6 240 23:21 12.07.2020
898 Clear 30 1013 40 10000 3.6 240 22:54 12.07.2020
899 Clear 30 1012 40 10000 5.1 250 22:36 12.07.2020
900 Clear 31 1012 38 10000 4.6 250 22:18 12.07.2020
901 Clear 32 1012 38 10000 5.1 230 21:42 12.07.2020
902 Clear 34 1011 38 10000 6.2 220 21:20 12.07.2020
903 Clear 34 1011 34 10000 6.2 220 20:59 12.07.2020
904 Clear 34 1011 34 10000 6.2 220 20:40 12.07.2020
905 Clear 35 1011 19 10000 3.6 210 20:20 12.07.2020
906 Clear 36 1011 19 10000 3.6 210 19:58 12.07.2020
907 Clear 36 1011 23 10000 3.6 210 19:39 12.07.2020
908 Clear 36 1011 23 10000 3.6 210 19:39 12.07.2020
909 Clear 36 1011 23 10000 4.1 220 19:18 12.07.2020
910 Clear 37 1012 23 10000 4.6 240 18:43 12.07.2020
911 Clear 37 1012 23 10000 4.6 240 18:43 12.07.2020
912 Clear 37 1012 23 10000 4.6 240 18:21 12.07.2020
913 Clear 37 1012 23 10000 4.6 240 17:58 12.07.2020
914 Clear 37 1012 22 10000 3.1 300 17:37 12.07.2020
915 Clear 37 1012 22 10000 3.6 300 17:19 12.07.2020
916 Clear 37 1012 23 10000 2.6 270 16:47 12.07.2020
917 Clear 37 1013 23 10000 2.1 340 16:22 12.07.2020
918 Clear 36 1013 26 10000 2.6 290 15:48 12.07.2020
919 Clear 36 1013 26 10000 2.6 290 15:29 12.07.2020
920 Clear 36 1013 26 10000 2.6 330 14:58 12.07.2020
921 Clear 36 1013 25 10000 1 270 14:39 12.07.2020
922 Clear 36 1013 25 10000 1 270 14:39 12.07.2020
923 Clear 35 1013 26 10000 1.5 60 14:19 12.07.2020
924 Clear 34 1014 30 10000 1.5 40 13:40 12.07.2020
925 Clear 33 1014 33 10000 1 280 13:21 12.07.2020
926 Clear 33 1014 33 10000 1 280 12:57 12.07.2020
927 Clear 33 1014 33 10000 1 280 12:57 12.07.2020
928 Clear 33 1014 35 10000 1.5 20 12:38 12.07.2020
929 Clear 31 1014 40 10000 1 60 12:18 12.07.2020
930 Clear 30 1014 45 10000 0.5 0 11:44 12.07.2020
931 Clear 30 1014 45 10000 0.5 280 11:21 12.07.2020
932 Clear 29 1014 45 10000 0.5 280 10:57 12.07.2020
933 Clear 28 1014 51 10000 2.6 280 10:39 12.07.2020
934 Clear 27 1013 54 10000 1 210 10:19 12.07.2020
935 Clear 26 1013 57 10000 2.1 160 09:43 12.07.2020
936 Clear 24 1013 64 10000 1.5 110 09:21 12.07.2020
937 Clear 24 1013 64 10000 1.5 110 08:55 12.07.2020
938 Clear 23 1013 64 10000 2.1 110 08:37 12.07.2020
939 Clear 23 1012 64 10000 0.5 60 08:18 12.07.2020
940 Clear 24 1012 64 10000 2.1 30 07:45 12.07.2020
941 Clear 24 1012 64 10000 2.1 30 07:27 12.07.2020
942 Clear 24 1012 60 10000 0.5 0 06:53 12.07.2020
943 Clear 25 1012 57 10000 0.5 180 06:22 12.07.2020
944 Clear 25 1012 57 10000 0.5 180 05:57 12.07.2020
945 Clear 27 1012 51 10000 4.1 230 04:57 12.07.2020
946 Clear 27 1012 47 10000 2.6 250 04:28 12.07.2020
947 Clear 28 1012 48 10000 3.1 250 03:44 12.07.2020
948 Clear 28 1012 48 10000 3.1 250 03:23 12.07.2020
949 Clouds 29 1012 45 10000 3.1 250 01:52 12.07.2020
950 Clouds 29 1012 45 10000 4.1 270 00:59 12.07.2020
951 Clouds 29 1011 45 10000 3.6 290 00:39 12.07.2020
952 Clouds 29 1011 42 10000 3.6 260 00:20 12.07.2020
953 Clouds 30 1011 40 10000 3.6 250 23:40 11.07.2020
954 Clouds 30 1010 38 10000 5.1 230 23:20 11.07.2020
955 Clouds 30 1010 38 10000 5.1 230 22:57 11.07.2020
956 Clouds 31 1010 40 10000 4.6 210 22:37 11.07.2020
957 Clouds 31 1009 36 10000 3.1 170 22:19 11.07.2020
958 Clouds 33 1009 32 10000 3.6 200 21:43 11.07.2020
959 Clouds 34 1009 32 10000 3.6 200 21:24 11.07.2020
960 Clouds 35 1009 24 10000 4.1 200 20:59 11.07.2020
961 Clouds 35 1009 26 10000 3.1 230 20:41 11.07.2020
962 Clear 36 1009 23 10000 3.6 210 20:21 11.07.2020
963 Clear 36 1009 23 10000 3.6 210 19:59 11.07.2020
964 Clear 36 1009 25 10000 4.6 230 19:41 11.07.2020
965 Clear 36 1009 25 10000 4.6 230 19:23 11.07.2020
966 Clear 36 1010 26 10000 4.6 230 18:57 11.07.2020
967 Clear 36 1010 23 10000 6.2 220 18:39 11.07.2020
968 Clear 37 1010 25 10000 4.6 240 18:20 11.07.2020
969 Clear 37 1010 25 10000 4.6 240 17:56 11.07.2020
970 Clear 37 1010 18 10000 6.2 230 17:38 11.07.2020
971 Clear 36 1010 22 10000 5.1 220 17:19 11.07.2020
972 Clear 39 1010 18 10000 3.1 230 16:43 11.07.2020
973 Clear 37 1010 18 10000 3.1 230 16:24 11.07.2020
974 Clear 38 1010 15 10000 2.6 200 15:58 11.07.2020
975 Clear 37 1010 17 10000 1.5 200 15:40 11.07.2020
976 Clear 37 1011 18 10000 2.6 250 15:20 11.07.2020
977 Clear 37 1011 18 10000 2.6 250 14:58 11.07.2020
978 Clear 37 1011 19 10000 2.1 160 14:38 11.07.2020
979 Clear 36 1011 19 10000 2.6 130 14:20 11.07.2020
980 Clear 35 1012 23 10000 2.6 110 13:43 11.07.2020
981 Clear 34 1012 24 10000 2.6 100 13:22 11.07.2020
982 Clear 34 1012 24 10000 2.6 100 12:58 11.07.2020
983 Clear 33 1012 33 10000 2.1 40 12:40 11.07.2020
984 Clear 32 1012 35 10000 3.6 30 12:20 11.07.2020
985 Clear 31 1012 35 10000 3.6 30 11:55 11.07.2020
986 Clear 30 1012 40 10000 3.6 40 11:36 11.07.2020
987 Clear 29 1012 42 10000 3.6 30 11:18 11.07.2020
988 Clear 27 1012 45 10000 3.6 20 10:40 11.07.2020
989 Clear 27 1012 45 10000 3.6 20 10:22 11.07.2020
990 Clear 26 1012 57 10000 1.5 30 09:44 11.07.2020
991 Clear 23 1012 64 10000 1 0 09:21 11.07.2020
992 Clear 23 1012 64 10000 1 0 09:21 11.07.2020
993 Clear 23 1012 64 10000 1 0 08:55 11.07.2020
994 Clear 23 1012 68 10000 1.5 110 08:36 11.07.2020
995 Clear 22 1011 68 10000 3.1 50 08:18 11.07.2020
996 Clear 22 1012 68 10000 1.5 50 07:40 11.07.2020
997 Clear 22 1011 68 10000 2.1 30 07:20 11.07.2020
998 Clear 23 1011 64 10000 2.1 30 06:53 11.07.2020
999 Clear 23 1012 68 10000 1 0 06:20 11.07.2020
1000 Clear 23 1011 64 10000 1 0 05:21 11.07.2020
1001 Clear 23 1011 64 10000 1 0 04:55 11.07.2020
1002 Clear 23 1011 60 10000 1 0 04:32 11.07.2020
1003 Clear 24 1011 61 10000 4.1 190 02:59 11.07.2020
1004 Clear 24 1011 57 10000 4.1 190 02:37 11.07.2020
1005 Clear 26 1011 47 10000 3.1 190 01:37 11.07.2020
1006 Clear 26 1011 42 10000 2.1 200 01:18 11.07.2020
1007 Clear 27 1011 37 10000 1 260 00:41 11.07.2020
1008 Clear 28 1011 37 10000 1 0 00:22 11.07.2020
1009 Clear 29 1011 37 10000 1 0 23:57 10.07.2020
1010 Clear 30 1011 31 10000 2.6 250 23:39 10.07.2020
1011 Clear 30 1010 31 10000 2.1 240 23:19 10.07.2020
1012 Clear 30 1010 27 10000 3.1 230 22:46 10.07.2020
1013 Clear 31 1010 33 10000 4.1 220 22:21 10.07.2020
1014 Clear 31 1010 33 10000 4.1 220 21:58 10.07.2020
1015 Clear 31 1010 35 10000 5.1 220 21:37 10.07.2020
1016 Clear 32 1010 33 10000 5.7 220 21:19 10.07.2020
1017 Clear 33 1010 33 10000 6.2 220 20:43 10.07.2020
1018 Clear 33 1010 33 10000 6.2 220 20:24 10.07.2020
1019 Clear 34 1010 32 10000 5.7 220 19:59 10.07.2020
1020 Clear 34 1010 30 10000 4.6 220 19:40 10.07.2020
1021 Clear 35 1010 28 10000 5.1 240 19:21 10.07.2020
1022 Clear 35 1010 28 10000 5.1 240 19:21 10.07.2020
1023 Clear 35 1010 32 10000 4.6 220 18:42 10.07.2020
1024 Clear 35 1010 30 10000 4.1 220 18:22 10.07.2020
1025 Clear 35 1010 30 10000 4.1 220 17:59 10.07.2020
1026 Clear 35 1011 30 10000 3.6 220 17:41 10.07.2020
1027 Clear 35 1011 30 10000 3.6 220 17:22 10.07.2020
1028 Clear 36 1011 25 10000 2.6 210 16:57 10.07.2020
1029 Clear 33 1012 49 10000 1.5 0 16:38 10.07.2020
1030 Clear 32 1012 49 10000 1.5 0 16:18 10.07.2020
1031 Clear 32 1012 49 10000 1.5 0 15:43 10.07.2020
1032 Clear 30 1013 54 10000 2.1 210 15:20 10.07.2020
1033 Clear 29 1013 54 10000 2.1 210 14:43 10.07.2020
1034 Clear 29 1013 54 10000 2.1 210 14:23 10.07.2020
1035 Clear 27 1014 57 10000 1.5 0 13:58 10.07.2020
1036 Clear 27 1014 57 10000 1.5 0 13:40 10.07.2020
1037 Clear 27 1014 69 10000 1.5 0 13:22 10.07.2020
1038 Clear 26 1014 69 10000 1.5 0 12:59 10.07.2020
1039 Clear 25 1014 69 10000 1.5 0 12:41 10.07.2020
1040 Clouds 26 1014 73 10000 1.5 230 12:22 10.07.2020
1041 Clouds 25 1014 73 10000 1.5 230 11:57 10.07.2020
1042 Clouds 25 1014 73 10000 1.5 230 11:38 10.07.2020
1043 Clouds 24 1014 73 10000 2.1 250 11:18 10.07.2020
1044 Clouds 23 1014 83 10000 1 0 10:41 10.07.2020
1045 Clouds 22 1014 83 10000 0.94 86 10:21 10.07.2020
1046 Clouds 22 1014 83 10000 0.94 86 09:55 10.07.2020
1047 Clouds 21 1014 83 10000 0.94 86 09:36 10.07.2020
1048 Clouds 21 1014 88 10000 0.5 0 09:18 10.07.2020
1049 Clouds 21 1014 88 10000 0.5 0 08:54 10.07.2020
1050 Clouds 20 1014 88 10000 1 170 08:36 10.07.2020
1051 Clouds 20 1013 88 10000 0.5 220 08:18 10.07.2020
1052 Clouds 20 1013 88 10000 0.5 220 07:41 10.07.2020
1053 Clear 20 1014 88 10000 0.5 0 07:20 10.07.2020
1054 Clear 20 1014 88 10000 1.5 160 06:45 10.07.2020
1055 Clear 19 1014 88 10000 2.1 180 05:55 10.07.2020
1056 Clear 20 1014 88 10000 2.6 190 04:32 10.07.2020
1057 Clear 21 1014 77 10000 2.6 180 03:31 10.07.2020
1058 Clear 21 1014 73 10000 4.1 180 02:49 10.07.2020
1059 Clear 21 1014 73 10000 3.6 210 01:48 10.07.2020
1060 Clear 22 1014 64 10000 4.1 220 00:47 10.07.2020
1061 Clear 23 1014 60 10000 4.6 210 00:19 10.07.2020
1062 Clear 24 1014 60 10000 3.6 210 23:46 09.07.2020
1063 Clear 24 1013 57 10000 4.1 210 23:21 09.07.2020
1064 Clear 25 1013 57 10000 4.1 210 22:58 09.07.2020
1065 Clear 25 1013 54 10000 3.1 200 22:40 09.07.2020
1066 Clear 26 1013 51 10000 5.1 220 22:21 09.07.2020
1067 Clear 26 1013 51 10000 5.1 220 21:56 09.07.2020
1068 Clear 26 1013 51 10000 6.7 220 21:38 09.07.2020
1069 Clear 28 1012 48 10000 6.7 220 21:19 09.07.2020
1070 Clear 28 1012 42 10000 6.7 220 20:44 09.07.2020
1071 Clear 29 1012 42 10000 6.7 220 20:25 09.07.2020
1072 Clear 30 1012 40 10000 6.2 220 19:58 09.07.2020
1073 Clear 31 1012 38 10000 5.1 220 19:40 09.07.2020
1074 Clear 30 1013 38 10000 5.1 210 19:20 09.07.2020
1075 Clear 30 1013 38 10000 4.1 230 18:42 09.07.2020
1076 Clear 32 1014 35 10000 3.1 230 18:22 09.07.2020
1077 Clear 32 1014 35 10000 3.1 230 18:22 09.07.2020
1078 Clear 32 1014 35 10000 3.1 230 17:56 09.07.2020
1079 Clear 31 1014 33 10000 3.1 250 17:38 09.07.2020
1080 Clear 30 1014 33 10000 3.1 240 17:19 09.07.2020
1081 Clear 30 1014 33 10000 3.1 240 16:55 09.07.2020
1082 Clear 28 1015 51 10000 3.1 0 16:37 09.07.2020
1083 Clear 28 1015 51 10000 3.1 0 16:19 09.07.2020
1084 Clear 28 1015 51 10000 3.1 0 15:55 09.07.2020
1085 Clear 28 1015 51 10000 3.1 0 15:36 09.07.2020
1086 Clear 26 1016 57 10000 3.1 210 15:18 09.07.2020
1087 Clear 26 1016 57 10000 3.1 210 14:57 09.07.2020
1088 Clear 26 1016 57 10000 3.1 210 14:38 09.07.2020
1089 Clouds 25 1016 61 10000 3.1 200 14:19 09.07.2020
1090 Clouds 25 1016 61 10000 3.1 200 13:41 09.07.2020
1091 Clouds 25 1016 64 10000 2.1 220 13:21 09.07.2020
1092 Clouds 24 1016 64 10000 2.1 220 12:59 09.07.2020
1093 Clouds 24 1016 64 10000 2.1 220 12:39 09.07.2020
1094 Clouds 24 1017 69 10000 2.6 210 12:20 09.07.2020
1095 Clouds 23 1017 69 10000 2.6 210 11:55 09.07.2020
1096 Clouds 23 1017 69 10000 2.6 210 11:37 09.07.2020
1097 Clouds 23 1016 73 10000 2.6 180 11:18 09.07.2020
1098 Clouds 22 1016 73 10000 2.6 180 10:42 09.07.2020
1099 Clouds 22 1016 73 10000 2.6 180 10:24 09.07.2020
1100 Clouds 21 1016 77 10000 1.5 180 09:59 09.07.2020
1101 Clouds 21 1016 77 10000 1.5 180 09:41 09.07.2020
1102 Clouds 20 1016 88 10000 1 0 09:21 09.07.2020
1103 Clouds 20 1016 88 10000 1 0 08:45 09.07.2020
1104 Clouds 20 1016 88 10000 1 0 08:25 09.07.2020
1105 Clouds 20 1015 88 10000 1.5 170 07:47 09.07.2020
1106 Clouds 20 1015 82 10000 2.6 210 07:24 09.07.2020
1107 Clouds 20 1015 82 10000 2.6 210 06:54 09.07.2020
1108 Clouds 21 1015 83 10000 2.6 220 06:20 09.07.2020
1109 Clouds 20 1015 88 10000 3.6 220 05:37 09.07.2020
1110 Clouds 21 1015 83 10000 3.6 240 04:28 09.07.2020
1111 Clear 21 1015 77 10000 2.6 210 02:33 09.07.2020
1112 Clear 21 1015 73 10000 4.1 210 01:39 09.07.2020
1113 Clear 22 1015 73 10000 5.7 210 00:55 09.07.2020
1114 Clear 23 1014 60 10000 3.6 210 00:25 09.07.2020
1115 Clear 23 1013 57 10000 6.2 220 23:47 08.07.2020
1116 Clear 23 1013 57 10000 6.2 220 23:28 08.07.2020
1117 Clear 25 1013 50 10000 6.2 220 22:59 08.07.2020
1118 Clear 25 1012 39 10000 5.7 230 22:41 08.07.2020
1119 Clear 28 1012 28 10000 7.2 230 22:23 08.07.2020
1120 Clear 28 1012 28 10000 7.2 230 21:58 08.07.2020
1121 Clear 29 1012 27 10000 6.7 230 21:39 08.07.2020
1122 Clear 30 1011 22 10000 8.2 220 21:21 08.07.2020
1123 Clear 30 1011 22 10000 8.2 220 20:58 08.07.2020
1124 Clear 31 1011 23 10000 8.2 220 20:39 08.07.2020
1125 Clouds 31 1011 25 10000 8.2 220 20:21 08.07.2020
1126 Clouds 32 1011 24 10000 8.2 230 19:43 08.07.2020
1127 Clouds 32 1011 24 10000 8.2 230 19:25 08.07.2020
1128 Clouds 34 1011 20 10000 8.7 220 18:58 08.07.2020
1129 Clouds 35 1011 17 10000 8.7 220 18:40 08.07.2020
1130 Clouds 35 1011 19 10000 8.7 220 18:20 08.07.2020
1131 Clouds 35 1011 19 10000 8.7 220 17:56 08.07.2020
1132 Clouds 35 1011 17 10000 8.2 220 17:37 08.07.2020
1133 Clouds 35 1012 20 10000 8.2 230 17:19 08.07.2020
1134 Clouds 35 1012 20 10000 8.2 230 16:54 08.07.2020
1135 Clouds 35 1012 30 10000 6.7 220 16:36 08.07.2020
1136 Clouds 35 1012 30 10000 6.7 220 16:18 08.07.2020
1137 Clouds 34 1012 30 10000 6.7 220 15:56 08.07.2020
1138 Clouds 34 1012 30 10000 6.7 220 15:37 08.07.2020
1139 Clouds 34 1012 38 10000 4.6 230 15:18 08.07.2020
1140 Clouds 34 1012 38 10000 4.6 230 14:42 08.07.2020
1141 Clouds 34 1012 29 10000 5.7 220 14:20 08.07.2020
1142 Clouds 33 1012 29 10000 5.7 220 13:46 08.07.2020
1143 Clouds 33 1012 29 10000 5.7 220 13:27 08.07.2020
1144 Clouds 31 1012 42 10000 4.6 230 12:58 08.07.2020
1145 Clouds 31 1012 42 10000 4.6 230 12:40 08.07.2020
1146 Clouds 31 1012 27 10000 5.1 210 12:19 08.07.2020
1147 Clouds 29 1012 45 10000 3.6 210 11:39 08.07.2020
1148 Clouds 29 1012 42 10000 4.1 230 11:21 08.07.2020
1149 Clouds 29 1012 42 10000 4.1 230 10:59 08.07.2020
1150 Clouds 28 1012 39 10000 2.6 200 10:41 08.07.2020
1151 Clouds 27 1011 50 10000 2.6 220 10:23 08.07.2020
1152 Clouds 26 1011 69 10000 2.1 190 09:45 08.07.2020
1153 Clouds 25 1010 78 10000 2.29 191 09:24 08.07.2020
1154 Clouds 24 1010 78 10000 2.29 191 08:44 08.07.2020
1155 Clouds 25 1010 78 10000 1.41 189 08:25 08.07.2020
1156 Clouds 24 1010 78 10000 1.5 180 07:51 08.07.2020
1157 Clouds 25 1010 53 10000 1.5 170 07:25 08.07.2020
1158 Clouds 25 1010 53 10000 1.5 170 06:59 08.07.2020
1159 Clouds 25 1010 50 10000 2.1 190 06:39 08.07.2020
1160 Clear 25 1010 50 10000 2.6 190 06:20 08.07.2020
1161 Clear 26 1010 47 10000 2.6 210 05:44 08.07.2020
1162 Clear 26 1010 47 10000 2.6 210 05:44 08.07.2020
1163 Clear 26 1010 54 10000 2.1 160 04:44 08.07.2020
1164 Clear 28 1011 45 10000 2.6 180 03:30 08.07.2020
1165 Clouds 28 1012 45 10000 3.1 190 02:19 08.07.2020
1166 Clouds 30 1012 38 10000 1 170 01:38 08.07.2020
1167 Clouds 31 1012 33 10000 1 160 00:50 08.07.2020
1168 Clouds 32 1012 27 10000 1 170 00:19 08.07.2020
1169 Clouds 33 1011 23 10000 2.6 270 23:43 07.07.2020
1170 Clouds 34 1011 23 10000 2.6 270 23:22 07.07.2020
1171 Clouds 35 1011 23 10000 2.1 240 22:55 07.07.2020
1172 Clouds 35 1011 23 10000 2.1 240 22:55 07.07.2020
1173 Clouds 37 1010 25 10000 2.1 220 22:37 07.07.2020
1174 Clouds 37 1011 20 10000 3.1 230 22:19 07.07.2020
1175 Clouds 38 1011 18 10000 4.1 230 21:42 07.07.2020
1176 Clouds 39 1011 15 10000 4.1 230 21:22 07.07.2020
1177 Clouds 39 1011 15 10000 4.1 230 20:59 07.07.2020
1178 Clouds 39 1011 16 10000 4.1 220 20:41 07.07.2020
1179 Clouds 40 1011 16 10000 4.1 220 20:23 07.07.2020
1180 Clouds 40 1011 16 10000 3.1 210 19:58 07.07.2020
1181 Clouds 40 1011 15 10000 3.1 220 19:39 07.07.2020
1182 Clear 40 1011 14 10000 3.1 240 19:19 07.07.2020
1183 Clear 40 1011 14 10000 3.1 240 18:55 07.07.2020
1184 Clear 40 1011 15 10000 3.1 200 18:37 07.07.2020
1185 Clear 40 1012 15 10000 3.1 230 18:18 07.07.2020
1186 Clear 40 1012 15 10000 3.1 230 17:55 07.07.2020
1187 Clear 40 1012 15 10000 3.1 210 17:36 07.07.2020
1188 Clear 40 1012 15 10000 3.1 240 17:18 07.07.2020
1189 Clear 39 1013 17 10000 3.1 240 16:42 07.07.2020
1190 Clear 39 1013 20 10000 2.1 220 16:22 07.07.2020
1191 Clear 40 1013 20 10000 2.1 220 15:55 07.07.2020
1192 Clear 39 1013 20 10000 2.1 220 15:37 07.07.2020
1193 Clear 39 1013 25 10000 2.1 200 15:18 07.07.2020
1194 Clear 38 1013 25 10000 2.1 200 14:42 07.07.2020
1195 Clear 38 1013 25 10000 2.1 200 14:24 07.07.2020
1196 Clear 37 1014 26 10000 1.5 260 13:44 07.07.2020
1197 Clear 36 1013 32 10000 1.5 360 13:21 07.07.2020
1198 Clear 35 1013 32 10000 1.5 360 12:57 07.07.2020
1199 Clear 34 1013 32 10000 1.5 360 12:38 07.07.2020
1200 Clear 33 1013 38 10000 0.5 0 12:20 07.07.2020
1201 Clear 32 1013 38 10000 0.5 0 11:44 07.07.2020
1202 Clear 31 1013 38 10000 0.5 0 11:22 07.07.2020
1203 Clear 30 1014 42 10000 1 0 10:58 07.07.2020
1204 Clear 29 1014 42 10000 1 0 10:40 07.07.2020
1205 Clear 28 1013 57 10000 1.5 20 10:21 07.07.2020
1206 Clear 27 1013 57 10000 1.5 20 09:54 07.07.2020
1207 Clear 27 1013 57 10000 1.5 20 09:36 07.07.2020
1208 Clear 24 1013 73 10000 2.56 28 09:18 07.07.2020
1209 Clear 23 1013 73 10000 2.56 28 08:39 07.07.2020
1210 Clear 23 1013 77 10000 0.5 40 08:19 07.07.2020
1211 Clear 23 1013 77 10000 0.5 40 07:38 07.07.2020
1212 Clear 24 1013 40 10000 0.5 0 07:20 07.07.2020
1213 Clear 24 1013 40 10000 0.5 0 06:48 07.07.2020
1214 Clear 24 1013 40 10000 1.54 70 06:27 07.07.2020
1215 Clear 25 1013 40 10000 0.5 0 05:47 07.07.2020
1216 Clear 25 1013 40 10000 1 160 04:59 07.07.2020
1217 Clear 25 1013 38 10000 2.1 160 04:25 07.07.2020
1218 Clear 26 1013 38 10000 2.6 190 03:34 07.07.2020
1219 Clear 26 1014 37 10000 3.6 190 02:18 07.07.2020
1220 Clear 27 1014 38 10000 3.6 170 01:21 07.07.2020
1221 Clear 28 1014 38 10000 2.6 160 00:42 07.07.2020
1222 Clear 29 1014 36 10000 3.1 230 00:23 07.07.2020
1223 Clear 28 1014 36 10000 3.1 230 00:23 07.07.2020
1224 Clear 29 1013 36 10000 2.1 290 23:45 06.07.2020
1225 Clear 32 1012 30 0 0.89 176 23:26 06.07.2020
1226 Clear 32 1013 33 10000 3.1 240 22:59 06.07.2020
1227 Clear 34 1012 33 10000 3.1 240 22:40 06.07.2020
1228 Clear 34 1012 26 10000 3.6 260 22:19 06.07.2020
1229 Clear 35 1010 28 0 1.79 228 21:57 06.07.2020
1230 Clear 36 1010 27 0 2.68 245 21:37 06.07.2020
1231 Clear 37 1012 20 10000 5.1 240 21:19 06.07.2020
1232 Clear 37 1012 20 10000 5.1 240 20:55 06.07.2020
1233 Clear 38 1010 25 0 3.13 247 20:36 06.07.2020
1234 Clear 39 1010 24 0 3.13 251 20:18 06.07.2020
1235 Clear 39 1010 23 0 3.13 249 19:54 06.07.2020
1236 Clear 39 1010 23 0 2.24 237 19:36 06.07.2020
1237 Clear 40 1010 19 0 2.24 200 19:18 06.07.2020
1238 Clear 40 1010 24 0 2.24 192 18:41 06.07.2020
1239 Clear 41 1010 19 0 2.24 189 18:23 06.07.2020
1240 Clear 41 1010 19 0 1.34 181 17:59 06.07.2020
1241 Clear 41 1010 20 0 1.34 159 17:40 06.07.2020
1242 Clear 40 1011 18 0 1.34 192 17:20 06.07.2020
1243 Clear 40 1013 10 10000 2.1 240 16:43 06.07.2020
1244 Clear 39 1014 25 10000 3.1 230 16:25 06.07.2020
1245 Clear 37 1014 25 10000 3.1 230 15:59 06.07.2020
1246 Clear 37 1014 25 10000 3.1 230 15:41 06.07.2020
1247 Clear 38 1014 25 10000 3.1 230 15:23 06.07.2020
1248 Clear 37 1015 26 10000 1.5 270 14:55 06.07.2020
1249 Clear 37 1015 26 10000 1.5 270 14:37 06.07.2020
1250 Clear 36 1015 30 10000 2.1 270 14:18 06.07.2020
1251 Clear 35 1015 30 10000 2.1 270 13:44 06.07.2020
1252 Clear 34 1015 33 10000 1 0 13:26 06.07.2020
1253 Clear 33 1015 33 10000 1 0 12:56 06.07.2020
1254 Clear 33 1015 33 10000 1 0 12:38 06.07.2020
1255 Clear 31 1015 40 10000 1 0 12:18 06.07.2020
1256 Clear 31 1015 40 10000 1 0 11:57 06.07.2020
1257 Clear 31 1015 40 10000 1 0 11:36 06.07.2020
1258 Clear 30 1016 51 10000 1 0 11:18 06.07.2020
1259 Clear 29 1016 51 10000 1 0 10:41 06.07.2020
1260 Clear 28 1016 65 10000 1.87 56 10:21 06.07.2020
1261 Clear 26 1016 65 10000 1.87 56 09:56 06.07.2020
1262 Clear 26 1016 65 10000 1.87 56 09:38 06.07.2020
1263 Clear 21 1015 83 10000 1 0 09:20 06.07.2020
1264 Clear 21 1015 83 10000 1 0 08:42 06.07.2020
1265 Clear 21 1015 83 10000 1 0 08:24 06.07.2020
1266 Clear 22 1015 94 10000 0.5 140 07:58 06.07.2020
1267 Clear 22 1015 94 10000 0.5 140 07:40 06.07.2020
1268 Clear 23 1015 59 10000 2.1 160 07:21 06.07.2020
1269 Clear 23 1015 59 10000 1.5 220 06:39 06.07.2020
1270 Clear 23 1015 57 10000 1.5 230 06:19 06.07.2020
1271 Clear 22 1015 55 10000 2.6 210 05:29 06.07.2020
1272 Clear 24 1015 55 10000 3.1 200 04:52 06.07.2020
1273 Clear 25 1015 51 10000 3.1 210 03:25 06.07.2020
1274 Clear 27 1016 49 10000 2.6 220 02:22 06.07.2020
1275 Clear 28 1016 45 10000 2.6 210 01:26 06.07.2020
1276 Clear 28 1016 45 10000 3.6 220 00:36 06.07.2020
1277 Clear 29 1015 42 10000 4.6 260 00:18 06.07.2020
1278 Clear 26 1016 42 0 4.04 265 23:41 05.07.2020
1279 Clear 30 1015 40 10000 3.1 270 23:23 05.07.2020
1280 Clear 27 1016 40 0 4.68 273 22:59 05.07.2020
1281 Clear 36 1014 40 10000 2.6 240 22:40 05.07.2020
1282 Clear 33 1013 38 0 0.45 252 22:20 05.07.2020
1283 Clear 34 1012 37 0 2.24 242 21:57 05.07.2020
1284 Clear 35 1012 36 0 1.79 233 21:38 05.07.2020
1285 Clear 36 1014 28 10000 5.1 240 21:18 05.07.2020
1286 Clear 36 1014 28 10000 5.1 240 21:18 05.07.2020
1287 Clear 36 1014 28 10000 5.1 240 20:57 05.07.2020
1288 Clear 36 1014 28 10000 5.7 220 20:39 05.07.2020
1289 Clear 36 1012 33 0 3.13 253 20:20 05.07.2020
1290 Clear 37 1012 32 0 2.68 241 19:43 05.07.2020
1291 Clear 38 1012 28 0 3.13 204 19:21 05.07.2020
1292 Clear 38 1012 28 0 2.24 202 18:58 05.07.2020
1293 Clear 38 1012 28 0 2.24 202 18:58 05.07.2020
1294 Clear 39 1014 14 10000 3.6 330 18:39 05.07.2020
1295 Clear 39 1014 12 10000 3.1 340 18:20 05.07.2020
1296 Clear 39 1012 25 0 2.24 240 17:55 05.07.2020
1297 Clear 39 1012 27 0 0.89 211 17:37 05.07.2020
1298 Clear 39 1012 23 0 1.34 268 17:18 05.07.2020
1299 Clear 39 1015 12 10000 3.6 10 16:42 05.07.2020
1300 Clear 38 1013 25 0 1.79 333 16:24 05.07.2020
1301 Clear 38 1013 24 0 0.89 219 15:54 05.07.2020
1302 Clear 38 1013 25 0 1.34 194 15:36 05.07.2020
1303 Clear 37 1013 25 0 0.45 160 15:18 05.07.2020
1304 Clear 37 1014 26 0 0.45 119 14:40 05.07.2020
1305 Clear 36 1014 26 0 0.89 102 14:20 05.07.2020
1306 Clear 35 1015 28 0 0.45 61 13:42 05.07.2020
1307 Clear 34 1015 31 0 0.45 51 13:23 05.07.2020
1308 Clear 33 1015 39 0 0.89 19 12:56 05.07.2020
1309 Clear 32 1015 42 0 0.89 344 12:38 05.07.2020
1310 Clear 32 1015 45 0 0.89 8 12:19 05.07.2020
1311 Clear 30 1016 48 0 1.34 18 11:40 05.07.2020
1312 Clear 29 1016 49 0 1.79 68 11:21 05.07.2020
1313 Clear 29 1016 51 0 1.34 20 10:59 05.07.2020
1314 Clear 28 1016 55 0 2.24 6 10:40 05.07.2020
1315 Clear 27 1018 40 0 3.17 53 10:19 05.07.2020
1316 Clear 26 1018 40 10000 3.6 10 09:56 05.07.2020
1317 Clear 27 1018 40 0 3.17 53 09:37 05.07.2020
1318 Clear 24 1018 49 0 2.62 48 09:19 05.07.2020
1319 Clear 24 1017 49 0 3.04 43 08:46 05.07.2020
1320 Clear 20 1017 61 0 2.52 44 08:27 05.07.2020
1321 Clear 20 1017 61 0 2.52 44 07:48 05.07.2020
1322 Clear 19 1016 65 0 2.37 45 07:29 05.07.2020
1323 Clear 19 1016 65 0 2.37 45 06:52 05.07.2020
1324 Clear 20 1017 65 0 2.2 43 05:42 05.07.2020
1325 Clear 25 1018 65 10000 1.5 210 03:32 05.07.2020
1326 Clear 25 1018 61 10000 3.1 220 02:43 05.07.2020
1327 Clear 24 1018 55 10000 3.1 220 02:25 05.07.2020
1328 Clear 26 1018 55 10000 3.6 200 01:41 05.07.2020
1329 Clear 26 1017 49 10000 4.6 220 01:18 05.07.2020
1330 Clear 27 1017 49 10000 5.7 220 00:40 05.07.2020
1331 Clear 27 1017 42 10000 4.6 210 00:21 05.07.2020
1332 Clear 28 1015 49 0 1.34 198 23:47 04.07.2020
1333 Clear 29 1015 49 0 1.34 177 23:28 04.07.2020
1334 Clear 30 1016 37 10000 4.6 210 22:57 04.07.2020
1335 Clear 31 1015 37 10000 4.1 200 22:37 04.07.2020
1336 Clear 31 1015 29 10000 2.6 200 22:19 04.07.2020
1337 Clear 34 1015 29 10000 2.1 230 21:43 04.07.2020
1338 Clear 33 1015 22 10000 2.1 310 21:23 04.07.2020
1339 Clear 33 1015 22 10000 2.1 230 21:23 04.07.2020
1340 Clear 36 1015 22 10000 2.1 310 20:58 04.07.2020
1341 Clear 36 1013 30 0 4.46 234 20:40 04.07.2020
1342 Clear 37 1013 24 0 3.97 243 20:20 04.07.2020
1343 Clear 37 1013 24 0 0.45 11 19:45 04.07.2020
1344 Clear 38 1013 23 0 0.89 335 19:22 04.07.2020
1345 Clear 38 1013 24 0 0.89 312 18:59 04.07.2020
1346 Clear 38 1013 24 0 0.89 7 18:41 04.07.2020
1347 Clear 38 1016 11 10000 2.1 320 18:21 04.07.2020
1348 Clear 37 1016 11 10000 1.5 320 17:44 04.07.2020
1349 Clear 37 1014 23 0 0.89 267 17:26 04.07.2020
1350 Clear 37 1017 12 10000 2.1 310 16:58 04.07.2020
1351 Clear 36 1017 12 10000 3.1 350 16:39 04.07.2020
1352 Clear 36 1015 26 0 1.79 288 16:21 04.07.2020
1353 Clear 36 1017 13 10000 1.5 350 15:56 04.07.2020
1354 Clear 35 1018 13 10000 1 0 15:37 04.07.2020
1355 Clear 35 1016 28 0 0.89 304 15:19 04.07.2020
1356 Clear 34 1018 15 10000 1.5 20 14:55 04.07.2020
1357 Clear 33 1019 15 10000 1 260 14:36 04.07.2020
1358 Clear 33 1016 31 0 0.89 262 14:18 04.07.2020
1359 Clear 32 1017 32 0 0.45 65 13:41 04.07.2020
1360 Clear 32 1017 37 0 1.72 61 13:19 04.07.2020
1361 Clear 31 1019 18 10000 1.5 350 12:43 04.07.2020
1362 Clear 29 1019 21 10000 1.5 20 12:23 04.07.2020
1363 Clear 29 1018 45 0 0.45 66 11:59 04.07.2020
1364 Clear 28 1018 46 0 0.89 59 11:40 04.07.2020
1365 Clear 27 1019 28 10000 1 0 11:22 04.07.2020
1366 Clear 26 1019 28 10000 1 20 10:54 04.07.2020
1367 Clear 24 1019 28 10000 2.1 30 10:36 04.07.2020
1368 Clear 23 1019 36 10000 2.6 360 10:18 04.07.2020
1369 Clear 23 1019 36 10000 2.1 20 09:40 04.07.2020
1370 Clear 22 1019 43 10000 1.5 30 09:21 04.07.2020
1371 Clear 21 1019 44 10000 1 0 08:51 04.07.2020
1372 Clear 20 1019 44 10000 1 0 08:32 04.07.2020
1373 Clear 19 1019 54 10000 1 60 07:56 04.07.2020
1374 Clear 19 1018 54 10000 2.6 60 07:38 04.07.2020
1375 Clear 19 1018 59 10000 1 0 06:59 04.07.2020
1376 Clear 20 1018 59 10000 2.1 20 06:37 04.07.2020
1377 Clear 19 1018 60 10000 1.5 100 06:18 04.07.2020
1378 Clear 19 1018 58 10000 1 150 05:24 04.07.2020
1379 Clear 20 1018 56 10000 2.1 170 03:49 04.07.2020
1380 Clear 21 1018 54 10000 2.1 150 02:40 04.07.2020
1381 Clear 22 1018 53 10000 2.6 160 01:39 04.07.2020
1382 Clear 23 1018 49 10000 2.6 200 00:48 04.07.2020
1383 Clear 23 1018 47 10000 2.6 200 00:30 04.07.2020
1384 Clear 24 1017 47 10000 3.1 200 23:59 03.07.2020
1385 Clear 24 1017 47 10000 3.1 210 23:39 03.07.2020
1386 Clear 26 1015 46 0 2.24 185 23:18 03.07.2020
1387 Clear 27 1016 44 10000 4.1 200 22:41 03.07.2020
1388 Clear 29 1016 37 10000 4.1 200 22:23 03.07.2020
1389 Clear 29 1014 38 0 1.79 214 21:58 03.07.2020
1390 Clear 30 1014 32 0 2.24 202 21:38 03.07.2020
1391 Clear 31 1016 27 10000 5.7 210 21:19 03.07.2020
1392 Clear 32 1014 29 0 2.24 211 20:43 03.07.2020
1393 Clear 32 1014 32 0 2.68 203 20:25 03.07.2020
1394 Clear 33 1014 32 0 3.58 198 19:56 03.07.2020
1395 Clear 33 1014 32 0 2.68 199 19:38 03.07.2020
1396 Clear 33 1014 34 0 3.13 184 19:18 03.07.2020
1397 Clear 33 1014 34 0 3.58 191 18:42 03.07.2020
1398 Clear 33 1016 12 10000 2.1 240 18:23 03.07.2020
1399 Clear 34 1014 22 0 3.13 207 17:56 03.07.2020
1400 Clear 35 1016 12 10000 2.1 250 17:38 03.07.2020
1401 Clear 34 1016 11 10000 2.1 230 17:19 03.07.2020
1402 Clear 34 1016 11 10000 2.1 230 17:19 03.07.2020
1403 Clear 34 1017 11 10000 1.5 230 16:40 03.07.2020
1404 Clear 33 1017 24 10000 2.6 0 16:20 03.07.2020
1405 Clear 33 1017 24 10000 2.6 0 15:44 03.07.2020
1406 Clear 33 1017 24 10000 2.6 0 15:24 03.07.2020
1407 Clear 32 1017 29 10000 3.1 190 14:57 03.07.2020
1408 Clear 32 1017 29 10000 3.1 190 14:39 03.07.2020
1409 Clear 31 1018 25 10000 2.1 320 14:19 03.07.2020
1410 Clear 31 1018 25 10000 2.1 320 13:47 03.07.2020
1411 Clear 30 1018 25 10000 2.1 320 13:28 03.07.2020
1412 Clear 29 1018 28 10000 1.5 80 12:45 03.07.2020
1413 Clear 28 1018 31 10000 1 0 12:24 03.07.2020
1414 Clear 27 1018 31 10000 1 0 11:58 03.07.2020
1415 Clear 27 1018 31 10000 1 0 11:40 03.07.2020
1416 Clear 26 1018 38 10000 1.5 20 11:21 03.07.2020
1417 Clear 25 1018 38 10000 1.5 20 10:56 03.07.2020
1418 Clear 24 1018 38 10000 1.5 20 10:37 03.07.2020
1419 Clear 23 1018 43 10000 2.6 360 10:19 03.07.2020
1420 Clear 23 1018 43 10000 2.6 360 09:54 03.07.2020
1421 Clear 22 1018 43 10000 2.6 360 09:36 03.07.2020
1422 Clear 20 1017 49 10000 1.5 340 09:18 03.07.2020
1423 Clear 20 1017 49 10000 1.5 340 08:39 03.07.2020
1424 Clear 17 1017 63 10000 0.5 0 08:18 03.07.2020
1425 Clear 19 1017 63 10000 0.5 0 07:48 03.07.2020
1426 Clear 17 1017 63 10000 0.5 0 07:26 03.07.2020
1427 Clear 17 1017 52 0 1.47 9 06:49 03.07.2020
1428 Clear 18 1018 50 0 1.65 343 06:19 03.07.2020
1429 Clear 19 1018 48 0 2.02 334 04:53 03.07.2020
1430 Clear 20 1018 44 0 1.23 318 03:32 03.07.2020
1431 Clear 20 1018 44 0 1.23 318 02:47 03.07.2020
1432 Clear 21 1019 42 0 1.73 319 02:27 03.07.2020
1433 Clear 28 1017 38 10000 3.1 280 01:28 03.07.2020
1434 Clear 28 1016 38 10000 3.1 280 00:50 03.07.2020
1435 Clear 29 1016 38 10000 3.1 280 00:32 03.07.2020
1436 Clear 28 1015 35 10000 2.6 290 23:47 02.07.2020
1437 Clear 30 1014 35 10000 3.1 300 23:20 02.07.2020
1438 Clear 28 1014 35 10000 3.1 300 22:58 02.07.2020
1439 Clear 28 1014 35 10000 3.6 290 22:40 02.07.2020
1440 Clear 32 1013 31 0 0.45 291 22:20 02.07.2020
1441 Clear 33 1012 28 0 1.79 285 21:57 02.07.2020
1442 Clear 33 1012 26 0 1.79 291 21:39 02.07.2020
1443 Clear 34 1012 25 0 1.79 296 21:19 02.07.2020
1444 Clear 34 1012 24 0 2.24 283 20:57 02.07.2020
1445 Clear 34 1012 24 0 2.24 283 20:57 02.07.2020
1446 Clear 35 1012 22 0 2.24 290 20:39 02.07.2020
1447 Clear 35 1012 21 0 2.24 288 20:18 02.07.2020
1448 Clear 36 1011 22 0 2.24 262 19:42 02.07.2020
1449 Clear 36 1011 21 0 3.13 270 19:23 02.07.2020
1450 Clear 36 1012 22 0 3.58 271 18:58 02.07.2020
1451 Clear 36 1012 23 0 2.24 261 18:40 02.07.2020
1452 Clear 36 1012 21 0 2.24 290 18:21 02.07.2020
1453 Clear 36 1012 22 0 2.68 265 17:57 02.07.2020
1454 Clear 36 1012 21 0 1.79 256 17:38 02.07.2020
1455 Clear 35 1014 12 10000 4.1 210 17:18 02.07.2020
1456 Clear 38 1015 12 0 6.91 270 16:42 02.07.2020
1457 Clear 34 1015 33 10000 3.1 170 16:21 02.07.2020
1458 Clear 34 1015 33 10000 3.1 170 15:58 02.07.2020
1459 Clear 33 1015 33 10000 3.1 170 15:38 02.07.2020
1460 Clear 33 1016 35 10000 2.6 230 15:20 02.07.2020
1461 Clear 33 1016 35 10000 2.6 230 14:45 02.07.2020
1462 Clear 32 1016 35 10000 2.6 230 14:23 02.07.2020
1463 Clear 31 1016 48 10000 2.6 220 13:57 02.07.2020
1464 Clear 31 1016 48 10000 2.6 220 13:38 02.07.2020
1465 Clear 30 1017 57 10000 2.1 200 13:19 02.07.2020
1466 Clear 29 1017 57 10000 2.1 200 12:56 02.07.2020
1467 Clear 29 1017 57 10000 2.1 200 12:38 02.07.2020
1468 Clear 28 1016 69 10000 1.5 190 12:19 02.07.2020
1469 Clear 27 1016 69 10000 1.5 190 11:41 02.07.2020
1470 Clear 26 1016 69 10000 1.5 190 11:23 02.07.2020
1471 Clear 25 1016 78 10000 1.5 210 10:45 02.07.2020
1472 Clear 24 1016 78 10000 1.5 210 10:27 02.07.2020
1473 Clear 23 1016 88 10000 0.5 0 09:56 02.07.2020
1474 Clear 23 1016 88 10000 0.5 0 09:37 02.07.2020
1475 Clear 21 1015 88 10000 1 220 09:19 02.07.2020
1476 Clear 21 1015 88 10000 1 220 08:42 02.07.2020
1477 Clear 20 1015 88 10000 1 220 08:22 02.07.2020
1478 Clear 20 1015 93 10000 1.5 160 07:55 02.07.2020
1479 Clear 19 1015 93 10000 1.5 160 07:37 02.07.2020
1480 Clear 20 1015 77 10000 1.5 170 07:18 02.07.2020
1481 Clear 20 1015 77 10000 1.5 160 06:39 02.07.2020
1482 Clear 20 1014 76 10000 2.1 160 06:19 02.07.2020
1483 Clear 20 1014 76 10000 2.6 190 05:43 02.07.2020
1484 Clear 21 1015 72 10000 3.6 210 03:36 02.07.2020
1485 Clear 22 1013 82 0 2.24 194 02:59 02.07.2020
1486 Clear 23 1014 68 10000 4.1 200 00:47 02.07.2020
1487 Clear 24 1014 66 10000 4.6 200 00:23 02.07.2020
1488 Clear 24 1013 66 10000 4.1 200 23:46 01.07.2020
1489 Clear 25 1013 64 10000 4.1 200 23:27 01.07.2020
1490 Clear 26 1013 64 10000 4.6 190 22:57 01.07.2020
1491 Clear 28 1012 64 10000 4.6 190 22:38 01.07.2020
1492 Clear 28 1013 56 10000 4.1 200 22:19 01.07.2020
1493 Clear 29 1011 65 0 3.13 189 21:58 01.07.2020
1494 Clear 29 1011 60 0 2.68 190 21:40 01.07.2020
1495 Clear 30 1013 43 10000 4.6 210 21:22 01.07.2020
1496 Clear 30 1011 49 0 2.68 200 20:57 01.07.2020
1497 Clear 31 1011 47 0 3.13 204 20:39 01.07.2020
1498 Clear 31 1011 42 0 3.13 214 20:20 01.07.2020
1499 Clear 32 1011 38 0 3.58 204 19:54 01.07.2020
1500 Clear 32 1010 36 0 3.13 202 19:36 01.07.2020
1501 Clear 33 1010 37 0 3.13 195 19:18 01.07.2020
1502 Clear 33 1011 38 0 3.58 186 18:42 01.07.2020
1503 Clear 36 1012 19 0 6.97 226 18:21 01.07.2020
1504 Clear 36 1012 19 0 6.97 226 17:57 01.07.2020
1505 Clear 36 1012 19 0 6.97 226 17:38 01.07.2020
1506 Clear 37 1012 17 0 5.69 224 17:19 01.07.2020
1507 Clear 37 1012 17 0 5.69 224 16:46 01.07.2020
1508 Clear 30 1014 48 10000 4.1 200 16:26 01.07.2020
1509 Clear 30 1014 48 10000 4.1 200 15:55 01.07.2020
1510 Clear 30 1014 48 10000 4.1 200 15:37 01.07.2020
1511 Clear 28 1014 54 10000 2.6 200 15:19 01.07.2020
1512 Clear 28 1014 54 10000 2.6 200 14:44 01.07.2020
1513 Clear 26 1015 57 10000 3.1 210 14:21 01.07.2020
1514 Clear 26 1015 57 10000 3.1 210 13:58 01.07.2020
1515 Clear 26 1015 57 10000 3.1 210 13:39 01.07.2020
1516 Clear 27 1015 65 10000 2.6 210 13:20 01.07.2020
1517 Clear 25 1015 65 10000 2.6 210 12:57 01.07.2020
1518 Clear 25 1015 65 10000 2.6 210 12:38 01.07.2020
1519 Clouds 25 1015 73 10000 2.1 170 12:20 01.07.2020
1520 Clouds 24 1015 73 10000 2.1 170 11:42 01.07.2020
1521 Clouds 23 1015 78 10000 2.6 160 11:23 01.07.2020
1522 Clouds 23 1015 78 10000 2.6 160 10:58 01.07.2020
1523 Clouds 23 1015 78 10000 2.6 160 10:40 01.07.2020
1524 Clouds 22 1015 78 10000 2.6 200 10:21 01.07.2020
1525 Clouds 22 1015 78 10000 2.6 200 09:54 01.07.2020
1526 Clouds 22 1015 78 10000 2.6 200 09:36 01.07.2020
1527 Clouds 21 1014 88 10000 1.5 190 09:18 01.07.2020
1528 Clouds 21 1014 88 10000 1.5 190 08:41 01.07.2020
1529 Clouds 21 1014 94 10000 2.1 190 08:21 01.07.2020
1530 Clouds 21 1014 94 10000 2.1 190 07:57 01.07.2020
1531 Clouds 21 1014 94 10000 2.1 190 07:36 01.07.2020
1532 Clear 18 1013 90 0 1.03 163 07:18 01.07.2020
1533 Clear 18 1013 90 0 1.03 163 06:48 01.07.2020
1534 Clear 18 1013 89 0 1.25 184 06:27 01.07.2020
1535 Clouds 22 1013 86 10000 3.6 200 04:32 01.07.2020
1536 Clouds 22 1013 86 10000 3.1 200 03:47 01.07.2020
1537 Clouds 22 1013 85 10000 3.1 200 03:27 01.07.2020
1538 Clear 22 1014 85 10000 3.6 200 02:41 01.07.2020
1539 Clear 22 1014 84 10000 4.1 230 01:47 01.07.2020
1540 Clear 22 1013 83 10000 4.6 210 00:42 01.07.2020
1541 Clear 23 1011 85 0 2.68 207 00:23 01.07.2020
1542 Clear 23 1011 83 0 3.58 212 23:41 30.06.2020
1543 Clear 23 1011 82 0 3.13 210 23:22 30.06.2020
1544 Clear 23 1011 79 0 3.58 210 22:57 30.06.2020
1545 Clear 23 1010 76 0 2.68 202 22:39 30.06.2020
1546 Clear 24 1011 62 10000 6.2 200 22:18 30.06.2020
1547 Clear 26 1011 62 10000 6.2 210 21:41 30.06.2020
1548 Clear 27 1011 47 10000 6.2 220 21:19 30.06.2020
1549 Clear 29 1009 52 0 3.58 198 20:44 30.06.2020
1550 Clear 30 1009 50 0 4.47 209 20:22 30.06.2020
1551 Clear 31 1009 51 0 4.02 222 20:00 30.06.2020
1552 Clear 31 1008 50 0 3.58 218 19:41 30.06.2020
1553 Clear 32 1008 49 0 3.58 228 19:19 30.06.2020
1554 Clear 33 1008 45 0 4.47 216 18:43 30.06.2020
1555 Clear 32 1010 28 10000 5.7 240 18:21 30.06.2020
1556 Clear 34 1008 40 0 3.13 230 17:58 30.06.2020
1557 Clear 34 1009 40 0 3.58 223 17:37 30.06.2020
1558 Clear 35 1009 38 0 3.13 256 17:18 30.06.2020
1559 Clear 35 1009 38 0 3.13 256 17:18 30.06.2020
1560 Clear 34 1011 38 10000 5.7 210 16:43 30.06.2020
1561 Clear 35 1011 38 10000 5.7 210 16:23 30.06.2020
1562 Clear 34 1011 38 10000 5.7 210 15:57 30.06.2020
1563 Clear 35 1011 38 10000 5.7 210 15:39 30.06.2020
1564 Clear 34 1012 31 10000 4.1 210 15:21 30.06.2020
1565 Clear 33 1012 31 10000 4.1 210 14:54 30.06.2020
1566 Clear 33 1012 31 10000 4.1 210 14:36 30.06.2020
1567 Clear 33 1012 35 10000 4.1 220 14:18 30.06.2020
1568 Clear 31 1012 35 10000 4.1 220 13:40 30.06.2020
1569 Clear 31 1012 33 10000 2.6 200 13:20 30.06.2020
1570 Clear 31 1012 33 10000 2.6 200 12:58 30.06.2020
1571 Clear 31 1012 33 10000 2.6 200 12:39 30.06.2020
1572 Clear 31 1012 37 10000 2.6 270 12:20 30.06.2020
1573 Clear 30 1012 37 10000 2.6 270 11:58 30.06.2020
1574 Clear 29 1012 37 10000 2.6 270 11:38 30.06.2020
1575 Clear 28 1012 47 10000 2.1 230 11:19 30.06.2020
1576 Clear 28 1012 47 10000 2.1 230 10:58 30.06.2020
1577 Clear 37 1012 29 0 1.34 230 16:39 28.06.2020
1578 Clear 36 1013 30 0 0.89 185 16:20 28.06.2020
1579 Clear 36 1013 32 0 1.15 181 15:56 28.06.2020
1580 Clear 35 1013 34 0 0.45 281 15:37 28.06.2020
1581 Clear 35 1013 33 0 0.89 240 15:18 28.06.2020
1582 Clear 34 1016 19 10000 1.5 220 14:44 28.06.2020
1583 Clear 34 1014 37 0 0.45 1 14:25 28.06.2020
1584 Clear 33 1016 22 10000 1 220 13:57 28.06.2020
1585 Clear 33 1014 41 0 0.89 354 13:37 28.06.2020
1586 Clear 33 1015 43 0 1.04 73 13:19 28.06.2020
1587 Clear 32 1015 47 0 1.04 73 12:56 28.06.2020
1588 Clear 31 1014 47 0 0.89 345 12:37 28.06.2020
1589 Clear 30 1015 50 0 0.45 329 12:18 28.06.2020
1590 Clear 30 1017 32 10000 0.5 360 11:55 28.06.2020
1591 Clear 29 1017 32 10000 1.5 350 11:37 28.06.2020
1592 Clear 28 1017 40 10000 1.5 10 11:19 28.06.2020
1593 -273 0 0 0 0 0 10:42 28.06.2020
1594 Clear 26 1017 48 10000 2.33 39 10:23 28.06.2020
1595 Clear 25 1017 48 10000 0.5 0 09:59 28.06.2020
1596 Clear 25 1017 48 10000 1 0 09:39 28.06.2020
1597 Clear 23 1016 57 10000 1 340 09:20 28.06.2020
1598 Clear 22 1016 57 10000 0.5 340 08:45 28.06.2020
1599 Clouds 22 1016 67 10000 0.5 340 08:25 28.06.2020
1600 Clouds 21 1016 67 10000 0.5 120 07:46 28.06.2020
1601 Clouds 21 1016 72 10000 0.5 120 07:28 28.06.2020
1602 Clouds 21 1016 72 10000 1 130 06:41 28.06.2020
1603 Clouds 21 1016 72 10000 0.5 0 06:22 28.06.2020
1604 Clouds 21 1016 70 10000 1.13 56 05:26 28.06.2020
1605 Clear 22 1016 67 10000 2.1 160 03:32 28.06.2020
1606 Clear 22 1014 77 0 1.34 192 02:39 28.06.2020
1607 Clear 22 1014 77 0 2.24 176 01:53 28.06.2020
1608 Clear 23 1014 76 0 1.79 181 01:26 28.06.2020
1609 Clear 23 1014 73 0 2.24 178 00:48 28.06.2020
1610 Clear 23 1014 72 0 2.24 183 00:24 28.06.2020
1611 Clear 24 1014 66 0 2.24 190 23:42 27.06.2020
1612 Clear 25 1014 64 0 2.68 183 23:23 27.06.2020
1613 Clear 25 1013 62 0 2.68 189 22:58 27.06.2020
1614 Clear 26 1013 60 0 3.58 197 22:40 27.06.2020
1615 Clear 27 1013 56 0 2.68 190 22:20 27.06.2020
1616 Clear 28 1013 53 0 2.68 202 21:55 27.06.2020
1617 Clear 28 1013 51 0 2.24 202 21:37 27.06.2020
1618 Clear 29 1014 45 10000 4.6 210 21:18 27.06.2020
1619 Clear 30 1012 48 0 3.58 209 20:42 27.06.2020
1620 Clear 30 1012 46 0 3.13 235 20:19 27.06.2020
1621 Clear 31 1012 46 0 3.58 222 19:55 27.06.2020
1622 Clear 31 1012 46 0 3.58 219 19:36 27.06.2020
1623 Clear 31 1013 45 0 4.02 213 19:18 27.06.2020
1624 Clear 32 1013 45 0 4.02 186 18:43 27.06.2020
1625 Clear 35 1014 21 0 5.7 237 18:22 27.06.2020
1626 Clear 32 1015 21 10000 2.6 220 17:57 27.06.2020
1627 Clear 32 1015 21 10000 3.1 250 17:38 27.06.2020
1628 Clear 33 1015 18 10000 2.6 270 17:19 27.06.2020
1629 Clear 32 1016 18 10000 1.5 300 16:43 27.06.2020
1630 Clear 32 1016 20 10000 1.5 300 16:25 27.06.2020
1631 Clear 32 1016 20 10000 3.1 220 15:55 27.06.2020
1632 Clear 31 1016 20 10000 1.5 240 15:37 27.06.2020
1633 Clouds 31 1014 41 0 1.34 221 15:18 27.06.2020
1634 Clouds 30 1015 41 0 0.45 212 14:41 27.06.2020
1635 Clear 30 1015 43 0 0.89 200 14:23 27.06.2020
1636 Clear 29 1015 44 0 0.89 29 13:57 27.06.2020
1637 Clear 30 1017 24 10000 1 80 13:37 27.06.2020
1638 Clear 28 1016 44 0 0.45 222 13:19 27.06.2020
1639 Clear 28 1016 48 0 0.82 217 12:56 27.06.2020
1640 Clear 27 1018 27 10000 1 90 12:37 27.06.2020
1641 Clear 27 1017 32 10000 0.5 70 12:19 27.06.2020
1642 Clear 26 1017 32 10000 1.5 30 11:42 27.06.2020
1643 Clear 25 1017 39 10000 1.5 30 11:24 27.06.2020
1644 Clear 24 1018 39 10000 1 90 10:59 27.06.2020
1645 Clear 23 1018 39 10000 1 0 10:38 27.06.2020
1646 Clear 23 1018 47 10000 1.41 55 10:18 27.06.2020
1647 Clear 21 1017 47 10000 0.5 100 09:41 27.06.2020
1648 Clear 21 1017 56 10000 0.5 100 09:22 27.06.2020
1649 Clear 19 1017 55 10000 1 0 08:57 27.06.2020
1650 Clear 19 1017 55 10000 1.68 27 08:39 27.06.2020
1651 Clear 19 1017 66 10000 1 140 08:20 27.06.2020
1652 Clear 18 1017 66 10000 1 170 07:41 27.06.2020
1653 Clear 18 1017 72 10000 1.5 160 07:23 27.06.2020
1654 Clear 18 1016 72 10000 1.5 150 06:38 27.06.2020
1655 Clear 18 1016 72 10000 1.5 150 06:20 27.06.2020
1656 Clear 19 1016 65 10000 2.1 170 04:23 27.06.2020
1657 Clear 19 1016 65 10000 3.6 200 03:52 27.06.2020
1658 Clear 19 1015 82 0 2.24 188 02:49 27.06.2020
1659 Clear 19 1015 82 0 2.68 190 02:30 27.06.2020
1660 Clouds 20 1015 80 0 2.68 191 01:43 27.06.2020
1661 Clouds 20 1016 69 10000 3.1 190 00:57 27.06.2020
1662 Clouds 21 1016 69 10000 3.6 210 00:30 27.06.2020
1663 Clouds 22 1015 68 10000 3.1 210 23:44 26.06.2020
1664 Clear 22 1015 65 10000 3.1 210 23:25 26.06.2020
1665 Clear 23 1014 57 0 2.68 188 22:56 26.06.2020
1666 Clear 23 1014 55 0 2.68 184 22:38 26.06.2020
1667 Clear 24 1014 57 10000 5.1 200 22:19 26.06.2020
1668 Clear 25 1013 53 0 3.13 200 21:57 26.06.2020
1669 Clear 26 1013 53 0 4.47 211 21:37 26.06.2020
1670 Clear 26 1013 52 0 3.58 213 21:19 26.06.2020
1671 Clear 27 1012 50 0 3.13 231 20:43 26.06.2020
1672 Clouds 28 1012 49 0 4.02 229 20:23 26.06.2020
1673 Clouds 29 1012 45 0 3.58 227 19:47 26.06.2020
1674 Clouds 29 1012 44 0 4.47 212 19:24 26.06.2020
1675 Clouds 29 1012 44 0 3.58 223 18:58 26.06.2020
1676 Clouds 30 1012 43 0 4.92 210 18:38 26.06.2020
1677 Clouds 33 1014 20 0 7.5 244 18:19 26.06.2020
1678 Clouds 30 1014 20 10000 4.1 200 17:44 26.06.2020
1679 Clouds 34 1014 17 0 6.82 242 17:25 26.06.2020
1680 Clouds 34 1014 17 0 6.82 242 16:49 26.06.2020
1681 Clouds 29 1016 48 10000 3.1 210 16:28 26.06.2020
1682 Clouds 29 1016 48 10000 3.1 210 15:58 26.06.2020
1683 Clouds 29 1016 48 10000 3.1 210 15:39 26.06.2020
1684 Clouds 27 1016 54 10000 3.6 220 15:21 26.06.2020
1685 Clouds 27 1016 54 10000 3.6 220 14:57 26.06.2020
1686 Clouds 27 1016 54 10000 3.6 220 14:57 26.06.2020
1687 Clouds 27 1016 54 10000 3.6 220 14:38 26.06.2020
1688 Clouds 26 1016 61 10000 2.1 0 14:20 26.06.2020
1689 Clouds 25 1016 61 10000 2.1 0 13:44 26.06.2020
1690 Clouds 25 1016 65 10000 2.6 220 13:23 26.06.2020
1691 Clouds 25 1016 65 10000 2.6 220 12:56 26.06.2020
1692 Clouds 25 1016 65 10000 2.6 220 12:37 26.06.2020
1693 Clouds 23 1016 78 10000 2.1 220 12:18 26.06.2020
1694 Clouds 23 1016 78 10000 2.1 220 11:56 26.06.2020
1695 Clouds 22 1016 78 10000 2.1 220 11:37 26.06.2020
1696 Clouds 22 1016 83 10000 2.6 230 11:18 26.06.2020
1697 Clouds 22 1016 83 10000 2.6 230 10:56 26.06.2020
1698 Clouds 22 1016 83 10000 2.6 230 10:37 26.06.2020
1699 Clouds 22 1016 83 10000 2.6 230 10:37 26.06.2020
1700 Clouds 22 1016 83 10000 2.1 220 10:18 26.06.2020
1701 Clouds 21 1016 83 10000 2.1 220 09:41 26.06.2020
1702 Clouds 21 1016 83 10000 2.1 220 09:22 26.06.2020
1703 Clouds 21 1016 83 10000 2.1 210 08:48 26.06.2020
1704 Clouds 20 1015 88 10000 2.1 190 08:27 26.06.2020
1705 Clouds 20 1015 88 10000 2.1 190 07:48 26.06.2020
1706 Clouds 21 1015 88 10000 2.1 190 07:24 26.06.2020
1707 Clouds 21 1015 95 10000 2.6 190 06:54 26.06.2020
1708 Clouds 21 1015 95 10000 3.6 180 06:33 26.06.2020
1709 Clear 18 1015 96 0 1.37 197 05:55 26.06.2020
1710 Clear 18 1015 96 0 1.82 195 05:29 26.06.2020
1711 Clear 20 1016 94 10000 2.1 200 02:40 26.06.2020
1712 Clear 21 1016 93 10000 2.1 200 02:21 26.06.2020
1713 Clear 21 1015 92 10000 3.1 210 00:55 26.06.2020
1714 Clear 22 1015 92 10000 4.1 200 00:32 26.06.2020
1715 Clear 23 1014 71 0 2.68 210 23:48 25.06.2020
1716 Clear 23 1014 69 0 2.68 209 23:23 25.06.2020
1717 Clear 24 1013 67 0 2.24 204 22:59 25.06.2020
1718 Clear 24 1013 67 0 3.13 207 22:39 25.06.2020
1719 Clear 25 1014 65 10000 5.7 220 22:20 25.06.2020
1720 Clear 25 1013 64 0 2.68 225 21:58 25.06.2020
1721 Clear 26 1012 63 0 3.13 233 21:40 25.06.2020
1722 Clear 26 1013 52 10000 5.1 220 21:21 25.06.2020
1723 Clear 27 1012 59 0 3.13 226 20:57 25.06.2020
1724 Clear 27 1012 59 0 3.13 240 20:39 25.06.2020
1725 Clear 28 1012 57 0 2.68 228 20:21 25.06.2020
1726 Clear 28 1012 57 0 3.13 236 19:56 25.06.2020
1727 Clear 28 1012 56 0 3.13 225 19:37 25.06.2020
1728 Clear 28 1012 57 0 3.13 213 19:18 25.06.2020
1729 Clear 29 1012 56 0 3.13 212 18:40 25.06.2020
1730 Clear 28 1014 42 10000 5.7 200 18:21 25.06.2020
1731 Clear 29 1014 42 10000 4.6 190 17:46 25.06.2020
1732 Clear 32 1013 40 0 6.66 233 17:21 25.06.2020
1733 Clear 32 1013 40 0 6.66 233 16:59 25.06.2020
1734 Clear 32 1013 40 0 6.66 233 16:40 25.06.2020
1735 Clouds 28 1015 54 10000 5.1 220 16:20 25.06.2020
1736 Clouds 28 1015 54 10000 5.1 220 15:45 25.06.2020
1737 Clouds 28 1015 54 10000 5.1 220 15:27 25.06.2020
1738 Clouds 27 1015 57 10000 3.1 220 14:57 25.06.2020
1739 Clouds 27 1015 57 10000 3.1 220 14:39 25.06.2020
1740 Clouds 28 1015 57 10000 3.1 230 14:21 25.06.2020
1741 Clouds 27 1015 57 10000 3.1 230 13:55 25.06.2020
1742 Clouds 27 1015 57 10000 3.1 230 13:37 25.06.2020
1743 Clouds 27 1016 65 10000 3.6 220 13:19 25.06.2020
1744 Clouds 26 1016 65 10000 3.6 220 12:43 25.06.2020
1745 Clouds 26 1015 69 10000 3.1 220 12:20 25.06.2020
1746 Clouds 25 1015 69 10000 3.1 220 11:44 25.06.2020
1747 Clouds 24 1015 69 10000 3.1 220 11:25 25.06.2020
1748 Clouds 24 1015 78 10000 3.1 230 10:58 25.06.2020
1749 Clouds 23 1015 78 10000 3.1 230 10:40 25.06.2020
1750 Clear 23 1015 78 10000 1 0 10:21 25.06.2020
1751 Clear 22 1015 78 10000 1 0 09:41 25.06.2020
1752 Clear 22 1015 78 10000 1 0 09:23 25.06.2020
1753 Clear 21 1014 82 10000 1 270 08:47 25.06.2020
1754 Clear 20 1014 82 10000 1.5 190 08:20 25.06.2020
1755 Clear 20 1014 82 10000 1.5 190 07:46 25.06.2020
1756 Clear 21 1014 82 10000 1.5 190 07:28 25.06.2020
1757 Clear 21 1014 72 10000 2.1 240 06:54 25.06.2020
1758 Clear 19 1014 69 0 1.28 256 06:27 25.06.2020
1759 Clear 19 1014 69 0 1.28 256 05:51 25.06.2020
1760 Clear 20 1014 68 0 0.69 292 04:29 25.06.2020
1761 Clear 23 1015 67 10000 2.6 220 03:35 25.06.2020
1762 Clear 23 1014 67 10000 3.1 230 02:44 25.06.2020
1763 Clear 23 1014 66 10000 3.1 230 02:18 25.06.2020
1764 Clear 21 1015 65 0 2.47 264 01:29 25.06.2020
1765 Clear 21 1015 65 0 2.47 264 00:47 25.06.2020
1766 Clear 26 1014 63 10000 3.1 220 00:22 25.06.2020
1767 Clear 26 1014 63 10000 3.1 220 23:45 24.06.2020
1768 Clear 27 1014 60 10000 3.1 220 23:26 24.06.2020
1769 Clear 27 1013 60 10000 4.1 230 22:59 24.06.2020
1770 Clear 28 1013 60 10000 4.1 230 22:41 24.06.2020
1771 Clear 29 1011 48 0 2.24 233 22:20 24.06.2020
1772 Clear 29 1011 48 0 3.13 237 21:56 24.06.2020
1773 Clear 29 1011 47 0 2.68 245 21:37 24.06.2020
1774 Clear 29 1011 47 0 3.58 244 21:19 24.06.2020
1775 Clear 30 1010 44 0 3.13 256 20:58 24.06.2020
1776 Clear 30 1011 45 0 3.58 251 20:39 24.06.2020
1777 Clear 31 1010 43 0 3.58 245 20:20 24.06.2020
1778 Clear 31 1010 43 0 3.13 243 19:57 24.06.2020
1779 Clear 32 1010 44 0 3.58 255 19:38 24.06.2020
1780 Clear 32 1010 42 0 2.24 236 19:19 24.06.2020
1781 Clear 32 1010 42 0 3.58 225 18:58 24.06.2020
1782 Clear 33 1010 41 0 2.68 231 18:39 24.06.2020
1783 Clear 35 1012 25 0 7.08 242 18:20 24.06.2020
1784 Clear 35 1012 25 0 7.08 242 17:55 24.06.2020
1785 Clear 35 1012 25 0 7.08 242 17:36 24.06.2020
1786 Clear 36 1013 21 0 5.45 231 17:18 24.06.2020
1787 Clear 36 1013 21 0 5.45 231 16:55 24.06.2020
1788 Clear 33 1013 29 10000 1.5 0 16:37 24.06.2020
1789 Clear 34 1013 29 10000 1.5 0 16:19 24.06.2020
1790 Clear 34 1013 29 10000 1.5 0 15:54 24.06.2020
1791 Clear 33 1013 29 10000 1.5 0 15:36 24.06.2020
1792 Clear 33 1014 33 10000 3.6 220 15:18 24.06.2020
1793 Clear 32 1014 33 10000 3.6 220 14:40 24.06.2020
1794 Clear 32 1014 37 10000 3.1 220 14:22 24.06.2020
1795 Clear 31 1014 37 10000 3.1 220 13:42 24.06.2020
1796 Clear 31 1014 42 10000 2.6 230 13:21 24.06.2020
1797 Clear 31 1014 42 10000 2.6 230 12:46 24.06.2020
1798 Clear 29 1014 48 10000 2.1 230 12:22 24.06.2020
1799 Clear 29 1014 48 10000 2.1 230 11:59 24.06.2020
1800 Clear 29 1014 48 10000 2.1 230 11:41 24.06.2020
1801 Clear 28 1014 50 10000 2.1 210 11:23 24.06.2020
1802 Clear 28 1014 50 10000 2.1 210 10:54 24.06.2020
1803 Clear 28 1014 50 10000 2.1 210 10:36 24.06.2020
1804 Clear 27 1014 57 10000 0.5 0 10:18 24.06.2020
1805 Clear 26 1014 57 10000 0.5 0 09:42 24.06.2020
1806 Clear 20 1014 72 10000 1 260 09:21 24.06.2020
1807 Clear 20 1014 72 10000 1 260 08:41 24.06.2020
1808 Clouds 21 1014 72 10000 1 150 08:20 24.06.2020
1809 Clouds 22 1014 72 10000 1 150 07:50 24.06.2020
1810 Clouds 19 1014 72 10000 1 150 07:29 24.06.2020
1811 Clouds 20 1013 65 0 1.14 220 06:49 24.06.2020
1812 Clouds 21 1013 63 0 2 226 06:25 24.06.2020
1813 Clouds 21 1013 63 0 2 226 05:48 24.06.2020
1814 Clouds 26 1013 62 10000 1.5 260 04:42 24.06.2020
1815 Clouds 26 1013 59 10000 1.5 240 03:51 24.06.2020
1816 Clouds 25 1013 56 10000 1.5 240 03:33 24.06.2020
1817 Clouds 26 1014 56 10000 4.1 290 02:43 24.06.2020
1818 Clouds 26 1013 52 0 0.89 296 01:29 24.06.2020
1819 Clouds 26 1012 50 0 0.45 261 00:47 24.06.2020
1820 Clouds 27 1012 50 0 1.34 256 00:27 24.06.2020
1821 Clouds 28 1012 48 0 2.24 280 23:44 23.06.2020
1822 Clouds 28 1011 47 0 2.68 299 23:19 23.06.2020
1823 Clouds 29 1012 49 10000 6.2 260 22:42 23.06.2020
1824 Rain 30 1011 42 10000 5.1 270 22:19 23.06.2020
1825 Rain 32 1011 42 10000 5.1 270 21:59 23.06.2020
1826 Clouds 32 1010 39 0 2.68 271 21:40 23.06.2020
1827 Clouds 33 1010 30 10000 4.6 270 21:19 23.06.2020
1828 Clouds 34 1010 30 10000 5.7 250 20:55 23.06.2020
1829 Clouds 34 1008 31 0 2.24 271 20:37 23.06.2020
1830 Clouds 35 1008 31 0 2.68 258 20:18 23.06.2020
1831 Clouds 36 1009 31 0 3.58 239 19:44 23.06.2020
1832 Clouds 36 1009 29 0 3.58 251 19:26 23.06.2020
1833 Clouds 36 1009 28 0 3.13 245 18:42 23.06.2020
1834 Clear 39 1011 14 0 3.61 201 18:19 23.06.2020
1835 Clouds 38 1010 14 10000 4.6 230 17:57 23.06.2020
1836 Clouds 38 1010 14 10000 4.6 230 17:38 23.06.2020
1837 Clouds 38 1010 12 10000 3.6 280 17:20 23.06.2020
1838 Clouds 38 1010 12 10000 3.6 280 17:20 23.06.2020
1839 Clear 38 1009 26 0 2.68 184 16:55 23.06.2020
1840 Clear 37 1011 22 10000 4.6 220 16:36 23.06.2020
1841 Clear 38 1011 22 10000 4.6 220 16:18 23.06.2020
1842 Clear 38 1011 22 10000 4.6 220 16:18 23.06.2020
1843 Clear 38 1011 22 10000 4.6 220 15:43 23.06.2020
1844 Clear 38 1011 22 10000 4.6 220 15:24 23.06.2020
1845 Clear 37 1012 18 10000 2.1 50 14:56 23.06.2020
1846 Clear 37 1012 18 10000 2.1 50 14:38 23.06.2020
1847 Clear 37 1012 20 10000 2.6 360 14:18 23.06.2020
1848 Clear 36 1012 20 10000 2.6 360 13:54 23.06.2020
1849 Clear 36 1012 20 10000 2.6 360 13:36 23.06.2020
1850 Clear 35 1012 27 10000 3.1 350 13:18 23.06.2020
1851 Clear 34 1012 27 10000 3.1 350 12:40 23.06.2020
1852 Clear 33 1013 33 10000 2.1 10 12:21 23.06.2020
1853 Clear 32 1013 33 10000 2.1 10 11:44 23.06.2020
1854 Clear 30 1013 33 10000 2.1 10 11:23 23.06.2020
1855 Clear 29 1013 36 10000 3.6 10 10:59 23.06.2020
1856 Clear 28 1013 36 10000 3.6 10 10:41 23.06.2020
1857 Clear 26 1013 41 10000 3.1 10 10:22 23.06.2020
1858 Clear 26 1013 41 10000 3.1 10 09:57 23.06.2020
1859 Clear 26 1013 41 10000 3.1 10 09:38 23.06.2020
1860 Clear 22 1013 49 10000 1.5 10 09:20 23.06.2020
1861 Clear 23 1013 49 10000 1.5 10 08:47 23.06.2020
1862 Clear 23 1013 49 10000 1.5 10 08:26 23.06.2020
1863 Clear 23 1013 46 10000 3.1 350 07:56 23.06.2020
1864 Clear 23 1013 46 10000 3.1 350 07:38 23.06.2020
1865 Clear 23 1013 40 10000 2.6 360 07:19 23.06.2020
1866 Clear 24 1013 40 10000 1 310 06:43 23.06.2020
1867 Clear 23 1013 38 10000 1 310 06:25 23.06.2020
1868 Clear 24 1013 36 10000 2.1 300 05:29 23.06.2020
1869 Clear 24 1014 32 0 0.18 307 03:23 23.06.2020
1870 Clear 24 1014 32 0 0.18 307 02:53 23.06.2020
1871 Clear 24 1014 32 0 1.16 354 02:34 23.06.2020
1872 Clear 24 1014 32 0 1.33 329 01:46 23.06.2020
1873 Clear 28 1014 31 10000 0.5 330 01:25 23.06.2020
1874 Clear 25 1014 31 0 2.26 339 00:53 23.06.2020
1875 Clear 29 1014 31 10000 1.5 240 00:22 23.06.2020
1876 Clear 29 1013 31 10000 2.6 220 23:55 22.06.2020
1877 Clear 29 1013 31 10000 2.6 220 23:55 22.06.2020
1878 Clear 30 1013 31 10000 2.6 220 23:37 22.06.2020
1879 Clear 31 1013 30 10000 3.6 230 23:18 22.06.2020
1880 Clear 31 1013 30 10000 3.6 230 22:55 22.06.2020
1881 Clear 34 1012 30 10000 4.1 230 22:37 22.06.2020
1882 Clear 34 1011 27 0 1.79 210 22:18 22.06.2020
1883 Clear 35 1011 27 0 2.68 234 21:54 22.06.2020
1884 Clear 35 1011 26 0 2.68 232 21:36 22.06.2020
1885 Clear 36 1011 24 0 2.68 208 21:18 22.06.2020
1886 Clear 37 1010 22 0 3.13 208 20:41 22.06.2020
1887 Clear 38 1010 21 0 2.24 222 20:22 22.06.2020
1888 Clear 39 1010 21 0 2.24 214 19:45 22.06.2020
1889 Clear 39 1010 21 0 3.13 209 19:20 22.06.2020
1890 Clear 39 1010 21 0 3.13 206 18:59 22.06.2020
1891 -273 0 0 0 0 0 18:59 22.06.2020
1892 Clear 39 1010 21 0 3.13 206 18:59 22.06.2020
1893 Clear 39 1010 21 0 3.13 196 18:39 22.06.2020
1894 Clear 39 1011 22 0 2.68 190 18:21 22.06.2020
1895 Clear 39 1011 21 0 3.58 192 17:57 22.06.2020
1896 Clear 39 1010 21 0 3.13 225 17:38 22.06.2020
1897 Clear 40 1010 21 0 2.24 215 17:19 22.06.2020
1898 Clear 40 1011 17 0 1.79 236 16:55 22.06.2020
1899 Clear 39 1014 14 10000 2.6 170 16:37 22.06.2020
1900 Clear 40 1014 14 10000 2.6 170 16:18 22.06.2020
1901 Clear 39 1014 14 10000 2.6 170 15:42 22.06.2020
1902 Clear 39 1014 14 10000 2.6 170 15:24 22.06.2020
1903 Clear 39 1015 16 10000 2.6 20 14:56 22.06.2020
1904 Clear 38 1015 16 10000 2.6 20 14:36 22.06.2020
1905 Clear 38 1015 16 10000 2.6 20 14:18 22.06.2020
1906 Clear 37 1016 18 10000 1.5 70 13:39 22.06.2020
1907 Clear 37 1016 18 10000 1.5 70 13:39 22.06.2020
1908 Clear 36 1016 18 10000 1.5 70 13:21 22.06.2020
1909 Clear 35 1016 20 10000 4.1 60 12:59 22.06.2020
1910 Clear 35 1016 20 10000 4.1 60 12:40 22.06.2020
1911 Clear 34 1016 20 10000 4.1 60 12:22 22.06.2020
1912 Clear 32 1016 27 10000 4.1 20 11:38 22.06.2020
1913 Clear 31 1016 27 10000 4.1 20 11:19 22.06.2020
1914 Clear 30 1017 28 10000 4.1 20 10:57 22.06.2020
1915 Clear 29 1017 28 10000 4.1 20 10:38 22.06.2020
1916 Clear 28 1017 28 10000 4.1 20 10:19 22.06.2020
1917 Clear 26 1017 41 10000 2.6 50 09:57 22.06.2020
1918 Clear 26 1017 41 10000 2.6 50 09:39 22.06.2020
1919 Clear 25 1017 41 10000 2.6 50 09:19 22.06.2020
1920 Clear 21 1017 82 10000 0.5 0 08:56 22.06.2020
1921 Clear 22 1017 82 10000 0.5 0 08:38 22.06.2020
1922 Clear 22 1017 82 10000 0.5 0 08:19 22.06.2020
1923 Clear 21 1017 82 10000 0.5 350 07:48 22.06.2020
1924 Clear 21 1017 82 10000 0.5 350 07:26 22.06.2020
1925 Clear 23 1017 28 10000 1 0 06:39 22.06.2020
1926 Clear 23 1017 28 10000 1 0 06:21 22.06.2020
1927 Clear 23 1017 28 10000 0.5 0 05:42 22.06.2020
1928 Clear 24 1018 27 10000 0.9 34 03:48 22.06.2020
1929 Clear 24 1016 52 0 0.89 201 02:23 22.06.2020
1930 Clear 26 1018 24 10000 1 0 01:18 22.06.2020
1931 Clear 25 1018 24 10000 2.6 350 00:39 22.06.2020
1932 Clear 28 1018 22 10000 2.6 350 23:58 21.06.2020
1933 Clear 29 1018 22 10000 1.5 270 23:39 21.06.2020
1934 Clear 30 1018 22 10000 1.5 270 23:20 21.06.2020
1935 Clear 31 1017 22 10000 2.6 260 22:56 21.06.2020
1936 Clear 31 1017 22 10000 2.6 240 22:37 21.06.2020
1937 Clear 33 1016 27 0 1.34 254 22:19 21.06.2020
1938 Clear 34 1017 19 10000 2.6 230 21:56 21.06.2020
1939 Clear 34 1017 19 10000 3.1 220 21:38 21.06.2020
1940 Clear 35 1017 15 10000 3.1 220 21:20 21.06.2020
1941 Clear 35 1017 15 10000 2.1 230 20:57 21.06.2020
1942 Clear 35 1017 15 10000 1 20 20:37 21.06.2020
1943 Clear 36 1015 24 0 2.68 238 20:18 21.06.2020
1944 Clear 37 1017 11 10000 1 360 19:55 21.06.2020
1945 Clear 37 1016 24 0 2.68 201 19:37 21.06.2020
1946 Clear 37 1017 10 10000 2.1 330 19:18 21.06.2020
1947 Clear 38 1016 17 0 0.45 89 18:40 21.06.2020
1948 Clear 38 1016 18 0 0.89 71 18:22 21.06.2020
1949 Clear 37 1016 19 0 1.34 253 17:59 21.06.2020
1950 Clear 37 1017 20 0 1.34 134 17:38 21.06.2020
1951 Clear 37 1016 21 0 1.34 345 17:19 21.06.2020
1952 Clear 37 1019 11 10000 2.6 20 16:41 21.06.2020
1953 Clear 36 1018 22 0 0.45 79 16:23 21.06.2020
1954 Clear 36 1020 11 10000 1 270 15:57 21.06.2020
1955 Clear 36 1018 23 0 0.89 82 15:37 21.06.2020
1956 Clear 35 1020 13 10000 2.6 210 15:19 21.06.2020
1957 Rain 34 1021 13 10000 1 40 14:39 21.06.2020
1958 Rain 34 1019 26 0 1.34 309 14:20 21.06.2020
1959 Rain 34 1021 15 10000 1.5 160 13:59 21.06.2020
1960 Clear 33 1021 15 10000 0.5 130 13:40 21.06.2020
1961 Clear 33 1020 29 0 0.89 99 13:21 21.06.2020
1962 Clear 32 1020 33 0 0.89 8 12:54 21.06.2020
1963 Clear 31 1020 35 0 0.89 354 12:36 21.06.2020
1964 Clear 31 1020 36 0 0.45 7 12:18 21.06.2020
1965 Clear 29 1022 24 10000 1.5 50 11:41 21.06.2020
1966 Clear 28 1022 29 10000 1.5 50 11:23 21.06.2020
1967 Clear 27 1022 29 10000 2.1 20 10:58 21.06.2020
1968 Clear 27 1022 29 10000 1.5 20 10:39 21.06.2020
1969 Clear 25 1022 36 10000 1.5 20 10:21 21.06.2020
1970 Clear 24 1022 36 10000 1.5 20 09:44 21.06.2020
1971 Clear 23 1022 43 0 2.17 32 09:24 21.06.2020
1972 Clear 22 1022 43 10000 1.5 350 08:58 21.06.2020
1973 Clear 22 1021 43 10000 2.1 350 08:40 21.06.2020
1974 Clear 22 1021 52 10000 2.1 350 08:20 21.06.2020
1975 Clear 21 1021 52 10000 1.5 110 07:43 21.06.2020
1976 Clear 20 1021 55 10000 1.5 110 07:24 21.06.2020
1977 Clear 20 1021 55 10000 1 180 06:51 21.06.2020
1978 Clear 20 1021 53 10000 2.1 160 06:31 21.06.2020
1979 Clear 20 1021 53 10000 2.1 170 05:57 21.06.2020
1980 Clear 21 1021 52 10000 1.5 140 04:45 21.06.2020
1981 Clear 22 1019 65 0 0.89 173 03:20 21.06.2020
1982 Clear 22 1019 64 0 2.24 169 02:38 21.06.2020
1983 Clear 23 1020 45 10000 1.5 190 01:48 21.06.2020
1984 Clear 23 1020 43 10000 2.1 180 01:20 21.06.2020
1985 Clear 23 1020 43 10000 2.6 240 00:46 21.06.2020
1986 Clear 25 1020 39 10000 3.6 250 00:27 21.06.2020
1987 Clear 26 1020 39 10000 3.6 260 23:57 20.06.2020
1988 Clear 27 1020 39 10000 4.1 260 23:37 20.06.2020
1989 Clear 27 1020 36 10000 4.1 260 23:18 20.06.2020
1990 Clear 28 1019 36 10000 3.1 230 22:55 20.06.2020
1991 Clear 24 1020 36 0 3.63 262 22:36 20.06.2020
1992 Clear 30 1019 31 10000 3.6 220 22:18 20.06.2020
1993 Clear 31 1018 30 0 1.79 221 21:54 20.06.2020
1994 Clear 31 1017 29 0 2.68 231 21:36 20.06.2020
1995 Clear 32 1019 23 10000 4.1 220 21:18 20.06.2020
1996 Clear 33 1018 23 10000 4.6 200 20:54 20.06.2020
1997 Clear 33 1016 28 0 3.13 235 20:36 20.06.2020
1998 Clear 33 1016 29 0 2.24 214 20:18 20.06.2020
1999 Clear 34 1017 31 0 3.13 201 19:41 20.06.2020
2000 Clear 34 1017 27 0 3.58 203 19:21 20.06.2020
2001 Clear 35 1017 24 0 2.24 173 18:43 20.06.2020
2002 Clear 35 1017 25 0 2.24 228 18:21 20.06.2020
2003 Clear 35 1017 26 0 1.34 269 17:58 20.06.2020
2004 Clear 35 1017 27 0 1.79 177 17:40 20.06.2020
2005 Clear 35 1019 13 10000 1.5 210 17:21 20.06.2020
2006 Clear 35 1019 13 10000 1.5 210 17:21 20.06.2020
2007 Clear 34 1018 30 0 2.24 158 16:58 20.06.2020
2008 Clear 34 1019 13 10000 1.5 180 16:38 20.06.2020
2009 Clear 33 1018 31 0 1.79 139 16:18 20.06.2020
2010 Clear 33 1020 14 10000 2.1 220 15:42 20.06.2020
2011 Clear 33 1018 30 0 1.34 217 15:18 20.06.2020
2012 Clear 32 1020 16 10000 2.6 240 14:56 20.06.2020
2013 Clear 32 1020 16 10000 1.5 270 14:38 20.06.2020
2014 Clear 31 1019 35 0 1.34 301 14:18 20.06.2020
2015 Clear 31 1021 19 10000 1.5 280 13:41 20.06.2020
2016 Clear 30 1021 21 10000 1.5 280 13:19 20.06.2020
2017 Clear 29 1021 21 10000 1 350 12:55 20.06.2020
2018 Clear 29 1021 21 10000 1 340 12:36 20.06.2020
2019 Clear 28 1021 25 10000 1 340 12:18 20.06.2020
2020 Clear 27 1021 25 10000 1 0 11:38 20.06.2020
2021 Clear 26 1021 31 10000 1 0 11:20 20.06.2020
2022 Clear 24 1021 31 10000 2.1 60 10:57 20.06.2020
2023 Clear 23 1021 31 10000 3.1 40 10:38 20.06.2020
2024 Clear 22 1021 39 10000 1.5 60 10:18 20.06.2020
2025 Clear 21 1020 39 10000 2.1 50 09:41 20.06.2020
2026 Clear 20 1020 48 10000 2.1 50 09:23 20.06.2020
2027 Clear 19 1020 45 10000 2.1 60 08:58 20.06.2020
2028 Clear 18 1020 45 10000 0.5 10 08:39 20.06.2020
2029 Clear 18 1020 57 10000 0.5 10 08:21 20.06.2020
2030 Clear 17 1020 57 10000 0.5 0 07:50 20.06.2020
2031 Clear 17 1020 62 10000 1 0 07:25 20.06.2020
2032 Clear 17 1020 62 10000 1 0 07:25 20.06.2020
2033 Clear 18 1020 62 10000 1 110 06:43 20.06.2020
2034 Clear 18 1020 64 10000 1 110 06:20 20.06.2020
2035 Clear 17 1020 64 10000 1.33 34 05:47 20.06.2020
2036 Clear 18 1019 61 10000 2.1 170 03:25 20.06.2020
2037 Clear 19 1020 61 10000 3.1 190 01:53 20.06.2020
2038 Clear 19 1020 61 10000 3.6 180 01:35 20.06.2020
2039 Clear 20 1020 61 10000 3.1 190 00:45 20.06.2020
2040 Clear 20 1020 60 10000 3.6 190 00:20 20.06.2020
2041 Clear 21 1019 60 10000 3.6 190 23:41 19.06.2020
2042 Clear 22 1018 64 0 1.34 206 23:19 19.06.2020
2043 Clear 23 1018 59 0 2.24 185 22:56 19.06.2020
2044 Clear 23 1017 61 0 1.79 213 22:56 19.06.2020
2045 Clear 23 1018 57 0 3.13 192 22:37 19.06.2020
2046 Clear 23 1017 55 0 2.68 184 22:19 19.06.2020
2047 Clear 25 1017 52 0 3.13 190 21:55 19.06.2020
2048 Clear 25 1018 53 10000 5.1 200 21:37 19.06.2020
2049 Clear 27 1017 44 0 2.68 198 21:18 19.06.2020
2050 Clear 28 1016 40 0 3.13 207 20:56 19.06.2020
2051 Clear 28 1016 44 0 3.13 204 20:38 19.06.2020
2052 Clear 28 1016 42 0 2.68 204 20:20 19.06.2020
2053 Clear 28 1016 39 0 3.58 203 19:54 19.06.2020
2054 Clear 28 1016 39 0 4.02 198 19:36 19.06.2020
2055 Clear 29 1016 39 0 4.47 210 19:18 19.06.2020
2056 Clear 30 1015 38 0 2.68 199 18:40 19.06.2020
2057 Clear 30 1015 36 0 2.24 194 18:21 19.06.2020
2058 Clear 30 1018 21 10000 4.1 190 17:43 19.06.2020
2059 Clear 30 1016 38 0 3.58 203 17:23 19.06.2020
2060 Clear 29 1018 20 10000 3.6 190 16:59 19.06.2020
2061 Clear 29 1018 20 10000 3.6 190 16:59 19.06.2020
2062 Clear 29 1018 37 10000 4.6 210 16:41 19.06.2020
2063 Clear 29 1018 37 10000 4.6 210 16:22 19.06.2020
2064 Clear 28 1018 37 10000 4.6 210 15:54 19.06.2020
2065 Clear 29 1018 37 10000 4.6 210 15:36 19.06.2020
2066 Clear 28 1018 37 10000 4.6 210 15:18 19.06.2020
2067 Clear 27 1019 39 10000 4.1 200 14:41 19.06.2020
2068 Clear 27 1019 39 10000 4.1 200 14:22 19.06.2020
2069 Clear 27 1019 39 10000 4.1 200 14:22 19.06.2020
2070 Clear 26 1019 47 10000 3.1 220 13:59 19.06.2020
2071 Clear 25 1019 47 10000 3.1 220 13:41 19.06.2020
2072 Clear 25 1019 47 10000 3.1 220 13:23 19.06.2020
2073 Clear 24 1019 47 10000 3.6 230 12:46 19.06.2020
2074 Clear 24 1019 47 10000 3.6 230 12:22 19.06.2020
2075 Clear 23 1018 56 10000 3.1 190 11:57 19.06.2020
2076 Clear 23 1018 56 10000 3.1 190 11:37 19.06.2020
2077 Clear 23 1018 56 10000 3.1 190 11:37 19.06.2020
2078 Clear 22 1018 56 10000 3.1 190 11:18 19.06.2020
2079 Clear 22 1018 64 10000 2.1 150 10:45 19.06.2020
2080 Clear 21 1018 64 10000 2.1 150 10:26 19.06.2020
2081 Clear 21 1018 64 10000 2.1 150 10:26 19.06.2020
2082 Clear 19 1018 82 10000 1.5 220 09:57 19.06.2020
2083 Clear 19 1018 82 10000 1.5 220 09:39 19.06.2020
2084 Clear 19 1018 82 10000 1.5 220 09:19 19.06.2020
2085 Clear 17 1018 54 10000 1.5 160 08:42 19.06.2020
2086 Clear 17 1018 54 10000 1.5 160 08:42 19.06.2020
2087 Clear 17 1018 63 10000 1.5 160 08:23 19.06.2020
2088 Clear 17 1017 63 10000 2.1 190 07:56 19.06.2020
2089 Clear 17 1017 63 10000 2.1 180 07:36 19.06.2020
2090 Clear 17 1017 68 10000 2.1 180 07:18 19.06.2020
2091 Clear 17 1017 68 10000 2.1 180 07:18 19.06.2020
2092 Clear 17 1017 67 10000 2.1 170 06:23 19.06.2020
2093 Clear 17 1016 67 10000 0.5 0 05:43 19.06.2020
2094 Clear 18 1016 63 10000 2.6 190 04:25 19.06.2020
2095 Clear 18 1015 80 0 1.79 182 02:51 19.06.2020
2096 Clear 19 1015 63 10000 5.1 190 00:49 19.06.2020
2097 Clear 20 1013 74 0 2.24 209 00:22 19.06.2020
2098 Clear 20 1013 71 0 2.24 207 23:59 18.06.2020
2099 Clear 21 1013 69 0 2.24 217 23:41 18.06.2020
2100 Clear 21 1014 68 0 2.68 193 23:23 18.06.2020
2101 Clear 22 1013 59 0 3.13 191 22:59 18.06.2020
2102 Clear 22 1013 56 0 2.68 190 22:37 18.06.2020
2103 Clear 22 1013 55 0 2.68 189 22:18 18.06.2020
2104 Clear 23 1013 51 10000 6.2 200 21:39 18.06.2020
2105 Clear 23 1013 40 10000 6.2 200 21:20 18.06.2020
2106 Clear 24 1013 40 10000 6.7 200 20:58 18.06.2020
2107 Clear 25 1013 40 10000 7.2 200 20:38 18.06.2020
2108 Clear 26 1013 31 10000 7.2 200 20:19 18.06.2020
2109 Clear 27 1010 42 0 3.13 225 19:42 18.06.2020
2110 Clear 28 1011 40 0 4.47 213 19:22 18.06.2020
2111 Clear 28 1010 39 0 4.02 229 18:58 18.06.2020
2112 Clear 29 1011 38 0 4.47 223 18:37 18.06.2020
2113 Clear 29 1012 20 10000 7.2 200 18:19 18.06.2020
2114 Clear 30 1012 20 10000 6.7 210 17:45 18.06.2020
2115 Clear 30 1012 17 10000 5.7 200 17:25 18.06.2020
2116 Clear 30 1010 31 0 3.13 204 16:56 18.06.2020
2117 Clear 28 1013 63 10000 1.5 360 16:37 18.06.2020
2118 Clear 28 1013 63 10000 1.5 360 16:19 18.06.2020
2119 Clear 28 1013 63 10000 1.5 360 15:56 18.06.2020
2120 Clear 27 1013 63 10000 1.5 360 15:38 18.06.2020
2121 Clear 27 1013 63 10000 1.5 360 15:18 18.06.2020
2122 Clear 26 1013 63 10000 1.5 360 14:55 18.06.2020
2123 Clear 26 1013 63 10000 1.5 360 14:36 18.06.2020
2124 Clear 26 1013 63 10000 1.5 360 14:18 18.06.2020
2125 Clear 26 1013 63 10000 1.5 360 13:41 18.06.2020
2126 Clear 25 1013 63 10000 1.5 360 13:22 18.06.2020
2127 Clear 25 1013 63 10000 1.5 360 12:56 18.06.2020
2128 Clear 25 1013 63 10000 1.5 360 12:37 18.06.2020
2129 Clear 24 1013 63 10000 1.5 360 12:19 18.06.2020
2130 Clear 23 1013 63 10000 1.5 360 11:47 18.06.2020
2131 Clear 23 1013 63 10000 1.5 360 11:21 18.06.2020
2132 Clear 22 1013 63 10000 1.5 360 10:58 18.06.2020
2133 Clear 22 1013 63 10000 1.5 360 10:38 18.06.2020
2134 Clear 22 1013 63 10000 1.5 360 10:18 18.06.2020
2135 Clear 20 1013 63 10000 1.5 360 09:44 18.06.2020
2136 Clear 18 1013 63 10000 1.5 360 09:24 18.06.2020
2137 Clear 18 1013 63 10000 1.5 360 08:42 18.06.2020
2138 Clear 19 1013 63 10000 1.5 360 08:24 18.06.2020
2139 Clear 16 1013 87 10000 1 340 08:00 18.06.2020
2140 Clear 17 1013 87 10000 1 340 07:41 18.06.2020
2141 Clear 17 1013 87 10000 1 340 07:23 18.06.2020
2142 Clear 16 1014 59 0 1.62 11 06:29 18.06.2020
2143 Clear 19 1013 55 10000 1.5 220 04:27 18.06.2020
2144 Clear 19 1013 53 10000 2.1 180 03:30 18.06.2020
2145 Clear 20 1014 53 10000 2.1 150 01:42 18.06.2020
2146 Clear 21 1014 53 10000 2.1 150 01:18 18.06.2020
2147 Clear 19 1016 53 0 2.03 313 00:49 18.06.2020
2148 Clear 23 1014 58 10000 3.1 270 00:25 18.06.2020
2149 Clear 23 1014 58 10000 3.6 270 23:49 17.06.2020
2150 Clear 23 1014 60 10000 4.1 250 23:23 17.06.2020
2151 Clear 23 1013 60 10000 4.1 250 22:59 17.06.2020
2152 Clear 24 1013 60 10000 5.1 240 22:40 17.06.2020
2153 Clear 25 1013 55 10000 5.1 240 22:21 17.06.2020
2154 Clear 26 1011 47 0 3.58 261 21:59 17.06.2020
2155 Clear 27 1012 46 0 3.58 241 21:39 17.06.2020
2156 Clear 27 1011 42 0 4.02 255 21:20 17.06.2020
2157 Clear 28 1011 40 0 2.68 260 20:55 17.06.2020
2158 Clear 28 1011 39 0 3.58 267 20:37 17.06.2020
2159 Clear 28 1011 39 0 3.13 261 20:18 17.06.2020
2160 Clouds 30 1013 40 10000 4.6 280 19:42 17.06.2020
2161 Clouds 30 1013 32 10000 4.6 280 19:21 17.06.2020
2162 Clouds 30 1013 32 10000 4.1 240 18:56 17.06.2020
2163 Clouds 30 1013 32 10000 4.6 270 18:37 17.06.2020
2164 Clear 30 1012 35 0 3.13 270 18:19 17.06.2020
2165 Clear 30 1012 35 0 2.68 253 17:40 17.06.2020
2166 Clear 30 1012 35 0 3.13 249 17:21 17.06.2020
2167 Clear 30 1014 23 10000 4.1 290 17:21 17.06.2020
2168 Clear 30 1013 35 0 2.68 292 16:56 17.06.2020
2169 Clear 29 1013 36 0 2.24 263 16:37 17.06.2020
2170 Clear 29 1013 36 0 2.68 280 16:19 17.06.2020
2171 Clear 29 1014 38 0 2.68 271 15:40 17.06.2020
2172 Clear 29 1013 38 0 2.68 262 15:21 17.06.2020
2173 Clear 28 1014 39 0 2.68 258 14:59 17.06.2020
2174 Clear 28 1014 39 0 1.34 269 14:40 17.06.2020
2175 Clear 27 1014 40 0 2.24 251 14:20 17.06.2020
2176 Clear 27 1015 43 0 1.79 250 13:58 17.06.2020
2177 Clear 26 1015 44 0 1.79 258 13:40 17.06.2020
2178 Clear 26 1016 43 0 1.79 229 13:21 17.06.2020
2179 Clear 25 1016 45 0 1.34 181 12:55 17.06.2020
2180 Clear 25 1017 32 10000 1.5 270 12:37 17.06.2020
2181 Clear 24 1017 36 10000 1.5 270 12:19 17.06.2020
2182 Clear 24 1016 49 0 0.89 24 11:44 17.06.2020
2183 Clear 23 1016 49 0 1.79 311 11:24 17.06.2020
2184 Clear 23 1017 54 0 0.89 320 10:54 17.06.2020
2185 Clear 23 1017 56 0 0.89 338 10:36 17.06.2020
2186 Clouds 22 1018 48 10000 1.5 360 10:18 17.06.2020
2187 Clouds 21 1018 48 10000 1.24 345 09:41 17.06.2020
2188 Clouds 21 1018 58 10000 1.43 342 09:21 17.06.2020
2189 Clouds 20 1019 58 0 1.43 342 08:57 17.06.2020
2190 Clouds 20 1018 58 10000 1.43 342 08:39 17.06.2020
2191 Clear 19 1018 69 10000 1.2 330 08:19 17.06.2020
2192 Clear 19 1017 69 10000 1 90 07:43 17.06.2020
2193 Clear 19 1017 76 10000 1 90 07:22 17.06.2020
2194 Clear 19 1017 76 10000 1 0 06:57 17.06.2020
2195 Clear 20 1017 76 10000 2.6 330 06:38 17.06.2020
2196 Clear 20 1017 77 10000 2.6 330 06:20 17.06.2020
2197 Clear 21 1017 77 10000 2.1 300 05:31 17.06.2020
2198 Clear 20 1018 88 10000 2.1 200 03:30 17.06.2020
2199 Clear 20 1019 88 10000 1.5 140 01:54 17.06.2020
2200 Clear 21 1019 82 10000 2.6 180 00:48 17.06.2020
2201 Clear 21 1019 82 10000 2.6 180 00:25 17.06.2020
2202 Clear 21 1019 77 10000 2.6 200 23:57 16.06.2020
2203 Clear 22 1019 77 10000 2.6 200 23:38 16.06.2020
2204 Clear 22 1019 77 10000 2.6 200 23:20 16.06.2020
2205 Clear 23 1018 69 10000 3.6 210 22:56 16.06.2020
2206 Clear 23 1018 69 10000 3.6 210 22:37 16.06.2020
2207 Clear 23 1018 69 10000 3.6 210 22:19 16.06.2020
2208 Clear 25 1018 57 10000 5.1 220 21:54 16.06.2020
2209 Clear 25 1018 57 10000 5.1 220 21:36 16.06.2020
2210 Clouds 26 1018 52 10000 6.2 220 21:18 16.06.2020
2211 Clouds 27 1017 55 0 3.13 236 20:42 16.06.2020
2212 Clouds 27 1016 54 0 3.13 256 20:19 16.06.2020
2213 Clouds 27 1017 55 0 3.58 237 19:58 16.06.2020
2214 Clouds 27 1017 54 0 4.02 242 19:39 16.06.2020
2215 Clouds 27 1017 54 0 4.47 240 19:21 16.06.2020
2216 Clouds 28 1017 51 0 4.02 245 18:55 16.06.2020
2217 Clouds 28 1018 44 10000 6.7 290 18:37 16.06.2020
2218 Clouds 27 1018 39 10000 6.7 290 18:19 16.06.2020
2219 Clouds 27 1019 39 10000 7.2 280 17:55 16.06.2020
2220 Clouds 29 1019 39 10000 7.7 270 17:36 16.06.2020
2221 Clouds 31 1019 30 0 7.46 265 17:18 16.06.2020
2222 Clouds 31 1019 30 0 7.46 265 16:42 16.06.2020
2223 Clouds 29 1019 26 10000 5.7 280 16:21 16.06.2020
2224 Clouds 29 1019 26 10000 6.2 250 15:59 16.06.2020
2225 Clouds 29 1019 26 10000 6.2 260 15:41 16.06.2020
2226 Clouds 28 1020 32 10000 4.6 260 15:23 16.06.2020
2227 -273 0 0 0 0 0 14:59 16.06.2020
2228 Clouds 29 1020 32 10000 4.6 260 14:41 16.06.2020
2229 Clouds 29 1020 32 10000 4.6 260 14:23 16.06.2020
2230 Clear 28 1021 32 10000 2.6 250 13:49 16.06.2020
2231 Clear 27 1021 32 10000 2.6 250 13:26 16.06.2020
2232 Clear 26 1021 33 10000 2.1 290 12:57 16.06.2020
2233 Clear 25 1021 33 10000 2.1 290 12:38 16.06.2020
2234 Clear 25 1021 33 10000 2.1 290 12:20 16.06.2020
2235 Clear 24 1021 43 10000 1 0 11:55 16.06.2020
2236 Clear 24 1021 43 10000 1 0 11:37 16.06.2020
2237 Clear 24 1021 43 10000 1 0 11:37 16.06.2020
2238 Clear 23 1021 43 10000 1 0 11:19 16.06.2020
2239 Clear 23 1022 46 10000 1.5 320 10:42 16.06.2020
2240 Clear 22 1022 46 10000 1.5 320 10:21 16.06.2020
2241 Clear 21 1021 60 10000 1 0 09:58 16.06.2020
2242 Clear 21 1021 60 10000 1 0 09:40 16.06.2020
2243 Clear 20 1021 60 10000 1 0 09:21 16.06.2020
2244 Clouds 16 1021 87 10000 1 0 08:44 16.06.2020
2245 Clouds 16 1021 87 10000 1 0 08:25 16.06.2020
2246 Clouds 17 1021 66 0 1.45 330 07:50 16.06.2020
2247 Clouds 19 1021 69 10000 1.5 300 07:27 16.06.2020
2248 Clouds 19 1021 69 10000 1.5 300 07:27 16.06.2020
2249 Clouds 18 1020 69 10000 1.5 280 06:54 16.06.2020
2250 Clouds 19 1020 65 10000 2.6 280 06:27 16.06.2020
2251 Clouds 18 1020 65 10000 1 0 05:39 16.06.2020
2252 Clouds 18 1020 62 10000 1 0 04:39 16.06.2020
2253 Clouds 18 1021 87 10000 1.5 220 02:59 16.06.2020
2254 Clouds 19 1021 77 10000 2.1 0 01:59 16.06.2020
2255 Clouds 19 1021 77 10000 2.1 0 01:30 16.06.2020
2256 Clouds 19 1021 72 10000 2.6 190 00:45 16.06.2020
2257 Clouds 20 1021 72 10000 2.6 190 00:21 16.06.2020
2258 Clouds 21 1021 64 10000 3.1 190 23:43 15.06.2020
2259 Clouds 21 1021 64 10000 3.1 190 23:23 15.06.2020
2260 Clouds 21 1021 56 10000 3.1 210 22:56 15.06.2020
2261 Clouds 22 1021 56 10000 3.1 210 22:38 15.06.2020
2262 Clouds 22 1021 56 10000 3.1 210 22:18 15.06.2020
2263 Clouds 23 1021 46 10000 5.7 220 21:56 15.06.2020
2264 Clouds 23 1021 46 10000 5.7 220 21:37 15.06.2020
2265 Clouds 23 1021 46 10000 5.7 220 21:19 15.06.2020
2266 Clouds 23 1021 46 10000 5.7 220 21:19 15.06.2020
2267 Clouds 24 1019 47 0 3.13 206 20:56 15.06.2020
2268 Clouds 25 1018 43 0 4.02 231 20:37 15.06.2020
2269 Clouds 25 1018 43 0 3.58 231 20:19 15.06.2020
2270 Clouds 26 1018 44 0 4.02 225 19:55 15.06.2020
2271 Clouds 26 1018 43 0 4.02 227 19:37 15.06.2020
2272 Clear 27 1020 33 10000 6.7 190 19:19 15.06.2020
2273 Clear 27 1020 33 10000 6.7 200 18:55 15.06.2020
2274 Clear 28 1020 33 10000 6.2 200 18:36 15.06.2020
2275 Clear 27 1020 25 10000 6.2 200 18:18 15.06.2020
2276 Clear 29 1021 25 10000 4.6 210 17:42 15.06.2020
2277 Clear 29 1018 37 0 3.13 251 17:21 15.06.2020
2278 Clear 28 1019 34 0 2.68 227 16:58 15.06.2020
2279 Clear 28 1019 38 0 1.79 264 16:40 15.06.2020
2280 Clear 28 1020 43 0 2.68 228 16:19 15.06.2020
2281 Clear 27 1020 45 0 3.58 189 15:56 15.06.2020
2282 Clear 27 1023 39 10000 3.6 210 15:36 15.06.2020
2283 Clear 27 1023 39 10000 3.6 210 15:18 15.06.2020
2284 Clear 26 1023 39 10000 3.6 210 14:42 15.06.2020
2285 Clear 26 1023 39 10000 3.6 210 14:21 15.06.2020
2286 Clear 26 1023 39 10000 2.1 240 13:59 15.06.2020
2287 Clear 26 1023 39 10000 2.1 240 13:40 15.06.2020
2288 Clear 25 1023 39 10000 2.1 240 13:22 15.06.2020
2289 Clear 25 1023 44 10000 2.1 0 12:57 15.06.2020
2290 Clear 25 1023 44 10000 2.1 0 12:39 15.06.2020
2291 Clear 24 1023 44 10000 2.1 0 12:21 15.06.2020
2292 Clear 23 1023 46 10000 2.1 50 11:43 15.06.2020
2293 Clear 23 1023 46 10000 2.1 50 11:25 15.06.2020
2294 Clear 21 1023 56 10000 2.6 50 10:45 15.06.2020
2295 Clear 21 1023 56 10000 2.6 50 10:23 15.06.2020
2296 Clear 20 1023 68 10000 0.5 0 09:57 15.06.2020
2297 Clear 19 1023 68 10000 0.5 0 09:39 15.06.2020
2298 Clear 19 1023 68 10000 0.5 0 09:20 15.06.2020
2299 Clear 16 1022 82 10000 1 20 08:41 15.06.2020
2300 Clear 16 1022 82 10000 1 20 08:23 15.06.2020
2301 Clear 16 1022 87 10000 0.5 0 07:47 15.06.2020
2302 Clear 15 1022 87 10000 0.5 100 07:28 15.06.2020
2303 Clear 15 1022 82 10000 1 0 06:49 15.06.2020
2304 Clear 15 1022 82 10000 0.5 80 06:26 15.06.2020
2305 Clear 16 1022 82 10000 1 0 05:47 15.06.2020
2306 Clear 16 1022 82 10000 1.5 170 05:26 15.06.2020
2307 Clear 16 1022 82 10000 2.1 180 04:20 15.06.2020
2308 Clear 17 1022 77 10000 2.6 180 03:42 15.06.2020
2309 Clear 17 1022 77 10000 2.6 180 02:54 15.06.2020
2310 Clear 18 1022 72 10000 2.6 190 01:58 15.06.2020
2311 Clear 18 1022 68 10000 3.1 200 01:37 15.06.2020
2312 Clear 18 1022 68 10000 3.1 200 01:18 15.06.2020
2313 Clear 19 1022 63 10000 4.1 210 00:39 15.06.2020
2314 Clear 19 1022 63 10000 4.1 210 00:20 15.06.2020
2315 Clear 19 1022 60 10000 4.1 220 23:47 14.06.2020
2316 Clear 20 1021 56 10000 4.1 220 23:26 14.06.2020
2317 Clear 20 1021 49 10000 5.1 230 22:58 14.06.2020
2318 Clear 21 1021 49 10000 5.7 220 22:40 14.06.2020
2319 Clear 21 1021 49 10000 5.7 220 22:20 14.06.2020
2320 Clear 22 1020 46 10000 6.2 220 21:58 14.06.2020
2321 Clear 22 1020 43 10000 7.7 220 21:40 14.06.2020
2322 Clear 23 1020 43 10000 7.7 220 21:19 14.06.2020
2323 Clear 23 1020 43 10000 8.2 220 20:59 14.06.2020
2324 Clear 24 1020 41 10000 7.7 220 20:40 14.06.2020
2325 Clear 24 1020 41 10000 7.7 220 20:21 14.06.2020
2326 Clear 24 1020 41 10000 7.2 220 19:59 14.06.2020
2327 Clear 24 1020 41 10000 7.2 220 19:59 14.06.2020
2328 Clear 24 1020 41 10000 7.2 220 19:59 14.06.2020
2329 Clear 25 1020 33 10000 7.7 220 19:40 14.06.2020
2330 Clear 25 1020 33 10000 7.7 220 19:20 14.06.2020
2331 Clear 26 1020 34 10000 6.7 210 18:58 14.06.2020
2332 Clear 26 1020 34 10000 7.7 220 18:40 14.06.2020
2333 Clear 26 1020 34 10000 7.7 220 18:21 14.06.2020
2334 Clear 26 1020 38 10000 7.7 210 17:58 14.06.2020
2335 Clear 26 1020 34 10000 7.2 220 17:40 14.06.2020
2336 Clear 26 1020 34 10000 7.2 220 17:20 14.06.2020
2337 Clear 26 1020 39 10000 6.7 200 16:58 14.06.2020
2338 Clear 26 1020 39 10000 6.2 210 16:39 14.06.2020
2339 Clear 26 1020 39 10000 6.2 210 16:19 14.06.2020
2340 Clear 27 1020 32 10000 4.6 0 15:55 14.06.2020
2341 Clear 26 1020 36 10000 3.1 210 15:36 14.06.2020
2342 Clear 26 1019 46 0 4.47 191 15:18 14.06.2020
2343 Clear 26 1021 34 10000 3.1 240 14:41 14.06.2020
2344 Clear 26 1021 34 10000 3.1 240 14:23 14.06.2020
2345 Clear 25 1021 33 10000 1.5 180 13:59 14.06.2020
2346 Clear 26 1021 36 10000 2.6 260 13:40 14.06.2020
2347 Clear 26 1021 36 10000 2.6 260 13:40 14.06.2020
2348 Clear 25 1021 36 10000 2.6 260 13:21 14.06.2020
2349 Clear 25 1021 38 10000 1.5 210 12:57 14.06.2020
2350 Clear 25 1021 41 10000 1 0 12:39 14.06.2020
2351 Clear 24 1021 41 10000 1 0 12:21 14.06.2020
2352 Clear 23 1021 43 10000 1.5 230 11:57 14.06.2020
2353 Clear 23 1021 46 10000 1 90 11:38 14.06.2020
2354 Clear 23 1021 46 10000 1 90 11:20 14.06.2020
2355 Clear 22 1021 52 10000 1 0 10:42 14.06.2020
2356 Clear 21 1021 52 10000 1 0 10:20 14.06.2020
2357 Clear 21 1020 52 10000 1.5 320 09:56 14.06.2020
2358 Clear 20 1020 55 10000 1.5 270 09:38 14.06.2020
2359 Clear 19 1020 55 10000 1.5 270 09:20 14.06.2020
2360 Clear 18 1020 77 10000 0.5 0 08:41 14.06.2020
2361 Clouds 17 1020 77 10000 0.5 0 08:19 14.06.2020
2362 Clouds 16 1019 77 10000 0.5 160 07:52 14.06.2020
2363 Clouds 16 1019 82 10000 0.5 0 07:34 14.06.2020
2364 Clouds 16 1018 82 10000 1.5 180 06:40 14.06.2020
2365 Clouds 16 1018 82 10000 1.5 170 05:49 14.06.2020
2366 Clouds 16 1018 72 10000 0.78 57 05:21 14.06.2020
2367 Clouds 17 1018 72 10000 2.6 180 04:36 14.06.2020
2368 Clouds 17 1018 68 10000 3.1 200 03:44 14.06.2020
2369 Clouds 17 1019 63 10000 3.1 200 02:34 14.06.2020
2370 Clouds 18 1019 59 10000 3.6 200 01:54 14.06.2020
2371 Clouds 18 1019 52 10000 2.6 240 01:26 14.06.2020
2372 Clouds 19 1019 49 10000 3.1 260 00:47 14.06.2020
2373 Clouds 19 1018 56 10000 2.6 220 00:20 14.06.2020
2374 Clouds 19 1018 56 10000 3.1 230 23:46 13.06.2020
2375 Clouds 20 1018 56 10000 4.6 220 23:26 13.06.2020
2376 Clouds 20 1017 49 10000 4.6 220 22:58 13.06.2020
2377 Clouds 20 1017 49 10000 4.1 220 22:38 13.06.2020
2378 Clouds 21 1017 49 10000 4.1 220 22:19 13.06.2020
2379 Clouds 21 1017 43 10000 4.6 220 21:57 13.06.2020
2380 Clouds 22 1017 40 10000 5.1 230 21:39 13.06.2020
2381 Clouds 22 1017 40 10000 5.1 230 21:21 13.06.2020
2382 Clouds 23 1017 40 10000 5.1 230 20:44 13.06.2020
2383 Clouds 23 1017 36 10000 6.2 220 20:20 13.06.2020
2384 Clouds 24 1017 36 10000 6.7 210 19:59 13.06.2020
2385 Clouds 24 1017 33 10000 7.2 220 19:38 13.06.2020
2386 Clouds 24 1017 33 10000 7.2 220 19:19 13.06.2020
2387 Clouds 25 1017 33 10000 4.6 270 18:58 13.06.2020
2388 Clouds 25 1017 31 10000 2.6 180 18:39 13.06.2020
2389 Clear 26 1017 31 10000 2.6 180 18:20 13.06.2020
2390 Clear 26 1017 29 10000 3.1 250 17:57 13.06.2020
2391 Clear 26 1017 31 10000 3.1 210 17:38 13.06.2020
2392 Clear 25 1017 31 10000 3.1 210 17:20 13.06.2020
2393 Clear 25 1017 31 10000 3.1 340 16:54 13.06.2020
2394 Clear 25 1017 33 10000 3.1 260 16:36 13.06.2020
2395 Clear 24 1017 33 10000 3.1 260 16:18 13.06.2020
2396 Clouds 25 1018 33 10000 4.1 280 15:42 13.06.2020
2397 Clouds 24 1018 33 10000 4.1 280 15:21 13.06.2020
2398 Clouds 24 1018 33 10000 2.1 240 14:44 13.06.2020
2399 Clouds 23 1018 38 10000 3.6 240 14:25 13.06.2020
2400 Clouds 23 1018 38 10000 2.6 270 13:58 13.06.2020
2401 Clouds 23 1018 35 10000 3.1 270 13:40 13.06.2020
2402 Clouds 22 1018 35 10000 3.1 270 13:20 13.06.2020
2403 Clouds 21 1018 40 10000 2.6 200 12:44 13.06.2020
2404 Clouds 22 1018 43 10000 2.1 200 12:26 13.06.2020
2405 Clouds 21 1018 46 10000 1 0 11:57 13.06.2020
2406 Clouds 21 1017 49 10000 1 0 11:38 13.06.2020
2407 Clouds 20 1017 49 10000 1 0 11:19 13.06.2020
2408 Clouds 20 1017 49 10000 1 0 11:19 13.06.2020
2409 Clouds 20 1017 55 10000 1 0 10:56 13.06.2020
2410 Clear 19 1017 59 10000 1.5 350 10:38 13.06.2020
2411 Clear 19 1017 59 10000 1.5 350 10:18 13.06.2020
2412 Clear 17 1017 72 10000 1 0 09:44 13.06.2020
2413 Clear 16 1017 72 10000 1 0 09:22 13.06.2020
2414 Clear 15 1016 72 10000 1 0 08:49 13.06.2020
2415 Clear 14 1016 76 10000 1 0 08:30 13.06.2020
2416 Clear 15 1016 76 10000 1.5 350 07:54 13.06.2020
2417 Clear 14 1016 82 10000 1 340 07:28 13.06.2020
2418 Clear 15 1016 76 10000 1.5 330 06:50 13.06.2020
2419 Clear 15 1015 76 10000 1 0 06:30 13.06.2020
2420 Clear 15 1015 77 10000 1.61 304 05:47 13.06.2020
2421 Clear 15 1015 77 10000 1 0 05:25 13.06.2020
2422 Clear 16 1015 77 10000 1.83 284 03:48 13.06.2020
2423 Clear 16 1015 72 10000 1.5 220 02:54 13.06.2020
2424 Clear 16 1015 72 10000 3.1 220 02:34 13.06.2020
2425 Clear 17 1015 63 10000 3.1 240 01:46 13.06.2020
2426 Clear 17 1015 68 10000 3.1 220 01:21 13.06.2020
2427 Clear 18 1014 59 10000 4.6 240 00:42 13.06.2020
2428 Clear 18 1014 59 10000 4.6 240 00:23 13.06.2020
2429 Clear 18 1013 59 10000 6.2 220 23:42 12.06.2020
2430 Clear 19 1013 59 10000 6.2 220 23:19 12.06.2020
2431 Clear 19 1013 59 10000 5.7 230 22:59 12.06.2020
2432 Clear 19 1013 56 10000 6.2 230 22:40 12.06.2020
2433 Clear 19 1013 56 10000 6.2 230 22:19 12.06.2020
2434 Clear 20 1012 52 10000 6.7 240 21:49 12.06.2020
2435 Clear 20 1012 46 10000 6.7 230 21:24 12.06.2020
2436 Clear 21 1011 46 10000 7.7 240 20:58 12.06.2020
2437 Clear 21 1011 43 10000 7.7 240 20:40 12.06.2020
2438 Clear 22 1011 43 10000 7.7 240 20:22 12.06.2020
2439 Clear 22 1010 40 10000 8.7 240 19:56 12.06.2020
2440 Clear 22 1010 36 10000 7.7 260 19:38 12.06.2020
2441 Clear 23 1009 50 0 5.36 247 19:18 12.06.2020
2442 Clear 23 1010 29 10000 3.6 250 18:39 12.06.2020
2443 Clear 24 1010 29 10000 3.6 250 18:19 12.06.2020
2444 Clear 24 1010 27 10000 5.1 260 17:54 12.06.2020
2445 Clear 24 1010 31 10000 5.1 210 17:36 12.06.2020
2446 Clear 24 1010 31 10000 5.1 210 17:18 12.06.2020
2447 Clear 24 1010 31 10000 5.1 290 16:40 12.06.2020
2448 Clear 24 1010 31 10000 5.1 290 16:19 12.06.2020
2449 Clear 23 1010 33 10000 1.5 250 15:47 12.06.2020
2450 Clouds 23 1011 35 10000 5.1 250 15:25 12.06.2020
2451 Clouds 22 1011 37 10000 6.2 240 14:56 12.06.2020
2452 Clouds 22 1012 46 10000 3.6 260 14:38 12.06.2020
2453 Clouds 21 1012 46 10000 3.6 260 14:19 12.06.2020
2454 Clouds 21 1012 46 10000 3.6 260 13:41 12.06.2020
2455 Clouds 21 1012 46 10000 3.6 260 13:21 12.06.2020
2456 Clouds 20 1012 45 10000 3.1 240 12:41 12.06.2020
2457 Clouds 20 1012 45 10000 3.1 240 12:20 12.06.2020
2458 Clouds 20 1012 42 10000 2.6 310 11:58 12.06.2020
2459 Clouds 20 1012 42 10000 2.6 310 11:39 12.06.2020
2460 Clouds 20 1012 42 10000 2.6 310 11:21 12.06.2020
2461 Clouds 19 1012 48 10000 2.1 330 10:46 12.06.2020
2462 Clouds 18 1012 48 10000 2.1 330 10:24 12.06.2020
2463 Clouds 18 1012 63 10000 2.6 300 09:47 12.06.2020
2464 Clouds 17 1012 63 10000 2.6 300 09:22 12.06.2020
2465 Clouds 17 1011 72 10000 3.6 280 08:46 12.06.2020
2466 Clouds 17 1011 72 10000 3.6 280 08:25 12.06.2020
2467 Clouds 17 1011 72 10000 5.7 280 07:56 12.06.2020
2468 Clouds 17 1010 72 10000 3.6 300 07:38 12.06.2020
2469 Clouds 17 1010 72 10000 3.6 300 07:19 12.06.2020
2470 Clouds 17 1010 72 10000 5.7 280 06:38 12.06.2020
2471 Clouds 17 1010 72 10000 5.7 280 06:19 12.06.2020
2472 Clouds 17 1010 67 10000 6.2 280 05:47 12.06.2020
2473 Clouds 17 1010 68 10000 5.1 280 05:20 12.06.2020
2474 Clouds 18 1011 63 10000 6.7 260 03:43 12.06.2020
2475 Clouds 19 1011 68 10000 6.2 250 01:58 12.06.2020
2476 Clouds 19 1011 68 10000 6.2 250 01:32 12.06.2020
2477 Clouds 20 1011 72 10000 6.2 240 00:57 12.06.2020
2478 Clouds 20 1011 68 10000 6.2 240 00:38 12.06.2020
2479 Clouds 20 1011 68 10000 6.2 240 00:19 12.06.2020
2480 Clouds 20 1011 64 10000 5.1 250 23:56 11.06.2020
2481 Clouds 20 1011 64 10000 5.7 240 23:36 11.06.2020
2482 Clouds 20 1011 64 10000 5.7 240 23:18 11.06.2020
2483 Clouds 21 1010 60 10000 6.2 230 22:40 11.06.2020
2484 Clouds 21 1010 60 10000 6.2 230 22:21 11.06.2020
2485 Clouds 21 1010 60 10000 7.7 230 21:57 11.06.2020
2486 Clouds 22 1010 60 10000 8.2 220 21:38 11.06.2020
2487 Clouds 22 1010 60 10000 8.2 220 21:20 11.06.2020
2488 Clouds 22 1011 60 10000 8.7 220 20:56 11.06.2020
2489 Clouds 22 1011 60 10000 9.3 220 20:38 11.06.2020
2490 Clouds 22 1011 60 10000 9.3 220 20:20 11.06.2020
2491 Clouds 23 1009 64 0 4.02 232 19:42 11.06.2020
2492 Clouds 23 1011 47 10000 8.2 230 19:22 11.06.2020
2493 Clouds 24 1011 49 10000 8.7 240 18:44 11.06.2020
2494 Clouds 24 1011 47 10000 9.8 240 18:26 11.06.2020
2495 Clouds 24 1011 47 10000 9.8 240 17:59 11.06.2020
2496 Clouds 24 1011 44 10000 10.8 220 17:39 11.06.2020
2497 Clear 24 1011 44 10000 10.3 220 17:20 11.06.2020
2498 Clear 24 1011 44 10000 10.3 220 16:59 11.06.2020
2499 Clear 24 1011 46 10000 10.8 220 16:41 11.06.2020
2500 Clear 24 1012 41 10000 9.8 220 16:23 11.06.2020
2501 Clear 24 1012 41 10000 9.8 220 15:57 11.06.2020
2502 Clear 24 1012 36 10000 6.7 240 15:38 11.06.2020
2503 Clear 25 1012 31 10000 7.2 240 15:20 11.06.2020
2504 Clear 24 1013 33 10000 5.7 240 14:44 11.06.2020
2505 Clear 24 1013 40 10000 7.7 220 14:21 11.06.2020
2506 Clear 24 1013 40 10000 7.7 220 13:57 11.06.2020
2507 Clear 23 1013 40 10000 7.7 230 13:39 11.06.2020
2508 Clear 23 1013 46 10000 7.7 220 13:20 11.06.2020
2509 Clear 23 1013 46 10000 7.7 220 12:56 11.06.2020
2510 Clear 23 1013 46 10000 7.7 220 12:56 11.06.2020
2511 Clear 22 1013 46 10000 6.7 220 12:38 11.06.2020
2512 Clear 22 1013 52 10000 4.6 220 12:19 11.06.2020
2513 Clear 21 1013 52 10000 4.6 220 11:57 11.06.2020
2514 Clear 21 1014 49 10000 5.1 220 11:38 11.06.2020
2515 Clear 20 1014 59 10000 3.6 220 11:20 11.06.2020
2516 Clear 20 1014 59 10000 3.6 220 10:57 11.06.2020
2517 Clear 19 1014 63 10000 4.1 220 10:38 11.06.2020
2518 Clear 18 1014 72 10000 3.1 210 10:18 11.06.2020
2519 Clear 17 1014 77 10000 3.1 210 09:41 11.06.2020
2520 Clear 16 1014 77 10000 3.6 210 09:23 11.06.2020
2521 Clear 16 1014 77 10000 3.1 200 08:44 11.06.2020
2522 Clear 15 1014 77 10000 3.1 220 08:20 11.06.2020
2523 Clear 15 1014 77 10000 3.1 220 07:43 11.06.2020
2524 Clear 16 1014 77 10000 3.1 220 07:25 11.06.2020
2525 Clear 16 1014 72 10000 2.6 200 06:52 11.06.2020
2526 Clear 16 1014 72 10000 2.6 200 06:28 11.06.2020
2527 Clear 16 1014 77 10000 3.1 180 05:36 11.06.2020
2528 Clear 18 1015 68 10000 2.6 190 03:50 11.06.2020
2529 Clouds 18 1015 68 10000 3.6 200 03:23 11.06.2020
2530 Clouds 18 1015 68 10000 3.1 190 02:32 11.06.2020
2531 Clouds 19 1015 60 10000 4.6 210 01:50 11.06.2020
2532 Clouds 19 1015 60 10000 5.1 210 01:24 11.06.2020
2533 Clouds 20 1015 52 10000 5.1 220 00:50 11.06.2020
2534 Clouds 20 1015 49 10000 4.6 210 00:27 11.06.2020
2535 Clouds 21 1015 43 10000 4.6 220 23:47 10.06.2020
2536 Clouds 21 1015 43 10000 4.6 220 23:27 10.06.2020
2537 Clouds 22 1015 40 10000 5.1 230 22:57 10.06.2020
2538 Clouds 23 1014 41 10000 5.1 220 22:38 10.06.2020
2539 Clear 24 1014 38 10000 6.2 220 22:19 10.06.2020
2540 Clear 24 1014 38 10000 6.2 220 21:58 10.06.2020
2541 Clear 25 1014 38 10000 6.7 220 21:39 10.06.2020
2542 Clear 26 1014 36 10000 7.2 220 21:18 10.06.2020
2543 Clear 26 1014 36 10000 7.2 220 20:57 10.06.2020
2544 Clear 26 1014 36 10000 7.7 220 20:39 10.06.2020
2545 Clouds 27 1014 34 10000 7.2 220 20:21 10.06.2020
2546 Clouds 27 1014 36 10000 7.7 220 19:42 10.06.2020
2547 Clouds 28 1014 37 10000 6.2 220 19:20 10.06.2020
2548 Clouds 28 1014 32 10000 6.7 220 19:00 10.06.2020
2549 Clouds 28 1014 32 10000 6.7 220 18:41 10.06.2020
2550 Clouds 28 1012 41 0 4.02 225 18:20 10.06.2020
2551 Clouds 28 1014 39 10000 5.7 220 17:58 10.06.2020
2552 Clouds 28 1014 39 10000 5.7 220 17:58 10.06.2020
2553 Clouds 28 1013 45 0 4.92 196 17:40 10.06.2020
2554 Clouds 28 1014 26 10000 4.6 220 17:19 10.06.2020
2555 Clouds 28 1014 26 10000 4.6 220 16:58 10.06.2020
2556 Clouds 28 1015 34 10000 4.1 240 16:39 10.06.2020
2557 Clouds 28 1015 34 10000 4.1 240 16:39 10.06.2020
2558 Clouds 28 1015 42 10000 4.1 250 16:20 10.06.2020
2559 Clouds 28 1015 42 10000 4.1 250 16:20 10.06.2020
2560 Clouds 28 1015 42 10000 4.1 250 15:55 10.06.2020
2561 Clouds 28 1015 44 10000 3.1 0 15:36 10.06.2020
2562 Clouds 27 1015 42 10000 4.6 230 15:18 10.06.2020
2563 Clouds 26 1016 41 10000 2.6 190 14:40 10.06.2020
2564 Clouds 26 1016 44 10000 2.6 230 14:21 10.06.2020
2565 Clouds 26 1016 44 10000 2.6 230 13:56 10.06.2020
2566 Clouds 25 1016 57 10000 2.6 230 13:38 10.06.2020
2567 Clouds 25 1016 57 10000 2.6 230 13:19 10.06.2020
2568 Clouds 24 1016 57 10000 2.6 230 12:40 10.06.2020
2569 Clouds 23 1017 64 10000 0.5 0 12:18 10.06.2020
2570 Clouds 23 1017 64 10000 0.5 0 11:44 10.06.2020
2571 Clouds 22 1017 68 10000 0.5 0 11:20 10.06.2020
2572 Clouds 22 1017 68 10000 0.5 0 10:58 10.06.2020
2573 Clouds 21 1017 68 10000 0.5 0 10:40 10.06.2020
2574 Clouds 21 1017 68 10000 0.5 0 10:40 10.06.2020
2575 Clouds 20 1017 72 10000 0.5 0 10:21 10.06.2020
2576 Clouds 19 1017 72 10000 0.5 0 09:44 10.06.2020
2577 Clouds 19 1017 72 10000 0.5 0 09:26 10.06.2020
2578 Clouds 17 1016 82 10000 0.5 0 08:59 10.06.2020
2579 Clouds 17 1016 82 10000 0.5 0 08:41 10.06.2020
2580 Clouds 17 1016 82 10000 0.97 10 08:22 10.06.2020
2581 Clouds 16 1016 87 10000 1 0 07:42 10.06.2020
2582 Clouds 16 1016 82 10000 0.5 0 07:23 10.06.2020
2583 Clouds 16 1016 82 10000 1 40 06:52 10.06.2020
2584 Clouds 17 1016 82 10000 1 40 06:33 10.06.2020
2585 Clouds 17 1016 87 10000 0.5 20 06:00 10.06.2020
2586 Clouds 17 1016 82 10000 0.5 0 05:31 10.06.2020
2587 Clouds 17 1016 82 10000 2.6 170 04:49 10.06.2020
2588 Clear 17 1016 82 10000 2.6 170 04:28 10.06.2020
2589 Clouds 18 1017 82 10000 3.1 180 02:24 10.06.2020
2590 Clouds 18 1017 68 10000 3.1 180 01:42 10.06.2020
2591 Clouds 19 1017 77 10000 1.5 210 00:55 10.06.2020
2592 Clouds 19 1017 77 10000 1.5 210 00:36 10.06.2020
2593 Clear 20 1017 63 10000 1.5 220 00:18 10.06.2020
2594 Clear 20 1017 63 10000 1.5 220 23:41 09.06.2020
2595 Clear 21 1017 63 10000 1.5 220 23:23 09.06.2020
2596 Clear 22 1016 52 10000 1.5 220 22:57 09.06.2020
2597 Clear 22 1016 52 10000 1.5 220 22:39 09.06.2020
2598 Clear 23 1016 41 10000 4.6 240 22:20 09.06.2020
2599 Clear 23 1016 41 10000 4.6 240 21:57 09.06.2020
2600 Clear 24 1016 41 10000 4.6 240 21:39 09.06.2020
2601 Clear 24 1015 47 10000 5.7 220 21:21 09.06.2020
2602 Clear 25 1015 47 10000 5.7 220 20:57 09.06.2020
2603 Clear 25 1015 47 10000 5.7 220 20:39 09.06.2020
2604 Clear 25 1015 44 10000 6.2 220 20:20 09.06.2020
2605 Clear 25 1015 44 10000 6.2 220 19:59 09.06.2020
2606 Clear 26 1015 44 10000 6.2 220 19:39 09.06.2020
2607 Clear 26 1015 39 10000 6.7 220 19:20 09.06.2020
2608 Clear 27 1015 39 10000 6.7 220 18:58 09.06.2020
2609 Clear 27 1015 39 10000 6.7 220 18:39 09.06.2020
2610 Clear 27 1015 34 10000 6.2 220 18:21 09.06.2020
2611 Clear 27 1015 32 10000 5.1 220 17:56 09.06.2020
2612 Clear 27 1015 32 10000 5.1 220 17:37 09.06.2020
2613 Clear 27 1015 30 10000 4.1 230 17:19 09.06.2020
2614 Clear 27 1014 39 0 3.13 196 16:43 09.06.2020
2615 Clear 28 1016 28 10000 2.1 220 16:23 09.06.2020
2616 Clear 27 1016 28 10000 2.6 210 15:57 09.06.2020
2617 Clear 27 1016 26 10000 3.6 230 15:38 09.06.2020
2618 Clear 27 1016 29 10000 3.1 230 15:20 09.06.2020
2619 Clear 27 1016 29 10000 3.1 230 14:55 09.06.2020
2620 Clear 26 1017 31 10000 3.1 260 14:37 09.06.2020
2621 Clear 26 1017 38 10000 3.1 240 14:18 09.06.2020
2622 Clear 25 1017 41 10000 3.1 220 13:43 09.06.2020
2623 Clear 24 1016 47 0 2.24 213 13:21 09.06.2020
2624 Clear 24 1017 46 10000 2.6 210 12:59 09.06.2020
2625 Clear 24 1017 43 10000 2.6 240 12:40 09.06.2020
2626 Clear 23 1016 52 0 0.89 202 12:19 09.06.2020
2627 Clear 22 1017 49 10000 1.5 270 11:55 09.06.2020
2628 Clear 22 1017 52 10000 1.5 240 11:37 09.06.2020
2629 Clear 22 1017 56 10000 2.1 240 11:19 09.06.2020
2630 Clear 21 1017 59 10000 1 200 10:44 09.06.2020
2631 Clear 20 1017 59 10000 1 200 10:25 09.06.2020
2632 Clear 18 1017 68 10000 1 0 09:55 09.06.2020
2633 Clear 18 1017 72 10000 1 0 09:36 09.06.2020
2634 Clear 17 1017 77 10000 1.5 170 09:18 09.06.2020
2635 Clear 16 1017 82 10000 2.1 160 08:39 09.06.2020
2636 Clear 15 1016 87 10000 1.5 160 08:20 09.06.2020
2637 Clear 15 1016 87 10000 2.1 150 07:40 09.06.2020
2638 Clouds 15 1016 87 10000 2.1 170 07:22 09.06.2020
2639 Clear 15 1016 82 10000 2.6 170 06:55 09.06.2020
2640 Clear 15 1016 82 10000 2.6 170 06:36 09.06.2020
2641 Clear 16 1016 82 10000 1 0 05:36 09.06.2020
2642 Clear 16 1016 82 10000 2.1 170 03:53 09.06.2020
2643 Clear 17 1016 68 10000 2.6 170 02:20 09.06.2020
2644 Clear 18 1016 68 10000 3.1 180 01:36 09.06.2020
2645 Clear 18 1016 63 10000 3.1 180 01:18 09.06.2020
2646 Clear 18 1016 63 10000 3.6 200 00:40 09.06.2020
2647 Clear 19 1016 60 10000 3.6 190 00:19 09.06.2020
2648 Clear 20 1015 60 10000 3.1 200 23:41 08.06.2020
2649 Clear 20 1015 56 10000 4.1 200 23:21 08.06.2020
2650 Clear 20 1015 56 10000 4.1 200 22:58 08.06.2020
2651 Clouds 21 1015 52 10000 5.7 210 22:38 08.06.2020
2652 Clouds 21 1015 52 10000 6.7 220 22:20 08.06.2020
2653 Clouds 21 1015 52 10000 6.7 220 21:56 08.06.2020
2654 Clouds 22 1014 49 10000 7.2 220 21:37 08.06.2020
2655 Clouds 22 1014 43 10000 7.7 220 21:19 08.06.2020
2656 Clear 23 1014 43 10000 7.7 220 20:55 08.06.2020
2657 Clear 23 1014 43 10000 7.7 220 20:37 08.06.2020
2658 Clear 23 1014 43 10000 7.2 220 20:18 08.06.2020
2659 Clear 23 1014 43 10000 7.2 220 20:18 08.06.2020
2660 Clear 24 1014 41 10000 7.7 220 19:43 08.06.2020
2661 Clear 24 1014 41 10000 7.7 220 19:21 08.06.2020
2662 Clouds 24 1014 38 10000 6.2 210 18:44 08.06.2020
2663 Clouds 25 1014 38 10000 7.2 220 18:22 08.06.2020
2664 Clouds 25 1014 38 10000 7.2 220 17:58 08.06.2020
2665 Clouds 25 1014 36 10000 5.7 250 17:40 08.06.2020
2666 Clouds 25 1014 33 10000 4.1 200 17:22 08.06.2020
2667 Clouds 26 1014 33 10000 4.1 200 16:58 08.06.2020
2668 Clouds 26 1014 33 10000 4.1 200 16:58 08.06.2020
2669 Clouds 26 1014 33 10000 3.6 250 16:40 08.06.2020
2670 Clouds 26 1015 36 10000 4.6 230 16:21 08.06.2020
2671 Clouds 25 1015 36 10000 3.1 220 15:44 08.06.2020
2672 Clear 24 1015 38 10000 3.1 280 15:22 08.06.2020
2673 Clear 24 1015 38 10000 3.1 280 14:59 08.06.2020
2674 Clear 24 1015 38 10000 3.1 280 14:40 08.06.2020
2675 Clouds 23 1016 43 10000 1.5 0 14:20 08.06.2020
2676 Clouds 22 1016 43 10000 1.5 0 13:44 08.06.2020
2677 Clear 21 1016 45 10000 2.1 270 13:25 08.06.2020
2678 Clear 21 1016 45 10000 2.1 270 12:44 08.06.2020
2679 Clear 21 1016 45 10000 2.1 270 12:44 08.06.2020
2680 Clear 19 1016 55 10000 2.1 240 12:22 08.06.2020
2681 Clear 19 1016 55 10000 2.1 240 11:59 08.06.2020
2682 Clear 18 1016 55 10000 2.1 240 11:41 08.06.2020
2683 Clear 18 1016 55 10000 2.1 280 11:23 08.06.2020
2684 Clear 17 1016 55 10000 2.1 280 10:59 08.06.2020
2685 Clear 17 1016 55 10000 2.1 280 10:40 08.06.2020
2686 Clear 16 1016 62 10000 3.1 280 10:21 08.06.2020
2687 Clear 16 1016 62 10000 3.1 280 09:58 08.06.2020
2688 Clear 16 1016 62 10000 3.1 280 09:58 08.06.2020
2689 Clear 16 1016 62 10000 3.1 280 09:58 08.06.2020
2690 Clear 16 1016 62 10000 3.1 280 09:40 08.06.2020
2691 Clear 15 1015 67 10000 2.1 280 09:22 08.06.2020
2692 Clear 15 1015 67 10000 2.1 280 08:47 08.06.2020
2693 Clear 15 1015 58 10000 4.1 280 08:23 08.06.2020
2694 Clouds 15 1015 58 10000 3.1 300 07:46 08.06.2020
2695 Clouds 15 1014 55 10000 4.6 310 07:24 08.06.2020
2696 Clouds 15 1014 55 10000 3.6 330 06:54 08.06.2020
2697 Clouds 16 1014 55 10000 3.6 330 06:35 08.06.2020
2698 Clouds 17 1014 59 10000 2.6 310 05:53 08.06.2020
2699 Clouds 18 1013 63 10000 2.1 340 04:32 08.06.2020
2700 Clear 19 1013 60 10000 4.6 290 02:54 08.06.2020
2701 Clear 19 1013 72 10000 2.6 240 02:25 08.06.2020
2702 Clear 19 1014 72 10000 3.1 220 01:38 08.06.2020
2703 Clear 20 1014 72 10000 4.1 220 00:41 08.06.2020
2704 Clear 20 1014 68 10000 4.6 230 00:19 08.06.2020
2705 Clouds 20 1014 68 10000 5.7 230 23:38 07.06.2020
2706 Clouds 21 1014 64 10000 6.2 230 23:18 07.06.2020
2707 Clouds 21 1014 64 10000 6.2 230 22:55 07.06.2020
2708 Clouds 21 1013 60 10000 6.7 240 22:36 07.06.2020
2709 Clouds 22 1013 60 10000 4.6 240 22:18 07.06.2020
2710 Clouds 22 1013 60 10000 4.6 240 21:56 07.06.2020
2711 Clouds 22 1013 56 10000 7.7 230 21:36 07.06.2020
2712 Clouds 22 1013 56 10000 7.7 230 21:36 07.06.2020
2713 Clouds 23 1012 56 10000 8.7 220 21:18 07.06.2020
2714 Clouds 24 1012 53 10000 7.2 230 20:39 07.06.2020
2715 Clouds 24 1012 53 10000 6.2 220 20:20 07.06.2020
2716 Clouds 24 1012 53 10000 6.2 220 19:57 07.06.2020
2717 Clouds 25 1012 41 10000 7.2 250 19:38 07.06.2020
2718 Clouds 25 1012 41 10000 6.7 240 19:19 07.06.2020
2719 Clouds 26 1012 39 10000 7.2 260 18:56 07.06.2020
2720 Clouds 26 1012 39 10000 7.2 260 18:38 07.06.2020
2721 Clouds 26 1012 41 10000 6.7 240 18:19 07.06.2020
2722 Clouds 26 1011 49 0 3.58 255 17:56 07.06.2020
2723 Clouds 25 1013 41 10000 6.7 250 17:37 07.06.2020
2724 Clouds 26 1013 44 10000 6.7 280 17:19 07.06.2020
2725 Clouds 25 1013 44 10000 7.2 270 16:42 07.06.2020
2726 Clouds 25 1013 44 10000 7.2 270 16:42 07.06.2020
2727 Clouds 25 1013 44 10000 7.2 280 16:21 07.06.2020
2728 Clouds 25 1013 44 10000 8.2 260 15:40 07.06.2020
2729 Clouds 24 1013 44 10000 7.7 270 15:21 07.06.2020
2730 Clouds 24 1013 44 10000 7.2 260 14:41 07.06.2020
2731 Clouds 24 1013 44 10000 7.2 260 14:41 07.06.2020
2732 Clouds 24 1013 44 10000 7.2 260 14:41 07.06.2020
2733 Clouds 24 1013 44 10000 7.2 260 14:41 07.06.2020
2734 Clouds 24 1013 44 10000 7.2 260 14:22 07.06.2020
2735 Clouds 23 1013 46 10000 6.7 250 13:49 07.06.2020
2736 Clouds 23 1013 46 10000 6.2 280 13:22 07.06.2020
2737 Clear 23 1012 57 0 4.02 258 12:57 07.06.2020
2738 Clouds 22 1013 49 10000 5.1 260 12:39 07.06.2020
2739 Clouds 22 1013 49 10000 5.1 260 12:39 07.06.2020
2740 Clouds 22 1013 52 10000 5.1 270 12:20 07.06.2020
2741 Clouds 22 1013 52 10000 5.1 270 11:55 07.06.2020
2742 Clear 21 1013 52 10000 4.1 270 11:36 07.06.2020
2743 Clear 21 1013 60 10000 3.1 290 11:18 07.06.2020
2744 Clear 21 1012 60 10000 3.6 320 10:45 07.06.2020
2745 Clouds 20 1012 63 10000 2.6 270 10:20 07.06.2020
2746 Clouds 20 1012 63 10000 2.6 270 09:59 07.06.2020
2747 Clouds 20 1012 63 10000 2.1 230 09:39 07.06.2020
2748 Clouds 20 1012 63 10000 2.1 230 09:39 07.06.2020
2749 Clear 19 1012 72 10000 2.6 210 09:20 07.06.2020
2750 Clear 18 1012 72 10000 2.6 210 08:58 07.06.2020
2751 Clear 18 1012 72 10000 2.6 220 08:39 07.06.2020
2752 Clouds 17 1011 72 10000 2.6 210 08:21 07.06.2020
2753 Clouds 17 1011 72 10000 2.6 210 08:21 07.06.2020
2754 Clouds 17 1011 72 10000 2.6 200 07:39 07.06.2020
2755 Clouds 18 1011 72 10000 3.1 230 06:54 07.06.2020
2756 Clouds 18 1010 64 10000 3.1 230 05:54 07.06.2020
2757 Clouds 19 1010 72 10000 5.1 220 04:22 07.06.2020
2758 Clouds 20 1010 77 10000 3.1 220 03:48 07.06.2020
2759 Clouds 20 1010 72 10000 4.1 210 02:19 07.06.2020
2760 Clear 20 1010 72 10000 3.6 210 01:26 07.06.2020
2761 Clear 20 1010 64 10000 5.7 230 00:48 07.06.2020
2762 Clear 21 1010 56 10000 3.6 230 00:21 07.06.2020
2763 Clear 21 1010 56 10000 3.6 230 23:59 06.06.2020
2764 Clear 21 1010 53 10000 3.6 240 23:38 06.06.2020
2765 Clear 21 1010 53 10000 7.2 270 23:20 06.06.2020
2766 Clear 22 1010 53 10000 7.2 270 22:57 06.06.2020
2767 Clear 22 1009 46 10000 6.7 250 22:39 06.06.2020
2768 Clear 23 1009 47 10000 8.2 220 22:20 06.06.2020
2769 Clear 23 1009 47 10000 8.2 220 21:56 06.06.2020
2770 Clear 24 1008 41 10000 7.7 220 21:38 06.06.2020
2771 Clear 25 1008 36 10000 8.2 230 21:19 06.06.2020
2772 Clear 26 1008 32 10000 6.7 220 20:40 06.06.2020
2773 Clear 26 1007 41 0 4.47 221 20:20 06.06.2020
2774 -273 0 0 0 0 0 19:58 06.06.2020
2775 Clear 28 1008 32 10000 5.7 220 19:40 06.06.2020
2776 Clouds 28 1008 32 10000 6.2 220 19:21 06.06.2020
2777 Clouds 28 1008 32 10000 6.2 220 18:56 06.06.2020
2778 Clouds 28 1009 32 10000 5.1 220 18:38 06.06.2020
2779 Clouds 28 1009 32 10000 5.7 220 18:20 06.06.2020
2780 Clouds 29 1009 32 10000 5.7 230 17:43 06.06.2020
2781 Clouds 29 1010 34 10000 5.7 220 17:20 06.06.2020
2782 Clouds 29 1010 34 10000 5.7 220 16:57 06.06.2020
2783 Clouds 28 1010 36 10000 4.6 240 16:38 06.06.2020
2784 Clouds 28 1010 36 10000 4.6 250 16:20 06.06.2020
2785 Clouds 28 1011 36 10000 5.1 230 15:45 06.06.2020
2786 Clouds 27 1011 36 10000 4.1 230 15:21 06.06.2020
2787 Clouds 27 1011 36 10000 4.1 230 14:59 06.06.2020
2788 Clouds 27 1011 44 10000 3.6 240 14:38 06.06.2020
2789 Clouds 26 1011 44 10000 2.6 220 14:20 06.06.2020
2790 Clouds 25 1012 50 10000 3.6 230 13:49 06.06.2020
2791 Clouds 25 1012 50 10000 3.1 220 13:20 06.06.2020
2792 Clouds 24 1012 50 10000 3.1 220 12:59 06.06.2020
2793 Clouds 24 1012 56 10000 2.1 200 12:40 06.06.2020
2794 Clouds 23 1012 64 10000 1.5 210 12:21 06.06.2020
2795 Clouds 23 1012 64 10000 1.5 210 11:57 06.06.2020
2796 Clouds 22 1012 68 10000 2.1 230 11:38 06.06.2020
2797 Clouds 22 1013 73 10000 2.1 160 11:19 06.06.2020
2798 Clouds 21 1013 73 10000 2.1 160 10:57 06.06.2020
2799 Clear 21 1011 74 0 0.89 173 10:38 06.06.2020
2800 Clouds 20 1013 82 10000 2.1 160 10:20 06.06.2020
2801 Clouds 18 1013 88 10000 2.1 170 09:44 06.06.2020
2802 Clouds 19 1013 88 10000 2.1 170 09:44 06.06.2020
2803 Clouds 18 1013 88 10000 2.1 170 09:25 06.06.2020
2804 Clouds 18 1013 88 10000 1.5 140 08:49 06.06.2020
2805 Clouds 18 1013 88 10000 1.5 140 08:25 06.06.2020
2806 Clouds 18 1013 88 10000 1 150 07:59 06.06.2020
2807 Clouds 17 1013 88 10000 2.1 170 07:40 06.06.2020
2808 Clouds 17 1013 88 10000 2.1 170 07:20 06.06.2020
2809 Clouds 17 1013 93 10000 1.5 170 06:46 06.06.2020
2810 Clouds 17 1013 93 10000 1.5 170 06:26 06.06.2020
2811 Clouds 18 1013 82 10000 2.1 190 05:44 06.06.2020
2812 Clouds 18 1013 82 10000 2.1 190 05:24 06.06.2020
2813 Clouds 18 1013 88 10000 2.6 180 04:38 06.06.2020
2814 Clouds 18 1014 82 10000 2.1 190 02:36 06.06.2020
2815 Clear 19 1014 77 10000 2.6 210 01:41 06.06.2020
2816 Clear 19 1015 72 10000 3.6 230 01:18 06.06.2020
2817 Clear 19 1015 68 10000 4.1 240 00:41 06.06.2020
2818 Clear 20 1015 64 10000 4.1 230 00:23 06.06.2020
2819 Clear 20 1014 60 10000 5.1 220 23:40 05.06.2020
2820 Clear 21 1014 60 10000 4.6 230 23:21 05.06.2020
2821 Clear 21 1014 60 10000 4.6 230 22:59 05.06.2020
2822 Clear 22 1013 56 10000 4.6 220 22:41 05.06.2020
2823 Clear 22 1013 56 10000 4.6 220 22:23 05.06.2020
2824 Clear 23 1013 56 10000 4.1 220 21:58 05.06.2020
2825 Clear 24 1013 50 10000 5.7 230 21:40 05.06.2020
2826 Clear 24 1013 47 10000 6.7 230 21:19 05.06.2020
2827 Clear 25 1013 47 10000 6.7 230 20:56 05.06.2020
2828 Clear 25 1012 47 10000 7.7 230 20:37 05.06.2020
2829 Clear 25 1012 44 10000 7.7 220 20:19 05.06.2020
2830 Clear 26 1013 41 10000 8.2 220 19:40 05.06.2020
2831 Clear 26 1012 42 10000 7.2 220 19:22 05.06.2020
2832 Clear 27 1012 42 10000 7.2 220 18:54 05.06.2020
2833 Clear 27 1013 39 10000 8.2 220 18:36 05.06.2020
2834 Clear 27 1013 39 10000 8.2 220 18:18 05.06.2020
2835 Clear 27 1013 37 10000 6.7 240 17:55 05.06.2020
2836 Clear 27 1013 37 10000 6.7 240 17:37 05.06.2020
2837 Clear 27 1013 39 10000 7.7 220 17:18 05.06.2020
2838 Clear 28 1013 34 10000 5.1 260 16:38 05.06.2020
2839 Clear 28 1013 32 10000 4.1 250 16:19 05.06.2020
2840 Clouds 28 1014 37 10000 4.6 200 15:42 05.06.2020
2841 Clouds 28 1014 37 10000 4.6 200 15:21 05.06.2020
2842 Clouds 28 1014 37 10000 4.6 200 14:58 05.06.2020
2843 Clouds 27 1014 37 10000 4.6 200 14:40 05.06.2020
2844 Clouds 27 1014 39 10000 4.1 250 14:22 05.06.2020
2845 Clouds 27 1014 50 10000 4.1 200 13:57 05.06.2020
2846 Clouds 26 1014 50 10000 4.1 200 13:38 05.06.2020
2847 Clouds 26 1014 57 10000 2.1 0 13:19 05.06.2020
2848 Clouds 25 1014 57 10000 2.1 0 12:41 05.06.2020
2849 Clouds 25 1014 73 10000 2.1 220 12:19 05.06.2020
2850 Clouds 24 1014 73 10000 2.1 220 11:55 05.06.2020
2851 Clouds 24 1014 73 10000 2.1 220 11:37 05.06.2020
2852 Clouds 23 1014 78 10000 1.5 210 11:18 05.06.2020
2853 Clouds 22 1014 78 10000 1.5 210 10:42 05.06.2020
2854 Clouds 22 1014 83 10000 1.5 210 10:21 05.06.2020
2855 Clouds 21 1014 83 10000 1.5 210 09:58 05.06.2020
2856 Clouds 21 1014 83 10000 1.5 210 09:40 05.06.2020
2857 Clouds 20 1013 93 10000 1 0 09:21 05.06.2020
2858 Clouds 20 1014 88 10000 3.1 220 08:58 05.06.2020
2859 Clouds 19 1013 93 10000 1 0 08:40 05.06.2020
2860 Clouds 19 1013 88 10000 2.1 180 08:19 05.06.2020
2861 Clouds 19 1013 88 10000 2.1 180 07:53 05.06.2020
2862 Clouds 19 1013 88 10000 2.1 180 07:34 05.06.2020
2863 Clouds 19 1013 88 10000 1.5 190 06:50 05.06.2020
2864 Clear 19 1013 88 10000 2.1 180 05:23 05.06.2020
2865 Clouds 20 1013 82 10000 1.5 190 04:31 05.06.2020
2866 Clouds 20 1013 82 10000 3.1 210 03:49 05.06.2020
2867 Clouds 20 1014 82 10000 4.1 220 02:37 05.06.2020
2868 Clouds 20 1014 82 9000 4.1 210 02:18 05.06.2020
2869 Clouds 20 1013 82 10000 3.6 220 01:36 05.06.2020
2870 Clouds 20 1013 82 10000 3.6 220 00:56 05.06.2020
2871 Clouds 20 1013 82 10000 3.6 220 00:37 05.06.2020
2872 Clouds 21 1013 77 10000 4.1 220 00:18 05.06.2020
2873 Clouds 21 1013 77 10000 4.1 220 23:42 04.06.2020
2874 Clouds 21 1013 77 10000 4.1 220 23:24 04.06.2020
2875 Clear 21 1012 73 10000 5.7 220 22:44 04.06.2020
2876 Clear 21 1011 60 10000 5.7 240 22:22 04.06.2020
2877 Clear 22 1011 60 10000 5.7 240 21:58 04.06.2020
2878 Clear 22 1011 60 10000 5.7 240 21:39 04.06.2020
2879 Clear 23 1011 53 10000 5.7 230 21:21 04.06.2020
2880 Clear 23 1011 53 10000 5.7 230 20:57 04.06.2020
2881 Clear 24 1011 53 10000 5.7 230 20:39 04.06.2020
2882 Clouds 24 1010 57 10000 7.7 230 20:20 04.06.2020
2883 Clouds 24 1010 57 10000 7.7 240 19:55 04.06.2020
2884 Clouds 24 1010 57 10000 7.7 240 19:37 04.06.2020
2885 Clouds 25 1010 53 10000 6.7 260 19:19 04.06.2020
2886 Clouds 25 1010 53 10000 7.2 260 18:39 04.06.2020
2887 Clouds 25 1010 54 10000 7.2 260 18:21 04.06.2020
2888 Clouds 26 1010 54 10000 7.2 260 17:59 04.06.2020
2889 Clouds 26 1010 57 10000 8.2 260 17:41 04.06.2020
2890 Clouds 26 1010 61 10000 8.2 250 17:20 04.06.2020
2891 Clouds 25 1010 64 10000 7.7 230 16:41 04.06.2020
2892 Rain 25 1008 63 0 4.02 250 16:21 04.06.2020
2893 Clouds 24 1010 83 10000 4.1 300 15:55 04.06.2020
2894 Rain 25 1011 64 7000 6.2 240 15:37 04.06.2020
2895 Clouds 25 1010 50 10000 6.2 240 15:19 04.06.2020
2896 Clouds 25 1011 57 10000 5.7 240 14:38 04.06.2020
2897 Clouds 25 1011 57 10000 5.1 250 14:19 04.06.2020
2898 Rain 24 1009 64 0 4.02 249 13:54 04.06.2020
2899 Clouds 24 1011 68 10000 5.7 230 13:36 04.06.2020
2900 Clouds 24 1010 66 0 3.58 267 13:18 04.06.2020
2901 Clouds 22 1011 68 10000 5.1 240 12:41 04.06.2020
2902 Clouds 22 1011 64 10000 4.1 260 12:23 04.06.2020
2903 Clouds 21 1011 64 10000 4.1 260 11:59 04.06.2020
2904 Clouds 21 1011 68 10000 4.1 250 11:39 04.06.2020
2905 Clouds 21 1011 68 10000 4.1 250 11:20 04.06.2020
2906 Clouds 21 1011 68 10000 4.1 250 10:57 04.06.2020
2907 Clouds 20 1011 72 10000 3.6 250 10:38 04.06.2020
2908 Clouds 20 1011 72 10000 3.1 240 10:19 04.06.2020
2909 Clouds 19 1011 77 10000 3.1 250 09:45 04.06.2020
2910 Clouds 19 1011 77 10000 3.1 250 09:45 04.06.2020
2911 Clouds 19 1011 77 10000 3.1 250 09:27 04.06.2020
2912 Clear 18 1010 82 10000 1 0 08:48 04.06.2020
2913 Clear 18 1010 82 10000 1 0 08:28 04.06.2020
2914 Clear 18 1010 82 10000 1.5 240 07:58 04.06.2020
2915 Clear 18 1010 72 10000 3.6 270 07:29 04.06.2020
2916 Clear 18 1009 77 10000 2.1 220 06:45 04.06.2020
2917 Clouds 18 1009 72 10000 2.1 210 06:26 04.06.2020
2918 Clouds 18 1009 72 10000 2.1 210 05:39 04.06.2020
2919 Clear 19 1009 77 10000 2.6 200 05:20 04.06.2020
2920 Clear 19 1009 82 10000 2.6 210 03:31 04.06.2020
2921 Clear 20 1010 82 10000 2.6 190 01:58 04.06.2020
2922 Clear 20 1010 82 10000 2.6 200 01:20 04.06.2020
2923 Clear 20 1010 82 10000 2.6 200 00:51 04.06.2020
2924 Clear 20 1010 82 10000 3.1 210 23:56 03.06.2020
2925 Clear 21 1010 82 10000 3.1 210 23:36 03.06.2020
2926 Clear 22 1010 64 10000 3.1 220 23:18 03.06.2020
2927 Clear 22 1010 64 10000 3.1 220 22:40 03.06.2020
2928 Clear 23 1010 53 10000 5.7 250 22:19 03.06.2020
2929 Clear 23 1010 53 10000 5.7 250 21:59 03.06.2020
2930 Clear 23 1010 53 10000 5.7 250 21:41 03.06.2020
2931 Clear 24 1009 50 10000 6.2 220 21:22 03.06.2020
2932 Clear 25 1009 50 10000 6.2 220 20:58 03.06.2020
2933 Clear 25 1009 50 10000 6.2 220 20:40 03.06.2020
2934 Clouds 25 1009 39 10000 7.2 230 20:20 03.06.2020
2935 Clouds 26 1009 39 10000 7.2 230 19:57 03.06.2020
2936 Clouds 26 1009 37 10000 5.1 240 19:38 03.06.2020
2937 Clouds 27 1009 37 10000 6.7 230 19:19 03.06.2020
2938 Clouds 28 1010 39 10000 6.7 250 18:57 03.06.2020
2939 Clouds 28 1007 43 0 3.13 234 18:38 03.06.2020
2940 Clouds 28 1007 43 0 7.67 240 18:18 03.06.2020
2941 Clouds 28 1010 45 10000 7.7 230 17:44 03.06.2020
2942 Clouds 28 1010 42 10000 6.2 250 17:22 03.06.2020
2943 Clouds 28 1010 42 10000 6.2 250 16:57 03.06.2020
2944 Clouds 28 1011 39 10000 5.7 270 16:39 03.06.2020
2945 Clouds 28 1011 42 10000 4.6 240 16:19 03.06.2020
2946 Clouds 28 1011 42 10000 4.6 240 15:54 03.06.2020
2947 Clouds 28 1012 42 10000 4.1 250 15:36 03.06.2020
2948 Clear 28 1009 48 0 2.24 279 15:18 03.06.2020
2949 Clouds 27 1012 50 10000 3.1 240 14:42 03.06.2020
2950 Clouds 27 1012 50 10000 2.6 270 14:22 03.06.2020
2951 Clear 26 1010 55 0 2.24 249 13:40 03.06.2020
2952 Clouds 26 1013 53 10000 1.5 220 13:20 03.06.2020
2953 Clouds 26 1013 53 10000 1.5 220 13:20 03.06.2020
2954 Clouds 25 1013 53 10000 1.5 220 12:56 03.06.2020
2955 Clouds 25 1013 60 10000 2.1 180 12:38 03.06.2020
2956 Clouds 24 1013 64 10000 2.1 190 12:18 03.06.2020
2957 Clouds 24 1013 68 10000 1.5 190 11:43 03.06.2020
2958 Clouds 23 1013 68 10000 1.5 190 11:24 03.06.2020
2959 Clouds 22 1013 73 10000 1.5 120 10:43 03.06.2020
2960 Clouds 21 1013 73 10000 1.5 120 10:24 03.06.2020
2961 Clouds 20 1013 77 10000 1 0 09:55 03.06.2020
2962 Clouds 20 1013 82 10000 1.5 160 09:36 03.06.2020
2963 Clouds 19 1013 82 10000 2.1 160 09:18 03.06.2020
2964 Clouds 18 1013 82 10000 0.5 150 08:45 03.06.2020
2965 Clouds 18 1013 88 10000 1 0 08:21 03.06.2020
2966 Clouds 18 1013 88 10000 1 0 07:45 03.06.2020
2967 Clouds 18 1013 88 10000 0.5 0 07:24 03.06.2020
2968 Clouds 18 1013 88 10000 0.5 0 07:24 03.06.2020
2969 Clouds 17 1013 93 10000 1.5 180 06:58 03.06.2020
2970 Clouds 17 1013 93 10000 1.5 180 06:40 03.06.2020
2971 Clouds 18 1013 88 10000 2.1 180 06:21 03.06.2020
2972 Clouds 18 1013 88 10000 2.6 180 05:42 03.06.2020
2973 Clouds 18 1013 88 10000 2.1 150 04:18 03.06.2020
2974 Clouds 18 1014 82 10000 3.1 180 03:40 03.06.2020
2975 Clouds 18 1014 82 10000 2.1 200 02:33 03.06.2020
2976 Clear 19 1014 77 10000 1.5 250 01:34 03.06.2020
2977 Clear 20 1014 77 10000 1.5 250 00:38 03.06.2020
2978 Clear 21 1014 68 10000 2.6 240 00:19 03.06.2020
2979 Clear 21 1014 68 10000 2.6 240 23:43 02.06.2020
2980 Clear 21 1014 68 10000 2.6 240 23:43 02.06.2020
2981 Clear 22 1014 68 10000 2.6 240 23:24 02.06.2020
2982 Clear 23 1013 60 10000 3.1 250 22:40 02.06.2020
2983 Clear 24 1013 50 10000 2.6 240 22:19 02.06.2020
2984 Clear 24 1013 50 10000 2.6 240 21:57 02.06.2020
2985 Clear 25 1013 50 10000 2.6 240 21:39 02.06.2020
2986 Clear 25 1013 44 10000 3.6 230 21:21 02.06.2020
2987 Clear 26 1013 44 10000 3.6 230 20:59 02.06.2020
2988 Clear 26 1013 44 10000 3.6 230 20:59 02.06.2020
2989 Clear 26 1013 44 10000 3.6 230 20:41 02.06.2020
2990 Clouds 26 1012 42 10000 5.1 240 20:22 02.06.2020
2991 Clouds 26 1013 44 10000 5.1 230 19:46 02.06.2020
2992 Clouds 27 1013 44 10000 4.1 230 19:27 02.06.2020
2993 Clouds 27 1013 44 10000 4.1 230 18:59 02.06.2020
2994 Clouds 27 1013 44 10000 4.6 230 18:41 02.06.2020
2995 Clouds 27 1013 44 10000 4.1 250 18:22 02.06.2020
2996 Clouds 27 1013 44 10000 4.1 250 17:59 02.06.2020
2997 Clouds 27 1013 44 10000 3.6 230 17:41 02.06.2020
2998 Clouds 27 1014 44 10000 4.1 230 17:22 02.06.2020
2999 Clouds 27 1014 44 10000 4.1 230 16:57 02.06.2020
3000 Clouds 27 1014 44 10000 3.1 230 16:38 02.06.2020
3001 Clouds 26 1014 44 10000 3.6 230 16:20 02.06.2020
3002 Clouds 26 1015 47 10000 3.1 250 15:44 02.06.2020
3003 Clouds 26 1015 47 10000 3.1 250 15:24 02.06.2020
3004 Clouds 26 1015 50 10000 3.1 190 14:50 02.06.2020
3005 Clouds 26 1015 50 10000 3.1 190 14:31 02.06.2020
3006 Clouds 25 1015 57 10000 3.6 210 13:58 02.06.2020
3007 Clouds 25 1015 50 10000 4.1 230 13:39 02.06.2020
3008 Clouds 25 1016 50 10000 3.1 230 13:19 02.06.2020
3009 Clouds 24 1016 50 10000 3.1 230 12:58 02.06.2020
3010 Clouds 24 1016 56 10000 2.6 250 12:40 02.06.2020
3011 Clouds 23 1016 60 10000 1.5 330 12:21 02.06.2020
3012 Clouds 23 1016 60 10000 1.5 330 11:56 02.06.2020
3013 Clouds 23 1016 64 10000 0.5 40 11:38 02.06.2020
3014 Clouds 22 1016 68 10000 1 310 11:20 02.06.2020
3015 Clouds 21 1016 77 10000 0.5 330 10:47 02.06.2020
3016 Clouds 21 1016 77 10000 0.5 330 10:28 02.06.2020
3017 Clouds 21 1016 77 10000 0.5 330 10:28 02.06.2020
3018 Clouds 20 1015 77 10000 1.87 205 09:58 02.06.2020
3019 Clouds 20 1015 82 10000 1 0 09:38 02.06.2020
3020 Clouds 19 1015 82 10000 0.5 0 09:20 02.06.2020
3021 Clouds 18 1015 88 10000 0.5 0 08:48 02.06.2020
3022 Clouds 18 1015 93 10000 0.62 262 08:21 02.06.2020
3023 Clouds 18 1015 88 10000 0.5 0 07:52 02.06.2020
3024 Clouds 18 1014 88 10000 1 90 07:25 02.06.2020
3025 Clouds 18 1014 88 10000 1 0 06:45 02.06.2020
3026 Clouds 17 1014 88 10000 0.68 237 06:18 02.06.2020
3027 Clouds 18 1014 82 10000 0.5 0 05:21 02.06.2020
3028 Clouds 19 1014 77 10000 2.6 230 03:25 02.06.2020
3029 Clear 20 1015 77 10000 1.5 210 02:26 02.06.2020
3030 Clear 20 1015 77 10000 1.5 200 01:25 02.06.2020
3031 Clear 21 1014 72 10000 1.5 220 00:26 02.06.2020
3032 Clear 21 1014 72 10000 1.5 220 23:57 01.06.2020
3033 Clear 21 1014 72 10000 1.5 220 23:37 01.06.2020
3034 Clear 22 1014 64 10000 2.1 230 23:18 01.06.2020
3035 Clear 23 1014 64 10000 2.1 230 22:42 01.06.2020
3036 Clear 23 1013 57 10000 3.6 230 22:21 01.06.2020
3037 Clear 24 1013 57 10000 3.6 230 21:58 01.06.2020
3038 Clear 24 1013 57 10000 3.6 230 21:40 01.06.2020
3039 Clouds 25 1013 50 10000 3.6 240 21:20 01.06.2020
3040 Clouds 26 1013 50 10000 3.6 240 20:56 01.06.2020
3041 Clouds 26 1013 50 10000 3.6 240 20:38 01.06.2020
3042 Clouds 26 1013 50 10000 4.6 240 20:19 01.06.2020
3043 Clouds 26 1013 50 10000 4.6 240 19:55 01.06.2020
3044 Clouds 26 1013 50 10000 4.6 240 19:37 01.06.2020
3045 Clouds 27 1013 47 10000 4.1 240 19:19 01.06.2020
3046 Clouds 27 1013 47 10000 4.1 230 18:55 01.06.2020
3047 Clouds 27 1013 47 10000 4.1 230 18:37 01.06.2020
3048 Clouds 27 1013 54 10000 4.1 240 18:18 01.06.2020
3049 Clouds 26 1013 47 10000 5.7 230 17:40 01.06.2020
3050 Clouds 26 1014 51 10000 4.1 260 17:19 01.06.2020
3051 Clouds 27 1014 47 10000 5.1 240 16:42 01.06.2020
3052 Clouds 27 1014 50 10000 5.7 220 16:22 01.06.2020
3053 Clouds 26 1014 50 10000 5.7 220 15:59 01.06.2020
3054 Clouds 26 1014 50 10000 6.2 220 15:40 01.06.2020
3055 Clouds 26 1014 50 10000 4.6 240 15:20 01.06.2020
3056 Clouds 26 1014 50 10000 4.6 240 14:58 01.06.2020
3057 Clouds 26 1014 50 10000 4.6 210 14:40 01.06.2020
3058 Clouds 26 1014 50 10000 5.7 220 14:21 01.06.2020
3059 Clouds 26 1015 50 10000 5.7 230 13:55 01.06.2020
3060 Clouds 25 1015 50 10000 5.7 230 13:37 01.06.2020
3061 Clouds 25 1015 50 10000 5.7 230 13:37 01.06.2020
3062 Clouds 25 1015 50 10000 5.7 230 13:18 01.06.2020
3063 Clouds 25 1015 50 10000 5.7 230 13:18 01.06.2020
3064 Clouds 25 1015 53 10000 4.1 210 12:55 01.06.2020
3065 Clouds 24 1014 57 10000 3.6 0 12:36 01.06.2020
3066 Clouds 24 1014 57 10000 3.6 0 12:18 01.06.2020
3067 Clouds 23 1013 66 0 3.13 191 11:39 01.06.2020
3068 Clouds 23 1014 64 10000 0.5 320 11:21 01.06.2020
3069 Clouds 22 1014 68 10000 1 0 10:57 01.06.2020
3070 Clouds 22 1014 72 10000 0.5 20 10:37 01.06.2020
3071 Clouds 21 1014 72 10000 0.5 20 10:19 01.06.2020
3072 Clouds 20 1014 77 10000 0.5 300 09:55 01.06.2020
3073 Clouds 19 1014 82 10000 0.5 340 09:37 01.06.2020
3074 Clouds 19 1014 82 10000 0.5 340 09:19 01.06.2020
3075 Clouds 18 1013 82 10000 0.82 194 08:41 01.06.2020
3076 Clouds 18 1013 82 10000 0.46 180 08:22 01.06.2020
3077 Clouds 17 1013 87 10000 0.46 180 07:44 01.06.2020
3078 Clouds 18 1013 87 10000 1 0 07:25 01.06.2020
3079 Clouds 17 1013 87 10000 1 0 06:52 01.06.2020
3080 Clouds 18 1013 93 10000 2.1 60 06:20 01.06.2020
3081 Clouds 18 1013 87 10000 1 0 05:49 01.06.2020
3082 Clear 18 1013 82 10000 0.5 54 04:23 01.06.2020
3083 Clear 18 1013 82 10000 0.5 0 03:44 01.06.2020
3084 Clear 19 1013 77 10000 0.5 0 02:59 01.06.2020
3085 Clouds 19 1013 77 10000 1.5 130 01:47 01.06.2020
3086 Clouds 20 1013 72 10000 2.1 120 01:27 01.06.2020
3087 Clouds 20 1012 72 10000 1 0 00:57 01.06.2020
3088 Clouds 21 1013 68 10000 1.5 120 00:39 01.06.2020
3089 Clouds 21 1013 68 10000 1.5 120 00:20 01.06.2020
3090 Clouds 21 1013 60 10000 1 0 23:54 31.05.2020
3091 Clouds 22 1012 56 10000 1.5 200 23:36 31.05.2020
3092 Clear 22 1012 56 10000 1.5 200 23:18 31.05.2020
3093 Clear 22 1012 56 10000 1.5 180 22:42 31.05.2020
3094 Clear 22 1012 56 10000 1.5 180 22:42 31.05.2020
3095 Clear 23 1012 60 10000 0.5 0 22:24 31.05.2020
3096 Clear 24 1012 50 10000 0.5 280 21:58 31.05.2020
3097 Clear 24 1011 50 10000 2.1 240 21:39 31.05.2020
3098 Clear 24 1011 50 10000 2.1 240 21:21 31.05.2020
3099 Clear 24 1011 50 10000 2.1 240 21:21 31.05.2020
3100 Clear 24 1011 50 10000 2.1 240 21:21 31.05.2020
3101 Clear 25 1011 47 10000 2.6 220 20:48 31.05.2020
3102 Clouds 25 1011 47 10000 1.5 140 20:25 31.05.2020
3103 Clouds 25 1011 44 10000 2.1 150 19:57 31.05.2020
3104 Clouds 25 1012 47 10000 3.1 150 19:39 31.05.2020
3105 Clouds 24 1012 47 10000 3.1 150 19:21 31.05.2020
3106 Clouds 24 1012 44 10000 3.1 140 18:58 31.05.2020
3107 Clouds 24 1012 49 10000 2.6 160 18:40 31.05.2020
3108 Clouds 23 1012 49 10000 2.6 160 18:21 31.05.2020
3109 Clouds 23 1012 49 10000 2.6 210 17:43 31.05.2020
3110 Rain 23 1011 49 10000 2.1 220 17:24 31.05.2020
3111 Rain 23 1011 49 10000 2.1 220 17:24 31.05.2020
3112 Rain 23 1012 49 10000 3.6 180 16:43 31.05.2020
3113 Clouds 23 1012 49 10000 3.6 180 16:23 31.05.2020
3114 Clouds 23 1012 49 10000 4.1 160 15:59 31.05.2020
3115 Clouds 24 1012 38 10000 5.1 210 15:39 31.05.2020
3116 Clouds 24 1012 38 10000 5.1 210 15:21 31.05.2020
3117 Clouds 24 1012 38 10000 6.2 220 14:47 31.05.2020
3118 Clouds 24 1012 38 10000 6.2 230 14:20 31.05.2020
3119 Clouds 24 1011 27 10000 2.6 210 13:56 31.05.2020
3120 Clouds 25 1011 29 10000 2.1 260 13:38 31.05.2020
3121 Rain 25 1011 29 10000 2.1 260 13:20 31.05.2020
3122 Rain 25 1011 29 10000 2.1 260 13:20 31.05.2020
3123 Rain 25 1011 27 10000 1.5 250 12:56 31.05.2020
3124 Rain 25 1011 25 10000 1.5 280 12:37 31.05.2020
3125 Rain 25 1011 25 10000 1.5 280 12:19 31.05.2020
3126 Rain 24 1011 29 10000 1.5 330 11:47 31.05.2020
3127 Rain 24 1011 29 10000 0.5 10 11:23 31.05.2020
3128 Rain 23 1011 28 10000 1 0 10:57 31.05.2020
3129 Rain 23 1011 33 10000 1.5 50 10:39 31.05.2020
3130 Rain 22 1011 33 10000 1.5 50 10:19 31.05.2020
3131 Rain 21 1010 35 10000 2.6 40 09:42 31.05.2020
3132 Clouds 21 1010 37 10000 2.1 40 09:23 31.05.2020
3133 -273 0 0 0 0 0 08:58 31.05.2020
3134 Rain 20 1010 48 10000 2.6 30 08:38 31.05.2020
3135 Clouds 20 1010 48 10000 2.6 30 08:20 31.05.2020
3136 Clouds 20 1010 45 10000 3.6 30 07:44 31.05.2020
3137 Clouds 20 1010 48 10000 1 0 07:21 31.05.2020
3138 Clouds 20 1010 52 10000 2.1 330 06:54 31.05.2020
3139 Clouds 20 1010 55 10000 0.5 0 06:32 31.05.2020
3140 Clouds 20 1009 63 10000 0.5 40 05:44 31.05.2020
3141 Clouds 21 1010 60 10000 1.5 40 04:31 31.05.2020
3142 Clouds 22 1010 56 10000 1.5 330 03:51 31.05.2020
3143 Clear 22 1011 53 10000 1 0 02:59 31.05.2020
3144 Clouds 24 1011 41 10000 1 0 01:50 31.05.2020
3145 Clouds 23 1011 38 10000 1.5 220 01:28 31.05.2020
3146 Clouds 25 1011 38 10000 2.1 280 00:31 31.05.2020
3147 Clouds 25 1010 38 10000 2.6 310 23:59 30.05.2020
3148 Clouds 26 1010 39 10000 1.5 310 23:41 30.05.2020
3149 Clouds 25 1010 39 10000 1.5 310 23:22 30.05.2020
3150 Clouds 27 1010 32 10000 3.1 250 22:42 30.05.2020
3151 Clouds 27 1009 30 10000 3.1 250 22:23 30.05.2020
3152 Clouds 28 1009 30 10000 4.1 260 21:58 30.05.2020
3153 Clouds 28 1008 27 10000 4.1 240 21:39 30.05.2020
3154 Clouds 29 1008 27 10000 4.1 240 21:20 30.05.2020
3155 Clouds 30 1008 28 10000 6.2 230 20:57 30.05.2020
3156 Clouds 31 1008 25 10000 4.6 190 20:39 30.05.2020
3157 Clouds 31 1008 25 10000 4.6 190 20:20 30.05.2020
3158 Clouds 34 1008 19 10000 4.6 130 19:43 30.05.2020
3159 Clouds 35 1008 15 10000 4.6 110 19:22 30.05.2020
3160 Clouds 35 1008 14 10000 5.1 100 18:56 30.05.2020
3161 Clouds 35 1008 15 10000 4.6 110 18:38 30.05.2020
3162 Clouds 35 1008 15 10000 4.6 110 18:18 30.05.2020
3163 Clouds 35 1008 14 10000 3.6 140 17:39 30.05.2020
3164 Clouds 35 1008 14 10000 3.6 140 17:20 30.05.2020
3165 Clouds 35 1009 13 10000 3.6 120 16:45 30.05.2020
3166 Clouds 35 1009 13 10000 1.5 140 16:24 30.05.2020
3167 Clouds 34 1009 14 10000 3.1 60 15:59 30.05.2020
3168 Clouds 33 1010 14 10000 2.1 0 15:41 30.05.2020
3169 Clouds 33 1010 14 10000 2.1 0 15:22 30.05.2020
3170 Clouds 33 1010 18 10000 2.6 80 14:43 30.05.2020
3171 Clouds 32 1010 18 10000 2.6 80 14:23 30.05.2020
3172 Clouds 31 1011 19 10000 2.1 50 13:43 30.05.2020
3173 Clouds 30 1011 19 10000 2.6 70 13:22 30.05.2020
3174 Clouds 29 1011 20 10000 3.6 80 12:42 30.05.2020
3175 Clouds 28 1012 28 10000 3.6 50 12:20 30.05.2020
3176 Clouds 27 1012 39 10000 4.1 50 11:57 30.05.2020
3177 Clouds 27 1012 44 10000 3.6 60 11:39 30.05.2020
3178 Clouds 26 1012 44 10000 3.6 60 11:21 30.05.2020
3179 Clouds 24 1013 50 10000 3.6 50 10:41 30.05.2020
3180 Clouds 24 1013 50 10000 3.6 50 10:21 30.05.2020
3181 Clouds 23 1013 56 10000 3.1 50 09:51 30.05.2020
3182 Clouds 22 1012 60 10000 2.6 50 09:32 30.05.2020
3183 Clouds 20 1012 64 10000 1.5 40 08:51 30.05.2020
3184 Clouds 20 1013 72 10000 1 90 08:33 30.05.2020
3185 Clouds 19 1012 68 10000 1 70 07:50 30.05.2020
3186 Clouds 19 1012 72 10000 2.1 30 07:26 30.05.2020
3187 Clouds 20 1012 72 10000 1.5 40 06:58 30.05.2020
3188 Clear 20 1012 72 10000 1.5 80 06:25 30.05.2020
3189 Clear 20 1012 72 10000 2.1 80 05:49 30.05.2020
3190 Clear 20 1012 56 10000 2.6 260 04:21 30.05.2020
3191 Clear 21 1013 56 10000 4.6 240 02:33 30.05.2020
3192 Clear 22 1013 53 10000 4.6 240 01:56 30.05.2020
3193 Clear 23 1012 47 10000 3.6 230 00:44 30.05.2020
3194 Clear 23 1012 44 10000 3.6 240 00:23 30.05.2020
3195 Clear 24 1012 44 10000 5.7 250 23:59 29.05.2020
3196 Clear 24 1011 44 10000 5.1 230 23:38 29.05.2020
3197 Clear 25 1011 44 10000 5.1 230 23:19 29.05.2020
3198 Clear 26 1010 42 10000 6.2 220 22:42 29.05.2020
3199 Clear 26 1010 42 10000 6.2 220 22:21 29.05.2020
3200 Clear 27 1010 39 10000 4.1 230 21:59 29.05.2020
3201 Clear 28 1010 37 10000 4.6 240 21:39 29.05.2020
3202 Clear 29 1010 37 10000 4.6 240 21:21 29.05.2020
3203 Clear 30 1009 35 10000 5.1 240 20:57 29.05.2020
3204 Clear 31 1009 29 10000 1 90 20:37 29.05.2020
3205 Clear 31 1009 29 10000 1 90 20:19 29.05.2020
3206 Clear 33 1009 22 10000 2.1 330 19:42 29.05.2020
3207 Clear 34 1009 26 10000 1.5 310 19:24 29.05.2020
3208 Clear 34 1010 26 10000 3.1 320 18:48 29.05.2020
3209 Clear 34 1010 24 10000 2.1 320 18:23 29.05.2020
3210 Clear 34 1010 24 10000 1.5 20 17:59 29.05.2020
3211 Clear 33 1011 22 10000 1 70 17:39 29.05.2020
3212 Clear 33 1011 22 10000 1 70 17:20 29.05.2020
3213 Clear 33 1011 25 10000 1.5 300 16:54 29.05.2020
3214 Clear 33 1011 24 10000 1.5 210 16:36 29.05.2020
3215 Clear 32 1011 24 10000 1.5 210 16:18 29.05.2020
3216 Clear 32 1012 27 10000 2.6 70 15:41 29.05.2020
3217 Clear 32 1012 27 10000 2.6 70 15:21 29.05.2020
3218 Clear 31 1013 25 10000 2.6 40 14:57 29.05.2020
3219 Clear 31 1013 27 10000 2.1 50 14:38 29.05.2020
3220 Clear 31 1013 27 10000 2.1 50 14:38 29.05.2020
3221 Clear 31 1013 27 10000 2.1 50 14:19 29.05.2020
3222 Clear 30 1014 25 10000 2.6 80 13:43 29.05.2020
3223 Clear 30 1014 28 10000 2.1 70 13:22 29.05.2020
3224 Clear 29 1014 28 10000 2.6 80 12:57 29.05.2020
3225 Clear 28 1014 30 10000 2.6 100 12:39 29.05.2020
3226 Clear 28 1014 30 10000 2.6 100 12:19 29.05.2020
3227 Clear 26 1015 39 10000 2.6 80 11:42 29.05.2020
3228 Clear 26 1015 39 10000 2.6 80 11:24 29.05.2020
3229 Clear 25 1015 47 10000 2.6 50 10:55 29.05.2020
3230 Clear 24 1015 50 10000 3.1 50 10:36 29.05.2020
3231 Clear 24 1015 50 10000 3.1 50 10:18 29.05.2020
3232 Clear 22 1015 68 10000 2.1 30 09:41 29.05.2020
3233 Clear 20 1015 68 10000 2.1 30 09:19 29.05.2020
3234 Clear 20 1015 68 10000 1.5 30 08:48 29.05.2020
3235 Clear 20 1015 72 10000 2.1 50 08:25 29.05.2020
3236 Clear 20 1015 72 10000 2.6 30 07:48 29.05.2020
3237 Clear 20 1015 68 10000 3.6 50 07:30 29.05.2020
3238 Clear 20 1015 72 10000 1.5 60 06:58 29.05.2020
3239 Clear 20 1015 72 10000 1.5 60 06:39 29.05.2020
3240 Clear 19 1015 72 10000 1.5 60 06:21 29.05.2020
3241 Clear 19 1015 77 10000 1.5 60 05:40 29.05.2020
3242 Clear 22 1017 53 10000 2.1 260 02:20 29.05.2020
3243 Clear 22 1017 53 10000 2.1 260 02:20 29.05.2020
3244 Clear 22 1016 60 10000 2.1 230 01:27 29.05.2020
3245 Clear 22 1016 60 10000 2.1 230 01:27 29.05.2020
3246 Clear 22 1016 60 10000 2.1 230 00:53 29.05.2020
3247 Clear 23 1016 60 10000 2.1 230 00:33 29.05.2020
3248 Clear 23 1015 49 10000 3.6 210 23:57 28.05.2020
3249 Clear 24 1015 49 10000 3.6 210 23:39 28.05.2020
3250 Clear 24 1015 49 10000 3.6 210 23:18 28.05.2020
3251 Clear 25 1015 44 10000 3.6 200 22:42 28.05.2020
3252 Clear 26 1015 44 10000 3.6 200 22:24 28.05.2020
3253 Clear 27 1014 39 10000 3.1 190 21:56 28.05.2020
3254 Clear 28 1014 39 10000 3.1 190 21:37 28.05.2020
3255 Clear 29 1014 39 10000 3.1 190 21:19 28.05.2020
3256 Clear 30 1014 33 10000 3.1 210 20:56 28.05.2020
3257 Clear 30 1014 33 10000 3.1 210 20:37 28.05.2020
3258 Clear 31 1014 33 10000 3.1 210 20:18 28.05.2020
3259 Clear 32 1014 22 10000 4.1 110 19:43 28.05.2020
3260 Clear 32 1014 21 10000 4.6 110 19:21 28.05.2020
3261 Clear 33 1014 21 10000 5.1 80 18:57 28.05.2020
3262 Clear 33 1014 21 10000 4.1 80 18:39 28.05.2020
3263 Clear 33 1014 21 10000 4.1 80 18:21 28.05.2020
3264 Clear 33 1012 28 0 2.24 74 17:41 28.05.2020
3265 Clear 33 1013 29 0 1.79 76 17:41 28.05.2020
3266 Clear 33 1014 21 10000 4.1 90 17:22 28.05.2020
3267 Clear 33 1015 22 10000 5.1 80 16:57 28.05.2020
3268 Clear 32 1015 24 10000 4.6 110 16:37 28.05.2020
3269 Clear 33 1015 24 10000 4.6 110 16:19 28.05.2020
3270 Clear 32 1015 22 10000 5.7 60 15:42 28.05.2020
3271 Clear 32 1016 24 9000 4.1 90 15:24 28.05.2020
3272 Clear 31 1016 25 10000 4.6 110 14:55 28.05.2020
3273 Clear 31 1016 25 10000 6.7 70 14:36 28.05.2020
3274 Clear 31 1016 25 10000 6.7 70 14:18 28.05.2020
3275 Clear 30 1017 30 10000 6.2 70 13:40 28.05.2020
3276 Clear 29 1017 30 10000 6.2 70 13:20 28.05.2020
3277 Clear 29 1017 34 10000 6.2 60 12:42 28.05.2020
3278 Clear 28 1017 34 10000 6.2 60 12:19 28.05.2020
3279 Clear 27 1018 34 10000 5.1 60 11:44 28.05.2020
3280 Clear 26 1018 44 10000 7.2 60 11:25 28.05.2020
3281 Clear 25 1018 44 10000 6.2 60 10:57 28.05.2020
3282 Clear 25 1018 44 10000 6.2 60 10:57 28.05.2020
3283 Clear 25 1018 47 10000 6.2 60 10:39 28.05.2020
3284 Clear 24 1018 47 10000 6.2 60 10:19 28.05.2020
3285 Clear 22 1018 56 10000 5.1 50 09:39 28.05.2020
3286 Clear 21 1018 64 10000 3.1 50 09:20 28.05.2020
3287 Clear 20 1018 64 10000 3.1 50 08:50 28.05.2020
3288 Clear 20 1018 64 10000 3.1 50 08:26 28.05.2020
3289 Clear 20 1017 68 10000 4.1 40 07:45 28.05.2020
3290 Clear 20 1017 68 10000 4.1 40 07:26 28.05.2020
3291 Clear 20 1018 63 10000 3.1 40 06:59 28.05.2020
3292 Clear 20 1018 60 10000 4.6 50 06:37 28.05.2020
3293 Clear 20 1018 60 10000 4.1 50 05:58 28.05.2020
3294 Clear 21 1018 56 10000 4.1 60 05:36 28.05.2020
3295 Clear 21 1018 60 10000 4.1 60 04:32 28.05.2020
3296 Clear 21 1018 52 10000 4.1 50 03:46 28.05.2020
3297 Clear 22 1019 46 10000 3.6 60 02:45 28.05.2020
3298 Clear 22 1019 46 10000 3.6 60 02:45 28.05.2020
3299 Clear 23 1019 38 10000 3.6 70 01:53 28.05.2020
3300 Clear 23 1019 49 10000 1.5 290 00:56 28.05.2020
3301 Clear 23 1019 49 10000 1.5 290 00:38 28.05.2020
3302 Clear 23 1019 49 10000 1.5 290 00:18 28.05.2020
3303 Clear 24 1018 43 10000 2.1 280 23:39 27.05.2020
3304 Clear 24 1018 43 10000 2.1 280 23:21 27.05.2020
3305 Clear 25 1017 44 10000 1.5 230 22:59 27.05.2020
3306 Clear 25 1017 44 10000 1.5 230 22:40 27.05.2020
3307 Clear 26 1017 44 10000 1.5 230 22:22 27.05.2020
3308 Clear 28 1016 32 10000 3.1 210 21:43 27.05.2020
3309 Clear 29 1016 32 10000 3.1 210 21:24 27.05.2020
3310 Clear 30 1016 29 10000 3.6 180 20:59 27.05.2020
3311 Clear 31 1016 29 10000 3.6 180 20:41 27.05.2020
3312 Clear 31 1016 29 10000 3.6 180 20:22 27.05.2020
3313 Clear 32 1016 23 10000 5.7 130 19:59 27.05.2020
3314 Clear 32 1016 22 10000 5.1 120 19:41 27.05.2020
3315 Clear 32 1016 22 10000 5.1 120 19:19 27.05.2020
3316 Clear 33 1016 22 10000 5.7 110 18:41 27.05.2020
3317 Clear 33 1016 22 10000 5.7 110 18:20 27.05.2020
3318 Clear 33 1016 22 10000 6.7 90 17:57 27.05.2020
3319 Clear 33 1017 22 10000 6.7 100 17:38 27.05.2020
3320 Clear 33 1017 22 10000 6.7 100 17:19 27.05.2020
3321 Clear 33 1017 22 10000 7.7 90 16:55 27.05.2020
3322 Clear 32 1017 22 10000 7.2 90 16:37 27.05.2020
3323 Clear 32 1017 22 10000 7.2 90 16:18 27.05.2020
3324 Clear 32 1018 25 10000 8.2 90 15:41 27.05.2020
3325 Clear 32 1018 25 10000 8.2 90 15:21 27.05.2020
3326 Clear 31 1018 25 10000 7.2 120 14:45 27.05.2020
3327 Clear 31 1018 27 10000 8.2 90 14:22 27.05.2020
3328 Clear 31 1018 28 10000 8.7 90 13:57 27.05.2020
3329 Clear 30 1018 27 10000 7.7 80 13:38 27.05.2020
3330 Clear 30 1018 27 10000 7.7 80 13:20 27.05.2020
3331 Clear 30 1017 36 0 4.47 69 12:41 27.05.2020
3332 Clear 29 1019 32 9000 8.2 90 12:22 27.05.2020
3333 Clear 28 1019 36 10000 6.7 80 11:42 27.05.2020
3334 Clear 28 1019 36 10000 6.7 80 11:24 27.05.2020
3335 Clear 27 1019 36 10000 5.7 90 10:59 27.05.2020
3336 Clear 26 1019 44 10000 5.1 90 10:41 27.05.2020
3337 Clear 25 1019 44 10000 5.1 90 10:23 27.05.2020
3338 Clear 24 1019 50 10000 4.1 80 09:55 27.05.2020
3339 Clear 23 1019 53 10000 3.6 60 09:37 27.05.2020
3340 Clear 23 1019 53 10000 3.6 60 09:19 27.05.2020
3341 Clear 20 1018 68 10000 4.1 70 08:42 27.05.2020
3342 Clear 20 1018 68 10000 4.1 70 08:23 27.05.2020
3343 Clear 20 1018 68 10000 3.1 60 07:52 27.05.2020
3344 Clear 20 1018 68 10000 3.1 60 07:52 27.05.2020
3345 Clear 20 1018 72 10000 3.1 50 07:34 27.05.2020
3346 Clear 19 1018 72 10000 3.1 40 06:55 27.05.2020
3347 Clear 20 1018 68 10000 3.1 40 06:24 27.05.2020
3348 Clear 20 1018 68 10000 2.1 60 05:50 27.05.2020
3349 Clear 20 1018 63 10000 2.6 50 05:24 27.05.2020
3350 Clear 22 1019 60 10000 3.1 20 02:51 27.05.2020
3351 Clear 22 1019 60 10000 2.1 280 02:25 27.05.2020
3352 Clear 23 1019 60 10000 2.1 280 01:31 27.05.2020
3353 Clear 23 1019 68 10000 1.5 230 00:47 27.05.2020
3354 Clear 24 1019 47 10000 2.6 220 00:21 27.05.2020
3355 Clear 24 1018 56 10000 2.1 240 23:58 26.05.2020
3356 Clear 24 1018 56 10000 2.1 240 23:39 26.05.2020
3357 Clear 25 1018 44 10000 4.1 230 23:21 26.05.2020
3358 Clear 25 1017 50 10000 2.1 220 22:58 26.05.2020
3359 Clear 26 1017 50 10000 2.1 220 22:37 26.05.2020
3360 Clear 26 1018 39 10000 3.6 220 22:19 26.05.2020
3361 Clear 27 1017 39 10000 3.1 210 21:55 26.05.2020
3362 Clear 28 1017 39 10000 3.1 210 21:36 26.05.2020
3363 Clear 29 1017 39 10000 3.1 210 21:18 26.05.2020
3364 Clear 30 1016 33 10000 3.1 210 20:41 26.05.2020
3365 Clear 31 1016 33 10000 3.1 210 20:20 26.05.2020
3366 Clear 33 1016 22 10000 5.1 100 19:55 26.05.2020
3367 Clear 33 1017 22 10000 6.7 100 19:36 26.05.2020
3368 Clear 33 1017 22 10000 6.7 100 19:18 26.05.2020
3369 Clear 33 1017 21 10000 6.7 110 18:40 26.05.2020
3370 Clear 33 1017 21 10000 6.7 110 18:21 26.05.2020
3371 Clear 33 1017 19 10000 7.7 80 17:42 26.05.2020
3372 Clear 33 1017 19 10000 7.7 80 17:24 26.05.2020
3373 Clear 34 1017 21 10000 7.2 80 16:57 26.05.2020
3374 Clear 34 1018 21 10000 7.7 80 16:39 26.05.2020
3375 Clear 33 1018 21 10000 7.7 80 16:18 26.05.2020
3376 Clear 33 1018 22 10000 6.7 70 15:42 26.05.2020
3377 Clear 33 1018 22 10000 6.2 90 15:21 26.05.2020
3378 Clear 32 1018 23 10000 7.2 110 14:56 26.05.2020
3379 Clear 32 1019 23 10000 5.1 80 14:38 26.05.2020
3380 Clear 32 1019 23 10000 5.1 80 14:20 26.05.2020
3381 Clear 31 1019 23 10000 6.2 80 13:41 26.05.2020
3382 Clear 31 1019 23 10000 6.2 80 13:23 26.05.2020
3383 Clear 30 1019 25 10000 4.6 90 12:57 26.05.2020
3384 Clear 30 1020 26 10000 6.2 80 12:38 26.05.2020
3385 Clear 29 1020 26 10000 6.2 80 12:19 26.05.2020
3386 Clear 28 1020 26 10000 6.2 90 11:41 26.05.2020
3387 Clear 27 1020 26 10000 6.2 90 11:21 26.05.2020
3388 Clear 27 1020 29 10000 6.2 90 10:58 26.05.2020
3389 Clear 26 1020 33 10000 5.7 80 10:38 26.05.2020
3390 Clear 25 1020 33 10000 5.7 80 10:18 26.05.2020
3391 Clear 22 1020 43 10000 4.1 70 09:39 26.05.2020
3392 Clear 20 1019 59 10000 2.6 30 09:19 26.05.2020
3393 Clear 20 1019 59 10000 2.6 30 08:42 26.05.2020
3394 Clear 20 1019 59 10000 2.6 30 08:22 26.05.2020
3395 Clear 19 1019 55 10000 3.6 30 07:44 26.05.2020
3396 Clear 19 1019 55 10000 3.6 30 07:24 26.05.2020
3397 Clear 20 1019 55 10000 3.6 50 06:57 26.05.2020
3398 Clear 20 1019 55 10000 3.6 40 06:39 26.05.2020
3399 Clear 20 1019 59 10000 3.1 40 05:53 26.05.2020
3400 Clear 20 1019 59 10000 3.6 30 05:29 26.05.2020
3401 Clear 20 1019 59 10000 2.6 40 04:52 26.05.2020
3402 Clear 21 1019 56 10000 1 0 04:33 26.05.2020
3403 Clear 21 1020 56 10000 2.1 60 03:55 26.05.2020
3404 Clear 23 1020 64 10000 2.1 40 02:45 26.05.2020
3405 Clear 22 1020 64 10000 1 230 01:48 26.05.2020
3406 Clear 23 1020 64 10000 1 230 01:27 26.05.2020
3407 Clear 23 1020 60 10000 2.1 260 00:37 26.05.2020
3408 Clear 24 1020 60 10000 2.1 260 00:19 26.05.2020
3409 Clear 24 1020 53 10000 1.5 210 23:55 25.05.2020
3410 Clear 25 1020 53 10000 1.5 210 23:37 25.05.2020
3411 Clear 25 1020 53 10000 1.5 210 23:18 25.05.2020
3412 Clear 27 1019 47 10000 2.6 240 22:55 25.05.2020
3413 Clear 27 1019 47 10000 2.6 240 22:36 25.05.2020
3414 Clear 28 1018 42 10000 3.6 240 22:18 25.05.2020
3415 Clear 28 1018 42 10000 3.6 240 21:55 25.05.2020
3416 Clear 29 1018 42 10000 3.6 240 21:36 25.05.2020
3417 Clear 29 1018 42 10000 3.6 240 21:18 25.05.2020
3418 Clear 31 1017 38 10000 4.6 250 20:42 25.05.2020
3419 Clear 31 1017 38 10000 4.6 250 20:21 25.05.2020
3420 Clear 31 1017 38 10000 4.6 250 20:21 25.05.2020
3421 Clear 32 1017 26 10000 5.7 230 19:59 25.05.2020
3422 Clear 33 1017 37 10000 0.5 60 19:40 25.05.2020
3423 Clear 34 1017 26 10000 0.5 60 19:18 25.05.2020
3424 Clear 35 1017 10 10000 2.1 100 18:55 25.05.2020
3425 Clear 36 1017 26 10000 2.1 120 18:36 25.05.2020
3426 Clear 36 1017 22 10000 2.1 120 18:18 25.05.2020
3427 Clear 35 1018 14 10000 3.1 90 17:42 25.05.2020
3428 Clear 36 1018 14 10000 3.1 90 17:23 25.05.2020
3429 Clear 35 1018 14 10000 3.6 80 16:57 25.05.2020
3430 Clear 35 1019 13 10000 3.6 90 16:39 25.05.2020
3431 Clear 35 1019 13 10000 3.6 90 16:20 25.05.2020
3432 Clear 35 1019 14 10000 3.6 90 15:44 25.05.2020
3433 Clear 34 1019 16 10000 4.1 80 15:20 25.05.2020
3434 Clear 34 1020 14 10000 3.6 80 14:59 25.05.2020
3435 Clear 33 1020 17 10000 1.5 90 14:39 25.05.2020
3436 Clouds 32 1020 17 10000 1.5 90 14:21 25.05.2020
3437 Clouds 31 1021 19 10000 2.1 50 13:40 25.05.2020
3438 Clouds 31 1021 19 10000 2.1 50 13:21 25.05.2020
3439 Clouds 30 1021 23 10000 2.6 50 12:59 25.05.2020
3440 Clouds 29 1021 28 10000 2.6 70 12:39 25.05.2020
3441 Clouds 28 1021 28 10000 2.6 70 12:20 25.05.2020
3442 Clouds 27 1022 39 10000 2.6 40 11:56 25.05.2020
3443 Clouds 27 1022 42 10000 3.1 30 11:37 25.05.2020
3444 Clouds 26 1022 42 10000 3.1 30 11:18 25.05.2020
3445 Clouds 25 1022 53 10000 1.5 360 10:41 25.05.2020
3446 Clouds 25 1022 53 10000 1.5 360 10:41 25.05.2020
3447 Clouds 24 1022 53 10000 1.5 360 10:20 25.05.2020
3448 Clouds 23 1022 56 10000 0.5 0 09:56 25.05.2020
3449 Clouds 22 1022 64 10000 0.5 360 09:38 25.05.2020
3450 Clouds 22 1022 64 10000 0.5 360 09:19 25.05.2020
3451 Clouds 21 1022 77 10000 1 340 08:44 25.05.2020
3452 Clouds 20 1022 77 10000 1 340 08:24 25.05.2020
3453 Clouds 20 1022 77 10000 1.09 85 07:58 25.05.2020
3454 Clouds 20 1022 77 10000 1 330 07:39 25.05.2020
3455 Clouds 20 1022 77 10000 1 330 07:19 25.05.2020
3456 Clouds 21 1021 72 10000 1 300 06:41 25.05.2020
3457 Clouds 21 1021 72 10000 1 300 06:41 25.05.2020
3458 Clouds 21 1021 72 10000 1 300 06:21 25.05.2020
3459 Clouds 23 1022 53 10000 1 0 03:40 25.05.2020
3460 Clear 23 1022 53 10000 1 0 03:22 25.05.2020
3461 Clear 23 1022 38 10000 1 300 02:44 25.05.2020
3462 Clouds 25 1022 36 10000 2.6 240 01:42 25.05.2020
3463 Clouds 25 1022 34 10000 3.1 230 00:58 25.05.2020
3464 Clouds 25 1022 31 10000 3.1 220 00:32 25.05.2020
3465 Clouds 26 1021 34 10000 4.1 220 23:59 24.05.2020
3466 Clouds 26 1021 32 10000 4.1 200 23:40 24.05.2020
3467 Clouds 27 1021 32 10000 4.1 200 23:22 24.05.2020
3468 Clouds 27 1021 32 10000 5.7 210 22:58 24.05.2020
3469 Clouds 27 1020 34 10000 4.6 200 22:40 24.05.2020
3470 Clouds 28 1020 34 10000 4.6 200 22:18 24.05.2020
3471 Clouds 29 1020 33 10000 5.1 200 21:55 24.05.2020
3472 Clouds 29 1020 33 10000 5.1 200 21:55 24.05.2020
3473 Clouds 29 1019 33 10000 5.1 190 21:37 24.05.2020
3474 Clouds 30 1019 33 10000 5.1 190 21:18 24.05.2020
3475 Clouds 32 1019 31 10000 5.7 210 20:43 24.05.2020
3476 Clouds 32 1019 31 10000 5.7 210 20:43 24.05.2020
3477 Clouds 33 1019 21 10000 1 0 20:21 24.05.2020
3478 Clouds 35 1019 23 10000 2.6 200 19:59 24.05.2020
3479 Clouds 36 1019 20 10000 1 360 19:40 24.05.2020
3480 Clear 36 1019 20 10000 1 360 19:19 24.05.2020
3481 Clear 36 1019 19 10000 3.1 170 18:54 24.05.2020
3482 Clear 35 1019 20 10000 1 120 18:36 24.05.2020
3483 Clear 36 1019 20 10000 1 120 18:18 24.05.2020
3484 Clear 35 1020 21 10000 1 0 17:40 24.05.2020
3485 Clear 35 1020 21 10000 1 0 17:21 24.05.2020
3486 Clear 35 1020 23 10000 1 10 16:57 24.05.2020
3487 Clear 35 1020 23 10000 1.5 270 16:38 24.05.2020
3488 Clear 34 1020 23 10000 1.5 270 16:20 24.05.2020
3489 Clear 34 1021 23 10000 1.5 270 15:57 24.05.2020
3490 Clear 34 1021 24 10000 1 290 15:38 24.05.2020
3491 Clear 33 1021 24 10000 1 290 15:19 24.05.2020
3492 Clear 33 1021 27 10000 0.5 140 14:46 24.05.2020
3493 Clouds 33 1021 27 10000 1.75 216 14:24 24.05.2020
3494 Clouds 32 1022 35 10000 1.75 216 13:59 24.05.2020
3495 Clouds 31 1022 35 10000 0.5 60 13:41 24.05.2020
3496 Clouds 31 1022 35 10000 0.5 60 13:22 24.05.2020
3497 Clouds 31 1022 38 10000 0.5 150 12:59 24.05.2020
3498 Clouds 30 1022 39 10000 0.5 170 12:40 24.05.2020
3499 Clouds 30 1022 39 10000 0.5 170 12:22 24.05.2020
3500 Clouds 29 1022 45 10000 0.5 60 11:59 24.05.2020
3501 Clouds 28 1022 47 10000 0.5 150 11:41 24.05.2020
3502 Clouds 28 1022 47 10000 0.5 150 11:23 24.05.2020
3503 Clouds 27 1022 50 10000 1 190 10:59 24.05.2020
3504 Clouds 26 1022 53 10000 1 0 10:39 24.05.2020
3505 Clouds 26 1022 53 10000 1 0 10:21 24.05.2020
3506 Clouds 24 1022 60 10000 1.5 170 09:42 24.05.2020
3507 Clear 23 1022 60 10000 1.5 170 09:19 24.05.2020
3508 Clear 22 1021 68 10000 1 0 08:58 24.05.2020
3509 Clear 22 1021 68 10000 0.5 0 08:40 24.05.2020
3510 Clear 22 1021 68 10000 0.5 0 08:22 24.05.2020
3511 Clear 21 1021 72 10000 1.91 75 07:51 24.05.2020
3512 Clear 22 1020 72 10000 0.5 0 07:26 24.05.2020
3513 Clear 22 1020 72 10000 0.5 0 06:58 24.05.2020
3514 Clear 22 1020 64 10000 1 0 06:37 24.05.2020
3515 Clear 22 1020 64 10000 1 0 06:37 24.05.2020
3516 Clear 23 1020 50 10000 1.5 190 05:24 24.05.2020
3517 Clear 24 1021 50 10000 2.1 180 03:42 24.05.2020
3518 Clear 25 1021 47 10000 2.6 170 02:48 24.05.2020
3519 Clear 26 1021 42 10000 1 0 01:59 24.05.2020
3520 Clear 27 1021 42 10000 2.6 210 00:43 24.05.2020
3521 Clear 27 1021 39 10000 2.6 210 00:25 24.05.2020
3522 Clear 27 1021 39 10000 2.6 210 00:25 24.05.2020
3523 Clear 28 1021 39 10000 4.1 230 23:59 23.05.2020
3524 Clear 28 1020 39 10000 4.1 220 23:36 23.05.2020
3525 Clear 29 1020 39 10000 4.1 220 23:18 23.05.2020
3526 Clear 29 1020 42 10000 4.6 210 22:55 23.05.2020
3527 Clear 29 1020 37 10000 4.6 200 22:37 23.05.2020
3528 Clear 29 1020 37 10000 4.6 200 22:18 23.05.2020
3529 Clear 30 1018 46 0 3.13 216 21:54 23.05.2020
3530 Clear 33 1019 24 10000 1.5 360 21:36 23.05.2020
3531 Clear 35 1019 24 10000 1.5 360 21:18 23.05.2020
3532 Clear 36 1019 24 10000 2.6 10 20:39 23.05.2020
3533 Clouds 36 1019 24 10000 2.6 10 20:20 23.05.2020
3534 Clouds 36 1019 22 10000 2.6 340 19:59 23.05.2020
3535 Clouds 36 1019 22 10000 2.6 340 19:59 23.05.2020
3536 Clouds 36 1019 20 10000 1.5 290 19:40 23.05.2020
3537 Clouds 36 1019 20 10000 1.5 290 19:19 23.05.2020
3538 Clouds 36 1020 20 10000 2.1 330 18:42 23.05.2020
3539 Clouds 36 1020 20 10000 2.1 330 18:23 23.05.2020
3540 Clouds 37 1020 19 10000 3.6 350 17:58 23.05.2020
3541 Clouds 36 1020 20 10000 2.6 340 17:40 23.05.2020
3542 Clouds 36 1020 20 10000 2.6 340 17:21 23.05.2020
3543 Clouds 36 1020 19 10000 3.1 330 16:59 23.05.2020
3544 Clouds 36 1021 21 10000 2.6 40 16:41 23.05.2020
3545 Clouds 36 1021 21 10000 2.6 40 16:21 23.05.2020
3546 Clouds 36 1021 24 10000 1.31 47 15:58 23.05.2020
3547 Clouds 35 1021 23 10000 1 90 15:39 23.05.2020
3548 Clouds 35 1021 23 10000 1 90 15:21 23.05.2020
3549 Clouds 35 1022 26 10000 1 70 14:42 23.05.2020
3550 Clouds 35 1022 26 10000 1 70 14:42 23.05.2020
3551 Clouds 34 1022 26 10000 1 70 14:24 23.05.2020
3552 Clouds 34 1022 27 10000 1.5 70 13:56 23.05.2020
3553 Clouds 33 1023 31 10000 1.5 80 13:37 23.05.2020
3554 Clouds 33 1023 31 10000 1.5 80 13:18 23.05.2020
3555 Clouds 31 1023 40 10000 2.6 60 12:41 23.05.2020
3556 Clouds 30 1023 40 10000 2.6 60 12:20 23.05.2020
3557 Clouds 30 1023 42 10000 2.6 50 11:57 23.05.2020
3558 Clouds 29 1023 42 10000 2.6 40 11:39 23.05.2020
3559 Clouds 28 1023 42 10000 2.6 40 11:19 23.05.2020
3560 Clouds 27 1023 44 10000 2.1 50 10:55 23.05.2020
3561 Clouds 26 1023 50 10000 2.6 50 10:37 23.05.2020
3562 Clouds 26 1023 50 10000 2.6 50 10:18 23.05.2020
3563 Clouds 24 1023 53 10000 2.6 50 09:43 23.05.2020
3564 Clouds 24 1023 60 10000 2.1 50 09:24 23.05.2020
3565 Clouds 23 1022 68 10000 2.6 50 08:58 23.05.2020
3566 Clouds 23 1022 64 10000 2.6 60 08:38 23.05.2020
3567 Clouds 22 1022 64 10000 2.6 60 08:19 23.05.2020
3568 Clouds 22 1022 68 10000 2.1 80 07:45 23.05.2020
3569 Clouds 22 1022 68 10000 1 0 07:27 23.05.2020
3570 Clouds 22 1022 68 10000 1.5 70 06:43 23.05.2020
3571 Clouds 23 1021 53 10000 3.1 30 05:59 23.05.2020
3572 Clouds 23 1021 64 10000 1.48 36 04:25 23.05.2020
3573 Clouds 23 1021 68 10000 2.1 140 03:26 23.05.2020
3574 Clouds 24 1021 60 10000 1 0 02:40 23.05.2020
3575 Clouds 25 1022 53 10000 0.18 151 01:50 23.05.2020
3576 Clouds 25 1021 44 10000 1.5 260 01:19 23.05.2020
3577 Clouds 27 1021 44 10000 2.6 300 00:43 23.05.2020
3578 Clouds 28 1021 44 10000 2.6 300 00:21 23.05.2020
3579 Clouds 28 1021 42 10000 3.1 300 23:45 22.05.2020
3580 Clouds 29 1021 37 10000 3.6 300 23:22 22.05.2020
3581 Clouds 30 1020 35 10000 4.6 280 22:59 22.05.2020
3582 Clouds 31 1020 35 10000 4.1 270 22:41 22.05.2020
3583 Clouds 30 1020 35 10000 4.1 270 22:21 22.05.2020
3584 Clouds 31 1020 27 10000 3.1 300 21:55 22.05.2020
3585 Clouds 32 1020 24 10000 2.6 280 21:37 22.05.2020
3586 Clouds 33 1020 24 10000 2.6 280 21:19 22.05.2020
3587 Clouds 34 1019 20 10000 3.1 270 20:45 22.05.2020
3588 Clouds 35 1019 16 10000 1.5 240 20:21 22.05.2020
3589 Clouds 35 1019 17 10000 1.5 250 19:54 22.05.2020
3590 Clouds 35 1019 15 10000 3.1 230 19:36 22.05.2020
3591 Clear 35 1019 15 10000 3.1 230 19:18 22.05.2020
3592 Clear 35 1019 17 10000 2.1 320 18:39 22.05.2020
3593 Clear 36 1019 17 10000 2.1 320 18:19 22.05.2020
3594 Clear 36 1020 15 10000 4.1 260 17:41 22.05.2020
3595 Clear 35 1020 15 10000 4.1 260 17:21 22.05.2020
3596 Clear 35 1020 16 10000 1.5 250 17:00 22.05.2020
3597 Clear 35 1020 15 10000 2.6 240 16:41 22.05.2020
3598 Clear 34 1020 15 10000 2.6 240 16:20 22.05.2020
3599 Clear 34 1020 15 10000 2.6 240 16:20 22.05.2020
3600 Clear 35 1021 16 10000 1.5 270 15:57 22.05.2020
3601 Clear 34 1021 21 10000 2.1 270 15:39 22.05.2020
3602 Clear 34 1021 21 10000 2.1 270 15:19 22.05.2020
3603 Clear 33 1021 31 10000 0.5 140 14:42 22.05.2020
3604 Clear 33 1021 31 10000 0.5 140 14:24 22.05.2020
3605 Clear 32 1021 38 10000 1 60 13:45 22.05.2020
3606 Clear 31 1022 40 10000 1 0 13:20 22.05.2020
3607 Clear 30 1022 42 10000 1 0 12:44 22.05.2020
3608 Clear 29 1022 45 10000 2.1 30 12:25 22.05.2020
3609 Clear 28 1022 48 10000 3.1 50 11:58 22.05.2020
3610 Clear 28 1022 47 10000 2.6 30 11:40 22.05.2020
3611 Clear 27 1022 47 10000 2.6 30 11:19 22.05.2020
3612 Clear 26 1022 54 10000 2.1 50 10:55 22.05.2020
3613 Clear 25 1022 69 10000 3.1 50 10:36 22.05.2020
3614 Clear 24 1022 69 10000 3.1 50 10:18 22.05.2020
3615 Clear 23 1021 78 10000 2.1 40 09:41 22.05.2020
3616 Clear 22 1021 78 10000 2.1 40 09:19 22.05.2020
3617 Clear 22 1021 78 10000 2.1 40 09:19 22.05.2020
3618 Clear 20 1021 82 10000 1.5 30 08:43 22.05.2020
3619 Clear 20 1021 88 10000 1.5 30 08:21 22.05.2020
3620 Clear 20 1021 88 10000 1.5 30 08:21 22.05.2020
3621 Clear 20 1020 88 10000 2.02 38 07:57 22.05.2020
3622 Clear 20 1020 88 10000 1.73 26 07:27 22.05.2020
3623 Clear 20 1020 88 10000 1 90 06:58 22.05.2020
3624 Clear 20 1020 88 10000 1.5 120 06:36 22.05.2020
3625 Clear 21 1020 88 10000 1.3 49 05:40 22.05.2020
3626 Clear 21 1020 83 10000 1.02 60 04:51 22.05.2020
3627 Clear 21 1020 83 10000 0.5 100 04:28 22.05.2020
3628 Clear 21 1020 83 10000 2.1 230 03:47 22.05.2020
3629 Clear 21 1020 78 10000 3.1 210 02:59 22.05.2020
3630 Clouds 22 1020 69 10000 4.1 200 01:57 22.05.2020
3631 Clouds 23 1020 64 10000 3.1 190 01:28 22.05.2020
3632 Clouds 23 1020 69 8000 2.6 200 00:49 22.05.2020
3633 Clouds 24 1020 61 10000 3.1 200 00:28 22.05.2020
3634 Clouds 25 1020 61 10000 3.1 200 23:45 21.05.2020
3635 Clouds 25 1020 61 10000 3.1 210 23:25 21.05.2020
3636 -273 0 0 0 0 0 22:59 21.05.2020
3637 Clouds 26 1019 57 10000 3.6 210 22:59 21.05.2020
3638 Clouds 27 1019 54 10000 3.1 210 22:40 21.05.2020
3639 Clouds 28 1019 54 10000 3.1 210 22:22 21.05.2020
3640 Clouds 28 1019 54 10000 3.6 220 21:59 21.05.2020
3641 Clouds 28 1019 54 10000 3.6 220 21:59 21.05.2020
3642 Clouds 29 1018 48 10000 3.6 220 21:41 21.05.2020
3643 Clouds 30 1018 48 10000 3.6 220 21:22 21.05.2020
3644 Clouds 31 1018 43 10000 5.1 230 20:46 21.05.2020
3645 Clouds 31 1017 40 10000 5.7 220 20:22 21.05.2020
3646 Clouds 32 1017 40 10000 5.7 230 19:57 21.05.2020
3647 Clouds 32 1017 35 10000 4.6 230 19:38 21.05.2020
3648 Clear 33 1017 35 10000 4.6 230 19:19 21.05.2020
3649 Clear 33 1017 20 10000 2.6 260 18:40 21.05.2020
3650 Clouds 35 1017 20 10000 2.6 260 18:20 21.05.2020
3651 Clouds 35 1017 20 10000 2.6 260 18:20 21.05.2020
3652 Clouds 35 1017 21 10000 2.6 220 17:58 21.05.2020
3653 Clouds 34 1018 22 10000 2.1 0 17:40 21.05.2020
3654 Clouds 34 1018 22 10000 2.1 0 17:22 21.05.2020
3655 Clouds 34 1018 26 10000 2.6 330 16:47 21.05.2020
3656 Clouds 34 1018 27 10000 2.6 220 16:25 21.05.2020
3657 Clouds 34 1018 27 10000 1 260 15:55 21.05.2020
3658 Clouds 33 1018 31 10000 1.5 330 15:37 21.05.2020
3659 Clouds 33 1018 31 10000 1.5 330 15:18 21.05.2020
3660 Clouds 32 1018 35 10000 1.5 260 14:39 21.05.2020
3661 Clear 32 1018 35 10000 1.5 260 14:18 21.05.2020
3662 Clear 31 1019 38 10000 1.5 50 13:41 21.05.2020
3663 Clear 31 1019 38 10000 1.5 50 13:22 21.05.2020
3664 Clear 30 1019 42 10000 1.5 20 12:58 21.05.2020
3665 Clear 29 1019 45 10000 2.1 30 12:37 21.05.2020
3666 Clear 28 1019 45 10000 2.1 30 12:19 21.05.2020
3667 Clear 27 1019 54 10000 2.1 10 11:42 21.05.2020
3668 Clear 27 1019 54 10000 2.1 10 11:23 21.05.2020
3669 Clear 26 1019 57 10000 2.1 20 10:59 21.05.2020
3670 Clear 25 1019 64 10000 1.5 10 10:39 21.05.2020
3671 Clear 24 1019 64 10000 1.5 10 10:20 21.05.2020
3672 Clear 23 1018 69 10000 1 0 09:55 21.05.2020
3673 Clear 23 1018 68 10000 1 0 09:36 21.05.2020
3674 Clear 22 1018 68 10000 1 0 09:18 21.05.2020
3675 Clear 21 1018 73 10000 1 0 08:45 21.05.2020
3676 Clear 20 1018 77 10000 1.69 23 08:26 21.05.2020
3677 Clear 20 1018 82 10000 1 160 07:47 21.05.2020
3678 Clear 20 1017 82 10000 2.1 160 07:27 21.05.2020
3679 Clear 20 1017 82 10000 2.6 160 06:52 21.05.2020
3680 Clear 20 1017 82 10000 1 0 05:58 21.05.2020
3681 Clear 21 1017 77 10000 1.5 140 05:22 21.05.2020
3682 Clear 21 1017 73 10000 1.5 170 03:22 21.05.2020
3683 Clear 21 1017 73 10000 1.5 170 03:22 21.05.2020
3684 Clear 22 1017 68 10000 0.5 0 02:45 21.05.2020
3685 Clear 22 1017 64 10000 1.5 200 02:26 21.05.2020
3686 Clear 23 1017 64 10000 3.1 190 01:45 21.05.2020
3687 Clear 24 1017 53 10000 2.1 190 01:21 21.05.2020
3688 Clear 24 1017 60 10000 0.71 259 00:51 21.05.2020
3689 Clear 25 1017 57 10000 0.5 0 00:23 21.05.2020
3690 Clear 27 1016 42 10000 3.1 260 23:44 20.05.2020
3691 Clear 26 1016 42 10000 3.6 260 23:21 20.05.2020
3692 Clear 27 1016 42 10000 3.1 240 22:58 20.05.2020
3693 Clear 28 1015 42 10000 3.6 230 22:39 20.05.2020
3694 Clouds 28 1015 42 10000 3.6 230 22:21 20.05.2020
3695 Clouds 28 1015 42 10000 3.6 230 22:21 20.05.2020
3696 Clouds 30 1015 37 10000 5.1 220 21:41 20.05.2020
3697 Clouds 30 1015 37 10000 5.1 220 21:23 20.05.2020
3698 Clear 32 1014 27 10000 4.44 261 20:45 20.05.2020
3699 Clear 32 1014 27 10000 2.1 210 20:45 20.05.2020
3700 Clear 32 1014 27 10000 2.99 241 20:26 20.05.2020
3701 Clear 33 1014 22 10000 2.99 241 19:59 20.05.2020
3702 Clear 33 1014 24 10000 2.6 280 19:38 20.05.2020
3703 Clear 33 1014 24 10000 2.6 280 19:38 20.05.2020
3704 Clear 33 1014 24 10000 2.6 280 19:20 20.05.2020
3705 Clear 33 1014 26 10000 2.6 260 18:56 20.05.2020
3706 Clear 33 1015 22 10000 3.1 260 18:38 20.05.2020
3707 Clear 33 1015 22 10000 3.1 260 18:18 20.05.2020
3708 Clear 33 1015 29 10000 2.6 320 17:38 20.05.2020
3709 Clear 33 1015 29 10000 2.6 320 17:19 20.05.2020
3710 Clear 32 1015 27 10000 1.5 340 16:42 20.05.2020
3711 Clear 33 1015 27 10000 1.5 340 16:22 20.05.2020
3712 Clear 33 1015 27 10000 3.1 270 15:57 20.05.2020
3713 Clear 32 1016 35 10000 2.6 280 15:39 20.05.2020
3714 Clear 32 1016 35 10000 2.6 280 15:21 20.05.2020
3715 Clear 31 1016 33 10000 0.5 280 14:42 20.05.2020
3716 Clouds 30 1016 37 10000 0.5 290 14:20 20.05.2020
3717 Clouds 30 1016 42 10000 0.5 310 13:41 20.05.2020
3718 Clouds 30 1016 42 10000 0.5 310 13:20 20.05.2020
3719 Clouds 29 1016 48 10000 1 360 12:58 20.05.2020
3720 Clouds 28 1016 47 10000 0.5 350 12:37 20.05.2020
3721 Clouds 27 1016 47 10000 0.5 350 12:19 20.05.2020
3722 Clouds 26 1016 57 10000 0.5 340 11:36 20.05.2020
3723 Clouds 25 1016 57 10000 0.5 340 11:18 20.05.2020
3724 Clouds 25 1016 57 10000 0.5 340 11:18 20.05.2020
3725 Clouds 24 1016 53 10000 2.52 73 10:43 20.05.2020
3726 Clouds 23 1016 64 10000 2.1 50 10:20 20.05.2020
3727 Clouds 21 1016 73 10000 2.1 40 09:45 20.05.2020
3728 Clouds 20 1016 73 10000 2.1 40 09:22 20.05.2020
3729 Clouds 19 1015 77 10000 1.5 60 08:58 20.05.2020
3730 Clouds 19 1015 82 10000 0.5 0 08:40 20.05.2020
3731 Clouds 19 1015 82 10000 0.5 0 08:18 20.05.2020
3732 Clouds 18 1015 88 10000 1.5 70 07:47 20.05.2020
3733 Clouds 18 1015 93 10000 1.5 80 07:21 20.05.2020
3734 Clouds 19 1015 88 10000 1.5 120 06:43 20.05.2020
3735 Clouds 19 1015 82 10000 0.5 0 05:25 20.05.2020
3736 Clouds 19 1016 82 10000 0.5 190 04:33 20.05.2020
3737 Clouds 19 1016 82 10000 0.5 0 03:53 20.05.2020
3738 Clouds 20 1016 73 10000 3.6 190 02:32 20.05.2020
3739 Clouds 21 1017 64 10000 3.1 190 01:31 20.05.2020
3740 Clouds 22 1017 64 10000 3.6 180 00:46 20.05.2020
3741 Clouds 24 1017 53 10000 2.6 200 00:24 20.05.2020
3742 Clouds 24 1016 47 10000 2.6 250 23:45 19.05.2020
3743 Clouds 26 1016 44 10000 5.1 280 23:21 19.05.2020
3744 Clouds 26 1016 42 10000 4.1 300 22:57 19.05.2020
3745 Clouds 27 1015 47 10000 2.1 300 22:39 19.05.2020
3746 Clouds 27 1015 47 10000 2.1 300 22:20 19.05.2020
3747 Clouds 29 1015 37 10000 1.5 320 21:59 19.05.2020
3748 Clouds 30 1015 33 10000 2.1 330 21:39 19.05.2020
3749 Clouds 30 1015 33 10000 2.1 330 21:21 19.05.2020
3750 Clouds 31 1015 31 10000 2.1 360 20:58 19.05.2020
3751 Clouds 31 1015 31 10000 1.5 360 20:40 19.05.2020
3752 Clouds 32 1015 31 10000 1.5 360 20:22 19.05.2020
3753 Clouds 32 1015 35 10000 1.5 20 19:59 19.05.2020
3754 Clouds 32 1015 29 10000 1 250 19:37 19.05.2020
3755 Clouds 32 1015 29 10000 1 250 19:19 19.05.2020
3756 Clouds 32 1016 33 10000 3.1 330 18:43 19.05.2020
3757 Clouds 32 1016 33 10000 3.1 330 18:21 19.05.2020
3758 Clouds 32 1016 29 10000 1.5 270 17:56 19.05.2020
3759 Clouds 32 1016 31 10000 1 60 17:38 19.05.2020
3760 Clouds 32 1016 31 10000 1 60 17:18 19.05.2020
3761 Clouds 32 1017 31 10000 1.5 0 16:40 19.05.2020
3762 Clouds 31 1017 31 10000 1.5 0 16:21 19.05.2020
3763 Clouds 31 1017 35 10000 1.5 40 15:56 19.05.2020
3764 Clouds 31 1017 33 10000 1.5 350 15:37 19.05.2020
3765 Clear 30 1017 33 10000 1.5 350 15:19 19.05.2020
3766 Clear 30 1017 35 10000 0.5 180 14:43 19.05.2020
3767 Clouds 30 1018 37 10000 0.5 0 14:21 19.05.2020
3768 Clouds 29 1018 39 10000 0.5 100 13:59 19.05.2020
3769 Clouds 29 1019 42 10000 1 0 13:40 19.05.2020
3770 Clouds 29 1019 42 10000 1 0 13:22 19.05.2020
3771 Clouds 27 1019 44 10000 2.1 50 12:59 19.05.2020
3772 Clouds 27 1019 44 10000 2.1 50 12:59 19.05.2020
3773 Clouds 27 1019 47 10000 1.5 50 12:40 19.05.2020
3774 Clouds 26 1019 47 10000 1.5 50 12:22 19.05.2020
3775 Clouds 25 1019 50 10000 1.5 50 11:58 19.05.2020
3776 Clouds 25 1019 57 10000 1.5 20 11:40 19.05.2020
3777 Clouds 25 1019 57 10000 1.5 20 11:40 19.05.2020
3778 Clouds 24 1019 57 10000 1.5 20 11:21 19.05.2020
3779 Clouds 22 1019 64 10000 1.5 50 10:48 19.05.2020
3780 Clouds 22 1019 68 10000 2.1 50 10:29 19.05.2020
3781 Clouds 20 1019 77 10000 2.6 50 09:59 19.05.2020
3782 Clouds 19 1019 82 10000 2.6 50 09:41 19.05.2020
3783 Clouds 19 1019 82 10000 2.6 50 09:23 19.05.2020
3784 Clouds 17 1019 93 10000 2.1 30 08:44 19.05.2020
3785 Clouds 17 1019 88 10000 1.5 60 08:24 19.05.2020
3786 Clouds 17 1019 88 10000 1.96 42 07:45 19.05.2020
3787 Clouds 17 1019 88 10000 1.96 43 07:26 19.05.2020
3788 Clouds 17 1018 88 10000 1 110 06:54 19.05.2020
3789 Clouds 17 1018 88 10000 1.5 130 06:25 19.05.2020
3790 Clouds 18 1018 82 10000 1.68 47 05:42 19.05.2020
3791 Clouds 18 1018 82 10000 1.68 47 05:42 19.05.2020
3792 Clear 18 1019 88 10000 1.02 68 04:56 19.05.2020
3793 Clear 18 1019 82 10000 1 0 04:34 19.05.2020
3794 Clear 20 1020 60 10000 2.6 270 01:51 19.05.2020
3795 Clear 22 1020 60 10000 3.1 270 00:47 19.05.2020
3796 Clouds 22 1020 56 10000 3.6 280 00:25 19.05.2020
3797 Clouds 23 1020 60 10000 2.6 310 23:58 18.05.2020
3798 Clouds 23 1020 57 10000 3.1 280 23:40 18.05.2020
3799 Clear 23 1020 57 10000 3.1 280 23:20 18.05.2020
3800 Clear 25 1019 47 10000 5.1 270 22:41 18.05.2020
3801 Clear 25 1019 47 10000 5.1 270 22:22 18.05.2020
3802 Clear 26 1019 42 10000 1.5 230 21:58 18.05.2020
3803 Clear 26 1019 39 10000 1 220 21:40 18.05.2020
3804 Clear 28 1019 39 10000 1 220 21:20 18.05.2020
3805 Clear 29 1019 32 10000 1 0 20:57 18.05.2020
3806 Clear 29 1019 32 10000 1 0 20:37 18.05.2020
3807 Clear 30 1019 32 10000 1.5 330 20:18 18.05.2020
3808 Clear 30 1019 35 10000 2.1 310 19:41 18.05.2020
3809 Clear 30 1019 35 10000 2.1 310 19:19 18.05.2020
3810 Clear 30 1019 32 10000 1.5 0 18:55 18.05.2020
3811 Clear 29 1020 35 10000 2.1 20 18:36 18.05.2020
3812 Clear 29 1020 35 10000 2.1 20 18:18 18.05.2020
3813 Clear 29 1020 34 10000 2.1 330 17:37 18.05.2020
3814 Clear 29 1020 34 10000 2.1 330 17:18 18.05.2020
3815 Clear 29 1020 34 10000 2.1 330 17:18 18.05.2020
3816 Clear 29 1020 34 10000 2.1 330 17:18 18.05.2020
3817 Clear 29 1020 34 10000 2.1 330 17:18 18.05.2020
3818 Clear 28 1020 34 10000 2.1 270 16:55 18.05.2020
3819 Clear 28 1021 34 10000 2.6 290 16:36 18.05.2020
3820 Clear 28 1021 34 10000 2.6 290 16:18 18.05.2020
3821 Clear 28 1021 32 10000 2.1 310 15:42 18.05.2020
3822 Clear 27 1021 42 10000 1 350 15:24 18.05.2020
3823 Clear 27 1022 50 10000 1 30 14:59 18.05.2020
3824 Clear 27 1022 53 10000 1 280 14:39 18.05.2020
3825 Clear 26 1022 53 10000 1 280 14:21 18.05.2020
3826 Clear 26 1022 57 10000 0.5 90 13:54 18.05.2020
3827 Clear 25 1022 60 10000 0.5 160 13:36 18.05.2020
3828 Clear 25 1022 60 10000 0.5 160 13:18 18.05.2020
3829 Clear 24 1023 69 10000 1.5 360 12:54 18.05.2020
3830 Clear 24 1023 64 10000 1.5 30 12:36 18.05.2020
3831 Clear 23 1023 64 10000 1.5 30 12:18 18.05.2020
3832 Clear 22 1023 68 10000 1.5 70 11:44 18.05.2020
3833 Clear 21 1023 73 10000 1.5 80 11:25 18.05.2020
3834 Rain 20 1023 77 10000 1.5 60 10:47 18.05.2020
3835 Clouds 18 1023 88 9000 2.1 80 10:27 18.05.2020
3836 Clouds 17 1023 93 6000 2.1 30 09:57 18.05.2020
3837 Clouds 17 1023 93 6000 3.1 30 09:39 18.05.2020
3838 Clouds 17 1023 93 6000 3.1 30 09:20 18.05.2020
3839 Clouds 16 1022 93 10000 1.5 40 08:42 18.05.2020
3840 Clouds 16 1022 93 10000 1.5 40 08:23 18.05.2020
3841 Clouds 16 1022 93 10000 1 50 07:50 18.05.2020
3842 Clouds 16 1022 93 10000 1 40 07:26 18.05.2020
3843 Clear 16 1022 87 10000 1.67 54 06:48 18.05.2020
3844 Clear 16 1022 87 10000 0.93 78 06:25 18.05.2020
3845 Clear 16 1022 93 10000 0.93 78 05:46 18.05.2020
3846 Clear 17 1022 93 10000 1.5 160 04:40 18.05.2020
3847 Clear 17 1022 88 10000 2.6 210 03:30 18.05.2020
3848 Clouds 18 1022 88 10000 1.5 190 01:58 18.05.2020
3849 Clouds 18 1023 82 10000 1.5 210 00:50 18.05.2020
3850 Clouds 19 1023 77 10000 3.1 220 00:23 18.05.2020
3851 Clouds 19 1022 77 10000 2.1 210 23:56 17.05.2020
3852 Clouds 19 1022 68 10000 2.6 220 23:38 17.05.2020
3853 Clouds 19 1022 68 10000 2.6 220 23:19 17.05.2020
3854 Clouds 19 1022 68 10000 2.1 200 22:55 17.05.2020
3855 Clouds 20 1021 68 10000 3.1 220 22:37 17.05.2020
3856 Clouds 20 1021 68 10000 3.1 220 22:18 17.05.2020
3857 Clouds 20 1021 68 10000 3.1 220 22:18 17.05.2020
3858 Clouds 21 1020 64 10000 5.1 220 21:42 17.05.2020
3859 Clouds 22 1020 64 10000 5.1 220 21:20 17.05.2020
3860 Clouds 23 1020 60 10000 3.6 220 20:59 17.05.2020
3861 Clouds 24 1020 47 10000 2.6 250 20:41 17.05.2020
3862 Clouds 24 1020 47 10000 2.6 250 20:20 17.05.2020
3863 Clouds 25 1019 47 10000 2.6 230 19:56 17.05.2020
3864 Clouds 25 1019 44 10000 1.5 280 19:37 17.05.2020
3865 Clouds 25 1019 44 10000 1.5 280 19:37 17.05.2020
3866 Clouds 25 1019 44 10000 1.5 280 19:18 17.05.2020
3867 Clouds 25 1019 44 10000 2.1 310 18:41 17.05.2020
3868 Clouds 25 1019 44 10000 2.1 310 18:23 17.05.2020
3869 Clouds 25 1019 41 10000 2.1 30 17:58 17.05.2020
3870 Clouds 25 1019 44 10000 1.5 320 17:39 17.05.2020
3871 Clouds 26 1019 44 10000 1.5 320 17:18 17.05.2020
3872 Clouds 25 1020 53 10000 1.5 290 16:40 17.05.2020
3873 Clouds 25 1020 53 10000 1.5 290 16:20 17.05.2020
3874 Clouds 24 1020 57 10000 1.5 210 15:57 17.05.2020
3875 Clouds 24 1020 64 10000 0.5 350 15:39 17.05.2020
3876 Clear 24 1020 64 10000 0.5 350 15:20 17.05.2020
3877 Clear 21 1021 68 10000 1.5 320 14:43 17.05.2020
3878 Clear 22 1021 73 10000 0.5 260 14:24 17.05.2020
3879 Clouds 20 1021 77 10000 0.5 220 13:59 17.05.2020
3880 Clouds 20 1021 77 10000 0.5 80 13:40 17.05.2020
3881 Clouds 20 1021 77 10000 0.5 80 13:19 17.05.2020
3882 Clear 15 1019 87 10000 2.6 200 04:47 17.05.2020
3883 Clear 16 1020 93 10000 3.1 180 03:18 17.05.2020
3884 Clear 16 1020 88 10000 2.1 180 02:20 17.05.2020
3885 Clear 16 1020 88 10000 2.1 180 01:47 17.05.2020
3886 Clear 17 1019 88 10000 2.1 190 00:41 17.05.2020
3887 Clear 17 1019 88 10000 2.1 190 00:21 17.05.2020
3888 Clear 17 1019 82 10000 2.6 230 23:42 16.05.2020
3889 Clear 17 1019 82 10000 2.6 230 23:21 16.05.2020
3890 Clear 17 1018 82 10000 4.1 220 22:59 16.05.2020
3891 Clear 18 1018 82 10000 3.6 220 22:41 16.05.2020
3892 Clear 18 1018 82 10000 3.6 220 22:20 16.05.2020
3893 Clear 18 1018 77 10000 4.1 210 21:55 16.05.2020
3894 Clear 18 1017 77 10000 3.6 210 21:37 16.05.2020
3895 Rain 19 1017 77 10000 3.6 210 21:18 16.05.2020
3896 Clear 20 1017 68 10000 6.7 220 20:54 16.05.2020
3897 Clear 20 1017 68 10000 5.7 220 20:36 16.05.2020
3898 Clouds 20 1017 68 10000 5.7 220 20:18 16.05.2020
3899 Clouds 21 1016 64 10000 8.2 220 19:40 16.05.2020
3900 Clouds 21 1016 64 10000 8.2 220 19:22 16.05.2020
3901 Clouds 22 1016 53 10000 4.6 210 18:57 16.05.2020
3902 Clouds 22 1016 46 10000 4.1 220 18:36 16.05.2020
3903 Clouds 23 1016 46 10000 4.1 220 18:18 16.05.2020
3904 Clouds 23 1016 44 10000 2.1 280 17:41 16.05.2020
3905 Clouds 23 1016 44 10000 2.1 280 17:20 16.05.2020
3906 Clouds 23 1016 43 10000 2.1 40 16:43 16.05.2020
3907 Clouds 23 1016 43 10000 2.1 40 16:24 16.05.2020
3908 Clouds 23 1016 46 10000 1.5 320 15:59 16.05.2020
3909 Clouds 23 1016 46 10000 1.5 290 15:41 16.05.2020
3910 Clouds 23 1016 46 10000 1.5 290 15:20 16.05.2020
3911 Clouds 23 1016 53 10000 1.5 220 14:56 16.05.2020
3912 Clouds 23 1016 53 10000 0.5 30 14:37 16.05.2020
3913 Clouds 22 1016 53 10000 0.5 30 14:19 16.05.2020
3914 Clouds 21 1017 60 10000 1.5 50 13:42 16.05.2020
3915 Clouds 21 1017 60 10000 1.5 50 13:23 16.05.2020
3916 Clouds 21 1017 72 10000 1 310 12:58 16.05.2020
3917 Clouds 20 1017 77 10000 0.5 40 12:39 16.05.2020
3918 Clouds 20 1017 77 10000 0.5 40 12:18 16.05.2020
3919 Clouds 19 1016 82 10000 1.5 10 11:41 16.05.2020
3920 Clouds 18 1016 82 10000 1.5 10 11:23 16.05.2020
3921 Clouds 18 1016 88 10000 2.1 30 10:58 16.05.2020
3922 Clouds 17 1016 93 10000 1.5 10 10:39 16.05.2020
3923 Clouds 17 1015 82 0 1.79 3 10:20 16.05.2020
3924 Clouds 16 1016 100 10000 1 0 09:46 16.05.2020
3925 Clouds 15 1015 93 10000 2.6 40 09:28 16.05.2020
3926 Clouds 15 1015 93 10000 2.6 60 08:55 16.05.2020
3927 Clouds 14 1014 87 10000 1.5 20 08:36 16.05.2020
3928 Clear 15 1014 87 10000 1.5 20 08:18 16.05.2020
3929 Clear 15 1014 87 10000 2.1 50 07:42 16.05.2020
3930 Clear 15 1014 87 10000 2.1 50 07:21 16.05.2020
3931 Clear 15 1014 93 10000 1 0 06:47 16.05.2020
3932 Clear 15 1014 93 10000 1.5 130 06:20 16.05.2020
3933 Clear 15 1013 93 10000 1.4 48 05:42 16.05.2020
3934 Clear 15 1013 93 10000 0.97 44 05:22 16.05.2020
3935 Clear 16 1014 87 10000 1 0 03:29 16.05.2020
3936 Clouds 16 1014 87 10000 2.6 270 02:47 16.05.2020
3937 Clouds 16 1014 87 10000 3.1 280 02:19 16.05.2020
3938 Clouds 16 1014 88 10000 2.1 220 01:40 16.05.2020
3939 Clouds 16 1014 88 10000 1.5 220 00:58 16.05.2020
3940 Clouds 16 1014 82 10000 2.1 240 00:40 16.05.2020
3941 Rain 16 1014 82 10000 2.1 240 00:20 16.05.2020
3942 Rain 16 1014 88 10000 1 0 23:40 15.05.2020
3943 Rain 17 1014 88 10000 1 0 23:20 15.05.2020
3944 Rain 17 1014 88 10000 1 0 23:20 15.05.2020
3945 Thunderstorm 17 1013 82 10000 2.6 240 22:42 15.05.2020
3946 Rain 17 1013 82 10000 2.6 240 22:23 15.05.2020
3947 Rain 18 1013 77 10000 3.6 260 21:59 15.05.2020
3948 Rain 18 1012 77 9000 4.1 220 21:39 15.05.2020
3949 Thunderstorm 18 1012 77 9000 4.1 220 21:21 15.05.2020
3950 Rain 19 1012 88 10000 2.6 170 20:57 15.05.2020
3951 Clouds 19 1011 77 10000 3.6 210 20:39 15.05.2020
3952 Clouds 19 1011 77 10000 3.6 210 20:21 15.05.2020
3953 Rain 19 1011 72 10000 5.1 220 19:55 15.05.2020
3954 Clouds 20 1011 68 10000 6.2 230 19:36 15.05.2020
3955 Clouds 20 1011 68 10000 6.2 230 19:18 15.05.2020
3956 Clouds 20 1010 68 0 4.02 215 18:41 15.05.2020
3957 Clouds 21 1010 66 0 4.92 205 18:23 15.05.2020
3958 Clouds 23 1010 37 10000 3.1 10 17:39 15.05.2020
3959 Clouds 23 1010 37 10000 3.1 10 17:19 15.05.2020
3960 Clouds 23 1010 38 10000 2.1 310 16:57 15.05.2020
3961 Clouds 23 1011 38 10000 1.5 50 16:38 15.05.2020
3962 Clouds 23 1011 38 10000 1.5 50 16:19 15.05.2020
3963 Clouds 22 1011 43 10000 3.6 90 15:42 15.05.2020
3964 Clouds 22 1011 43 10000 3.6 90 15:24 15.05.2020
3965 Clouds 22 1011 49 10000 2.1 60 14:59 15.05.2020
3966 Clouds 22 1011 49 10000 2.1 30 14:41 15.05.2020
3967 Clouds 22 1011 49 10000 2.1 30 14:23 15.05.2020
3968 Clouds 21 1012 52 10000 3.1 70 13:58 15.05.2020
3969 Clouds 21 1012 56 10000 2.6 80 13:39 15.05.2020
3970 Clouds 20 1012 56 10000 2.6 80 13:19 15.05.2020
3971 Clouds 20 1012 55 10000 4.6 60 12:39 15.05.2020
3972 Clouds 19 1012 55 10000 4.6 60 12:18 15.05.2020
3973 Clouds 19 1012 59 10000 4.1 70 11:57 15.05.2020
3974 Clouds 18 1012 68 10000 5.7 70 11:38 15.05.2020
3975 Clouds 18 1012 68 10000 5.7 70 11:19 15.05.2020
3976 Clouds 17 1012 77 10000 4.1 60 10:57 15.05.2020
3977 Clouds 17 1012 82 10000 4.6 70 10:39 15.05.2020
3978 Clouds 17 1012 82 10000 4.6 70 10:38 15.05.2020
3979 Clouds 16 1012 82 10000 4.6 70 10:20 15.05.2020
3980 Clouds 15 1011 87 10000 3.6 50 09:57 15.05.2020
3981 Clouds 14 1011 82 10000 3.6 60 09:36 15.05.2020
3982 Clear 14 1011 82 10000 3.6 60 09:18 15.05.2020
3983 Clouds 13 1011 93 10000 3.6 70 08:38 15.05.2020
3984 Clouds 12 1011 93 10000 3.6 70 08:20 15.05.2020
3985 Clouds 12 1011 87 10000 3.1 70 08:20 15.05.2020
3986 Clouds 12 1011 87 10000 3.1 70 07:59 15.05.2020
3987 Clouds 12 1010 93 10000 4.1 70 07:40 15.05.2020
3988 Clouds 12 1010 93 10000 4.1 70 07:21 15.05.2020
3989 Clouds 12 1010 93 10000 3.6 80 06:32 15.05.2020
3990 Clouds 12 1010 93 10000 3.1 80 05:33 15.05.2020
3991 Rain 13 1009 87 10000 2.1 130 03:52 15.05.2020
3992 Clouds 13 1010 87 10000 3.1 140 02:58 15.05.2020
3993 Clouds 13 1010 93 10000 2.1 130 01:37 15.05.2020
3994 Clouds 14 1010 93 10000 2.1 130 01:19 15.05.2020
3995 Rain 14 1010 87 10000 2.1 150 00:43 15.05.2020
3996 Rain 14 1010 100 10000 2.6 110 00:22 15.05.2020
3997 Rain 14 1009 100 9000 1 230 23:42 14.05.2020
3998 Rain 14 1009 100 9000 1 230 23:20 14.05.2020
3999 Rain 14 1009 93 9000 2.1 150 22:55 14.05.2020
4000 Rain 14 1008 93 10000 1.5 170 22:37 14.05.2020
4001 Rain 14 1008 93 10000 1.5 170 22:19 14.05.2020
4002 Rain 14 1008 87 9000 5.1 190 21:42 14.05.2020
4003 Rain 13 1006 88 0 1.34 185 21:20 14.05.2020
4004 Rain 14 1008 93 10000 2.6 180 20:59 14.05.2020
4005 Rain 14 1008 82 10000 7.2 220 20:41 14.05.2020
4006 Rain 15 1008 82 10000 7.2 220 20:20 14.05.2020
4007 Rain 15 1007 82 10000 5.7 180 19:57 14.05.2020
4008 Rain 16 1007 82 10000 5.1 180 19:39 14.05.2020
4009 Rain 15 1007 82 10000 5.1 180 19:20 14.05.2020
4010 Rain 15 1007 82 10000 4.6 200 18:58 14.05.2020
4011 Rain 15 1006 77 10000 6.2 210 18:38 14.05.2020
4012 Rain 15 1006 77 10000 6.2 210 18:19 14.05.2020
4013 Rain 15 1006 82 10000 6.2 180 17:57 14.05.2020
4014 Rain 15 1006 87 10000 5.1 190 17:37 14.05.2020
4015 Rain 15 1006 87 10000 5.1 190 17:18 14.05.2020
4016 Rain 15 1006 93 10000 5.1 180 16:57 14.05.2020
4017 Rain 15 1006 87 4000 7.2 190 16:37 14.05.2020
4018 Rain 15 1006 87 4000 7.2 190 16:18 14.05.2020
4019 Rain 16 1006 87 9000 4.6 170 15:41 14.05.2020
4020 Rain 15 1006 93 10000 2.6 180 15:21 14.05.2020
4021 Rain 14 1006 93 10000 2.6 180 14:57 14.05.2020
4022 Rain 14 1006 93 10000 2.6 180 14:39 14.05.2020
4023 Rain 14 1006 93 10000 2.6 180 14:20 14.05.2020
4024 Rain 14 1006 93 9000 3.6 160 13:57 14.05.2020
4025 Rain 14 1006 93 9000 3.6 160 13:38 14.05.2020
4026 Rain 14 1006 93 9000 3.6 160 13:20 14.05.2020
4027 Rain 14 1006 100 9000 4.1 170 12:58 14.05.2020
4028 Rain 14 1006 100 9000 4.1 170 12:38 14.05.2020
4029 Rain 14 1006 100 9000 4.1 170 12:19 14.05.2020
4030 Rain 13 1006 93 8000 5.7 160 11:57 14.05.2020
4031 Rain 13 1006 93 8000 5.7 160 11:38 14.05.2020
4032 Rain 13 1006 93 8000 5.7 160 11:19 14.05.2020
4033 Rain 13 1005 93 7000 3.6 160 10:45 14.05.2020
4034 Rain 13 1005 93 7000 3.6 160 10:26 14.05.2020
4035 Rain 12 1005 93 10000 3.1 150 09:57 14.05.2020
4036 Rain 12 1005 93 10000 3.1 150 09:39 14.05.2020
4037 Rain 12 1005 93 10000 3.1 150 09:19 14.05.2020
4038 Rain 12 1006 93 6000 2.6 170 08:41 14.05.2020
4039 Rain 12 1006 93 6000 2.6 170 08:20 14.05.2020
4040 Rain 12 1005 93 10000 3.1 180 07:45 14.05.2020
4041 Rain 12 1005 93 10000 3.1 180 07:24 14.05.2020
4042 Rain 13 1005 87 10000 2.1 190 06:54 14.05.2020
4043 Rain 13 1005 87 10000 3.1 180 06:31 14.05.2020
4044 Rain 12 1005 93 10000 2.6 150 05:55 14.05.2020
4045 Rain 12 1005 93 10000 3.14 162 05:29 14.05.2020
4046 Rain 13 1006 93 10000 1 0 04:25 14.05.2020
4047 Rain 13 1007 87 10000 1 0 03:23 14.05.2020
4048 Rain 13 1007 93 10000 3.1 200 02:41 14.05.2020
4049 Rain 13 1007 87 10000 2.6 190 01:56 14.05.2020
4050 Rain 13 1007 87 10000 3.1 180 01:24 14.05.2020
4051 Rain 14 1007 93 10000 2.6 190 00:48 14.05.2020
4052 Clouds 14 1007 93 10000 1.5 210 00:24 14.05.2020
4053 Clouds 14 1007 93 10000 2.1 170 23:44 13.05.2020
4054 Clouds 14 1006 93 10000 2.1 170 23:21 13.05.2020
4055 Clouds 14 1006 93 10000 2.1 240 22:54 13.05.2020
4056 Clouds 14 1006 93 10000 3.1 230 22:36 13.05.2020
4057 Clouds 14 1006 93 10000 3.1 230 22:18 13.05.2020
4058 Clouds 14 1006 87 10000 4.1 220 21:56 13.05.2020
4059 Rain 14 1006 82 10000 3.6 220 21:38 13.05.2020
4060 Rain 14 1006 82 10000 3.6 220 21:18 13.05.2020
4061 Rain 15 1005 77 10000 4.6 230 20:41 13.05.2020
4062 Rain 15 1005 77 10000 4.6 230 20:23 13.05.2020
4063 Rain 15 1004 87 10000 7.2 250 19:44 13.05.2020
4064 Rain 15 1004 87 10000 7.2 250 19:25 13.05.2020
4065 Rain 16 1004 82 10000 8.2 220 18:58 13.05.2020
4066 Rain 19 1004 68 10000 7.7 220 18:40 13.05.2020
4067 Rain 19 1004 68 10000 7.7 220 18:21 13.05.2020
4068 Clouds 21 1004 46 10000 6.7 220 17:39 13.05.2020
4069 Clouds 21 1004 46 10000 6.7 220 17:20 13.05.2020
4070 Clouds 21 1005 52 10000 7.7 220 16:58 13.05.2020
4071 Clouds 21 1005 49 10000 4.6 210 16:39 13.05.2020
4072 Clouds 21 1005 49 10000 4.6 210 16:19 13.05.2020
4073 Clouds 21 1005 49 10000 4.6 210 16:19 13.05.2020
4074 Rain 21 1005 46 10000 6.7 220 15:43 13.05.2020
4075 Rain 21 1005 46 10000 6.7 190 15:20 13.05.2020
4076 Rain 21 1006 49 10000 4.6 190 14:59 13.05.2020
4077 Rain 21 1004 54 0 3.58 193 14:41 13.05.2020
4078 Rain 21 1006 59 10000 4.6 190 14:22 13.05.2020
4079 Rain 19 1007 63 10000 4.6 200 13:58 13.05.2020
4080 Rain 18 1007 63 10000 5.7 180 13:39 13.05.2020
4081 Rain 18 1007 63 10000 5.7 180 13:20 13.05.2020
4082 Clouds 18 1007 82 10000 6.2 180 12:57 13.05.2020
4083 Clouds 18 1008 77 10000 4.6 180 12:38 13.05.2020
4084 Rain 17 1008 77 10000 4.6 180 12:18 13.05.2020
4085 Rain 17 1008 77 10000 4.6 170 11:55 13.05.2020
4086 Rain 16 1008 77 10000 4.1 160 11:36 13.05.2020
4087 Rain 16 1008 77 10000 4.1 160 11:18 13.05.2020
4088 Rain 17 1008 77 10000 3.1 190 10:56 13.05.2020
4089 Rain 16 1008 82 0 3.1 160 10:37 13.05.2020
4090 Rain 16 1008 82 0 3.1 160 10:18 13.05.2020
4091 Rain 15 1008 93 10000 1.5 150 09:41 13.05.2020
4092 Clouds 14 1008 93 10000 1.5 150 09:23 13.05.2020
4093 Clouds 14 1008 93 10000 1.5 150 09:23 13.05.2020
4094 Clouds 13 1008 93 10000 2.6 140 08:57 13.05.2020
4095 Clouds 13 1009 93 10000 2.1 160 08:37 13.05.2020
4096 Clouds 13 1009 93 10000 2.1 160 08:18 13.05.2020
4097 Clouds 12 1008 93 10000 0.5 0 07:43 13.05.2020
4098 Clouds 13 1008 93 10000 0.5 0 07:25 13.05.2020
4099 Clouds 13 1008 93 10000 2.1 180 06:47 13.05.2020
4100 Clouds 12 1008 93 10000 3.1 170 06:27 13.05.2020
4101 Clouds 13 1009 93 10000 2.1 160 04:57 13.05.2020
4102 Clouds 13 1009 93 10000 3.1 180 03:27 13.05.2020
4103 Clouds 13 1010 87 10000 2.6 180 02:32 13.05.2020
4104 Clouds 14 1010 82 10000 1.5 190 01:37 13.05.2020
4105 Clouds 14 1010 82 10000 2.1 190 00:53 13.05.2020
4106 Clouds 15 1010 82 10000 2.1 180 00:22 13.05.2020
4107 Clouds 15 1010 72 10000 3.1 220 23:40 12.05.2020
4108 Clouds 15 1010 72 10000 3.1 220 23:40 12.05.2020
4109 Clouds 15 1010 72 10000 3.1 220 23:22 12.05.2020
4110 Clouds 15 1010 72 10000 3.1 220 23:22 12.05.2020
4111 Clouds 15 1010 72 10000 3.1 220 23:22 12.05.2020
4112 Clouds 15 1010 72 10000 3.6 220 22:59 12.05.2020
4113 Clouds 16 1009 67 10000 4.1 230 22:41 12.05.2020
4114 Clear 16 1009 67 10000 4.1 230 22:21 12.05.2020
4115 Clear 17 1009 67 10000 5.7 230 21:56 12.05.2020
4116 Clouds 17 1008 67 10000 7.2 230 21:38 12.05.2020
4117 Clouds 17 1008 67 10000 7.2 230 21:19 12.05.2020
4118 Clouds 18 1008 63 10000 6.2 220 20:57 12.05.2020
4119 Clouds 18 1008 63 10000 7.7 220 20:39 12.05.2020
4120 Clouds 18 1008 63 10000 7.7 220 20:20 12.05.2020
4121 Clouds 18 1008 63 10000 6.2 220 19:57 12.05.2020
4122 Clouds 19 1008 68 10000 6.7 220 19:39 12.05.2020
4123 Clouds 19 1008 68 10000 6.7 220 19:20 12.05.2020
4124 Clouds 19 1008 63 10000 7.7 220 18:55 12.05.2020
4125 Clouds 19 1008 55 10000 6.7 220 18:36 12.05.2020
4126 Clouds 19 1008 55 10000 6.7 220 18:18 12.05.2020
4127 Clouds 19 1008 68 10000 5.1 220 17:41 12.05.2020
4128 Clouds 19 1008 68 10000 5.1 220 17:23 12.05.2020
4129 Clouds 18 1008 63 10000 7.2 220 16:47 12.05.2020
4130 Clouds 18 1008 68 10000 5.7 210 16:26 12.05.2020
4131 Thunderstorm 18 1009 68 10000 6.2 220 15:56 12.05.2020
4132 Clouds 18 1009 68 10000 4.1 200 15:38 12.05.2020
4133 Rain 18 1009 68 10000 4.1 200 15:19 12.05.2020
4134 Rain 18 1009 68 10000 5.7 200 14:57 12.05.2020
4135 Clouds 18 1010 68 10000 3.6 190 14:37 12.05.2020
4136 Rain 18 1010 68 10000 3.6 190 14:19 12.05.2020
4137 Clouds 18 1010 72 10000 2.6 210 13:57 12.05.2020
4138 Rain 18 1009 73 0 3.13 202 13:39 12.05.2020
4139 Clouds 18 1010 77 10000 2.1 190 13:19 12.05.2020
4140 Clouds 18 1010 77 10000 2.1 190 13:19 12.05.2020
4141 Rain 17 1010 82 10000 2.1 160 12:57 12.05.2020
4142 Rain 16 1008 81 0 1.79 167 12:39 12.05.2020
4143 Rain 16 1010 93 10000 3.6 170 12:21 12.05.2020
4144 Rain 15 1010 93 10000 4.1 180 11:58 12.05.2020
4145 Rain 14 1010 93 10000 3.6 180 11:38 12.05.2020
4146 Rain 14 1010 93 10000 3.6 180 11:20 12.05.2020
4147 Rain 14 1010 93 7000 1.5 250 10:58 12.05.2020
4148 Thunderstorm 13 1011 93 1800 4.6 220 10:39 12.05.2020
4149 Rain 13 1011 93 1800 4.6 220 10:21 12.05.2020
4150 Rain 14 1010 93 4200 2.02 115 09:58 12.05.2020
4151 Rain 14 1009 93 10000 1 360 09:39 12.05.2020
4152 Rain 15 1009 93 10000 1 360 09:20 12.05.2020
4153 Rain 15 1010 93 10000 1 40 08:54 12.05.2020
4154 Rain 15 1009 93 10000 3.45 88 08:36 12.05.2020
4155 Clouds 15 1009 93 10000 2.43 63 08:18 12.05.2020
4156 Clouds 15 1009 87 10000 2.43 63 07:41 12.05.2020
4157 Clouds 15 1009 87 10000 1.67 91 07:21 12.05.2020
4158 Clouds 15 1009 93 10000 1.5 160 06:41 12.05.2020
4159 Clouds 14 1009 93 10000 1.5 160 06:22 12.05.2020
4160 Clouds 15 1010 93 10000 1.5 140 05:50 12.05.2020
4161 Clouds 15 1010 93 10000 0.5 0 04:54 12.05.2020
4162 Clouds 15 1011 87 10000 0.42 257 03:26 12.05.2020
4163 Clouds 16 1011 87 10000 2.1 180 02:28 12.05.2020
4164 Clouds 16 1012 82 10000 2.6 230 01:56 12.05.2020
4165 Clouds 16 1012 82 10000 1 200 01:24 12.05.2020
4166 Clouds 17 1012 77 10000 2.1 210 00:26 12.05.2020
4167 Clouds 17 1012 72 10000 2.1 220 23:58 11.05.2020
4168 Clouds 17 1012 72 10000 2.6 220 23:40 11.05.2020
4169 Clouds 18 1012 72 10000 2.6 220 23:20 11.05.2020
4170 Clouds 18 1012 72 10000 2.6 210 22:58 11.05.2020
4171 Clouds 18 1012 68 10000 3.6 210 22:40 11.05.2020
4172 Clouds 19 1012 68 10000 3.6 210 22:20 11.05.2020
4173 Clouds 19 1012 68 10000 3.6 210 22:20 11.05.2020
4174 Clouds 19 1012 63 10000 4.1 220 21:57 11.05.2020
4175 Clouds 19 1011 60 10000 3.6 210 21:39 11.05.2020
4176 Clouds 20 1011 56 10000 4.6 220 21:19 11.05.2020
4177 Clouds 20 1011 56 10000 4.6 220 20:57 11.05.2020
4178 Clouds 20 1011 60 10000 5.1 230 20:39 11.05.2020
4179 Clouds 20 1011 60 10000 5.1 230 20:20 11.05.2020
4180 Clouds 20 1011 60 10000 6.2 220 19:55 11.05.2020
4181 Clouds 20 1012 49 10000 7.2 230 19:36 11.05.2020
4182 Clouds 21 1012 49 10000 7.2 230 19:18 11.05.2020
4183 Clouds 21 1012 52 10000 6.7 230 18:55 11.05.2020
4184 Clouds 21 1012 49 10000 6.7 230 18:36 11.05.2020
4185 Clouds 21 1012 49 10000 6.7 230 18:18 11.05.2020
4186 Clouds 22 1011 49 10000 7.7 240 17:41 11.05.2020
4187 Clouds 22 1011 49 10000 7.7 240 17:23 11.05.2020
4188 Clouds 22 1012 53 10000 7.7 250 16:59 11.05.2020
4189 Clouds 22 1012 53 10000 6.7 240 16:40 11.05.2020
4190 Clouds 22 1012 53 10000 6.7 240 16:21 11.05.2020
4191 Clouds 22 1012 53 10000 8.2 240 15:57 11.05.2020
4192 Clouds 22 1012 56 10000 8.7 240 15:39 11.05.2020
4193 Clouds 22 1012 56 10000 8.7 240 15:19 11.05.2020
4194 Clouds 22 1012 56 10000 8.7 240 15:19 11.05.2020
4195 Clouds 22 1011 49 10000 8.7 230 14:54 11.05.2020
4196 Clouds 22 1012 56 10000 8.7 240 14:36 11.05.2020
4197 Clouds 22 1012 56 10000 8.7 240 14:36 11.05.2020
4198 Clouds 22 1012 56 10000 8.7 240 14:18 11.05.2020
4199 Rain 21 1012 60 10000 7.2 230 13:41 11.05.2020
4200 Rain 21 1012 60 10000 7.2 230 13:22 11.05.2020
4201 Clouds 20 1012 72 10000 5.7 220 12:58 11.05.2020
4202 Clouds 20 1011 72 10000 5.7 230 12:40 11.05.2020
4203 Clouds 20 1011 72 10000 5.7 230 12:22 11.05.2020
4204 Rain 19 1011 77 10000 5.7 240 11:57 11.05.2020
4205 Clouds 18 1011 82 10000 5.1 250 11:38 11.05.2020
4206 Rain 18 1011 82 10000 5.1 250 11:20 11.05.2020
4207 Rain 18 1011 93 5000 7.7 240 10:56 11.05.2020
4208 Rain 17 1010 77 10000 4.6 200 10:38 11.05.2020
4209 Rain 18 1010 77 10000 4.6 200 10:19 11.05.2020
4210 Rain 18 1010 82 10000 5.7 210 09:56 11.05.2020
4211 Rain 17 1010 82 10000 4.6 200 09:37 11.05.2020
4212 Rain 16 1010 82 10000 4.6 200 09:18 11.05.2020
4213 Clouds 16 1010 82 10000 4.1 190 08:40 11.05.2020
4214 Clouds 16 1010 82 10000 4.1 190 08:22 11.05.2020
4215 Rain 16 1010 87 10000 5.1 190 07:56 11.05.2020
4216 Rain 16 1011 87 10000 4.6 180 07:38 11.05.2020
4217 Rain 16 1011 87 10000 4.6 180 07:19 11.05.2020
4218 Rain 15 1011 87 10000 4.6 180 06:33 11.05.2020
4219 Rain 15 1011 93 10000 2.6 180 05:51 11.05.2020
4220 Rain 15 1012 93 9000 2.1 170 05:21 11.05.2020
4221 Clouds 15 1012 87 10000 2.1 200 03:52 11.05.2020
4222 Clouds 15 1013 87 10000 4.1 230 02:36 11.05.2020
4223 Clouds 15 1013 82 10000 5.1 230 01:55 11.05.2020
4224 Clouds 16 1013 87 10000 4.6 230 01:18 11.05.2020
4225 Clouds 16 1013 77 10000 5.1 230 00:40 11.05.2020
4226 Clouds 16 1013 77 10000 5.1 230 00:18 11.05.2020
4227 Clouds 17 1012 72 10000 4.6 230 23:39 10.05.2020
4228 Clouds 17 1012 72 10000 4.6 230 23:20 10.05.2020
4229 Clouds 17 1012 72 10000 5.1 230 22:54 10.05.2020
4230 Clouds 17 1012 72 10000 6.2 230 22:36 10.05.2020
4231 Clouds 18 1012 72 10000 6.2 230 22:18 10.05.2020
4232 Clouds 18 1011 68 10000 7.2 230 21:42 10.05.2020
4233 Clouds 19 1011 68 10000 7.2 230 21:18 10.05.2020
4234 Clouds 19 1011 60 10000 7.2 230 20:43 10.05.2020
4235 Clouds 19 1011 60 10000 7.2 230 20:24 10.05.2020
4236 Rain 20 1011 64 10000 6.2 230 19:58 10.05.2020
4237 Rain 20 1010 64 10000 5.7 240 19:39 10.05.2020
4238 Rain 20 1010 64 10000 5.7 240 19:21 10.05.2020
4239 Rain 20 1010 64 10000 5.7 240 19:21 10.05.2020
4240 Rain 20 1010 56 10000 6.2 270 18:56 10.05.2020
4241 Rain 20 1010 60 10000 7.7 260 18:36 10.05.2020
4242 Rain 21 1010 60 10000 7.7 260 18:18 10.05.2020
4243 Rain 21 1009 63 0 4.02 262 17:58 10.05.2020
4244 Rain 21 1009 62 0 3.58 266 17:39 10.05.2020
4245 Rain 20 1010 88 6000 9.3 270 17:20 10.05.2020
4246 Rain 20 1010 60 10000 8.7 230 16:54 10.05.2020
4247 Rain 20 1009 72 0 4.02 237 16:36 10.05.2020
4248 Clouds 21 1010 43 10000 6.7 270 16:18 10.05.2020
4249 Clouds 22 1010 53 10000 4.6 250 15:41 10.05.2020
4250 Clouds 22 1010 53 10000 4.6 250 15:22 10.05.2020
4251 Rain 21 1010 52 10000 6.7 270 14:56 10.05.2020
4252 Rain 21 1010 52 10000 6.7 260 14:38 10.05.2020
4253 Rain 21 1010 52 10000 6.7 260 14:19 10.05.2020
4254 Rain 20 1011 56 10000 7.2 260 13:58 10.05.2020
4255 Clouds 20 1011 56 10000 5.7 250 13:37 10.05.2020
4256 Clouds 20 1011 56 10000 5.7 250 13:37 10.05.2020
4257 Clouds 20 1011 56 10000 5.7 250 13:19 10.05.2020
4258 Clouds 20 1011 56 10000 5.7 250 13:19 10.05.2020
4259 Rain 19 1011 63 10000 5.1 260 12:56 10.05.2020
4260 Rain 19 1010 67 0 3.13 260 12:37 10.05.2020
4261 Clouds 18 1011 77 10000 4.6 240 12:19 10.05.2020
4262 Rain 18 1011 82 10000 3.6 240 11:55 10.05.2020
4263 Rain 17 1009 82 0 2.24 252 11:36 10.05.2020
4264 Rain 16 1011 87 9000 3.6 210 11:18 10.05.2020
4265 Clouds 16 1011 87 10000 3.1 230 10:43 10.05.2020
4266 Clouds 16 1011 87 10000 3.1 230 10:25 10.05.2020
4267 Clouds 16 1011 87 10000 2.6 210 09:57 10.05.2020
4268 Clouds 15 1011 87 10000 2.1 200 09:39 10.05.2020
4269 Clouds 14 1011 87 10000 2.1 200 09:20 10.05.2020
4270 Clouds 15 1011 87 10000 1.5 210 08:47 10.05.2020
4271 Clouds 15 1011 87 10000 1 0 08:23 10.05.2020
4272 Clouds 14 1011 87 10000 1.5 220 07:44 10.05.2020
4273 Clouds 13 1010 87 10000 2.6 220 07:20 10.05.2020
4274 Clouds 14 1010 82 10000 2.1 220 06:56 10.05.2020
4275 Clouds 14 1010 87 10000 1.5 230 06:30 10.05.2020
4276 Clouds 15 1011 82 10000 3.6 260 05:51 10.05.2020
4277 Clouds 15 1011 82 10000 3.6 270 04:54 10.05.2020
4278 Clouds 15 1011 82 10000 3.1 260 04:34 10.05.2020
4279 Clouds 15 1011 77 10000 3.6 260 03:57 10.05.2020
4280 Clouds 16 1011 93 10000 2.1 240 03:38 10.05.2020
4281 Clouds 16 1011 88 10000 2.6 240 02:48 10.05.2020
4282 Clouds 16 1011 87 10000 2.6 240 02:19 10.05.2020
4283 Clouds 16 1011 93 10000 3.1 210 01:42 10.05.2020
4284 Clouds 16 1011 93 10000 3.1 210 01:19 10.05.2020
4285 Clouds 16 1011 93 10000 3.1 200 00:54 10.05.2020
4286 Clouds 16 1012 93 10000 3.6 190 00:24 10.05.2020
4287 Clouds 16 1012 93 10000 2.6 200 23:59 09.05.2020
4288 Clouds 16 1012 87 10000 3.1 220 23:39 09.05.2020
4289 Rain 16 1012 87 10000 3.1 220 23:20 09.05.2020
4290 Clouds 16 1012 93 10000 4.1 220 22:43 09.05.2020
4291 Clouds 16 1011 87 10000 5.1 220 22:24 09.05.2020
4292 Rain 16 1011 93 10000 5.1 230 21:59 09.05.2020
4293 Rain 16 1011 93 10000 5.7 220 21:41 09.05.2020
4294 Rain 16 1011 93 10000 5.7 220 21:41 09.05.2020
4295 Rain 16 1011 93 10000 5.7 220 21:22 09.05.2020
4296 Rain 16 1011 93 10000 5.1 220 20:58 09.05.2020
4297 Rain 16 1011 93 9000 3.1 200 20:39 09.05.2020
4298 Rain 16 1011 93 9000 3.1 200 20:20 09.05.2020
4299 Rain 16 1010 91 0 2.68 199 19:58 09.05.2020
4300 Rain 17 1010 89 0 2.68 206 19:38 09.05.2020
4301 Rain 17 1012 72 9000 8.7 250 19:19 09.05.2020
4302 Rain 20 1011 52 10000 8.2 240 18:45 09.05.2020
4303 Clouds 20 1011 52 10000 8.2 240 18:26 09.05.2020
4304 Clouds 21 1011 52 10000 7.2 220 17:58 09.05.2020
4305 Clouds 21 1012 46 10000 7.7 220 17:40 09.05.2020
4306 Clouds 21 1012 46 10000 7.7 220 17:21 09.05.2020
4307 Clouds 22 1012 46 10000 7.2 230 16:41 09.05.2020
4308 Clouds 22 1012 46 10000 7.2 230 16:20 09.05.2020
4309 Clouds 21 1012 43 10000 6.7 230 15:46 09.05.2020
4310 Clouds 21 1013 43 10000 6.7 230 15:27 09.05.2020
4311 Clouds 22 1013 43 10000 6.2 220 14:59 09.05.2020
4312 Clouds 22 1013 43 10000 6.7 230 14:40 09.05.2020
4313 Clouds 22 1013 43 10000 6.7 230 14:20 09.05.2020
4314 Clouds 21 1014 49 10000 6.2 220 13:58 09.05.2020
4315 Clouds 21 1014 56 10000 6.7 250 13:40 09.05.2020
4316 Clouds 20 1014 56 10000 6.7 250 13:20 09.05.2020
4317 Clouds 20 1014 56 10000 4.6 220 12:43 09.05.2020
4318 Clouds 20 1014 52 10000 5.1 220 12:22 09.05.2020
4319 Clouds 19 1014 55 10000 5.7 230 11:58 09.05.2020
4320 Clouds 19 1014 59 10000 4.1 240 11:40 09.05.2020
4321 Clouds 19 1014 59 10000 4.1 240 11:18 09.05.2020
4322 Clouds 18 1014 63 10000 4.1 230 10:43 09.05.2020
4323 Clouds 18 1014 72 10000 4.1 230 10:25 09.05.2020
4324 Clouds 17 1014 77 10000 2.1 200 09:58 09.05.2020
4325 Clouds 16 1014 87 10000 2.1 210 09:38 09.05.2020
4326 Clouds 16 1014 87 10000 2.1 210 09:19 09.05.2020
4327 Clouds 15 1014 87 10000 3.6 220 08:51 09.05.2020
4328 Clouds 15 1014 82 10000 4.1 210 08:32 09.05.2020
4329 Clouds 15 1014 82 10000 2.1 210 07:50 09.05.2020
4330 Clouds 15 1014 87 10000 1.5 180 07:32 09.05.2020
4331 Clouds 15 1013 87 10000 2.1 180 06:55 09.05.2020
4332 Clouds 15 1014 87 10000 2.1 170 06:26 09.05.2020
4333 Clouds 15 1014 87 10000 2.6 170 05:49 09.05.2020
4334 Clear 15 1015 87 10000 1 150 04:20 09.05.2020
4335 Clear 16 1015 82 10000 1.5 170 03:38 09.05.2020
4336 Clouds 16 1016 77 10000 1.5 220 02:42 09.05.2020
4337 Clouds 16 1016 77 10000 3.1 220 01:54 09.05.2020
4338 Clouds 16 1016 77 10000 3.1 220 01:54 09.05.2020
4339 Clouds 17 1016 77 10000 3.1 220 01:25 09.05.2020
4340 Clouds 17 1015 82 10000 3.6 230 00:59 09.05.2020
4341 Clouds 17 1015 72 10000 2.6 230 00:38 09.05.2020
4342 Clouds 18 1015 72 10000 3.1 230 23:57 08.05.2020
4343 Clouds 18 1015 72 10000 3.1 240 23:39 08.05.2020
4344 Clouds 18 1015 72 10000 3.1 240 23:19 08.05.2020
4345 Clouds 18 1015 72 10000 3.1 240 23:19 08.05.2020
4346 Clouds 18 1014 68 10000 5.7 240 22:54 08.05.2020
4347 Clouds 18 1014 68 10000 5.1 230 22:36 08.05.2020
4348 Clouds 18 1014 68 10000 5.1 230 22:18 08.05.2020
4349 Clouds 20 1014 60 10000 5.7 250 21:42 08.05.2020
4350 Clouds 21 1014 60 10000 5.7 250 21:19 08.05.2020
4351 Clouds 21 1013 56 10000 6.2 250 20:59 08.05.2020
4352 Clouds 21 1013 49 10000 6.2 240 20:41 08.05.2020
4353 Clear 22 1013 49 10000 6.2 240 20:23 08.05.2020
4354 Clear 22 1013 49 10000 6.7 240 19:56 08.05.2020
4355 Clear 23 1011 58 0 4.02 231 19:37 08.05.2020
4356 Clear 23 1013 50 10000 7.2 250 19:19 08.05.2020
4357 Clear 23 1013 56 10000 6.2 230 18:44 08.05.2020
4358 Clear 24 1013 57 10000 6.2 230 18:26 08.05.2020
4359 Clouds 24 1013 53 10000 7.7 240 17:43 08.05.2020
4360 Clouds 24 1013 53 10000 7.7 240 17:20 08.05.2020
4361 Clouds 25 1013 57 10000 6.7 240 16:56 08.05.2020
4362 Clouds 25 1014 53 10000 6.7 230 16:37 08.05.2020
4363 Clouds 24 1014 53 10000 6.7 230 16:19 08.05.2020
4364 Clear 24 1012 62 0 4.02 226 15:42 08.05.2020
4365 Clouds 25 1014 54 10000 7.2 230 15:20 08.05.2020
4366 Clouds 25 1014 47 10000 5.1 230 14:56 08.05.2020
4367 Clear 25 1014 44 10000 3.1 0 14:38 08.05.2020
4368 Clear 25 1014 44 10000 3.1 0 14:18 08.05.2020
4369 Clear 25 1014 44 10000 4.1 210 13:55 08.05.2020
4370 Clear 25 1013 53 0 1.79 219 13:36 08.05.2020
4371 Clear 24 1014 44 10000 3.6 240 13:18 08.05.2020
4372 Clear 24 1014 49 10000 2.1 290 12:42 08.05.2020
4373 Clear 24 1014 49 10000 2.1 290 12:23 08.05.2020
4374 Clear 23 1014 49 10000 1 240 11:44 08.05.2020
4375 Clear 22 1014 60 10000 1.5 280 11:23 08.05.2020
4376 Clear 22 1014 60 10000 2.1 290 10:59 08.05.2020
4377 Clear 22 1013 64 0 0.45 293 10:41 08.05.2020
4378 Clear 21 1014 64 10000 2.1 310 10:19 08.05.2020
4379 Clear 20 1014 68 10000 2.1 350 09:57 08.05.2020
4380 Clear 20 1014 68 10000 1 0 09:38 08.05.2020
4381 Clear 17 1011 82 10000 2.6 250 09:18 08.05.2020
4382 Clear 17 1011 82 10000 2.6 250 09:18 08.05.2020
4383 Clear 17 1011 82 10000 2.6 250 08:45 08.05.2020
4384 Clear 17 1011 82 10000 2.6 250 08:22 08.05.2020
4385 Clear 17 1011 77 10000 2.6 250 07:44 08.05.2020
4386 Clear 17 1011 77 10000 2.6 250 07:25 08.05.2020
4387 Clear 18 1013 77 10000 1 270 06:51 08.05.2020
4388 Clear 18 1013 77 10000 0.5 310 06:24 08.05.2020
4389 Clear 18 1013 77 10000 0.5 290 05:58 08.05.2020
4390 Clear 19 1013 68 10000 1 0 04:44 08.05.2020
4391 Clear 20 1014 63 10000 1.5 310 02:38 08.05.2020
4392 Clear 20 1014 60 10000 2.1 310 01:56 08.05.2020
4393 Clear 21 1014 56 10000 3.1 300 01:29 08.05.2020
4394 Clear 21 1014 56 10000 2.1 300 00:58 08.05.2020
4395 Clear 22 1014 49 10000 2.6 260 00:39 08.05.2020
4396 Clear 21 1014 49 10000 2.6 260 00:21 08.05.2020
4397 Clear 24 1013 44 10000 2.6 290 23:43 07.05.2020
4398 Clear 23 1013 44 10000 2.1 220 23:23 07.05.2020
4399 Clear 23 1013 41 10000 2.6 210 22:57 07.05.2020
4400 Clear 25 1012 41 10000 3.1 220 22:39 07.05.2020
4401 Clear 25 1012 41 10000 3.1 220 22:20 07.05.2020
4402 Clear 25 1012 41 10000 4.1 220 21:56 07.05.2020
4403 Clear 26 1012 39 10000 4.6 220 21:37 07.05.2020
4404 Clear 26 1012 39 10000 4.6 220 21:19 07.05.2020
4405 Clear 27 1011 37 10000 4.1 210 20:55 07.05.2020
4406 Clear 27 1009 43 0 2.24 209 20:36 07.05.2020
4407 Clouds 28 1011 32 10000 4.1 220 20:18 07.05.2020
4408 Clouds 29 1011 35 10000 4.6 220 19:43 07.05.2020
4409 Clouds 29 1011 32 10000 5.7 210 19:21 07.05.2020
4410 Clouds 30 1011 33 10000 5.1 210 18:46 07.05.2020
4411 Clouds 30 1011 33 10000 3.1 230 18:28 07.05.2020
4412 Clouds 30 1011 31 10000 3.1 200 17:57 07.05.2020
4413 Clouds 30 1011 33 10000 2.6 180 17:37 07.05.2020
4414 Clouds 30 1011 33 10000 2.6 180 17:19 07.05.2020
4415 Clouds 30 1011 30 10000 2.6 260 16:42 07.05.2020
4416 Clouds 30 1011 30 10000 2.6 260 16:19 07.05.2020
4417 Clouds 29 1012 32 10000 3.1 200 15:57 07.05.2020
4418 Clouds 29 1012 34 10000 4.6 250 15:37 07.05.2020
4419 Clouds 28 1012 34 10000 4.6 250 15:18 07.05.2020
4420 Clouds 28 1012 37 10000 4.6 220 14:55 07.05.2020
4421 Clouds 28 1012 39 10000 2.6 210 14:37 07.05.2020
4422 Clouds 28 1012 39 10000 2.6 210 14:18 07.05.2020
4423 Clouds 27 1012 47 10000 1 320 13:40 07.05.2020
4424 Clouds 27 1012 47 10000 1 320 13:21 07.05.2020
4425 Clouds 26 1012 50 10000 1.5 310 12:42 07.05.2020
4426 Clouds 25 1012 50 10000 1.5 310 12:20 07.05.2020
4427 Clouds 23 1012 50 10000 2.6 10 11:40 07.05.2020
4428 Clouds 23 1012 50 10000 2.6 10 11:21 07.05.2020
4429 Clouds 22 1012 53 10000 1 20 10:58 07.05.2020
4430 Clouds 21 1011 56 10000 1 0 10:40 07.05.2020
4431 Clouds 21 1011 56 10000 1 0 10:20 07.05.2020
4432 Clouds 20 1011 68 10000 1.5 360 09:40 07.05.2020
4433 Clouds 19 1011 68 10000 1.5 360 09:20 07.05.2020
4434 Clouds 19 1011 72 10000 2.1 70 08:56 07.05.2020
4435 Clouds 19 1012 68 10000 1 0 08:37 07.05.2020
4436 Clouds 19 1012 68 10000 1 0 08:18 07.05.2020
4437 Clouds 19 1012 72 10000 1.5 50 07:41 07.05.2020
4438 Clouds 19 1012 72 10000 1.5 50 07:41 07.05.2020
4439 Clouds 19 1012 72 10000 1.5 50 07:22 07.05.2020
4440 Clouds 20 1012 63 10000 1.5 30 06:45 07.05.2020
4441 Clouds 20 1012 63 10000 1 0 06:23 07.05.2020
4442 Clouds 20 1012 63 10000 3.6 20 05:28 07.05.2020
4443 Clouds 20 1012 63 10000 2.1 20 03:50 07.05.2020
4444 Clouds 21 1012 56 10000 2.1 40 03:23 07.05.2020
4445 Clouds 21 1013 52 10000 3.6 40 02:41 07.05.2020
4446 Clouds 23 1013 43 10000 4.1 40 01:41 07.05.2020
4447 Clouds 23 1013 43 10000 4.1 40 01:23 07.05.2020
4448 Clouds 24 1013 41 10000 3.6 40 00:45 07.05.2020
4449 Clouds 24 1013 44 10000 3.1 50 00:26 07.05.2020
4450 Clouds 23 1013 49 10000 3.1 30 23:46 06.05.2020
4451 Clouds 25 1013 47 10000 2.6 20 23:25 06.05.2020
4452 Clouds 25 1013 47 10000 2.6 50 22:58 06.05.2020
4453 Clouds 25 1013 47 10000 2.6 50 22:58 06.05.2020
4454 Clouds 26 1013 44 10000 2.1 30 22:39 06.05.2020
4455 Clouds 27 1013 44 10000 2.1 30 22:19 06.05.2020
4456 Clouds 27 1013 39 10000 1.5 20 21:56 06.05.2020
4457 Clouds 28 1013 36 10000 2.1 10 21:38 06.05.2020
4458 Clouds 28 1013 36 10000 2.1 10 21:19 06.05.2020
4459 Clouds 29 1013 28 10000 2.6 360 20:42 06.05.2020
4460 Clouds 29 1013 28 10000 2.6 360 20:24 06.05.2020
4461 Clouds 29 1013 25 10000 1.5 50 19:58 06.05.2020
4462 Clouds 29 1013 25 10000 1.5 50 19:58 06.05.2020
4463 Clouds 30 1013 26 10000 2.6 360 19:39 06.05.2020
4464 Clouds 29 1013 26 10000 2.6 360 19:20 06.05.2020
4465 Clouds 29 1013 26 10000 2.6 360 19:20 06.05.2020
4466 Clouds 30 1014 26 10000 2.6 30 18:59 06.05.2020
4467 Clouds 29 1014 30 10000 3.1 330 18:40 06.05.2020
4468 Clouds 29 1014 30 10000 3.1 330 18:40 06.05.2020
4469 Clouds 29 1014 30 10000 3.1 330 18:21 06.05.2020
4470 Clouds 29 1014 28 10000 3.1 10 17:59 06.05.2020
4471 Clouds 29 1014 30 10000 3.1 30 17:40 06.05.2020
4472 Clouds 29 1014 30 10000 3.1 30 17:22 06.05.2020
4473 Clouds 29 1015 34 10000 2.1 10 16:59 06.05.2020
4474 Clouds 29 1015 34 10000 2.1 10 16:59 06.05.2020
4475 Clouds 29 1015 32 10000 2.1 50 16:40 06.05.2020
4476 Clouds 28 1015 32 10000 2.1 50 16:21 06.05.2020
4477 Clouds 28 1015 32 10000 3.1 360 15:59 06.05.2020
4478 Clouds 28 1015 32 10000 3.1 360 15:59 06.05.2020
4479 Clouds 28 1015 32 10000 3.1 360 15:59 06.05.2020
4480 Clouds 28 1016 34 10000 2.1 10 15:40 06.05.2020
4481 Clouds 27 1016 34 10000 2.1 10 15:21 06.05.2020
4482 Clouds 27 1016 36 10000 2.1 40 14:56 06.05.2020
4483 Clouds 27 1017 36 10000 3.1 30 14:37 06.05.2020
4484 Clouds 26 1017 36 10000 3.1 30 14:18 06.05.2020
4485 Clouds 26 1017 41 10000 3.1 30 13:56 06.05.2020
4486 Clouds 25 1017 41 10000 3.1 30 13:36 06.05.2020
4487 Clouds 25 1017 41 10000 3.1 30 13:18 06.05.2020
4488 Clouds 24 1017 49 10000 3.1 40 12:42 06.05.2020
4489 Clouds 24 1017 49 10000 3.1 40 12:42 06.05.2020
4490 Clouds 23 1017 49 10000 3.1 40 12:23 06.05.2020
4491 Clouds 22 1018 56 10000 2.6 10 11:41 06.05.2020
4492 Clouds 22 1018 56 10000 2.6 10 11:21 06.05.2020
4493 Clouds 21 1018 64 10000 3.1 30 10:58 06.05.2020
4494 Clouds 20 1018 68 10000 2.6 350 10:39 06.05.2020
4495 Clouds 20 1018 68 10000 2.6 350 10:19 06.05.2020
4496 Clouds 19 1018 72 10000 1 0 09:56 06.05.2020
4497 Clouds 18 1018 72 10000 1.5 360 09:36 06.05.2020
4498 Clouds 17 1018 72 10000 1.5 360 09:18 06.05.2020
4499 Clouds 16 1017 93 10000 0.5 0 08:41 06.05.2020
4500 Clouds 16 1017 93 10000 0.5 0 08:20 06.05.2020
4501 Clouds 16 1017 87 10000 1.82 21 07:55 06.05.2020
4502 Clouds 15 1017 93 10000 1.82 21 07:36 06.05.2020
4503 Clouds 15 1017 93 10000 1.93 12 07:18 06.05.2020
4504 Clouds 15 1017 87 10000 1.5 160 06:45 06.05.2020
4505 Clouds 15 1017 87 10000 1 150 06:20 06.05.2020
4506 Clouds 15 1017 93 10000 1 160 05:38 06.05.2020
4507 Clouds 16 1017 87 10000 1.5 170 04:50 06.05.2020
4508 Clouds 16 1017 82 10000 2.6 160 03:52 06.05.2020
4509 Clouds 16 1017 82 10000 2.1 170 03:26 06.05.2020
4510 Clouds 17 1017 63 10000 1.5 280 02:51 06.05.2020
4511 Clear 17 1017 63 10000 2.6 290 02:22 06.05.2020
4512 Clear 18 1017 63 10000 2.6 290 01:42 06.05.2020
4513 Clear 18 1017 63 10000 2.6 290 01:21 06.05.2020
4514 Clear 19 1017 60 10000 2.1 280 00:44 06.05.2020
4515 Clear 20 1017 52 10000 3.1 270 00:19 06.05.2020
4516 Clear 20 1017 52 10000 3.1 270 00:19 06.05.2020
4517 Clear 20 1016 53 10000 3.6 260 23:41 05.05.2020
4518 Clear 21 1016 53 10000 3.6 260 23:20 05.05.2020
4519 Clear 21 1016 53 10000 4.1 260 22:55 05.05.2020
4520 Clear 22 1016 49 10000 4.6 260 22:37 05.05.2020
4521 Clear 22 1016 49 10000 4.6 260 22:18 05.05.2020
4522 Clear 24 1015 50 10000 3.1 210 21:41 05.05.2020
4523 Clear 25 1014 28 10000 2.6 270 21:21 05.05.2020
4524 Clear 25 1014 28 10000 2.6 270 20:59 05.05.2020
4525 Clear 26 1014 30 10000 2.6 270 20:40 05.05.2020
4526 Clouds 27 1014 30 10000 2.6 270 20:20 05.05.2020
4527 Clouds 28 1014 32 10000 2.1 300 19:59 05.05.2020
4528 Clouds 28 1013 30 0 0.89 283 19:40 05.05.2020
4529 Clouds 28 1013 30 0 0.89 283 19:40 05.05.2020
4530 Clouds 28 1014 34 10000 1 280 19:21 05.05.2020
4531 Clouds 28 1015 34 10000 2.6 290 18:57 05.05.2020
4532 Clouds 28 1015 34 10000 2.6 290 18:57 05.05.2020
4533 Clouds 28 1015 34 10000 2.6 290 18:57 05.05.2020
4534 Clouds 28 1013 36 0 1.34 248 18:38 05.05.2020
4535 Clouds 28 1015 34 10000 3.1 260 18:19 05.05.2020
4536 Clouds 27 1015 34 10000 1.5 300 17:56 05.05.2020
4537 Clouds 27 1015 36 10000 2.6 280 17:38 05.05.2020
4538 Clouds 27 1015 36 10000 2.6 280 17:20 05.05.2020
4539 Clouds 26 1016 41 10000 3.1 300 16:39 05.05.2020
4540 Clouds 26 1016 41 10000 3.1 300 16:20 05.05.2020
4541 Clouds 26 1016 41 10000 2.1 300 15:58 05.05.2020
4542 Clouds 26 1016 44 10000 2.6 260 15:39 05.05.2020
4543 Clouds 25 1016 44 10000 2.6 260 15:21 05.05.2020
4544 Clouds 25 1016 44 10000 2.6 260 15:21 05.05.2020
4545 Clouds 24 1016 41 10000 2.1 290 14:55 05.05.2020
4546 Clouds 24 1016 44 10000 1.5 330 14:37 05.05.2020
4547 Clouds 24 1016 44 10000 1.5 330 14:19 05.05.2020
4548 Clouds 23 1017 53 10000 1.5 310 13:55 05.05.2020
4549 Clouds 23 1017 56 10000 1.5 120 13:37 05.05.2020
4550 Clouds 23 1015 56 0 1.79 330 13:18 05.05.2020
4551 Clouds 22 1017 60 10000 0.5 50 12:55 05.05.2020
4552 Clouds 22 1017 60 10000 2.1 80 12:37 05.05.2020
4553 Clouds 22 1017 60 10000 2.1 80 12:19 05.05.2020
4554 Clouds 21 1017 72 10000 2.6 90 11:41 05.05.2020
4555 Clouds 20 1017 72 10000 2.6 90 11:20 05.05.2020
4556 Clouds 20 1016 72 10000 1.5 50 10:56 05.05.2020
4557 Clouds 19 1016 77 10000 1 0 10:38 05.05.2020
4558 Clouds 19 1016 77 10000 1 0 10:19 05.05.2020
4559 Clouds 18 1016 88 10000 2.1 10 09:55 05.05.2020
4560 Clouds 18 1016 82 10000 2.6 330 09:36 05.05.2020
4561 Clouds 18 1016 82 10000 2.6 330 09:18 05.05.2020
4562 Clouds 18 1016 82 10000 1.5 70 08:40 05.05.2020
4563 Clouds 18 1016 82 10000 1.5 70 08:18 05.05.2020
4564 Clouds 18 1016 82 10000 1 0 07:44 05.05.2020
4565 Clouds 18 1016 82 10000 1 360 07:23 05.05.2020
4566 Clouds 18 1016 82 10000 1.19 33 06:58 05.05.2020
4567 Clouds 18 1016 82 10000 0.5 0 06:40 05.05.2020
4568 Clouds 18 1016 82 10000 0.5 0 06:19 05.05.2020
4569 Clouds 17 1016 88 10000 1.5 210 05:28 05.05.2020
4570 Clouds 17 1017 88 10000 2.6 230 02:57 05.05.2020
4571 Clouds 18 1016 82 10000 3.1 240 01:20 05.05.2020
4572 Clouds 18 1016 82 10000 4.1 240 00:49 05.05.2020
4573 Clouds 19 1016 82 10000 3.6 240 00:18 05.05.2020
4574 Clouds 19 1016 82 10000 3.6 240 23:42 04.05.2020
4575 Clouds 19 1016 82 10000 3.6 240 23:21 04.05.2020
4576 Clouds 19 1016 77 10000 4.1 250 22:55 04.05.2020
4577 Clouds 19 1015 77 10000 4.1 230 22:37 04.05.2020
4578 Clouds 20 1015 77 10000 4.1 230 22:18 04.05.2020
4579 Clouds 21 1015 73 10000 4.6 260 21:52 04.05.2020
4580 Clouds 21 1015 73 10000 4.6 260 21:52 04.05.2020
4581 Clouds 21 1015 73 10000 4.6 260 21:52 04.05.2020
4582 Clouds 21 1015 73 10000 4.6 260 21:52 04.05.2020
4583 Clouds 20 1015 73 10000 4.6 260 21:52 04.05.2020
4584 Clouds 21 1015 64 10000 4.1 230 21:26 04.05.2020
4585 Clouds 21 1015 64 10000 4.1 230 21:26 04.05.2020
4586 Clouds 21 1015 64 10000 4.1 230 21:26 04.05.2020
4587 Clouds 21 1015 64 10000 4.1 230 21:26 04.05.2020
4588 Clouds 22 1014 60 10000 5.1 210 20:43 04.05.2020
4589 Clouds 22 1014 64 10000 4.1 220 20:43 04.05.2020
4590 Clear 22 1014 60 10000 5.1 210 20:22 04.05.2020
4591 Clear 22 1014 60 10000 5.1 210 20:22 04.05.2020
4592 Clear 23 1014 53 10000 5.7 220 19:59 04.05.2020
4593 Clear 23 1014 53 10000 5.7 220 19:59 04.05.2020
4594 Clear 23 1013 65 0 3.13 245 19:40 04.05.2020
4595 Clear 24 1014 50 10000 5.1 230 19:20 04.05.2020
4596 Clear 25 1014 50 10000 6.7 240 18:55 04.05.2020
4597 Clear 25 1014 50 10000 6.7 240 18:36 04.05.2020
4598 Clear 25 1013 60 0 4.92 242 18:18 04.05.2020
4599 Clear 25 1014 50 10000 7.2 220 17:54 04.05.2020
4600 Clear 25 1014 50 10000 8.2 220 17:36 04.05.2020
4601 Clear 26 1014 50 10000 8.2 220 17:18 04.05.2020
4602 Clear 26 1014 47 10000 6.2 190 16:42 04.05.2020
4603 Clear 26 1014 47 10000 6.2 190 16:21 04.05.2020
4604 Clear 26 1014 44 10000 6.2 220 15:46 04.05.2020
4605 Clear 26 1014 44 10000 6.2 220 15:46 04.05.2020
4606 Clear 25 1014 50 10000 7.2 230 15:25 04.05.2020
4607 Clear 25 1013 34 10000 8.7 230 14:56 04.05.2020
4608 Clear 26 1013 47 10000 9.8 210 14:38 04.05.2020
4609 Clear 26 1013 47 10000 9.8 210 14:38 04.05.2020
4610 Clear 26 1013 47 10000 9.8 210 14:38 04.05.2020
4611 Clear 26 1013 47 10000 9.8 210 14:38 04.05.2020
4612 Clear 26 1013 47 10000 9.8 210 14:38 04.05.2020
4613 Clouds 26 1013 54 10000 10.3 220 13:45 04.05.2020
4614 Clouds 26 1013 54 10000 8.7 220 13:45 04.05.2020
4615 Clouds 26 1013 54 10000 10.3 220 13:45 04.05.2020
4616 Clouds 26 1013 54 10000 8.7 220 13:43 04.05.2020
4617 Clouds 26 1013 54 10000 8.7 220 13:42 04.05.2020
4618 Clouds 26 1012 42 10000 6.2 230 12:46 04.05.2020
4619 Clouds 26 1012 42 10000 6.2 230 12:46 04.05.2020
4620 Clouds 26 1012 44 10000 5.7 230 12:46 04.05.2020
4621 Clouds 26 1012 42 10000 6.2 230 12:46 04.05.2020
4622 Clouds 26 1012 44 10000 5.7 230 12:18 04.05.2020
4623 Clouds 26 1012 44 10000 5.7 230 12:18 04.05.2020
4624 Clear 22 1010 60 10000 2.6 300 09:33 04.05.2020
4625 Clear 21 1009 60 10000 2.6 20 08:55 04.05.2020
4626 Clear 21 1009 60 10000 2.6 20 08:55 04.05.2020
4627 Clear 21 1009 60 10000 2.6 20 08:55 04.05.2020
4628 Clear 21 1009 60 10000 2.6 20 08:55 04.05.2020
4629 Clear 21 1009 60 10000 2.6 20 08:54 04.05.2020
4630 Clouds 20 1009 63 10000 2.1 290 07:45 04.05.2020
4631 Clouds 20 1009 63 10000 2.1 290 07:45 04.05.2020
4632 Clouds 20 1009 63 10000 2.1 290 07:44 04.05.2020
4633 Clouds 20 1009 72 10000 1 0 07:11 04.05.2020
4634 Clouds 21 1009 72 10000 1 0 07:07 04.05.2020
4635 Clouds 21 1009 72 10000 1 0 07:07 04.05.2020
4636 Clouds 22 1009 56 10000 1.5 340 04:55 04.05.2020
4637 Clouds 22 1010 68 10000 1 0 03:19 04.05.2020
4638 Clouds 23 1011 73 10000 1.5 50 02:30 04.05.2020
4639 Clouds 25 1011 57 10000 2.1 150 00:38 04.05.2020
4640 Clouds 27 1011 50 10000 2.6 180 23:46 03.05.2020
4641 Clouds 28 1011 54 10000 2.1 160 23:25 03.05.2020
4642 Clouds 27 1011 65 7000 1.5 100 22:57 03.05.2020
4643 Clouds 27 1011 61 10000 1.5 90 22:38 03.05.2020
4644 Clouds 27 1011 61 10000 1.5 90 22:38 03.05.2020
4645 Clouds 27 1011 61 10000 1.5 90 22:38 03.05.2020
4646 Clouds 29 1011 61 10000 1.5 90 22:20 03.05.2020
4647 Clouds 32 1010 42 10000 1.5 30 21:41 03.05.2020
4648 Clouds 32 1009 35 0 0.45 244 21:21 03.05.2020
4649 Clouds 33 1011 38 10000 1.5 360 20:47 03.05.2020
4650 Clouds 34 1011 31 10000 0.5 130 20:23 03.05.2020
4651 Clouds 35 1011 26 10000 1 0 19:56 03.05.2020
4652 Clouds 35 1011 26 10000 0.5 30 19:37 03.05.2020
4653 Clouds 35 1011 26 10000 0.5 30 19:37 03.05.2020
4654 Clouds 35 1011 26 10000 0.5 30 19:18 03.05.2020
4655 Clouds 35 1012 24 10000 2.1 330 18:39 03.05.2020
4656 Clouds 35 1012 24 10000 2.1 330 18:20 03.05.2020
4657 Clouds 35 1012 24 10000 2.1 270 17:56 03.05.2020
4658 Clouds 35 1012 23 10000 1.5 150 17:37 03.05.2020
4659 Clouds 34 1012 23 10000 1.5 150 17:19 03.05.2020
4660 Clouds 34 1013 26 10000 2.1 200 16:40 03.05.2020
4661 Clouds 34 1013 26 10000 2.1 200 16:40 03.05.2020
4662 Clouds 34 1013 26 10000 2.1 200 16:19 03.05.2020
4663 Clouds 34 1013 24 10000 2.6 180 15:56 03.05.2020
4664 Clouds 33 1013 26 9000 2.59 170 15:38 03.05.2020
4665 Clouds 33 1013 26 9000 2.59 170 15:38 03.05.2020
4666 Clouds 33 1013 26 9000 2.56 156 15:19 03.05.2020
4667 Clouds 33 1014 27 10000 2.6 170 14:56 03.05.2020
4668 Clouds 32 1014 29 10000 2.1 120 14:38 03.05.2020
4669 Clouds 32 1014 29 10000 2.1 120 14:19 03.05.2020
4670 Clouds 32 1014 29 10000 2.1 120 14:19 03.05.2020
4671 Clouds 31 1015 40 10000 2.6 80 13:37 03.05.2020
4672 Clouds 31 1015 40 10000 2.6 80 13:37 03.05.2020
4673 Clouds 29 1015 42 10000 2.1 80 12:52 03.05.2020
4674 Clouds 28 1015 45 10000 3.1 90 12:29 03.05.2020
4675 Clouds 27 1015 45 10000 3.1 50 11:58 03.05.2020
4676 Clouds 26 1015 50 10000 4.1 70 11:40 03.05.2020
4677 Clouds 26 1015 50 10000 4.1 70 11:40 03.05.2020
4678 Clouds 26 1015 50 10000 4.1 70 11:40 03.05.2020
4679 Clouds 26 1015 50 10000 4.1 70 11:40 03.05.2020
4680 Clouds 25 1015 50 10000 4.1 70 11:21 03.05.2020
4681 Clouds 24 1015 57 10000 5.1 50 10:55 03.05.2020
4682 Clouds 22 1016 64 10000 4.1 50 10:26 03.05.2020
4683 Clouds 21 1015 77 10000 3.6 30 09:42 03.05.2020
4684 Clouds 21 1015 77 10000 3.6 30 09:42 03.05.2020
4685 Clouds 19 1015 77 10000 3.6 50 09:18 03.05.2020
4686 Clouds 19 1015 77 10000 3.6 50 09:18 03.05.2020
4687 Clouds 18 1015 82 10000 3.1 50 08:35 03.05.2020
4688 Clouds 18 1015 88 10000 2.6 50 07:59 03.05.2020
4689 Clouds 18 1015 88 10000 2.1 30 07:37 03.05.2020
4690 Clouds 18 1015 88 10000 2.1 30 07:37 03.05.2020
4691 Clouds 19 1015 82 10000 1.5 30 05:59 03.05.2020
4692 Clouds 19 1015 88 10000 1.5 40 05:41 03.05.2020
4693 Clouds 20 1016 82 10000 2.33 43 04:28 03.05.2020
4694 Clouds 20 1016 82 10000 2.33 43 03:55 03.05.2020
4695 Clouds 21 1017 82 10000 0.5 0 02:38 03.05.2020
4696 Clouds 21 1017 82 10000 0.5 0 02:19 03.05.2020
4697 Clouds 23 1017 69 10000 1 0 01:41 03.05.2020
4698 Clouds 23 1017 69 10000 1 0 01:22 03.05.2020
4699 Clouds 23 1018 73 10000 2.1 350 00:40 03.05.2020
4700 Clouds 23 1018 73 10000 2.1 350 00:40 03.05.2020
4701 Clouds 24 1018 73 10000 2.1 350 00:21 03.05.2020
4702 Clouds 25 1018 53 10000 0.5 340 23:49 02.05.2020
4703 Clouds 25 1016 58 0 0.45 309 23:30 02.05.2020
4704 Clouds 26 1017 50 10000 1 300 22:59 02.05.2020
4705 Clouds 26 1017 47 10000 1 310 22:41 02.05.2020
4706 Clouds 26 1017 47 10000 1 310 22:22 02.05.2020
4707 Clouds 30 1017 35 10000 0.5 0 21:54 02.05.2020
4708 Clouds 30 1017 33 10000 1.5 320 21:36 02.05.2020
4709 Clouds 30 1017 33 10000 1.5 320 21:18 02.05.2020
4710 Clouds 31 1017 29 10000 1.5 310 20:54 02.05.2020
4711 Clouds 31 1017 31 10000 1 0 20:36 02.05.2020
4712 Clouds 31 1017 31 10000 1 0 20:36 02.05.2020
4713 Clouds 31 1017 31 10000 1 0 20:18 02.05.2020
4714 Clouds 31 1017 31 10000 2.1 290 19:39 02.05.2020
4715 Clouds 32 1017 31 10000 2.1 290 19:20 02.05.2020
4716 Clouds 31 1017 33 10000 2.1 280 18:57 02.05.2020
4717 Clouds 32 1017 31 10000 0.5 151 18:38 02.05.2020
4718 Clouds 32 1017 31 10000 0.09 194 18:20 02.05.2020
4719 Clouds 31 1019 38 10000 0.09 194 17:57 02.05.2020
4720 Clouds 31 1019 38 10000 0.09 194 17:38 02.05.2020
4721 Clear 31 1019 38 10000 0.21 43 17:19 02.05.2020
4722 Clear 31 1019 38 10000 0.21 43 16:56 02.05.2020
4723 Clear 31 1019 38 10000 1 140 16:38 02.05.2020
4724 Clear 30 1019 38 10000 1 140 16:20 02.05.2020
4725 Clear 29 1019 45 10000 1 0 15:41 02.05.2020
4726 Clear 29 1019 45 10000 1 0 15:20 02.05.2020
4727 Clear 29 1019 45 10000 1 0 15:20 02.05.2020
4728 Clear 28 1020 48 10000 1.5 340 14:44 02.05.2020
4729 Clouds 28 1020 51 10000 0.5 310 14:26 02.05.2020
4730 Clouds 28 1020 51 10000 0.5 40 13:59 02.05.2020
4731 Clouds 27 1021 54 10000 0.5 20 13:39 02.05.2020
4732 Clouds 27 1021 54 10000 0.5 20 13:19 02.05.2020
4733 Clouds 25 1021 61 10000 2.1 50 12:42 02.05.2020
4734 Clouds 24 1021 61 10000 2.1 50 12:23 02.05.2020
4735 Clouds 23 1021 64 10000 3.1 50 11:58 02.05.2020
4736 Clouds 23 1021 69 10000 3.1 40 11:39 02.05.2020
4737 Clouds 22 1021 69 10000 3.1 40 11:21 02.05.2020
4738 Clouds 21 1021 73 10000 3.6 50 10:56 02.05.2020
4739 Clouds 21 1021 73 10000 3.6 40 10:38 02.05.2020
4740 Clouds 20 1021 73 10000 3.6 40 10:20 02.05.2020
4741 Clouds 20 1021 82 10000 3.1 30 10:20 02.05.2020
4742 Clouds 19 1021 82 10000 3.1 30 09:54 02.05.2020
4743 Clouds 18 1021 88 10000 2.1 40 09:36 02.05.2020
4744 Clouds 18 1020 84 0 1.34 12 09:18 02.05.2020
4745 Clouds 17 1021 93 9000 1.5 50 08:44 02.05.2020
4746 Clouds 16 1021 93 9000 1.5 50 08:25 02.05.2020
4747 Clouds 16 1020 93 10000 2.46 42 07:47 02.05.2020
4748 Clouds 16 1020 93 10000 1.5 60 07:27 02.05.2020
4749 Clouds 16 1021 93 10000 1.5 10 06:50 02.05.2020
4750 Clouds 17 1021 93 10000 2.13 39 05:28 02.05.2020
4751 Clouds 17 1021 88 10000 2.1 140 04:37 02.05.2020
4752 Clouds 17 1021 88 10000 2.1 140 04:18 02.05.2020
4753 Clouds 18 1022 88 10000 3.1 180 02:43 02.05.2020
4754 Clouds 18 1022 82 10000 2.1 180 02:19 02.05.2020
4755 Clouds 19 1022 77 10000 2.6 190 01:33 02.05.2020
4756 Clouds 19 1022 77 10000 3.1 220 00:45 02.05.2020
4757 Clouds 20 1022 77 10000 3.6 210 00:24 02.05.2020
4758 Clouds 20 1022 77 10000 3.1 220 23:57 01.05.2020
4759 Clouds 21 1022 73 10000 3.1 210 23:38 01.05.2020
4760 Clouds 21 1022 73 10000 3.1 210 23:19 01.05.2020
4761 Clouds 22 1021 69 10000 4.1 220 22:54 01.05.2020
4762 Clouds 22 1021 69 10000 3.1 220 22:36 01.05.2020
4763 Clouds 22 1021 69 10000 3.1 220 22:18 01.05.2020
4764 Clouds 23 1021 57 10000 3.6 220 21:41 01.05.2020
4765 Clouds 24 1021 57 10000 3.6 220 21:21 01.05.2020
4766 Clouds 25 1020 54 10000 5.1 230 20:58 01.05.2020
4767 Clouds 25 1019 64 0 2.24 214 20:40 01.05.2020
4768 Clouds 26 1020 44 10000 3.1 220 20:20 01.05.2020
4769 Clouds 26 1020 44 10000 3.1 220 20:20 01.05.2020
4770 Clouds 27 1020 44 10000 3.6 220 19:59 01.05.2020
4771 Clouds 27 1019 51 0 2.24 248 19:41 01.05.2020
4772 Clouds 28 1020 42 10000 2.1 210 19:22 01.05.2020
4773 Clouds 28 1020 42 10000 2.1 210 19:22 01.05.2020
4774 Clouds 28 1020 39 10000 1 210 18:56 01.05.2020
4775 Clouds 28 1020 42 10000 0.5 360 18:38 01.05.2020
4776 Clouds 28 1020 42 10000 0.5 360 18:19 01.05.2020
4777 Clouds 28 1020 42 10000 1.5 210 17:54 01.05.2020
4778 Clouds 27 1021 42 10000 1.5 290 17:36 01.05.2020
4779 Clouds 27 1021 42 10000 1.5 290 17:18 01.05.2020
4780 Clouds 27 1021 44 10000 2.1 270 16:40 01.05.2020
4781 Clouds 26 1021 44 10000 2.1 270 16:21 01.05.2020
4782 Clouds 26 1022 44 10000 3.1 260 15:58 01.05.2020
4783 Clouds 26 1022 47 10000 1 280 15:40 01.05.2020
4784 Clouds 25 1022 47 10000 1 280 15:20 01.05.2020
4785 Clouds 25 1022 47 10000 1 50 14:54 01.05.2020
4786 Clouds 24 1022 49 10000 1.5 0 14:36 01.05.2020
4787 Clear 24 1022 49 10000 1.5 0 14:18 01.05.2020
4788 Clear 24 1023 53 10000 1 250 13:40 01.05.2020
4789 Clear 24 1023 53 10000 1 250 13:40 01.05.2020
4790 Clear 23 1023 53 10000 1 250 13:22 01.05.2020
4791 Clear 23 1023 56 10000 0.5 100 12:56 01.05.2020
4792 Clear 22 1023 56 10000 0.5 0 12:37 01.05.2020
4793 Clear 22 1023 56 10000 0.5 0 12:19 01.05.2020
4794 Clear 21 1023 72 10000 1 0 11:43 01.05.2020
4795 Clear 20 1023 72 10000 1 0 11:25 01.05.2020
4796 Clear 19 1023 72 10000 1.5 40 10:59 01.05.2020
4797 Clear 19 1023 77 10000 2.1 40 10:40 01.05.2020
4798 Clear 18 1023 77 10000 2.1 40 10:20 01.05.2020
4799 Clear 16 1023 87 10000 2.1 10 09:44 01.05.2020
4800 Clouds 15 1023 93 10000 1 0 09:21 01.05.2020
4801 Clouds 14 1023 93 10000 1.98 52 08:59 01.05.2020
4802 Clouds 14 1022 100 8000 1.5 130 08:41 01.05.2020
4803 Clouds 14 1022 100 8000 1.5 130 08:22 01.05.2020
4804 Clouds 14 1022 100 8000 1.5 130 08:22 01.05.2020
4805 Clouds 14 1022 93 10000 0.5 0 07:46 01.05.2020
4806 Clouds 14 1022 93 10000 0.5 40 07:23 01.05.2020
4807 Clouds 14 1022 100 10000 1.5 130 06:54 01.05.2020
4808 Clear 14 1022 100 10000 1.66 30 05:38 01.05.2020
4809 Clear 15 1022 93 10000 0.9 29 04:49 01.05.2020
4810 Clear 15 1022 93 10000 1 170 03:31 01.05.2020
4811 Clear 15 1022 93 10000 3.1 180 02:48 01.05.2020
4812 Clouds 16 1022 87 10000 2.1 180 02:29 01.05.2020
4813 Clouds 16 1022 82 10000 1 230 01:36 01.05.2020
4814 Clouds 16 1022 82 10000 1 230 01:18 01.05.2020
4815 Clouds 17 1022 82 10000 1 0 00:38 01.05.2020
4816 Clouds 17 1022 82 10000 1 0 00:20 01.05.2020
4817 Clouds 17 1022 82 10000 1.5 220 23:56 30.04.2020
4818 Clouds 18 1022 77 10000 4.1 230 23:38 30.04.2020
4819 Clouds 18 1022 77 10000 4.1 230 23:19 30.04.2020
4820 Clouds 19 1021 77 10000 3.6 210 22:42 30.04.2020
4821 Clear 19 1021 77 10000 3.6 210 22:21 30.04.2020
4822 Clear 19 1021 72 10000 5.1 220 21:58 30.04.2020
4823 Clear 20 1020 68 10000 5.7 220 21:39 30.04.2020
4824 Clear 21 1020 68 10000 5.7 220 21:21 30.04.2020
4825 Clear 21 1020 64 10000 4.6 210 20:56 30.04.2020
4826 Clear 21 1020 60 10000 4.6 220 20:38 30.04.2020
4827 Clouds 22 1020 60 10000 4.6 220 20:18 30.04.2020
4828 Clouds 23 1020 53 10000 4.1 220 19:45 30.04.2020
4829 Clouds 23 1020 56 10000 4.1 220 19:26 30.04.2020
4830 Clouds 23 1020 53 10000 4.1 230 18:57 30.04.2020
4831 Clouds 23 1018 55 0 2.24 255 18:39 30.04.2020
4832 Clouds 23 1018 57 0 2.68 236 18:20 30.04.2020
4833 Clouds 24 1020 38 10000 4.1 270 17:57 30.04.2020
4834 Clouds 24 1020 41 10000 2.6 260 17:39 30.04.2020
4835 Clouds 24 1020 41 10000 2.6 260 17:20 30.04.2020
4836 Clouds 23 1020 44 10000 4.1 280 16:56 30.04.2020
4837 Clouds 23 1020 46 10000 3.1 250 16:38 30.04.2020
4838 Clouds 23 1020 46 10000 3.1 250 16:18 30.04.2020
4839 Clouds 23 1021 49 10000 2.6 290 15:45 30.04.2020
4840 Clouds 22 1021 53 10000 3.1 290 15:24 30.04.2020
4841 Clouds 22 1021 53 10000 2.6 250 14:56 30.04.2020
4842 Clouds 21 1021 56 10000 4.1 300 14:38 30.04.2020
4843 Clouds 21 1021 56 10000 4.1 300 14:18 30.04.2020
4844 Clouds 21 1021 64 10000 2.1 310 13:54 30.04.2020
4845 Clouds 21 1021 64 10000 2.1 280 13:36 30.04.2020
4846 Clouds 21 1021 64 10000 2.1 280 13:36 30.04.2020
4847 Rain 20 1021 64 10000 2.1 280 13:18 30.04.2020
4848 Clouds 19 1021 72 10000 3.1 330 12:41 30.04.2020
4849 Clouds 19 1021 72 10000 3.1 330 12:41 30.04.2020
4850 Clouds 19 1021 72 10000 3.1 330 12:19 30.04.2020
4851 Clouds 18 1022 82 10000 3.6 340 11:58 30.04.2020
4852 Clouds 17 1022 93 8000 3.1 290 11:36 30.04.2020
4853 Clouds 17 1022 93 8000 3.1 290 11:18 30.04.2020
4854 Clouds 16 1021 88 10000 3.6 240 10:41 30.04.2020
4855 Clouds 16 1021 88 10000 3.6 240 10:22 30.04.2020
4856 Clouds 16 1021 93 10000 3.1 230 09:58 30.04.2020
4857 Clouds 16 1021 93 10000 2.6 200 09:39 30.04.2020
4858 Clouds 15 1021 93 10000 2.6 200 09:20 30.04.2020
4859 Clouds 14 1021 100 10000 2.1 200 08:48 30.04.2020
4860 Clouds 14 1021 100 10000 1 0 08:27 30.04.2020
4861 Clouds 14 1020 100 10000 1.5 200 07:57 30.04.2020
4862 Clouds 14 1020 100 10000 2.1 210 07:39 30.04.2020
4863 Clouds 14 1020 100 10000 2.1 210 07:19 30.04.2020
4864 Clouds 14 1020 93 10000 3.1 190 06:33 30.04.2020
4865 Clouds 14 1020 93 10000 2.6 190 05:47 30.04.2020
4866 Clouds 14 1021 100 10000 2.1 210 04:48 30.04.2020
4867 Clouds 14 1021 93 10000 2.1 200 04:25 30.04.2020
4868 Clouds 15 1021 87 10000 2.1 190 02:55 30.04.2020
4869 Clouds 15 1022 87 10000 2.6 190 02:28 30.04.2020
4870 Clouds 15 1022 87 10000 1.5 200 01:38 30.04.2020
4871 Clear 15 1022 87 10000 3.1 220 00:58 30.04.2020
4872 Clear 15 1022 87 10000 2.6 200 00:36 30.04.2020
4873 Clear 15 1022 87 10000 2.6 200 00:18 30.04.2020
4874 Clear 16 1022 82 10000 3.6 220 23:42 29.04.2020
4875 Clear 16 1022 82 10000 3.6 220 23:23 29.04.2020
4876 Clear 16 1021 77 10000 4.1 220 22:58 29.04.2020
4877 Clear 17 1021 72 10000 2.6 200 22:39 29.04.2020
4878 Clear 17 1021 72 10000 2.6 200 22:20 29.04.2020
4879 Clear 18 1020 63 10000 3.6 210 21:39 29.04.2020
4880 Clouds 19 1020 63 10000 3.6 210 21:21 29.04.2020
4881 Clouds 19 1020 63 10000 3.6 210 21:21 29.04.2020
4882 Clouds 20 1020 56 10000 6.7 220 20:59 29.04.2020
4883 Clouds 20 1020 49 10000 6.2 220 20:40 29.04.2020
4884 Clouds 20 1020 49 10000 6.2 220 20:19 29.04.2020
4885 Clouds 21 1020 49 10000 7.2 220 19:57 29.04.2020
4886 Clouds 21 1020 43 10000 7.2 220 19:39 29.04.2020
4887 Clouds 21 1020 43 10000 7.2 220 19:18 29.04.2020
4888 Clouds 22 1020 46 10000 7.2 220 18:42 29.04.2020
4889 Clear 22 1020 46 10000 7.2 220 18:21 29.04.2020
4890 Clear 22 1020 40 10000 5.7 210 17:56 29.04.2020
4891 Clear 22 1020 43 10000 5.7 220 17:38 29.04.2020
4892 Clear 23 1020 43 10000 5.7 220 17:20 29.04.2020
4893 Clear 23 1020 46 10000 3.6 210 16:38 29.04.2020
4894 Clear 23 1020 46 10000 3.6 210 16:38 29.04.2020
4895 Clear 23 1020 46 10000 3.6 210 16:19 29.04.2020
4896 Clear 23 1021 43 10000 3.6 230 15:57 29.04.2020
4897 Clear 22 1020 51 0 2.68 232 15:39 29.04.2020
4898 Clear 22 1021 49 10000 4.1 230 15:20 29.04.2020
4899 Clear 22 1021 46 10000 4.1 260 14:56 29.04.2020
4900 Clear 22 1021 46 10000 3.1 270 14:38 29.04.2020
4901 Clear 21 1021 46 10000 3.1 270 14:18 29.04.2020
4902 Clear 21 1022 49 10000 1 200 13:42 29.04.2020
4903 Clear 21 1022 49 10000 1 200 13:20 29.04.2020
4904 Clear 21 1022 52 10000 0.5 280 12:57 29.04.2020
4905 Clear 21 1022 60 10000 2.56 239 12:39 29.04.2020
4906 Clear 20 1022 60 10000 1.4 167 12:19 29.04.2020
4907 Clear 19 1021 63 10000 1.4 167 11:40 29.04.2020
4908 Clear 18 1021 63 10000 1.84 108 11:21 29.04.2020
4909 Clear 17 1021 72 10000 1 0 10:59 29.04.2020
4910 Clear 16 1021 77 10000 1.5 20 10:37 29.04.2020
4911 Clear 16 1021 77 10000 1.5 20 10:37 29.04.2020
4912 Clear 16 1021 77 10000 1.5 20 10:19 29.04.2020
4913 Clear 15 1021 82 10000 1 0 09:42 29.04.2020
4914 Clear 14 1021 82 10000 1 0 09:24 29.04.2020
4915 Clear 13 1021 87 10000 1.67 40 08:59 29.04.2020
4916 Clear 12 1020 93 10000 1.67 40 08:41 29.04.2020
4917 Clear 12 1020 93 10000 1.58 33 08:23 29.04.2020
4918 Clear 12 1020 100 10000 1.58 33 07:47 29.04.2020
4919 Clear 12 1020 100 10000 1.59 25 07:24 29.04.2020
4920 Clear 12 1020 93 10000 0.5 0 06:51 29.04.2020
4921 Clear 12 1020 93 10000 1.61 19 06:31 29.04.2020
4922 Clear 13 1019 93 10000 1.63 23 05:22 29.04.2020
4923 Clear 13 1019 87 10000 1.63 23 04:47 29.04.2020
4924 Clear 13 1019 93 10000 1.56 16 04:19 29.04.2020
4925 Clear 14 1020 87 10000 1 270 02:49 29.04.2020
4926 Clouds 15 1020 93 10000 0.5 0 01:44 29.04.2020
4927 Clouds 15 1020 87 10000 0.5 90 01:26 29.04.2020
4928 Clouds 16 1020 77 10000 1.95 305 00:50 29.04.2020
4929 Clouds 16 1020 72 10000 1.5 240 00:20 29.04.2020
4930 Clouds 16 1020 72 10000 1.5 230 23:56 28.04.2020
4931 Clouds 16 1020 68 10000 2.1 240 23:37 28.04.2020
4932 Clouds 16 1020 68 10000 2.1 240 23:18 28.04.2020
4933 Clouds 17 1019 59 10000 5.1 230 22:38 28.04.2020
4934 Clouds 18 1019 59 10000 5.1 230 22:20 28.04.2020
4935 Clouds 19 1018 59 10000 5.1 220 21:57 28.04.2020
4936 Clouds 19 1018 60 10000 4.6 220 21:39 28.04.2020
4937 Clouds 20 1018 60 10000 4.6 220 21:21 28.04.2020
4938 Clouds 20 1017 46 10000 4.1 240 20:56 28.04.2020
4939 Clouds 21 1017 49 10000 3.6 230 20:38 28.04.2020
4940 Clouds 22 1017 49 10000 3.6 230 20:19 28.04.2020
4941 Clouds 22 1017 49 10000 4.1 270 19:43 28.04.2020
4942 Clouds 22 1017 53 10000 3.6 200 19:22 28.04.2020
4943 Clouds 22 1017 53 10000 3.6 200 19:22 28.04.2020
4944 Clouds 22 1017 49 10000 3.6 240 19:00 28.04.2020
4945 Clouds 22 1017 56 10000 3.6 220 18:41 28.04.2020
4946 Clouds 22 1017 56 10000 3.6 220 18:41 28.04.2020
4947 Clouds 21 1017 56 10000 3.6 220 18:20 28.04.2020
4948 Clouds 21 1017 56 10000 3.6 220 18:20 28.04.2020
4949 Clouds 21 1017 49 10000 2.6 230 17:59 28.04.2020
4950 Clouds 21 1017 56 10000 2.1 210 17:37 28.04.2020
4951 Clouds 21 1017 56 10000 2.1 210 17:19 28.04.2020
4952 Clouds 22 1017 49 10000 3.1 230 16:56 28.04.2020
4953 Clouds 21 1017 52 10000 1.5 200 16:37 28.04.2020
4954 Clouds 21 1017 52 10000 1.5 200 16:19 28.04.2020
4955 Clouds 21 1017 49 10000 2.6 0 15:54 28.04.2020
4956 Clouds 21 1017 52 10000 1.5 150 15:36 28.04.2020
4957 Clouds 21 1017 52 10000 1.5 150 15:18 28.04.2020
4958 Clouds 20 1017 56 10000 1.5 340 14:43 28.04.2020
4959 Clouds 20 1018 68 10000 1 170 14:22 28.04.2020
4960 Clouds 20 1018 68 10000 1 170 14:22 28.04.2020
4961 Clouds 20 1018 63 10000 1 210 13:59 28.04.2020
4962 Clouds 19 1018 72 10000 1 220 13:40 28.04.2020
4963 Clouds 19 1018 72 10000 1 220 13:21 28.04.2020
4964 Clouds 19 1018 77 10000 0.5 350 12:58 28.04.2020
4965 Clouds 18 1018 77 10000 0.5 30 12:38 28.04.2020
4966 Clouds 18 1018 77 10000 0.5 30 12:20 28.04.2020
4967 Clouds 17 1018 87 10000 0.11 91 11:42 28.04.2020
4968 Clouds 16 1018 87 10000 0.76 83 11:21 28.04.2020
4969 Clouds 15 1018 87 10000 0.76 83 10:57 28.04.2020
4970 Clouds 15 1017 93 10000 1 0 10:38 28.04.2020
4971 Clouds 15 1017 93 10000 1 0 10:38 28.04.2020
4972 Clouds 15 1017 93 10000 1 0 10:18 28.04.2020
4973 Clouds 15 1017 93 10000 1 0 10:18 28.04.2020
4974 Clouds 14 1017 91 0 0.45 37 09:43 28.04.2020
4975 Clouds 13 1017 93 10000 1.5 50 09:24 28.04.2020
4976 Clouds 13 1017 93 10000 1.5 80 08:55 28.04.2020
4977 Clouds 13 1016 100 10000 2.1 50 08:36 28.04.2020
4978 Clouds 13 1016 100 10000 2.1 50 08:18 28.04.2020
4979 Clouds 13 1016 100 9000 1 50 07:41 28.04.2020
4980 Clouds 13 1016 100 9000 1 50 07:18 28.04.2020
4981 Clouds 13 1016 100 10000 0.77 59 06:40 28.04.2020
4982 Clouds 13 1016 100 10000 0.5 69 05:51 28.04.2020
4983 Clouds 13 1016 93 10000 1.5 190 05:33 28.04.2020
4984 Clouds 13 1016 93 10000 2.6 190 04:33 28.04.2020
4985 Clouds 13 1016 93 10000 2.6 190 04:33 28.04.2020
4986 Clouds 13 1016 93 10000 3.1 180 02:39 28.04.2020
4987 Clouds 14 1016 93 10000 2.1 170 01:51 28.04.2020
4988 Clouds 14 1016 87 10000 2.1 210 01:22 28.04.2020
4989 Clouds 14 1016 87 10000 3.1 220 00:42 28.04.2020
4990 Clear 15 1016 87 10000 3.6 220 23:58 27.04.2020
4991 Clear 15 1016 82 10000 3.1 220 23:40 27.04.2020
4992 Rain 15 1016 82 10000 3.1 220 23:20 27.04.2020
4993 Clouds 16 1015 77 10000 6.7 280 22:43 27.04.2020
4994 Clouds 17 1015 77 10000 6.7 280 22:23 27.04.2020
4995 Clouds 17 1015 77 10000 6.7 280 22:23 27.04.2020
4996 Rain 17 1014 88 10000 4.1 220 21:57 27.04.2020
4997 Rain 18 1014 72 10000 3.6 220 21:39 27.04.2020
4998 Clear 18 1014 72 10000 3.6 220 21:20 27.04.2020
4999 Clouds 19 1014 68 10000 1.5 190 20:58 27.04.2020
5000 Clear 19 1013 76 0 1.79 193 20:39 27.04.2020
5001 Clouds 19 1014 64 10000 3.65 235 20:21 27.04.2020
5002 Clouds 20 1013 68 10000 1.5 240 19:57 27.04.2020
5003 Clouds 20 1014 72 10000 0.5 130 19:37 27.04.2020
5004 Clouds 19 1014 72 10000 0.5 130 19:19 27.04.2020
5005 Clouds 20 1014 68 10000 4.56 233 18:56 27.04.2020
5006 Clouds 20 1013 72 10000 0.5 330 18:37 27.04.2020
5007 Clouds 19 1013 72 10000 0.5 330 18:18 27.04.2020
5008 Clouds 19 1014 77 10000 3.1 160 17:41 27.04.2020
5009 Clouds 18 1014 77 10000 2.1 130 17:20 27.04.2020
5010 Rain 18 1014 77 10000 2.1 130 16:55 27.04.2020
5011 Rain 18 1014 77 10000 2.1 130 16:37 27.04.2020
5012 Rain 18 1014 77 10000 2.1 130 16:19 27.04.2020
5013 Rain 17 1014 82 10000 2.1 70 15:56 27.04.2020
5014 Rain 17 1014 82 10000 2.1 70 15:37 27.04.2020
5015 Rain 17 1014 82 10000 2.1 70 15:18 27.04.2020
5016 Clouds 16 1014 82 10000 3.1 50 14:41 27.04.2020
5017 Clouds 15 1014 82 10000 3.1 50 14:20 27.04.2020
5018 Clouds 15 1015 93 10000 4.6 40 13:57 27.04.2020
5019 Rain 14 1015 93 10000 4.6 40 13:38 27.04.2020
5020 Rain 14 1015 93 10000 4.6 40 13:19 27.04.2020
5021 Rain 13 1015 93 3500 2.1 340 12:43 27.04.2020
5022 Rain 13 1015 93 3500 2.1 340 12:23 27.04.2020
5023 Rain 13 1014 93 7000 2.1 10 11:57 27.04.2020
5024 Rain 13 1014 93 7000 2.1 10 11:38 27.04.2020
5025 Rain 13 1014 93 7000 2.1 10 11:19 27.04.2020
5026 Rain 13 1014 93 3500 1.5 360 10:54 27.04.2020
5027 Rain 14 1014 93 8000 1 30 10:36 27.04.2020
5028 Rain 14 1014 93 8000 1 30 10:18 27.04.2020
5029 Rain 14 1014 93 6000 1.5 270 09:42 27.04.2020
5030 Rain 14 1014 93 6000 1.5 270 09:18 27.04.2020
5031 Clouds 13 1014 100 10000 1 160 08:53 27.04.2020
5032 Clouds 13 1014 100 10000 1 160 08:33 27.04.2020
5033 Clouds 13 1014 93 10000 1 160 07:54 27.04.2020
5034 Clouds 13 1014 93 10000 1 160 07:36 27.04.2020
5035 Clouds 13 1014 93 10000 1 160 07:18 27.04.2020
5036 Clouds 13 1014 93 10000 2.1 170 06:39 27.04.2020
5037 Clouds 14 1014 93 10000 2.1 170 06:19 27.04.2020
5038 Clouds 13 1014 93 10000 1.5 180 05:48 27.04.2020
5039 Clouds 13 1014 93 10000 2.1 170 04:40 27.04.2020
5040 Clouds 13 1015 93 10000 2.1 170 03:49 27.04.2020
5041 Clouds 14 1015 82 10000 2.1 200 02:41 27.04.2020
5042 Clouds 14 1015 77 10000 2.6 240 01:23 27.04.2020
5043 Clouds 14 1015 77 10000 3.6 250 00:46 27.04.2020
5044 Clouds 15 1015 77 10000 3.6 230 00:19 27.04.2020
5045 Clouds 15 1015 77 10000 3.6 230 23:55 26.04.2020
5046 Clouds 15 1015 67 10000 4.1 240 23:37 26.04.2020
5047 Clouds 15 1015 67 10000 4.1 240 23:18 26.04.2020
5048 Clouds 16 1014 63 10000 3.6 240 22:56 26.04.2020
5049 Clouds 15 1014 63 10000 3.6 230 22:37 26.04.2020
5050 Clouds 17 1014 63 10000 3.6 230 22:19 26.04.2020
5051 Clouds 17 1014 59 10000 4.1 240 21:56 26.04.2020
5052 Clouds 17 1014 52 10000 6.7 240 21:37 26.04.2020
5053 Clouds 18 1014 52 10000 6.7 240 21:18 26.04.2020
5054 Clouds 18 1013 59 0 3.13 235 20:39 26.04.2020
5055 Clouds 19 1013 45 10000 6.2 220 20:20 26.04.2020
5056 -273 0 0 0 0 0 19:59 26.04.2020
5057 Clouds 19 1013 42 10000 6.2 220 19:38 26.04.2020
5058 Clouds 19 1013 42 10000 6.2 220 19:20 26.04.2020
5059 Clouds 20 1013 49 10000 5.7 220 18:54 26.04.2020
5060 Clouds 20 1013 49 10000 5.7 230 18:36 26.04.2020
5061 Clouds 20 1013 49 10000 5.7 230 18:18 26.04.2020
5062 Clouds 20 1012 52 0 2.68 220 17:40 26.04.2020
5063 Clouds 20 1013 43 10000 5.1 290 17:22 26.04.2020
5064 Clouds 20 1013 46 10000 3.6 220 16:43 26.04.2020
5065 Clouds 20 1014 52 10000 3.6 210 16:24 26.04.2020
5066 Clouds 21 1014 43 10000 3.6 260 15:59 26.04.2020
5067 Clouds 20 1014 45 10000 1 0 15:41 26.04.2020
5068 Clouds 20 1014 45 10000 1 0 15:22 26.04.2020
5069 Clouds 20 1014 46 10000 1 210 14:58 26.04.2020
5070 Clouds 20 1014 52 10000 1 240 14:39 26.04.2020
5071 Clouds 20 1014 52 10000 1 240 14:19 26.04.2020
5072 Clouds 20 1014 52 10000 1 240 14:19 26.04.2020
5073 Clouds 19 1014 55 10000 1 0 13:57 26.04.2020
5074 Clouds 19 1015 59 10000 2.6 280 13:38 26.04.2020
5075 Clouds 18 1015 59 10000 2.6 280 13:19 26.04.2020
5076 Clouds 18 1015 63 10000 2.6 290 12:54 26.04.2020
5077 Clouds 18 1015 82 10000 2.6 210 12:36 26.04.2020
5078 Clouds 17 1015 82 10000 2.6 210 12:18 26.04.2020
5079 Clouds 17 1014 68 0 0.89 270 11:42 26.04.2020
5080 Clouds 16 1014 67 10000 2.6 270 11:23 26.04.2020
5081 Clouds 16 1014 82 10000 2.1 230 10:59 26.04.2020
5082 Clouds 16 1014 87 10000 2.1 200 10:41 26.04.2020
5083 Clouds 16 1014 87 10000 2.1 200 10:23 26.04.2020
5084 Clouds 16 1013 87 10000 2.6 220 09:57 26.04.2020
5085 Clouds 15 1013 87 10000 2.6 210 09:37 26.04.2020
5086 Clouds 15 1013 87 10000 2.6 210 09:18 26.04.2020
5087 Clouds 15 1013 87 10000 2.1 210 08:41 26.04.2020
5088 Clouds 15 1013 87 10000 2.1 210 08:21 26.04.2020
5089 Clouds 15 1013 87 10000 2.6 210 07:48 26.04.2020
5090 Clouds 15 1012 87 10000 2.6 220 07:23 26.04.2020
5091 Clouds 15 1012 93 10000 3.6 220 06:46 26.04.2020
5092 Clouds 15 1013 93 10000 2.6 200 06:21 26.04.2020
5093 Clouds 15 1013 93 10000 2.6 200 05:49 26.04.2020
5094 Clouds 16 1013 88 10000 2.6 190 05:28 26.04.2020
5095 Clouds 16 1013 88 10000 2.6 210 04:30 26.04.2020
5096 Clouds 16 1013 88 10000 3.1 210 03:35 26.04.2020
5097 Clouds 16 1013 88 10000 3.6 220 02:37 26.04.2020
5098 Clouds 16 1013 88 10000 3.6 220 02:19 26.04.2020
5099 Clouds 16 1013 88 10000 4.6 220 01:36 26.04.2020
5100 Clouds 17 1013 82 10000 4.6 220 00:41 26.04.2020
5101 Clouds 17 1013 82 10000 4.6 220 00:21 26.04.2020
5102 Rain 17 1013 82 10000 5.1 220 23:56 25.04.2020
5103 Rain 17 1013 82 10000 5.7 220 23:37 25.04.2020
5104 Rain 17 1013 82 10000 5.7 220 23:18 25.04.2020
5105 Rain 17 1012 82 10000 6.2 220 22:42 25.04.2020
5106 Rain 17 1012 82 10000 6.2 220 22:20 25.04.2020
5107 Clouds 17 1011 88 10000 6.2 230 21:58 25.04.2020
5108 Clouds 18 1011 82 10000 4.6 220 21:39 25.04.2020
5109 Clouds 19 1011 82 10000 4.6 220 21:19 25.04.2020
5110 Clouds 19 1011 60 10000 5.7 250 20:54 25.04.2020
5111 Clouds 20 1010 64 10000 7.2 270 20:36 25.04.2020
5112 Clouds 20 1010 64 10000 7.2 270 20:18 25.04.2020
5113 Rain 20 1010 68 0 3.13 261 19:40 25.04.2020
5114 Rain 20 1009 70 0 2.68 252 19:22 25.04.2020
5115 Rain 20 1010 68 10000 2.1 290 18:56 25.04.2020
5116 Rain 21 1010 64 10000 3.1 270 18:37 25.04.2020
5117 Rain 21 1010 64 10000 3.1 270 18:18 25.04.2020
5118 Rain 20 1009 74 0 0.45 240 17:55 25.04.2020
5119 Clouds 20 1011 68 10000 4.6 300 17:37 25.04.2020
5120 Clouds 20 1011 68 10000 4.6 300 17:18 25.04.2020
5121 Clouds 20 1011 72 10000 4.6 260 16:46 25.04.2020
5122 Clouds 20 1011 72 10000 5.7 260 16:27 25.04.2020
5123 Clouds 20 1011 72 10000 5.1 250 15:58 25.04.2020
5124 Clouds 20 1011 72 10000 5.7 250 15:38 25.04.2020
5125 Clouds 20 1011 72 10000 5.7 250 15:19 25.04.2020
5126 Clouds 20 1011 68 10000 5.1 250 14:57 25.04.2020
5127 Clouds 20 1011 77 10000 5.1 240 14:38 25.04.2020
5128 Clouds 19 1011 77 10000 5.1 240 14:18 25.04.2020
5129 Clouds 19 1012 82 10000 3.1 250 13:42 25.04.2020
5130 Clouds 18 1012 82 10000 3.1 250 13:19 25.04.2020
5131 Clouds 18 1011 77 10000 2.6 250 12:57 25.04.2020
5132 Clouds 18 1011 82 10000 2.6 240 12:38 25.04.2020
5133 Clouds 18 1011 82 10000 2.6 240 12:20 25.04.2020
5134 Clouds 17 1011 88 10000 2.1 220 11:55 25.04.2020
5135 Clouds 17 1011 88 10000 2.1 210 11:37 25.04.2020
5136 Clouds 16 1011 88 10000 2.1 210 11:19 25.04.2020
5137 Clouds 16 1011 88 10000 2.6 250 10:42 25.04.2020
5138 Clouds 16 1011 88 10000 2.6 250 10:22 25.04.2020
5139 Rain 16 1011 93 10000 2.6 290 09:47 25.04.2020
5140 Rain 15 1010 93 10000 2.6 270 09:27 25.04.2020
5141 Rain 15 1010 93 10000 1.5 230 08:57 25.04.2020
5142 Rain 15 1010 93 10000 2.6 230 08:38 25.04.2020
5143 Rain 15 1010 93 10000 2.6 230 08:20 25.04.2020
5144 Rain 15 1010 88 10000 1.5 250 07:47 25.04.2020
5145 Rain 15 1010 88 10000 1.5 250 07:25 25.04.2020
5146 Rain 16 1009 93 10000 2.6 270 06:45 25.04.2020
5147 Rain 16 1009 88 10000 2.6 270 06:18 25.04.2020
5148 Rain 16 1010 88 10000 3.6 270 05:39 25.04.2020
5149 Clouds 17 1010 88 10000 0.5 0 04:57 25.04.2020
5150 Rain 17 1011 82 10000 3.1 290 02:59 25.04.2020
5151 Clouds 17 1011 82 10000 3.6 270 02:21 25.04.2020
5152 Rain 17 1011 82 10000 3.1 270 01:53 25.04.2020
5153 Rain 17 1011 88 10000 3.1 290 01:34 25.04.2020
5154 Rain 17 1011 88 10000 3.6 290 00:56 25.04.2020
5155 Rain 18 1011 82 10000 3.1 250 00:32 25.04.2020
5156 Rain 18 1011 77 10000 7.2 220 23:45 24.04.2020
5157 Rain 18 1011 77 10000 7.2 220 23:24 24.04.2020
5158 Rain 19 1010 68 10000 6.2 220 22:59 24.04.2020
5159 Rain 19 1009 68 10000 3.6 200 22:39 24.04.2020
5160 Rain 19 1009 68 10000 3.6 200 22:19 24.04.2020
5161 Rain 20 1008 68 10000 3.1 210 21:56 24.04.2020
5162 Rain 21 1008 64 10000 3.6 210 21:37 24.04.2020
5163 Clouds 22 1008 64 10000 3.6 210 21:19 24.04.2020
5164 Clouds 23 1008 44 10000 0.86 58 20:56 24.04.2020
5165 Clouds 23 1008 44 10000 0.86 58 20:56 24.04.2020
5166 Clouds 24 1008 44 10000 0.5 0 20:37 24.04.2020
5167 Clouds 24 1008 44 10000 0.5 0 20:18 24.04.2020
5168 Clouds 24 1008 44 10000 3.1 360 19:40 24.04.2020
5169 Clouds 24 1008 44 10000 3.1 360 19:22 24.04.2020
5170 Clouds 25 1008 41 10000 4.1 360 18:46 24.04.2020
5171 Clouds 25 1008 38 10000 1 290 18:28 24.04.2020
5172 Clouds 25 1008 38 10000 1.5 10 17:58 24.04.2020
5173 Clouds 25 1009 38 10000 2.6 280 17:39 24.04.2020
5174 Clouds 25 1009 38 10000 2.6 280 17:20 24.04.2020
5175 Clouds 25 1009 41 10000 2.1 350 16:58 24.04.2020
5176 Clouds 25 1010 41 10000 1.5 50 16:40 24.04.2020
5177 Clouds 25 1010 41 10000 1.5 50 16:21 24.04.2020
5178 Clouds 24 1010 38 10000 3.6 80 15:42 24.04.2020
5179 Clouds 24 1010 38 10000 3.6 80 15:21 24.04.2020
5180 Clouds 24 1010 41 10000 4.6 70 14:59 24.04.2020
5181 Clouds 24 1010 41 10000 2.1 40 14:39 24.04.2020
5182 Clouds 24 1010 41 10000 2.1 40 14:20 24.04.2020
5183 Clouds 23 1011 43 10000 3.6 80 13:45 24.04.2020
5184 Clouds 22 1011 46 10000 3.1 80 13:27 24.04.2020
5185 Clouds 22 1011 49 10000 3.6 80 12:59 24.04.2020
5186 Clouds 22 1011 53 10000 3.6 80 12:41 24.04.2020
5187 Clouds 21 1011 53 10000 3.6 80 12:21 24.04.2020
5188 Clouds 21 1012 52 10000 4.1 100 11:57 24.04.2020
5189 Clouds 21 1012 52 10000 4.6 110 11:37 24.04.2020
5190 Clouds 20 1012 52 10000 4.6 110 11:19 24.04.2020
5191 Clouds 20 1012 56 10000 3.6 90 10:54 24.04.2020
5192 Clouds 19 1012 63 10000 4.6 80 10:36 24.04.2020
5193 Clouds 18 1012 63 10000 4.6 80 10:18 24.04.2020
5194 Clouds 17 1012 67 10000 4.6 100 09:44 24.04.2020
5195 Clouds 16 1012 67 10000 4.6 100 09:24 24.04.2020
5196 Clouds 15 1012 77 10000 4.6 90 08:55 24.04.2020
5197 Clouds 14 1011 81 0 0.45 279 08:37 24.04.2020
5198 Clouds 14 1012 77 10000 2.1 100 08:18 24.04.2020
5199 Clouds 15 1012 72 10000 1 0 07:43 24.04.2020
5200 Clouds 15 1012 82 10000 1.5 70 07:24 24.04.2020
5201 Clouds 15 1012 82 10000 2.1 30 06:50 24.04.2020
5202 Clouds 15 1012 87 10000 1.5 20 06:31 24.04.2020
5203 Clouds 15 1012 82 10000 2.1 40 05:42 24.04.2020
5204 Clouds 16 1013 82 10000 2.61 59 04:25 24.04.2020
5205 Clouds 16 1014 82 10000 1 0 02:58 24.04.2020
5206 Clouds 17 1014 77 10000 3.1 40 02:37 24.04.2020
5207 Clouds 17 1014 77 10000 1.5 20 01:57 24.04.2020
5208 Clouds 18 1014 68 10000 1.5 360 00:58 24.04.2020
5209 Clouds 18 1014 63 10000 0.5 0 00:21 24.04.2020
5210 Clouds 18 1014 68 10000 2.56 69 23:55 23.04.2020
5211 Clouds 18 1014 68 10000 2.6 110 23:37 23.04.2020
5212 Clouds 18 1014 68 10000 2.6 110 23:18 23.04.2020
5213 Clouds 19 1014 63 10000 2.1 120 22:55 23.04.2020
5214 Clouds 20 1013 60 10000 2.6 110 22:36 23.04.2020
5215 Clouds 20 1013 60 10000 2.6 110 22:18 23.04.2020
5216 Clouds 21 1013 56 10000 1.5 130 21:55 23.04.2020
5217 Clouds 22 1013 56 10000 3.6 100 21:37 23.04.2020
5218 Clouds 22 1013 56 10000 3.6 100 21:19 23.04.2020
5219 Clouds 23 1012 44 10000 5.1 100 20:41 23.04.2020
5220 Clouds 24 1012 44 10000 5.1 100 20:22 23.04.2020
5221 Clouds 24 1012 44 10000 5.1 110 19:58 23.04.2020
5222 Clouds 24 1012 41 10000 5.1 100 19:40 23.04.2020
5223 Clouds 25 1012 41 10000 5.1 100 19:21 23.04.2020
5224 Clouds 25 1012 44 10000 4.6 90 18:56 23.04.2020
5225 Clouds 25 1012 41 10000 5.1 100 18:38 23.04.2020
5226 Clouds 25 1012 41 10000 5.1 100 18:19 23.04.2020
5227 Clouds 25 1012 41 10000 5.1 100 18:19 23.04.2020
5228 Clouds 25 1013 41 10000 5.7 70 17:55 23.04.2020
5229 Clouds 25 1013 41 10000 5.1 90 17:36 23.04.2020
5230 Clouds 25 1013 41 10000 5.1 90 17:18 23.04.2020
5231 Clouds 25 1013 41 10000 4.6 70 16:43 23.04.2020
5232 Clouds 25 1014 41 10000 4.6 30 16:20 23.04.2020
5233 Clouds 24 1015 44 10000 4.1 80 15:43 23.04.2020
5234 Clouds 24 1015 44 10000 4.1 80 15:43 23.04.2020
5235 Clouds 24 1015 44 10000 4.1 80 15:23 23.04.2020
5236 Clouds 24 1015 49 10000 3.6 60 14:59 23.04.2020
5237 Clouds 23 1015 49 10000 4.6 90 14:39 23.04.2020
5238 Clouds 23 1015 49 10000 4.6 90 14:21 23.04.2020
5239 Clouds 23 1015 49 10000 4.6 90 14:21 23.04.2020
5240 Clouds 23 1015 49 10000 3.6 90 13:57 23.04.2020
5241 Clouds 23 1016 49 10000 4.1 80 13:38 23.04.2020
5242 Clouds 23 1016 49 10000 4.1 80 13:19 23.04.2020
5243 Clouds 22 1016 53 10000 4.1 90 12:56 23.04.2020
5244 Clouds 22 1016 56 10000 3.6 70 12:38 23.04.2020
5245 Clouds 21 1016 56 10000 3.6 70 12:19 23.04.2020
5246 Clouds 20 1016 60 10000 3.1 80 11:46 23.04.2020
5247 Clouds 19 1016 64 10000 3.1 90 11:27 23.04.2020
5248 Clouds 18 1016 72 10000 3.1 60 10:57 23.04.2020
5249 Clouds 17 1016 77 10000 4.1 50 10:39 23.04.2020
5250 Clouds 17 1016 77 10000 4.1 50 10:19 23.04.2020
5251 Clouds 15 1016 87 10000 2.6 50 09:38 23.04.2020
5252 Clouds 14 1016 87 10000 2.6 50 09:18 23.04.2020
5253 Clouds 13 1016 100 10000 3.6 50 08:47 23.04.2020
5254 Clouds 13 1016 100 10000 3.6 50 08:29 23.04.2020
5255 Clouds 13 1015 100 9000 2.6 40 07:47 23.04.2020
5256 Clouds 13 1015 93 8000 1.5 50 07:24 23.04.2020
5257 Clouds 13 1015 100 7000 2.6 40 06:58 23.04.2020
5258 Clouds 13 1015 100 8000 2.6 30 06:40 23.04.2020
5259 Clouds 13 1015 100 10000 1.5 10 05:33 23.04.2020
5260 Clouds 14 1015 93 9000 1.5 50 04:54 23.04.2020
5261 Clouds 14 1016 100 10000 2.1 140 02:48 23.04.2020
5262 Clouds 15 1016 93 6000 1.5 130 02:23 23.04.2020
5263 Clouds 15 1016 87 10000 2.1 170 01:38 23.04.2020
5264 Clouds 15 1016 87 8000 2.1 160 00:51 23.04.2020
5265 Clouds 16 1016 87 10000 1.5 170 00:26 23.04.2020
5266 Clouds 16 1016 82 10000 1 0 23:57 22.04.2020
5267 Clouds 16 1016 80 10000 2.1 200 23:38 22.04.2020
5268 Clouds 16 1016 80 10000 2.1 200 23:19 22.04.2020
5269 Clouds 17 1016 77 10000 4.1 220 22:39 22.04.2020
5270 Clouds 18 1016 77 10000 4.1 220 22:20 22.04.2020
5271 Clouds 18 1015 72 10000 3.6 220 21:58 22.04.2020
5272 Clouds 19 1015 68 10000 4.6 220 21:40 22.04.2020
5273 Clouds 19 1015 68 10000 4.6 220 21:40 22.04.2020
5274 Clear 19 1015 68 10000 4.6 220 21:21 22.04.2020
5275 Clear 19 1015 68 10000 4.6 220 21:21 22.04.2020
5276 Clear 19 1014 71 0 2.24 209 20:57 22.04.2020
5277 Clear 20 1013 69 0 3.13 230 20:39 22.04.2020
5278 Clear 21 1015 53 10000 2.1 190 20:18 22.04.2020
5279 Clear 22 1015 49 10000 2.1 190 19:57 22.04.2020
5280 Clear 22 1014 46 10000 0.5 0 19:37 22.04.2020
5281 Clear 22 1014 46 10000 0.5 0 19:18 22.04.2020
5282 Clear 22 1014 49 10000 1.5 240 18:56 22.04.2020
5283 Clear 22 1014 49 10000 1.5 240 18:56 22.04.2020
5284 Clear 22 1015 49 10000 1 360 18:37 22.04.2020
5285 Clear 22 1015 49 10000 1 360 18:19 22.04.2020
5286 Clear 22 1015 52 10000 1.5 250 17:43 22.04.2020
5287 Clear 22 1015 52 10000 1.5 250 17:43 22.04.2020
5288 Clear 21 1015 52 10000 1.5 250 17:25 22.04.2020
5289 Clear 22 1015 52 10000 2.1 180 16:56 22.04.2020
5290 Clear 21 1015 52 10000 2.1 180 16:36 22.04.2020
5291 Clear 21 1015 52 10000 2.1 180 16:18 22.04.2020
5292 Clouds 20 1016 60 10000 2.1 150 15:41 22.04.2020
5293 Clouds 20 1016 60 10000 2.1 150 15:22 22.04.2020
5294 Clouds 20 1016 64 10000 1.5 220 14:58 22.04.2020
5295 Clouds 20 1016 63 10000 1.5 200 14:38 22.04.2020
5296 Clouds 19 1016 63 10000 1.5 200 14:19 22.04.2020
5297 Clouds 19 1016 72 10000 1.5 200 13:44 22.04.2020
5298 Clouds 19 1016 72 10000 2.1 200 13:20 22.04.2020
5299 Clouds 18 1017 68 10000 1 140 12:57 22.04.2020
5300 Clouds 18 1017 77 10000 0.5 130 12:39 22.04.2020
5301 Clouds 17 1017 77 10000 0.5 130 12:20 22.04.2020
5302 Clear 16 1016 82 10000 1.5 200 11:40 22.04.2020
5303 Clear 16 1016 82 10000 1.5 200 11:20 22.04.2020
5304 Clouds 16 1016 93 9000 1.5 180 10:59 22.04.2020
5305 Clear 15 1016 93 7000 2.1 170 10:38 22.04.2020
5306 Clear 15 1016 93 7000 2.1 170 10:19 22.04.2020
5307 Clear 14 1016 93 10000 1 0 09:39 22.04.2020
5308 Clear 13 1016 93 10000 1 0 09:20 22.04.2020
5309 Clear 12 1015 100 10000 2.6 210 08:56 22.04.2020
5310 Clear 11 1015 100 7000 2.1 160 08:37 22.04.2020
5311 Clear 11 1015 100 7000 2.1 160 08:19 22.04.2020
5312 Clear 11 1015 93 9000 1.5 150 07:52 22.04.2020
5313 Clear 12 1014 100 10000 0.07 262 07:24 22.04.2020
5314 Clear 12 1014 93 10000 1.5 250 06:53 22.04.2020
5315 Clear 12 1015 93 10000 2.6 230 06:18 22.04.2020
5316 Clear 12 1015 93 10000 2.6 200 05:35 22.04.2020
5317 Clear 13 1015 87 10000 1.5 210 04:20 22.04.2020
5318 Clouds 13 1015 93 10000 1 140 02:43 22.04.2020
5319 Clouds 15 1015 72 10000 1 0 01:50 22.04.2020
5320 Clouds 15 1015 67 10000 1.5 230 01:25 22.04.2020
5321 Clouds 15 1015 77 10000 2.6 270 00:47 22.04.2020
5322 Clouds 15 1014 77 10000 2.1 260 00:22 22.04.2020
5323 Clouds 16 1014 82 10000 1 290 23:59 21.04.2020
5324 Clouds 16 1014 72 10000 2.1 260 23:40 21.04.2020
5325 Clouds 16 1014 72 10000 2.1 260 23:18 21.04.2020
5326 Clouds 17 1013 72 10000 2.6 250 22:40 21.04.2020
5327 Clouds 17 1013 72 10000 2.6 250 22:22 21.04.2020
5328 Clouds 17 1012 72 10000 2.6 240 21:59 21.04.2020
5329 Clouds 18 1012 63 10000 3.1 220 21:41 21.04.2020
5330 Rain 18 1012 63 10000 3.1 220 21:22 21.04.2020
5331 Rain 18 1011 63 10000 2.6 230 20:56 21.04.2020
5332 Rain 19 1011 63 10000 4.1 260 20:38 21.04.2020
5333 Rain 19 1011 63 10000 4.1 260 20:20 21.04.2020
5334 Rain 18 1010 59 10000 3.1 260 19:41 21.04.2020
5335 Rain 19 1010 59 10000 3.1 260 19:20 21.04.2020
5336 Rain 19 1010 59 10000 3.1 260 19:20 21.04.2020
5337 Rain 19 1010 59 10000 1.5 290 18:58 21.04.2020
5338 Rain 19 1010 63 10000 2.1 340 18:39 21.04.2020
5339 Rain 19 1010 63 10000 2.1 340 18:19 21.04.2020
5340 Rain 19 1010 63 10000 2.6 360 17:57 21.04.2020
5341 Clouds 19 1009 68 10000 3.1 310 17:38 21.04.2020
5342 Rain 18 1009 68 10000 3.1 310 17:19 21.04.2020
5343 Rain 19 1009 68 10000 2.1 330 16:39 21.04.2020
5344 Clouds 19 1009 68 10000 2.1 330 16:19 21.04.2020
5345 -273 0 0 0 0 0 16:19 21.04.2020
5346 Rain 18 1007 66 0 1.34 347 15:58 21.04.2020
5347 Rain 18 1009 63 10000 1.5 90 15:40 21.04.2020
5348 Rain 17 1009 63 10000 1.5 90 15:22 21.04.2020
5349 Clouds 17 1009 72 10000 3.1 130 14:58 21.04.2020
5350 Rain 17 1009 72 10000 2.6 140 14:39 21.04.2020
5351 Rain 16 1009 72 10000 2.6 140 14:21 21.04.2020
5352 Clouds 15 1009 82 10000 1.5 230 13:42 21.04.2020
5353 Clouds 15 1009 82 10000 1.5 230 13:42 21.04.2020
5354 Rain 15 1009 82 10000 1.5 230 13:23 21.04.2020
5355 Rain 14 1009 87 10000 3.6 210 12:58 21.04.2020
5356 Rain 14 1009 82 5000 2.6 220 12:37 21.04.2020
5357 Rain 14 1009 82 5000 2.6 220 12:18 21.04.2020
5358 Rain 13 1009 93 10000 3.6 170 11:55 21.04.2020
5359 Rain 13 1009 93 10000 3.6 170 11:55 21.04.2020
5360 Rain 13 1009 93 10000 3.1 140 11:37 21.04.2020
5361 Clouds 13 1009 93 10000 3.1 140 11:18 21.04.2020
5362 Rain 13 1009 100 10000 3.6 160 10:56 21.04.2020
5363 Rain 12 1009 100 10000 4.1 150 10:38 21.04.2020
5364 Rain 12 1009 100 10000 4.1 150 10:20 21.04.2020
5365 Rain 12 1009 100 10000 2.6 160 09:37 21.04.2020
5366 Rain 11 1009 100 10000 2.6 160 09:19 21.04.2020
5367 Rain 11 1009 100 10000 2.6 170 08:58 21.04.2020
5368 Rain 11 1009 100 10000 2.6 170 08:58 21.04.2020
5369 Rain 11 1009 100 10000 2.1 170 08:39 21.04.2020
5370 Rain 11 1009 100 10000 2.1 170 08:19 21.04.2020
5371 Rain 11 1009 93 10000 1.5 150 07:45 21.04.2020
5372 Rain 11 1009 93 10000 0.5 170 07:23 21.04.2020
5373 Clouds 11 1009 93 10000 2.1 220 06:49 21.04.2020
5374 Clouds 11 1009 93 10000 3.6 240 06:22 21.04.2020
5375 Clouds 11 1009 93 10000 2.6 200 05:49 21.04.2020
5376 Clouds 12 1009 93 10000 2.6 180 04:21 21.04.2020
5377 Rain 12 1010 93 10000 2.6 190 03:44 21.04.2020
5378 Clouds 11 1011 100 10000 3.1 170 01:46 21.04.2020
5379 Clouds 12 1011 100 10000 3.1 170 01:28 21.04.2020
5380 Rain 12 1011 93 9000 2.6 160 00:37 21.04.2020
5381 Clouds 11 1012 93 8000 3.1 170 23:47 20.04.2020
5382 Rain 11 1012 93 10000 3.1 190 23:25 20.04.2020
5383 Rain 12 1011 93 10000 3.1 180 22:58 20.04.2020
5384 Rain 12 1012 87 10000 2.6 190 22:40 20.04.2020
5385 Rain 12 1012 87 10000 2.6 190 22:21 20.04.2020
5386 Rain 12 1010 93 10000 1.5 120 21:58 20.04.2020
5387 Rain 12 1010 87 10000 2.6 120 21:39 20.04.2020
5388 Rain 12 1010 87 10000 2.6 120 21:20 20.04.2020
5389 Rain 12 1010 87 10000 4.6 290 20:59 20.04.2020
5390 Rain 12 1011 93 6000 8.2 260 20:40 20.04.2020
5391 Rain 12 1011 93 6000 8.2 260 20:19 20.04.2020
5392 Rain 13 1010 93 7000 7.2 240 19:59 20.04.2020
5393 Rain 13 1010 93 7000 7.2 240 19:59 20.04.2020
5394 Rain 14 1010 87 3000 8.7 230 19:39 20.04.2020
5395 Rain 14 1010 87 3000 8.7 230 19:39 20.04.2020
5396 Rain 14 1010 87 3000 8.7 230 19:19 20.04.2020
5397 Rain 16 1010 87 5000 10.8 220 18:54 20.04.2020
5398 Rain 16 1009 83 0 5.36 211 18:36 20.04.2020
5399 Clouds 18 1010 55 10000 8.2 220 18:18 20.04.2020
5400 Clouds 19 1010 49 10000 6.7 230 17:43 20.04.2020
5401 Clouds 19 1011 49 10000 8.7 220 17:22 20.04.2020
5402 Clouds 19 1011 40 10000 7.7 230 16:59 20.04.2020
5403 Clouds 20 1012 49 10000 7.2 230 16:40 20.04.2020
5404 Clouds 20 1012 49 10000 7.2 230 16:19 20.04.2020
5405 Clouds 19 1013 52 10000 6.7 240 15:55 20.04.2020
5406 Clouds 19 1013 59 10000 7.2 240 15:36 20.04.2020
5407 Clouds 19 1013 59 10000 7.2 240 15:36 20.04.2020
5408 Clouds 19 1013 59 10000 5.7 240 15:18 20.04.2020
5409 Clouds 19 1013 59 10000 5.7 240 15:18 20.04.2020
5410 Clouds 19 1013 55 10000 3.6 260 14:41 20.04.2020
5411 Clouds 19 1013 55 10000 3.6 260 14:19 20.04.2020
5412 Clouds 18 1014 63 10000 2.6 240 13:58 20.04.2020
5413 Clouds 18 1014 63 10000 2.6 240 13:38 20.04.2020
5414 Clouds 18 1014 63 10000 2.6 240 13:20 20.04.2020
5415 Clouds 17 1015 77 10000 2.1 270 12:44 20.04.2020
5416 Clouds 17 1015 77 10000 2.1 270 12:22 20.04.2020
5417 Clouds 15 1015 77 10000 3.1 220 11:57 20.04.2020
5418 Clouds 15 1015 82 10000 2.1 210 11:38 20.04.2020
5419 Clouds 14 1015 82 10000 2.1 210 11:18 20.04.2020
5420 Clouds 14 1015 93 10000 2.6 210 10:54 20.04.2020
5421 Clouds 13 1015 93 10000 2.6 210 10:36 20.04.2020
5422 Clouds 13 1015 93 10000 2.6 210 10:18 20.04.2020
5423 Clouds 13 1014 93 10000 1.5 180 09:43 20.04.2020
5424 Clouds 12 1014 93 10000 1.5 180 09:25 20.04.2020
5425 Clouds 12 1014 93 10000 1.5 280 08:58 20.04.2020
5426 Clouds 12 1014 93 10000 1.5 280 08:39 20.04.2020
5427 Clouds 12 1014 93 10000 1.5 280 08:18 20.04.2020
5428 Clouds 12 1014 93 10000 2.1 260 07:51 20.04.2020
5429 Clouds 12 1014 93 10000 2.1 260 07:28 20.04.2020
5430 Clouds 12 1014 76 10000 5.1 260 06:38 20.04.2020
5431 Clouds 12 1014 76 10000 5.1 260 06:19 20.04.2020
5432 Clouds 13 1013 76 10000 2.6 250 05:20 20.04.2020
5433 Clouds 14 1014 77 10000 4.1 270 03:19 20.04.2020
5434 Clouds 15 1014 72 10000 4.6 270 02:36 20.04.2020
5435 Clouds 16 1014 67 10000 4.6 270 01:31 20.04.2020
5436 Clouds 16 1014 59 10000 6.2 270 00:47 20.04.2020
5437 Clear 17 1013 59 10000 5.1 280 00:27 20.04.2020
5438 Clear 17 1013 59 10000 3.6 270 23:54 19.04.2020
5439 Clear 17 1013 55 10000 4.6 280 23:36 19.04.2020
5440 Clear 18 1013 55 10000 4.6 280 23:18 19.04.2020
5441 Clear 18 1013 55 10000 4.6 280 23:18 19.04.2020
5442 Clear 19 1012 49 10000 5.7 290 22:39 19.04.2020
5443 Clear 19 1012 49 10000 5.7 290 22:21 19.04.2020
5444 Clear 20 1011 46 10000 5.1 290 21:56 19.04.2020
5445 Clear 20 1010 40 10000 6.2 300 21:37 19.04.2020
5446 Clouds 21 1010 40 10000 6.2 300 21:18 19.04.2020
5447 Clouds 22 1009 38 10000 9.8 290 20:41 19.04.2020
5448 Clouds 22 1009 38 10000 9.8 290 20:21 19.04.2020
5449 Clouds 23 1009 38 10000 8.7 290 19:59 19.04.2020
5450 Clouds 23 1009 36 10000 9.3 280 19:41 19.04.2020
5451 Clouds 23 1009 36 10000 9.3 280 19:22 19.04.2020
5452 Clouds 23 1008 36 10000 7.7 270 18:58 19.04.2020
5453 Clouds 23 1008 36 10000 7.7 270 18:58 19.04.2020
5454 Clouds 24 1008 33 10000 7.2 290 18:39 19.04.2020
5455 Clouds 24 1008 33 10000 7.2 290 18:20 19.04.2020
5456 Clouds 24 1008 36 10000 5.7 290 17:57 19.04.2020
5457 Clouds 24 1009 36 10000 6.2 300 17:39 19.04.2020
5458 Clouds 24 1009 36 10000 6.2 300 17:21 19.04.2020
5459 Clouds 24 1009 38 10000 5.7 280 16:58 19.04.2020
5460 Clouds 24 1009 40 10000 5.1 310 16:38 19.04.2020
5461 Clouds 24 1009 40 10000 5.1 310 16:20 19.04.2020
5462 Clouds 24 1010 43 10000 4.6 260 15:43 19.04.2020
5463 Clouds 23 1010 43 10000 4.6 260 15:22 19.04.2020
5464 Clouds 23 1010 46 10000 3.6 260 14:56 19.04.2020
5465 Clouds 23 1010 43 10000 3.1 0 14:37 19.04.2020
5466 Clouds 23 1010 43 10000 3.1 0 14:19 19.04.2020
5467 Clouds 22 1011 52 10000 2.6 300 13:40 19.04.2020
5468 Clouds 22 1011 52 10000 2.6 300 13:21 19.04.2020
5469 Clouds 22 1011 52 10000 1.5 270 12:58 19.04.2020
5470 Clouds 21 1011 60 10000 2.1 280 12:40 19.04.2020
5471 Clouds 21 1011 60 10000 2.1 280 12:20 19.04.2020
5472 Clouds 20 1011 68 10000 2.1 270 11:38 19.04.2020
5473 Clouds 20 1011 68 10000 2.1 270 11:19 19.04.2020
5474 Clouds 19 1011 68 10000 2.6 290 10:58 19.04.2020
5475 Clouds 19 1011 77 10000 3.1 280 10:40 19.04.2020
5476 Clouds 18 1011 77 10000 3.1 280 10:20 19.04.2020
5477 Clouds 17 1011 72 10000 3.1 280 09:46 19.04.2020
5478 Rain 17 1011 77 10000 2.1 310 09:28 19.04.2020
5479 Rain 15 1011 93 10000 0.5 270 08:59 19.04.2020
5480 Rain 15 1011 93 10000 1.62 316 08:37 19.04.2020
5481 Rain 15 1011 93 10000 1.62 316 08:18 19.04.2020
5482 Rain 16 1011 77 10000 1 0 07:44 19.04.2020
5483 Rain 16 1011 77 10000 1 0 07:24 19.04.2020
5484 Rain 16 1011 93 10000 2.1 190 06:31 19.04.2020
5485 Rain 16 1011 87 8000 1.5 140 05:56 19.04.2020
5486 Rain 16 1011 87 10000 1 0 04:48 19.04.2020
5487 Clouds 17 1011 82 10000 1 0 03:19 19.04.2020
5488 Clouds 17 1010 88 10000 2.1 270 02:22 19.04.2020
5489 Clouds 18 1011 77 10000 2.6 210 01:39 19.04.2020
5490 Clouds 17 1011 77 10000 2.6 190 00:50 19.04.2020
5491 Clouds 18 1011 77 10000 2.6 200 00:26 19.04.2020
5492 Clouds 18 1011 72 10000 2.6 220 23:59 18.04.2020
5493 Clouds 18 1011 68 10000 3.1 240 23:39 18.04.2020
5494 Clouds 18 1011 68 10000 3.1 240 23:39 18.04.2020
5495 Clouds 18 1011 68 10000 3.1 240 23:19 18.04.2020
5496 Clouds 19 1011 64 10000 4.1 240 22:42 18.04.2020
5497 Clouds 20 1011 64 10000 4.1 240 22:22 18.04.2020
5498 Clouds 20 1010 64 10000 3.6 250 21:58 18.04.2020
5499 Clouds 21 1010 56 10000 3.6 220 21:38 18.04.2020
5500 Clouds 21 1010 56 10000 3.6 220 21:20 18.04.2020
5501 Clouds 22 1010 53 10000 2.1 220 20:54 18.04.2020
5502 Clouds 22 1010 44 10000 2.6 310 20:36 18.04.2020
5503 Clouds 23 1010 44 10000 2.6 310 20:18 18.04.2020
5504 Clouds 24 1010 44 10000 1.5 290 19:40 18.04.2020
5505 Clouds 24 1010 44 10000 1.5 290 19:22 18.04.2020
5506 Clouds 24 1011 47 10000 2.1 200 18:39 18.04.2020
5507 Clouds 24 1011 47 10000 2.1 200 18:20 18.04.2020
5508 Clouds 24 1011 49 10000 1.5 250 17:57 18.04.2020
5509 Clouds 24 1011 47 10000 3.6 280 17:38 18.04.2020
5510 Clouds 24 1011 47 10000 3.6 280 17:18 18.04.2020
5511 Clouds 23 1012 47 10000 3.1 310 16:43 18.04.2020
5512 Clouds 24 1012 47 10000 3.1 310 16:22 18.04.2020
5513 Clouds 24 1012 49 10000 1.5 290 15:55 18.04.2020
5514 Clouds 24 1013 53 10000 1.5 360 15:37 18.04.2020
5515 Clouds 23 1013 53 10000 1.5 360 15:19 18.04.2020
5516 Clouds 23 1013 53 10000 1 260 14:44 18.04.2020
5517 Clouds 22 1013 56 10000 1.5 340 14:20 18.04.2020
5518 Clouds 22 1014 56 10000 1 270 13:43 18.04.2020
5519 Clouds 22 1014 64 10000 1.5 340 13:21 18.04.2020
5520 Clouds 21 1014 56 10000 0.5 40 12:44 18.04.2020
5521 Clouds 21 1014 56 10000 0.5 40 12:26 18.04.2020
5522 Clouds 19 1014 72 10000 1 0 11:59 18.04.2020
5523 Clouds 19 1014 77 10000 2.1 20 11:40 18.04.2020
5524 Clouds 18 1014 77 10000 2.1 20 11:22 18.04.2020
5525 Clouds 18 1014 77 10000 2.1 20 11:22 18.04.2020
5526 Clouds 17 1014 88 10000 2.6 30 10:57 18.04.2020
5527 Clouds 16 1014 87 10000 2.1 360 10:36 18.04.2020
5528 Clouds 15 1014 87 10000 2.1 360 10:18 18.04.2020
5529 Clouds 14 1014 93 10000 1 0 09:41 18.04.2020
5530 Clouds 14 1014 93 10000 1 0 09:21 18.04.2020
5531 Clouds 13 1014 100 10000 1.5 40 08:43 18.04.2020
5532 Clouds 13 1014 100 10000 1.5 40 08:43 18.04.2020
5533 Clouds 13 1014 93 10000 1.46 26 08:23 18.04.2020
5534 Clouds 13 1014 93 10000 1.46 26 07:51 18.04.2020
5535 Clouds 14 1014 93 10000 1 340 07:32 18.04.2020
5536 Clouds 14 1014 93 10000 1.46 26 06:53 18.04.2020
5537 Clouds 14 1014 93 10000 0.5 0 05:50 18.04.2020
5538 Clouds 15 1014 93 10000 1.38 15 05:23 18.04.2020
5539 Clouds 15 1015 93 10000 1.5 160 04:45 18.04.2020
5540 Clouds 15 1015 93 10000 1.38 15 04:24 18.04.2020
5541 Clouds 15 1015 87 10000 0.91 323 02:45 18.04.2020
5542 Clouds 16 1015 82 10000 1.5 280 02:21 18.04.2020
5543 Clouds 16 1015 82 10000 2.1 310 01:51 18.04.2020
5544 Clouds 16 1015 82 10000 1.5 280 01:31 18.04.2020
5545 Clouds 17 1015 82 10000 2.6 270 00:40 18.04.2020
5546 Clouds 17 1015 82 10000 2.6 270 00:20 18.04.2020
5547 Clouds 17 1015 82 10000 1.5 280 23:55 17.04.2020
5548 Clouds 17 1015 82 10000 1.5 290 23:36 17.04.2020
5549 Clouds 17 1015 82 10000 1.5 290 23:18 17.04.2020
5550 Clouds 18 1015 72 10000 2.1 280 22:54 17.04.2020
5551 Clouds 18 1015 72 10000 2.1 280 22:36 17.04.2020
5552 Clouds 18 1015 72 10000 2.1 280 22:18 17.04.2020
5553 Clouds 19 1014 68 10000 3.1 310 21:40 17.04.2020
5554 Clouds 19 1014 68 10000 3.1 310 21:21 17.04.2020
5555 Clouds 20 1014 68 10000 3.6 310 20:56 17.04.2020
5556 Clouds 20 1014 64 10000 4.1 320 20:37 17.04.2020
5557 Clouds 20 1014 64 10000 4.1 320 20:18 17.04.2020
5558 Clouds 20 1014 64 10000 4.6 290 19:56 17.04.2020
5559 Clouds 21 1014 49 10000 3.1 280 19:38 17.04.2020
5560 Clouds 21 1014 49 10000 3.1 280 19:20 17.04.2020
5561 Clouds 21 1014 53 10000 4.1 260 18:42 17.04.2020
5562 Clouds 21 1014 53 10000 4.1 260 18:23 17.04.2020
5563 Clouds 22 1014 53 10000 5.1 260 17:54 17.04.2020
5564 Clouds 21 1014 56 10000 5.1 250 17:36 17.04.2020
5565 Clouds 21 1014 56 10000 5.1 250 17:18 17.04.2020
5566 Clouds 21 1015 56 10000 5.7 260 16:41 17.04.2020
5567 Clouds 21 1015 56 10000 5.7 260 16:22 17.04.2020
5568 Clouds 21 1015 56 10000 4.1 230 15:41 17.04.2020
5569 Clouds 21 1015 56 10000 4.1 230 15:22 17.04.2020
5570 Rain 20 1014 66 0 2.24 245 14:55 17.04.2020
5571 Clouds 21 1016 64 10000 3.6 220 14:37 17.04.2020
5572 Clouds 21 1016 64 10000 3.6 220 14:19 17.04.2020
5573 Clouds 20 1016 68 10000 2.6 200 13:40 17.04.2020
5574 Clouds 20 1016 68 10000 2.6 200 13:21 17.04.2020
5575 Clouds 19 1016 72 10000 3.6 230 12:58 17.04.2020
5576 Clouds 19 1016 72 10000 3.1 220 12:40 17.04.2020
5577 Clouds 19 1016 72 10000 3.1 220 12:21 17.04.2020
5578 Clouds 18 1016 72 10000 1.5 220 11:40 17.04.2020
5579 Clouds 18 1016 72 10000 1.5 220 11:19 17.04.2020
5580 Clouds 17 1016 77 10000 1.5 170 10:55 17.04.2020
5581 Rain 17 1016 82 10000 1.5 120 10:37 17.04.2020
5582 Rain 17 1016 82 10000 1.5 120 10:18 17.04.2020
5583 Rain 16 1016 93 10000 2.1 70 09:40 17.04.2020
5584 Clouds 15 1016 93 10000 2.1 70 09:20 17.04.2020
5585 Clouds 14 1015 93 10000 1.5 167 08:55 17.04.2020
5586 Clouds 14 1015 93 10000 1.5 167 08:37 17.04.2020
5587 Clouds 14 1015 93 10000 1.5 167 08:18 17.04.2020
5588 Clouds 14 1015 93 10000 1 100 07:43 17.04.2020
5589 Clouds 14 1015 93 10000 1 90 07:20 17.04.2020
5590 Clouds 14 1015 100 10000 0.5 0 06:45 17.04.2020
5591 Clouds 15 1015 93 10000 1 20 06:21 17.04.2020
5592 Clouds 15 1016 100 10000 1 0 03:37 17.04.2020
5593 Clouds 15 1016 93 10000 1 0 03:18 17.04.2020
5594 Clouds 16 1016 88 10000 1.5 210 01:58 17.04.2020
5595 Clouds 16 1016 88 10000 2.1 180 01:24 17.04.2020
5596 Clouds 17 1016 82 10000 2.6 220 00:30 17.04.2020
5597 Clouds 17 1016 82 10000 3.1 230 23:56 16.04.2020
5598 Clouds 17 1016 82 10000 4.6 230 23:38 16.04.2020
5599 Clouds 17 1016 77 10000 3.6 220 23:19 16.04.2020
5600 Clouds 17 1015 88 10000 3.1 200 22:56 16.04.2020
5601 Clouds 17 1015 88 10000 3.1 200 22:37 16.04.2020
5602 Clouds 17 1015 82 10000 3.6 190 22:19 16.04.2020
5603 Clouds 17 1015 82 10000 4.6 220 21:41 16.04.2020
5604 Clouds 18 1015 82 10000 5.1 220 21:20 16.04.2020
5605 Clouds 18 1015 82 10000 5.1 220 20:58 16.04.2020
5606 Clouds 18 1015 72 10000 5.7 220 20:39 16.04.2020
5607 Clouds 18 1014 56 10000 5.1 210 20:19 16.04.2020
5608 Clouds 19 1014 56 10000 5.1 210 19:54 16.04.2020
5609 Rain 19 1014 56 10000 4.6 200 19:36 16.04.2020
5610 Rain 19 1014 63 10000 6.2 250 19:18 16.04.2020
5611 Rain 19 1014 52 10000 8.2 230 18:42 16.04.2020
5612 Rain 21 1014 52 10000 8.2 230 18:23 16.04.2020
5613 Rain 20 1014 52 10000 8.2 230 17:57 16.04.2020
5614 Rain 20 1014 56 10000 7.7 230 17:39 16.04.2020
5615 Rain 20 1014 56 10000 7.7 230 17:18 16.04.2020
5616 Clouds 21 1014 56 10000 5.1 210 16:42 16.04.2020
5617 Clouds 21 1014 56 10000 5.1 210 16:24 16.04.2020
5618 Clouds 21 1014 60 10000 8.2 220 15:46 16.04.2020
5619 Clouds 21 1014 60 10000 8.2 220 15:20 16.04.2020
5620 Clouds 21 1014 60 10000 8.2 220 15:20 16.04.2020
5621 Clouds 21 1014 60 10000 8.2 220 14:59 16.04.2020
5622 Clouds 21 1014 56 10000 8.2 200 14:40 16.04.2020
5623 Rain 21 1015 56 10000 6.7 210 14:22 16.04.2020
5624 Rain 21 1015 56 10000 6.7 210 13:58 16.04.2020
5625 Rain 21 1015 56 10000 6.7 210 13:58 16.04.2020
5626 Clouds 21 1015 64 10000 6.7 190 13:40 16.04.2020
5627 Clouds 21 1015 60 10000 7.7 180 13:21 16.04.2020
5628 Clouds 21 1015 60 10000 7.7 180 13:21 16.04.2020
5629 Clouds 20 1015 60 10000 7.7 180 12:57 16.04.2020
5630 Rain 20 1015 68 10000 6.2 190 12:38 16.04.2020
5631 Clouds 20 1015 77 10000 4.1 180 12:19 16.04.2020
5632 Clouds 19 1015 77 10000 4.1 180 11:56 16.04.2020
5633 Clouds 19 1015 82 10000 1 0 11:38 16.04.2020
5634 Clouds 17 1015 87 10000 3.79 167 11:19 16.04.2020
5635 Clouds 16 1015 87 10000 0.5 0 10:55 16.04.2020
5636 Clouds 16 1015 87 10000 0.5 0 10:36 16.04.2020
5637 Clouds 16 1015 93 10000 1.5 340 10:18 16.04.2020
5638 Clouds 14 1015 100 10000 1 0 09:39 16.04.2020
5639 Clouds 14 1014 93 10000 1.5 320 09:20 16.04.2020
5640 Clouds 14 1014 93 10000 1.5 320 09:20 16.04.2020
5641 Clouds 14 1014 93 10000 1.5 320 08:56 16.04.2020
5642 Clouds 13 1014 93 9000 0.58 111 08:36 16.04.2020
5643 Clouds 13 1014 93 10000 0.49 135 08:18 16.04.2020
5644 Clouds 13 1014 93 10000 0.49 135 08:18 16.04.2020
5645 Clouds 14 1014 93 9000 1 40 07:42 16.04.2020
5646 Clouds 13 1014 100 10000 0.58 111 07:21 16.04.2020
5647 Clouds 14 1014 93 10000 0.5 0 06:41 16.04.2020
5648 Clouds 14 1015 93 10000 1.67 78 06:22 16.04.2020
5649 Clouds 14 1015 93 10000 1 20 04:53 16.04.2020
5650 Rain 14 1016 93 10000 2.1 110 03:28 16.04.2020
5651 Rain 14 1016 93 10000 1 0 02:59 16.04.2020
5652 Rain 14 1016 93 10000 2.1 130 02:39 16.04.2020
5653 Rain 15 1016 100 10000 1 0 01:40 16.04.2020
5654 Rain 15 1016 100 10000 1.5 150 00:57 16.04.2020
5655 Rain 15 1016 100 10000 1.5 150 00:26 16.04.2020
5656 Rain 15 1016 100 10000 2.1 170 23:56 15.04.2020
5657 Rain 15 1016 93 10000 2.6 180 23:38 15.04.2020
5658 Rain 16 1015 88 10000 2.1 190 23:19 15.04.2020
5659 Rain 16 1015 88 10000 2.1 200 22:39 15.04.2020
5660 Clouds 16 1015 88 10000 2.6 200 22:21 15.04.2020
5661 Clouds 17 1015 88 10000 2.6 200 21:57 15.04.2020
5662 Rain 17 1015 88 10000 4.1 210 21:39 15.04.2020
5663 Rain 17 1015 82 9000 5.7 210 21:21 15.04.2020
5664 Rain 18 1014 82 10000 5.1 210 20:56 15.04.2020
5665 Rain 18 1014 82 10000 5.1 210 20:38 15.04.2020
5666 Rain 18 1014 82 10000 5.1 240 20:20 15.04.2020
5667 Rain 18 1014 82 7000 6.2 220 19:41 15.04.2020
5668 Rain 18 1014 82 8000 6.2 210 19:20 15.04.2020
5669 Rain 18 1013 88 10000 6.2 210 18:54 15.04.2020
5670 Rain 18 1013 88 10000 6.2 210 18:36 15.04.2020
5671 Rain 18 1013 82 4000 8.2 200 18:18 15.04.2020
5672 Rain 18 1013 82 10000 6.2 190 17:40 15.04.2020
5673 Rain 18 1013 82 10000 6.2 190 17:40 15.04.2020
5674 Rain 18 1013 88 9000 8.7 220 17:20 15.04.2020
5675 Rain 18 1013 88 9000 8.7 220 16:57 15.04.2020
5676 Rain 19 1013 88 5000 10.8 220 16:38 15.04.2020
5677 Rain 19 1013 88 5000 10.8 220 16:38 15.04.2020
5678 Rain 18 1012 82 8000 7.7 210 16:19 15.04.2020
5679 Rain 19 1012 82 8000 7.7 210 15:58 15.04.2020
5680 Rain 19 1012 68 4000 6.7 190 15:39 15.04.2020
5681 Rain 19 1012 60 10000 7.2 190 15:19 15.04.2020
5682 Rain 19 1012 60 10000 7.2 190 14:58 15.04.2020
5683 Rain 19 1012 60 10000 7.2 190 14:58 15.04.2020
5684 Rain 20 1012 64 10000 6.7 200 14:39 15.04.2020
5685 Rain 20 1012 64 10000 6.7 200 14:39 15.04.2020
5686 Rain 19 1012 77 10000 6.2 210 14:21 15.04.2020
5687 Rain 19 1012 77 10000 6.2 210 13:58 15.04.2020
5688 Rain 18 1012 88 10000 5.1 180 13:39 15.04.2020
5689 Rain 19 1013 68 10000 8.2 200 13:20 15.04.2020
5690 Clouds 18 1012 88 10000 5.1 180 12:56 15.04.2020
5691 Rain 17 1013 87 6000 8.2 180 12:38 15.04.2020
5692 Thunderstorm 16 1012 87 10000 6.2 230 12:19 15.04.2020
5693 Thunderstorm 17 1012 82 6000 7.2 200 11:42 15.04.2020
5694 Thunderstorm 16 1012 82 6000 7.2 200 11:24 15.04.2020
5695 Thunderstorm 16 1011 87 10000 3.6 210 10:58 15.04.2020
5696 Thunderstorm 15 1011 93 10000 5.7 230 10:36 15.04.2020
5697 Thunderstorm 14 1011 87 2000 4.1 280 10:18 15.04.2020
5698 Thunderstorm 14 1011 87 2000 4.1 280 09:55 15.04.2020
5699 Rain 14 1010 87 10000 3.6 140 09:37 15.04.2020
5700 Rain 14 1010 93 10000 3.6 150 09:18 15.04.2020
5701 Rain 14 1010 93 10000 4.1 150 08:41 15.04.2020
5702 Rain 14 1010 87 10000 4.6 160 08:21 15.04.2020
5703 Rain 14 1010 87 10000 4.6 160 07:55 15.04.2020
5704 Rain 14 1009 93 10000 3.6 160 07:34 15.04.2020
5705 Clouds 14 1009 93 10000 2.1 130 06:49 15.04.2020
5706 Rain 14 1009 93 10000 1.5 90 06:20 15.04.2020
5707 Clouds 14 1009 93 10000 2.1 90 05:22 15.04.2020
5708 Rain 14 1009 93 10000 1.5 150 04:45 15.04.2020
5709 Rain 14 1010 93 10000 3.1 150 03:55 15.04.2020
5710 Thunderstorm 14 1011 87 9000 4.6 180 03:20 15.04.2020
5711 Rain 14 1010 77 4400 4.1 240 02:39 15.04.2020
5712 Rain 15 1009 72 10000 1.5 110 01:50 15.04.2020
5713 Rain 16 1008 59 10000 1.5 140 01:22 15.04.2020
5714 Rain 17 1009 59 10000 3.6 180 00:39 15.04.2020
5715 Rain 17 1009 63 10000 3.6 170 00:20 15.04.2020
5716 Rain 17 1009 63 10000 3.6 170 23:55 14.04.2020
5717 Rain 18 1009 59 10000 4.1 180 23:37 14.04.2020
5718 Rain 18 1009 52 10000 4.1 190 23:19 14.04.2020
5719 Rain 18 1009 52 10000 4.1 190 22:56 14.04.2020
5720 Rain 18 1009 56 10000 3.6 180 22:38 14.04.2020
5721 Rain 18 1009 52 10000 3.6 180 22:20 14.04.2020
5722 Rain 19 1009 52 10000 3.6 180 21:56 14.04.2020
5723 Rain 19 1008 49 10000 4.6 190 21:37 14.04.2020
5724 Rain 19 1008 52 10000 2.6 180 21:18 14.04.2020
5725 Thunderstorm 20 1008 68 10000 2.1 60 20:41 14.04.2020
5726 Thunderstorm 20 1008 72 10000 2.1 40 20:23 14.04.2020
5727 Thunderstorm 20 1008 72 10000 2.1 40 19:59 14.04.2020
5728 Rain 21 1008 46 10000 1.5 220 19:40 14.04.2020
5729 Rain 21 1008 46 10000 1.5 220 19:40 14.04.2020
5730 Rain 21 1008 49 10000 5.1 220 19:21 14.04.2020
5731 Rain 21 1008 49 10000 5.1 220 18:57 14.04.2020
5732 Clouds 22 1008 60 10000 3.1 240 18:39 14.04.2020
5733 Rain 22 1009 46 10000 6.2 220 18:20 14.04.2020
5734 Rain 21 1008 64 10000 1.5 320 17:57 14.04.2020
5735 Rain 20 1009 68 10000 1 0 17:38 14.04.2020
5736 Thunderstorm 20 1009 60 5000 3.6 240 17:19 14.04.2020
5737 Thunderstorm 20 1009 60 5000 3.6 240 17:19 14.04.2020
5738 Thunderstorm 20 1009 60 5000 3.6 240 17:19 14.04.2020
5739 Thunderstorm 20 1009 60 5000 3.6 240 16:55 14.04.2020
5740 Rain 20 1009 60 10000 5.1 220 16:36 14.04.2020
5741 Clouds 20 1010 49 10000 5.7 190 16:18 14.04.2020
5742 Rain 20 1010 46 10000 5.1 180 15:42 14.04.2020
5743 Rain 20 1010 46 10000 5.1 180 15:23 14.04.2020
5744 Clouds 21 1010 52 10000 5.1 230 14:59 14.04.2020
5745 Clouds 21 1010 49 10000 4.1 200 14:41 14.04.2020
5746 Clouds 21 1011 49 10000 3.1 180 14:22 14.04.2020
5747 Clouds 20 1011 49 10000 3.1 180 13:58 14.04.2020
5748 Clouds 20 1011 52 10000 4.1 170 13:40 14.04.2020
5749 Clouds 20 1011 52 10000 3.6 180 13:21 14.04.2020
5750 Clouds 19 1011 63 10000 3.6 210 12:42 14.04.2020
5751 Clouds 19 1011 63 10000 3.1 170 12:22 14.04.2020
5752 Clouds 19 1011 63 10000 3.1 170 11:57 14.04.2020
5753 Rain 18 1011 68 10000 3.1 180 11:39 14.04.2020
5754 Rain 18 1011 68 10000 2.6 170 11:20 14.04.2020
5755 Rain 17 1011 72 10000 3.1 130 10:47 14.04.2020
5756 Rain 16 1011 72 10000 3.1 130 10:28 14.04.2020
5757 Clouds 16 1011 77 10000 2.6 100 09:59 14.04.2020
5758 Clouds 15 1010 82 10000 2.6 110 09:40 14.04.2020
5759 Clouds 13 1010 93 10000 3.1 110 09:22 14.04.2020
5760 Clouds 13 1010 93 9000 3.1 100 08:44 14.04.2020
5761 Clouds 13 1010 93 9000 3.1 100 08:25 14.04.2020
5762 Clouds 13 1010 87 10000 0.5 0 07:58 14.04.2020
5763 Clouds 13 1010 100 10000 1 0 07:40 14.04.2020
5764 Clouds 13 1009 93 10000 1.5 80 07:21 14.04.2020
5765 Clouds 13 1009 93 10000 1.5 70 06:45 14.04.2020
5766 Rain 14 1009 93 10000 1.5 160 05:22 14.04.2020
5767 Clouds 14 1010 87 10000 2.6 170 03:25 14.04.2020
5768 Rain 15 1010 87 10000 1.5 170 02:33 14.04.2020
5769 Rain 15 1010 87 10000 1.5 160 01:27 14.04.2020
5770 Rain 15 1010 82 10000 1 0 00:50 14.04.2020
5771 Clouds 15 1010 82 10000 1 0 00:24 14.04.2020
5772 Clouds 15 1010 77 10000 2.6 220 23:56 13.04.2020
5773 Clouds 16 1010 77 10000 2.6 220 23:37 13.04.2020
5774 Clouds 16 1009 72 10000 3.6 230 23:18 13.04.2020
5775 Clouds 16 1009 72 10000 4.6 230 22:42 13.04.2020
5776 Clouds 17 1008 68 10000 5.1 240 22:22 13.04.2020
5777 Clouds 17 1008 68 10000 5.1 240 21:58 13.04.2020
5778 Clouds 17 1008 68 10000 5.7 230 21:39 13.04.2020
5779 Clouds 17 1007 63 10000 8.2 230 21:20 13.04.2020
5780 Clouds 18 1007 63 10000 8.2 230 20:57 13.04.2020
5781 Clouds 18 1007 68 10000 5.1 220 20:38 13.04.2020
5782 Clouds 18 1007 68 10000 5.1 220 20:38 13.04.2020
5783 Clouds 19 1007 60 10000 6.7 210 20:19 13.04.2020
5784 Clouds 20 1007 56 10000 6.7 230 19:57 13.04.2020
5785 Clouds 20 1006 56 10000 7.7 230 19:37 13.04.2020
5786 Clouds 20 1007 52 10000 7.2 230 19:18 13.04.2020
5787 Clouds 21 1007 52 10000 7.2 230 18:55 13.04.2020
5788 Clouds 21 1007 52 10000 7.2 230 18:36 13.04.2020
5789 Clouds 21 1006 49 10000 5.7 220 18:18 13.04.2020
5790 Clouds 22 1006 46 10000 6.7 220 17:56 13.04.2020
5791 Clouds 22 1006 46 10000 6.7 220 17:36 13.04.2020
5792 Clouds 22 1006 49 10000 6.2 230 17:18 13.04.2020
5793 Clouds 22 1006 49 10000 6.2 230 16:56 13.04.2020
5794 Clouds 22 1007 53 10000 5.1 240 16:37 13.04.2020
5795 Clouds 22 1007 53 10000 4.6 220 16:19 13.04.2020
5796 Clouds 21 1007 53 10000 4.1 240 15:46 13.04.2020
5797 Clouds 22 1007 53 10000 4.1 240 15:28 13.04.2020
5798 Clouds 21 1007 56 10000 3.1 220 14:59 13.04.2020
5799 Clouds 21 1007 64 10000 4.6 220 14:40 13.04.2020
5800 Clouds 20 1008 60 10000 2.6 210 14:22 13.04.2020
5801 Clouds 20 1008 60 10000 2.6 210 13:56 13.04.2020
5802 Clouds 20 1008 68 10000 3.6 230 13:38 13.04.2020
5803 Clouds 20 1008 68 10000 3.6 230 13:20 13.04.2020
5804 Clouds 20 1008 68 10000 3.6 230 12:58 13.04.2020
5805 Clouds 19 1008 72 10000 3.6 230 12:39 13.04.2020
5806 Clouds 18 1008 77 10000 4.1 220 12:19 13.04.2020
5807 Clouds 18 1008 77 10000 4.1 220 11:57 13.04.2020
5808 Clouds 17 1008 82 10000 4.1 250 11:39 13.04.2020
5809 Clouds 16 1009 82 10000 3.1 230 11:18 13.04.2020
5810 Clouds 16 1009 82 10000 3.1 230 10:55 13.04.2020
5811 Clouds 16 1009 82 10000 3.1 210 10:36 13.04.2020
5812 Clouds 16 1009 87 10000 2.1 210 10:18 13.04.2020
5813 Clouds 15 1009 87 10000 2.6 190 09:44 13.04.2020
5814 Clouds 14 1009 87 10000 2.6 190 09:25 13.04.2020
5815 Clouds 14 1009 87 10000 3.6 190 08:45 13.04.2020
5816 Clouds 14 1009 87 10000 3.6 190 08:27 13.04.2020
5817 Clouds 14 1009 87 10000 3.6 190 08:27 13.04.2020
5818 Clouds 14 1009 87 10000 3.1 180 07:58 13.04.2020
5819 Clouds 14 1009 93 10000 2.6 170 07:38 13.04.2020
5820 Clouds 14 1009 87 10000 1.5 200 07:19 13.04.2020
5821 Clouds 14 1009 82 9000 1.5 200 06:46 13.04.2020
5822 Clouds 14 1009 87 10000 2.1 210 05:53 13.04.2020
5823 Clouds 15 1009 87 10000 2.1 210 05:27 13.04.2020
5824 Clouds 15 1010 87 10000 2.6 210 04:50 13.04.2020
5825 Clear 15 1010 87 10000 2.6 240 04:20 13.04.2020
5826 Clear 15 1011 87 10000 2.1 220 03:44 13.04.2020
5827 Clouds 15 1011 87 10000 2.6 220 02:48 13.04.2020
5828 Clouds 15 1012 82 10000 3.1 220 01:49 13.04.2020
5829 Clouds 15 1012 82 10000 3.1 220 01:30 13.04.2020
5830 Clouds 16 1012 82 10000 4.1 250 00:55 13.04.2020
5831 Clouds 16 1012 77 10000 4.1 270 00:36 13.04.2020
5832 Clouds 16 1012 77 10000 5.1 270 00:18 13.04.2020
5833 Clouds 17 1012 77 10000 5.7 260 23:42 12.04.2020
5834 Clouds 16 1011 77 10000 3.1 220 23:22 12.04.2020
5835 Clouds 17 1011 77 10000 3.1 220 22:55 12.04.2020
5836 Clouds 18 1011 72 10000 6.2 240 22:36 12.04.2020
5837 Clouds 18 1011 72 10000 5.1 230 22:18 12.04.2020
5838 Clouds 19 1011 64 10000 6.7 230 21:39 12.04.2020
5839 Clouds 19 1011 63 10000 4.6 200 21:20 12.04.2020
5840 Clouds 20 1011 63 10000 4.6 200 20:56 12.04.2020
5841 Clouds 20 1011 56 10000 6.2 220 20:37 12.04.2020
5842 Clouds 20 1011 60 10000 4.1 210 20:19 12.04.2020
5843 Clouds 22 1011 40 10000 4.1 220 19:41 12.04.2020
5844 Clouds 23 1011 43 10000 3.6 220 19:20 12.04.2020
5845 Clouds 23 1011 43 10000 3.6 220 18:59 12.04.2020
5846 Clouds 23 1011 38 10000 2.6 230 18:40 12.04.2020
5847 Clouds 24 1011 38 10000 2.6 230 18:20 12.04.2020
5848 Clouds 23 1012 38 10000 3.1 240 17:56 12.04.2020
5849 Clouds 23 1012 38 10000 3.1 240 17:38 12.04.2020
5850 Clouds 23 1012 35 10000 3.1 220 17:18 12.04.2020
5851 Clouds 23 1012 35 10000 3.1 220 16:56 12.04.2020
5852 Clouds 23 1013 35 10000 3.1 220 16:36 12.04.2020
5853 Clouds 23 1013 35 10000 2.1 190 16:18 12.04.2020
5854 Clouds 23 1013 38 10000 2.1 180 15:41 12.04.2020
5855 Clear 23 1013 40 10000 2.6 200 15:21 12.04.2020
5856 Clear 22 1014 40 10000 2.1 150 14:40 12.04.2020
5857 Clouds 22 1014 40 10000 2.6 130 14:22 12.04.2020
5858 Clouds 22 1014 40 10000 2.6 130 13:58 12.04.2020
5859 Clouds 21 1015 43 10000 2.1 0 13:37 12.04.2020
5860 Clouds 21 1015 49 10000 2.6 0 13:19 12.04.2020
5861 Clouds 20 1015 52 10000 2.1 80 12:47 12.04.2020
5862 Clouds 19 1015 63 10000 2.1 70 12:22 12.04.2020
5863 Clouds 18 1015 63 10000 2.1 70 11:59 12.04.2020
5864 Clouds 17 1015 67 10000 2.6 80 11:38 12.04.2020
5865 Clouds 17 1016 72 10000 1.5 70 11:20 12.04.2020
5866 Clouds 16 1016 72 10000 1.5 70 10:56 12.04.2020
5867 Clouds 15 1016 82 10000 1.5 40 10:38 12.04.2020
5868 Clouds 14 1016 82 10000 1 0 10:20 12.04.2020
5869 Clouds 14 1016 82 10000 1 0 09:58 12.04.2020
5870 Clouds 13 1016 82 10000 1.5 20 09:39 12.04.2020
5871 Clouds 13 1015 87 10000 1.5 20 09:19 12.04.2020
5872 Clouds 12 1015 87 10000 2.1 40 08:50 12.04.2020
5873 Clouds 12 1015 87 10000 2.1 40 08:31 12.04.2020
5874 Clouds 13 1015 93 10000 1 0 07:47 12.04.2020
5875 Clouds 13 1015 93 10000 1 0 07:47 12.04.2020
5876 Clouds 13 1015 93 10000 0.5 0 07:20 12.04.2020
5877 Clouds 13 1015 93 10000 0.5 0 06:59 12.04.2020
5878 Clouds 13 1015 93 10000 2.65 40 06:31 12.04.2020
5879 Clouds 14 1016 87 10000 1 360 05:49 12.04.2020
5880 Clouds 14 1016 87 10000 1.5 270 04:53 12.04.2020
5881 Clouds 15 1017 87 10000 1 0 03:31 12.04.2020
5882 Clouds 15 1017 87 10000 2.1 110 02:49 12.04.2020
5883 Clouds 15 1017 87 10000 2.1 110 02:30 12.04.2020
5884 Clouds 16 1017 77 10000 2.1 230 01:31 12.04.2020
5885 Clouds 17 1017 72 10000 1.5 200 00:56 12.04.2020
5886 Clouds 17 1017 72 10000 2.6 190 00:38 12.04.2020
5887 Clouds 17 1017 72 10000 2.6 190 00:38 12.04.2020
5888 Clouds 17 1017 72 10000 2.6 180 00:19 12.04.2020
5889 Clouds 17 1017 72 10000 2.6 180 23:44 11.04.2020
5890 Clouds 18 1017 72 10000 2.6 180 23:23 11.04.2020
5891 Clouds 18 1016 63 10000 3.1 210 22:40 11.04.2020
5892 Clouds 19 1016 68 10000 4.6 210 22:22 11.04.2020
5893 Clouds 19 1016 68 10000 4.6 210 21:57 11.04.2020
5894 Clouds 19 1015 64 10000 5.7 220 21:37 11.04.2020
5895 Clouds 20 1015 64 10000 6.2 220 21:18 11.04.2020
5896 Clouds 20 1015 64 10000 6.2 220 20:57 11.04.2020
5897 Clouds 20 1015 64 10000 6.2 220 20:57 11.04.2020
5898 Clouds 21 1015 41 10000 2.6 110 20:38 11.04.2020
5899 Clouds 22 1015 38 10000 3.1 70 20:20 11.04.2020
5900 Clouds 23 1015 38 10000 3.1 70 19:58 11.04.2020
5901 Clouds 23 1015 36 10000 2.6 80 19:38 11.04.2020
5902 Clouds 24 1015 36 10000 3.6 100 19:19 11.04.2020
5903 Clouds 24 1015 36 10000 3.6 100 19:19 11.04.2020
5904 Clouds 24 1015 36 10000 3.6 100 18:56 11.04.2020
5905 Clouds 24 1015 36 10000 4.6 80 18:38 11.04.2020
5906 Clouds 24 1015 38 10000 3.1 90 18:19 11.04.2020
5907 Clouds 24 1016 41 10000 3.1 100 17:58 11.04.2020
5908 Clouds 24 1016 41 10000 3.1 100 17:40 11.04.2020
5909 Clouds 24 1016 41 10000 3.1 60 17:20 11.04.2020
5910 Clouds 23 1016 38 10000 3.6 70 16:43 11.04.2020
5911 Clouds 23 1017 36 10000 4.1 80 16:22 11.04.2020
5912 Clouds 23 1017 36 10000 4.1 80 15:59 11.04.2020
5913 Clouds 23 1017 36 10000 4.1 80 15:59 11.04.2020
5914 Clouds 23 1017 36 10000 4.6 70 15:37 11.04.2020
5915 Clouds 23 1017 40 10000 4.6 80 15:18 11.04.2020
5916 Clouds 23 1018 40 10000 4.6 80 14:42 11.04.2020
5917 Clouds 23 1018 40 10000 4.6 90 14:24 11.04.2020
5918 Clouds 22 1018 40 10000 4.6 90 13:59 11.04.2020
5919 Clouds 22 1019 43 10000 4.6 80 13:39 11.04.2020
5920 Clouds 21 1019 46 10000 4.1 80 13:19 11.04.2020
5921 Clouds 20 1019 56 10000 3.6 70 12:42 11.04.2020
5922 Clouds 19 1019 56 10000 3.6 70 12:20 11.04.2020
5923 Clouds 19 1019 56 10000 3.6 70 11:58 11.04.2020
5924 Clouds 18 1019 63 10000 3.1 50 11:39 11.04.2020
5925 Clouds 18 1019 72 10000 2.6 50 11:19 11.04.2020
5926 Clouds 16 1019 82 10000 3.1 50 10:43 11.04.2020
5927 Clouds 16 1019 82 10000 3.1 50 10:23 11.04.2020
5928 Clouds 16 1019 82 10000 2.1 70 10:00 11.04.2020
5929 Clouds 15 1019 87 10000 2.1 80 09:40 11.04.2020
5930 Clouds 13 1019 93 10000 1.5 50 09:21 11.04.2020
5931 Clouds 13 1019 87 10000 1.5 20 08:51 11.04.2020
5932 Clouds 14 1019 87 10000 1.5 20 08:29 11.04.2020
5933 Clouds 13 1019 87 10000 1.5 90 07:56 11.04.2020
5934 Clouds 13 1019 87 10000 1.5 90 07:38 11.04.2020
5935 Clouds 14 1019 87 10000 1 0 07:19 11.04.2020
5936 Clouds 14 1019 87 10000 2.1 90 06:35 11.04.2020
5937 Clouds 14 1019 93 9000 2.1 100 05:56 11.04.2020
5938 Clouds 15 1020 87 10000 2.6 220 03:48 11.04.2020
5939 Clouds 16 1020 88 10000 3.1 210 02:51 11.04.2020
5940 Clouds 16 1020 82 10000 3.6 210 01:26 11.04.2020
5941 Clouds 17 1020 88 10000 3.1 190 00:55 11.04.2020
5942 Clouds 17 1020 77 10000 3.1 170 00:37 11.04.2020
5943 Clouds 18 1020 72 10000 3.6 180 00:18 11.04.2020
5944 Clouds 18 1020 72 10000 3.6 180 00:18 11.04.2020
5945 Clouds 18 1020 77 10000 1.5 140 23:41 10.04.2020
5946 Clouds 18 1020 77 10000 1.5 150 23:19 10.04.2020
5947 Clouds 18 1020 77 10000 1.5 150 22:58 10.04.2020
5948 Rain 19 1019 72 10000 1 0 22:37 10.04.2020
5949 Rain 21 1019 64 10000 1 160 22:19 10.04.2020
5950 Rain 21 1019 64 10000 1.5 100 21:42 10.04.2020
5951 Rain 22 1019 53 10000 0.5 90 21:21 10.04.2020
5952 Rain 22 1019 53 10000 0.5 90 20:59 10.04.2020
5953 Rain 22 1018 56 10000 1.5 110 20:40 10.04.2020
5954 Rain 23 1018 53 10000 1.5 130 20:20 10.04.2020
5955 Rain 23 1018 53 10000 1.5 130 19:56 10.04.2020
5956 Clouds 23 1018 50 10000 0.5 180 19:38 10.04.2020
5957 Clouds 23 1018 50 10000 0.5 180 19:38 10.04.2020
5958 Clouds 23 1019 53 10000 1.5 0 19:19 10.04.2020
5959 Clouds 24 1019 53 10000 0.5 120 18:56 10.04.2020
5960 Clouds 24 1019 53 10000 0.5 120 18:38 10.04.2020
5961 Rain 23 1019 50 10000 1 140 18:20 10.04.2020
5962 Clouds 23 1019 56 10000 2.6 140 17:57 10.04.2020
5963 Clouds 23 1019 56 10000 2.6 140 17:39 10.04.2020
5964 Clouds 23 1019 56 10000 1 80 17:19 10.04.2020
5965 Clouds 22 1020 56 10000 2.1 60 16:46 10.04.2020
5966 Clouds 22 1020 56 10000 2.1 60 16:24 10.04.2020
5967 Clouds 22 1020 56 10000 2.1 60 16:24 10.04.2020
5968 Clouds 21 1020 64 10000 1 0 15:59 10.04.2020
5969 Clouds 21 1020 56 10000 1 80 15:40 10.04.2020
5970 Clouds 21 1020 60 10000 2.6 0 15:21 10.04.2020
5971 Clouds 21 1020 60 10000 2.6 0 14:59 10.04.2020
5972 Clouds 21 1021 64 10000 1 0 14:41 10.04.2020
5973 Clouds 20 1021 64 10000 1 0 14:23 10.04.2020
5974 Clouds 20 1021 64 10000 1 0 13:57 10.04.2020
5975 Clouds 20 1022 64 10000 0.5 210 13:39 10.04.2020
5976 Clouds 20 1022 72 10000 0.5 270 13:20 10.04.2020
5977 Clouds 18 1022 77 10000 0.5 0 12:42 10.04.2020
5978 Clouds 17 1022 82 10000 0.5 0 12:22 10.04.2020
5979 Clouds 17 1022 82 10000 0.5 0 11:55 10.04.2020
5980 Clouds 16 1022 82 10000 1.57 80 11:37 10.04.2020
5981 Clouds 16 1021 82 10000 0.5 130 11:18 10.04.2020
5982 Clouds 15 1021 87 10000 1.5 110 10:43 10.04.2020
5983 Clouds 15 1021 87 10000 1.5 110 10:23 10.04.2020
5984 Clouds 15 1021 87 10000 1.5 110 09:56 10.04.2020
5985 Clouds 15 1021 93 10000 1 0 09:38 10.04.2020
5986 Clouds 15 1021 93 10000 1 90 09:18 10.04.2020
5987 Clouds 15 1021 93 10000 1.5 80 08:42 10.04.2020
5988 Clouds 15 1020 93 10000 1 0 08:21 10.04.2020
5989 Clouds 15 1020 93 9000 1.5 100 07:45 10.04.2020
5990 Clouds 15 1020 100 10000 1.5 60 07:24 10.04.2020
5991 Clouds 15 1020 93 10000 1.5 40 06:49 10.04.2020
5992 Clouds 15 1020 93 10000 1.5 40 06:28 10.04.2020
5993 Clouds 14 1020 93 8000 1.5 260 05:40 10.04.2020
5994 Clouds 15 1020 93 7000 1.09 43 04:58 10.04.2020
5995 Clouds 15 1020 87 10000 1.09 43 03:50 10.04.2020
5996 Clouds 15 1020 87 10000 1.09 43 03:31 10.04.2020
5997 Clouds 15 1021 87 10000 1.5 140 02:49 10.04.2020
5998 Clouds 15 1021 87 10000 1.5 140 02:30 10.04.2020
5999 Clouds 15 1021 87 10000 1 150 01:30 10.04.2020
6000 Clouds 15 1021 87 10000 1.5 130 00:50 10.04.2020
6001 Clouds 16 1021 82 10000 1.79 52 00:24 10.04.2020
6002 Clouds 16 1021 82 10000 1.79 52 23:56 09.04.2020
6003 Clouds 16 1021 82 10000 1.79 52 23:38 09.04.2020
6004 Clouds 16 1020 77 10000 1.79 52 23:19 09.04.2020
6005 Clouds 17 1020 77 10000 1 170 22:41 09.04.2020
6006 Clouds 17 1020 77 10000 1 170 22:41 09.04.2020
6007 Clouds 17 1020 77 10000 1 170 22:23 09.04.2020
6008 Clouds 17 1019 68 10000 1.79 52 21:55 09.04.2020
6009 Clouds 17 1019 68 10000 1 230 21:37 09.04.2020
6010 Rain 17 1019 63 10000 1.5 210 21:18 09.04.2020
6011 Rain 18 1019 63 10000 2.6 220 20:41 09.04.2020
6012 Rain 18 1019 63 10000 3.1 220 20:21 09.04.2020
6013 Rain 18 1019 63 10000 3.1 220 19:58 09.04.2020
6014 Rain 18 1019 63 10000 4.1 220 19:37 09.04.2020
6015 Rain 18 1019 56 10000 5.1 230 19:18 09.04.2020
6016 Rain 18 1018 60 10000 1.5 220 18:41 09.04.2020
6017 Rain 19 1019 60 10000 2.6 220 18:20 09.04.2020
6018 Rain 20 1019 60 10000 3.1 200 17:41 09.04.2020
6019 Rain 19 1019 64 10000 2.6 200 17:23 09.04.2020
6020 Rain 19 1019 64 10000 2.6 200 16:56 09.04.2020
6021 Rain 20 1019 60 10000 3.1 210 16:38 09.04.2020
6022 Rain 20 1019 60 10000 3.1 210 16:38 09.04.2020
6023 Rain 20 1019 64 10000 2.6 230 16:18 09.04.2020
6024 Rain 20 1019 64 10000 2.6 230 15:55 09.04.2020
6025 Rain 20 1019 64 10000 2.6 250 15:36 09.04.2020
6026 Clouds 20 1019 68 10000 3.1 270 15:18 09.04.2020
6027 Clouds 20 1019 68 10000 3.1 270 15:18 09.04.2020
6028 Clouds 20 1019 68 10000 2.6 280 14:40 09.04.2020
6029 Clouds 19 1019 68 10000 2.6 280 14:21 09.04.2020
6030 Clouds 19 1019 68 10000 2.6 280 13:54 09.04.2020
6031 Clouds 19 1020 68 10000 2.6 270 13:36 09.04.2020
6032 Clouds 19 1020 72 10000 2.1 310 13:18 09.04.2020
6033 Clouds 19 1020 77 10000 1 270 12:42 09.04.2020
6034 Clouds 19 1019 77 10000 1.5 270 12:21 09.04.2020
6035 Clouds 18 1019 77 10000 1.5 270 11:58 09.04.2020
6036 Clouds 18 1019 72 10000 1.25 65 11:38 09.04.2020
6037 Clouds 18 1019 72 10000 1.25 65 11:20 09.04.2020
6038 Clouds 17 1019 72 10000 1.25 65 10:57 09.04.2020
6039 Clouds 17 1019 77 10000 0.5 0 10:38 09.04.2020
6040 Clouds 17 1018 82 10000 1 0 10:19 09.04.2020
6041 Clouds 17 1018 82 10000 1 0 10:19 09.04.2020
6042 Clouds 16 1018 82 10000 1 0 09:55 09.04.2020
6043 Clouds 16 1018 77 10000 1.25 65 09:37 09.04.2020
6044 Clouds 16 1018 82 10000 0.5 0 09:19 09.04.2020
6045 Clouds 15 1017 87 10000 0.5 150 08:43 09.04.2020
6046 Clouds 15 1017 87 10000 0.5 130 08:23 09.04.2020
6047 Clouds 15 1017 87 10000 0.5 130 07:52 09.04.2020
6048 Clouds 16 1017 82 10000 2.08 66 07:24 09.04.2020
6049 Clouds 16 1017 77 10000 2.08 66 06:51 09.04.2020
6050 Clouds 16 1018 77 10000 2.1 220 05:59 09.04.2020
6051 Clouds 16 1018 77 10000 1 170 05:38 09.04.2020
6052 Clouds 16 1019 72 10000 2.1 230 03:36 09.04.2020
6053 Clouds 17 1020 77 10000 2.6 190 02:21 09.04.2020
6054 Clouds 17 1020 77 10000 2.6 190 01:40 09.04.2020
6055 Clouds 17 1019 82 10000 3.1 220 01:20 09.04.2020
6056 Clouds 18 1019 77 10000 3.1 200 00:40 09.04.2020
6057 Clouds 18 1019 72 10000 1.5 190 00:19 09.04.2020
6058 Clouds 19 1019 72 10000 1.5 190 23:57 08.04.2020
6059 Clouds 19 1019 68 10000 1.5 250 23:39 08.04.2020
6060 Clouds 20 1019 60 10000 1.5 340 23:20 08.04.2020
6061 Clouds 21 1018 56 10000 2.1 290 22:42 08.04.2020
6062 Clouds 21 1018 60 10000 2.1 300 22:24 08.04.2020
6063 Clouds 21 1018 56 10000 2.6 310 21:56 08.04.2020
6064 Clouds 21 1018 56 10000 2.6 310 21:37 08.04.2020
6065 Clouds 22 1018 53 10000 3.1 330 21:19 08.04.2020
6066 Clouds 22 1018 53 10000 3.6 310 20:56 08.04.2020
6067 Clouds 22 1018 53 10000 3.6 310 20:38 08.04.2020
6068 Clouds 22 1018 53 10000 3.1 300 20:19 08.04.2020
6069 Clouds 22 1018 53 10000 3.1 300 20:19 08.04.2020
6070 Clouds 23 1018 50 10000 2.1 320 19:42 08.04.2020
6071 Clouds 23 1018 50 10000 2.1 320 19:22 08.04.2020
6072 Clouds 23 1018 47 10000 1.5 330 18:58 08.04.2020
6073 Clouds 23 1018 47 10000 1.5 330 18:40 08.04.2020
6074 Clouds 23 1017 56 0 1.34 261 18:20 08.04.2020
6075 Clouds 23 1019 47 10000 2.1 300 17:43 08.04.2020
6076 Clouds 23 1019 47 10000 2.1 300 17:22 08.04.2020
6077 Clouds 24 1019 47 10000 0.5 310 16:59 08.04.2020
6078 Clouds 24 1019 47 10000 0.5 310 16:41 08.04.2020
6079 Clouds 23 1020 56 10000 2.1 300 16:22 08.04.2020
6080 Clouds 23 1020 56 10000 2.1 300 15:40 08.04.2020
6081 Clouds 23 1020 56 10000 2.1 300 15:21 08.04.2020
6082 Clouds 22 1020 64 10000 1.5 290 14:59 08.04.2020
6083 Clouds 22 1020 64 10000 1.5 290 14:41 08.04.2020
6084 Clouds 21 1021 72 10000 1.5 60 14:23 08.04.2020
6085 Clouds 21 1021 56 10000 2.6 110 13:45 08.04.2020
6086 Clouds 20 1021 72 10000 2.1 30 13:22 08.04.2020
6087 Clouds 20 1021 72 10000 2.1 30 12:59 08.04.2020
6088 Clouds 19 1021 72 10000 2.1 30 12:41 08.04.2020
6089 Clouds 18 1021 77 10000 1 0 12:18 08.04.2020
6090 Clouds 18 1021 77 10000 1 0 11:54 08.04.2020
6091 Clouds 18 1021 77 10000 1 0 11:36 08.04.2020
6092 Clouds 17 1021 87 9000 2.1 50 11:18 08.04.2020
6093 Clouds 16 1021 87 9000 2.1 50 10:54 08.04.2020
6094 Clouds 16 1021 87 9000 2.1 50 10:36 08.04.2020
6095 Clouds 15 1021 100 7000 1 40 10:18 08.04.2020
6096 Clouds 14 1021 100 7000 1 40 09:42 08.04.2020
6097 Mist 14 1021 93 4000 1.5 360 09:20 08.04.2020
6098 Mist 14 1021 93 4000 1.5 360 08:58 08.04.2020
6099 Mist 14 1021 93 4000 1.5 360 08:58 08.04.2020
6100 Mist 14 1021 93 4000 1.5 360 08:40 08.04.2020
6101 Clouds 14 1021 100 8000 1.5 350 08:21 08.04.2020
6102 Clouds 14 1021 100 8000 1.5 350 07:43 08.04.2020
6103 Mist 14 1021 100 4900 0.5 0 07:22 08.04.2020
6104 Clouds 14 1021 100 7000 0.5 0 06:41 08.04.2020
6105 Clouds 14 1022 93 8000 1 180 05:49 08.04.2020
6106 Clear 15 1022 93 10000 2.1 190 03:22 08.04.2020
6107 Clear 15 1022 93 10000 2.6 200 02:38 08.04.2020
6108 Clear 15 1023 93 10000 2.6 210 02:18 08.04.2020
6109 Clear 16 1022 88 10000 1 0 01:30 08.04.2020
6110 Clear 16 1022 82 10000 1 0 00:52 08.04.2020
6111 Clear 17 1022 82 10000 1 0 00:33 08.04.2020
6112 Clouds 17 1022 88 10000 1 260 23:58 07.04.2020
6113 Clouds 18 1022 82 10000 2.6 280 23:38 07.04.2020
6114 Clouds 18 1022 82 10000 3.6 290 23:20 07.04.2020
6115 Clouds 19 1022 82 10000 3.6 290 22:56 07.04.2020
6116 Clouds 19 1022 77 10000 3.6 300 22:38 07.04.2020
6117 Clouds 19 1021 68 10000 1 320 22:19 07.04.2020
6118 Clouds 19 1021 68 10000 1 320 21:55 07.04.2020
6119 Clouds 20 1021 68 10000 1 320 21:37 07.04.2020
6120 Clouds 21 1021 60 10000 2.6 320 21:18 07.04.2020
6121 Clouds 21 1021 60 10000 3.1 300 20:55 07.04.2020
6122 Clouds 21 1021 60 10000 3.1 300 20:55 07.04.2020
6123 Clouds 21 1021 60 10000 3.1 300 20:36 07.04.2020
6124 Clouds 22 1021 56 10000 3.6 290 20:18 07.04.2020
6125 Clouds 22 1021 56 10000 3.1 290 19:55 07.04.2020
6126 Clouds 22 1021 56 10000 3.1 290 19:36 07.04.2020
6127 Clouds 22 1021 53 10000 1.5 260 19:18 07.04.2020
6128 Clouds 23 1021 53 10000 2.1 250 18:41 07.04.2020
6129 Clouds 23 1021 53 10000 2.1 270 18:21 07.04.2020
6130 Clouds 23 1021 53 10000 1.5 240 17:57 07.04.2020
6131 Clouds 23 1021 53 10000 1.5 240 17:38 07.04.2020
6132 Clouds 23 1021 53 10000 1.5 270 17:20 07.04.2020
6133 Clouds 23 1021 53 10000 1.5 270 16:45 07.04.2020
6134 Clouds 23 1022 60 10000 2.1 280 16:26 07.04.2020
6135 Clouds 22 1022 60 10000 2.1 280 15:46 07.04.2020
6136 Clouds 22 1023 64 10000 1.5 270 15:27 07.04.2020
6137 Clouds 21 1023 64 10000 1.5 270 14:57 07.04.2020
6138 Clouds 21 1023 64 10000 1.5 270 14:38 07.04.2020
6139 Clouds 21 1023 68 10000 0.5 0 14:20 07.04.2020
6140 Clouds 21 1023 68 10000 0.5 0 13:43 07.04.2020
6141 Clouds 20 1023 77 10000 1 0 13:20 07.04.2020
6142 Clouds 20 1023 77 10000 1 0 12:59 07.04.2020
6143 Clouds 19 1023 77 10000 1 0 12:40 07.04.2020
6144 Clouds 19 1023 82 8000 1 0 12:21 07.04.2020
6145 Clouds 19 1023 82 8000 1 0 11:59 07.04.2020
6146 Clouds 19 1023 82 8000 1 0 11:59 07.04.2020
6147 Clouds 18 1023 82 8000 1 0 11:41 07.04.2020
6148 Clouds 18 1023 82 10000 0.5 0 11:21 07.04.2020
6149 Clouds 17 1023 82 10000 0.5 0 10:56 07.04.2020
6150 Clouds 17 1023 88 10000 2.29 43 10:37 07.04.2020
6151 Clouds 15 1022 100 8000 1.5 210 10:18 07.04.2020
6152 Clouds 15 1022 100 8000 1.5 210 09:44 07.04.2020
6153 Clouds 14 1022 93 7000 0.5 0 09:18 07.04.2020
6154 Clouds 14 1022 93 7000 0.5 0 08:42 07.04.2020
6155 Clouds 14 1022 93 7000 0.5 0 08:24 07.04.2020
6156 Clouds 14 1022 93 7000 0.5 330 07:58 07.04.2020
6157 Clouds 14 1022 93 7000 0.5 330 07:40 07.04.2020
6158 Clouds 14 1022 93 9000 1 140 07:21 07.04.2020
6159 Clouds 14 1022 93 10000 1.5 160 06:48 07.04.2020
6160 Clouds 14 1022 87 10000 2.1 160 06:20 07.04.2020
6161 Clouds 15 1022 93 10000 1.5 170 05:32 07.04.2020
6162 Clouds 15 1022 88 10000 1.5 200 04:40 07.04.2020
6163 Clouds 15 1022 93 10000 1.5 200 03:25 07.04.2020
6164 Clouds 15 1022 93 10000 1 0 02:48 07.04.2020
6165 Clouds 16 1022 93 10000 2.1 230 01:48 07.04.2020
6166 Clouds 16 1022 93 10000 1 0 01:24 07.04.2020
6167 Clouds 16 1022 88 10000 1.5 180 00:28 07.04.2020
6168 Clouds 16 1022 88 10000 3.1 240 23:55 06.04.2020
6169 Clouds 17 1022 88 10000 3.1 240 23:36 06.04.2020
6170 Clouds 17 1022 88 10000 2.6 230 23:18 06.04.2020
6171 Clouds 17 1022 88 10000 2.1 250 22:39 06.04.2020
6172 Clouds 17 1021 82 10000 3.1 250 22:21 06.04.2020
6173 Clouds 18 1021 88 10000 1.5 330 21:57 06.04.2020
6174 Clouds 18 1021 88 10000 1.5 350 21:38 06.04.2020
6175 Clouds 19 1020 82 10000 1.5 10 21:19 06.04.2020
6176 Clouds 19 1020 82 10000 1.5 10 20:55 06.04.2020
6177 Clouds 19 1020 82 10000 2.1 10 20:37 06.04.2020
6178 Clouds 20 1021 82 10000 1 0 20:18 06.04.2020
6179 Clouds 20 1020 82 10000 2.1 50 19:41 06.04.2020
6180 Clouds 20 1020 88 10000 3.1 40 19:23 06.04.2020
6181 Clouds 20 1020 88 10000 2.6 50 18:58 06.04.2020
6182 Clouds 20 1020 88 10000 2.6 50 18:39 06.04.2020
6183 Clouds 20 1021 82 10000 1.5 50 18:21 06.04.2020
6184 Clouds 20 1021 88 10000 2.6 40 17:42 06.04.2020
6185 Clouds 20 1021 72 10000 3.6 220 17:20 06.04.2020
6186 Clouds 19 1022 88 10000 0.5 0 16:50 06.04.2020
6187 Clouds 19 1022 82 10000 1.5 200 16:32 06.04.2020
6188 Clouds 18 1022 82 10000 1.5 200 16:00 06.04.2020
6189 Clouds 18 1022 82 10000 1.5 200 16:00 06.04.2020
6190 Drizzle 16 1022 87 6000 1.5 120 14:38 06.04.2020
6191 Drizzle 17 1022 87 6000 1.5 120 14:38 06.04.2020
6192 Drizzle 17 1022 87 6000 1.5 120 14:38 06.04.2020
6193 Drizzle 17 1022 87 6000 1.5 120 14:38 06.04.2020
6194 Drizzle 16 1022 87 6000 1.5 120 14:34 06.04.2020
6195 Rain 16 1022 93 3000 0.5 0 13:43 06.04.2020
6196 Rain 16 1022 93 3000 0.5 0 13:43 06.04.2020
6197 Drizzle 15 1022 93 3000 1.5 50 13:20 06.04.2020
6198 Drizzle 15 1022 93 3000 1.5 50 13:20 06.04.2020
6199 Drizzle 15 1022 93 3000 1.5 50 13:20 06.04.2020
6200 Drizzle 15 1022 93 3000 1.5 50 12:25 06.04.2020
6201 Drizzle 15 1022 93 3000 1.5 50 12:25 06.04.2020
6202 Drizzle 15 1022 93 3000 1.5 50 12:25 06.04.2020
6203 Drizzle 15 1022 93 3000 1.5 50 12:25 06.04.2020
6204 Rain 15 1021 93 10000 2.1 60 11:55 06.04.2020
6205 Rain 15 1021 93 10000 2.1 60 11:55 06.04.2020
6206 Clouds 15 1021 93 10000 2.1 60 11:33 06.04.2020
6207 Clouds 15 1021 93 10000 2.1 60 11:33 06.04.2020
6208 Clouds 15 1021 93 10000 2.1 60 11:33 06.04.2020
6209 Clouds 15 1021 93 10000 2.1 60 11:33 06.04.2020
6210 Clouds 15 1021 93 10000 2.1 60 11:33 06.04.2020
6211 Drizzle 14 1021 93 7000 2.6 50 10:52 06.04.2020
6212 Drizzle 14 1021 93 7000 2.6 50 10:52 06.04.2020
6213 Drizzle 14 1021 93 7000 2.6 50 10:52 06.04.2020
6214 Drizzle 14 1021 93 7000 2.6 50 10:52 06.04.2020
6215 Drizzle 14 1021 93 7000 2.6 50 10:52 06.04.2020
6216 Drizzle 14 1021 93 7000 2.6 50 10:22 06.04.2020
6217 Rain 14 1020 93 10000 2.6 50 09:50 06.04.2020
6218 Rain 14 1020 93 10000 2.6 50 09:23 06.04.2020
6219 Rain 14 1019 93 10000 2.6 40 08:55 06.04.2020
6220 Clouds 14 1019 93 10000 2.6 40 08:33 06.04.2020
6221 Drizzle 14 1019 93 5000 2.6 10 07:51 06.04.2020
6222 Rain 14 1018 100 10000 1.5 40 06:57 06.04.2020
6223 Rain 14 1018 100 6000 1 70 06:25 06.04.2020
6224 Rain 14 1018 77 10000 2.1 190 04:32 06.04.2020
6225 Clouds 15 1019 82 10000 0.5 0 03:27 06.04.2020
6226 Rain 15 1019 82 10000 1 0 02:48 06.04.2020
6227 Rain 15 1019 82 10000 1.5 200 01:49 06.04.2020
6228 Rain 16 1019 77 10000 1.5 190 00:46 06.04.2020
6229 Rain 16 1019 77 10000 0.5 210 00:25 06.04.2020
6230 Clouds 16 1018 77 10000 2.6 200 23:47 05.04.2020
6231 Clouds 16 1018 77 10000 2.6 220 23:29 05.04.2020
6232 Clouds 16 1018 77 10000 2.6 220 23:29 05.04.2020
6233 Clouds 16 1018 77 10000 2.6 220 23:29 05.04.2020
6234 Clouds 17 1018 77 10000 2.1 200 22:56 05.04.2020
6235 Clouds 17 1018 68 10000 4.6 220 22:38 05.04.2020
6236 Clouds 18 1018 68 10000 4.6 220 22:19 05.04.2020
6237 Clouds 18 1017 72 10000 3.6 190 21:57 05.04.2020
6238 Clouds 18 1017 64 10000 5.1 220 21:39 05.04.2020
6239 Clouds 19 1017 64 10000 5.1 220 21:21 05.04.2020
6240 Clouds 19 1017 64 10000 5.1 220 21:21 05.04.2020
6241 Clouds 19 1017 64 10000 5.1 220 21:21 05.04.2020
6242 Clouds 19 1017 64 10000 5.1 220 21:21 05.04.2020
6243 Clouds 19 1017 64 10000 5.1 220 21:21 05.04.2020
6244 Clouds 19 1017 63 10000 4.1 210 20:20 05.04.2020
6245 Clouds 19 1017 63 10000 4.1 210 20:20 05.04.2020
6246 Rain 20 1016 60 10000 7.2 230 19:41 05.04.2020
6247 Rain 20 1016 60 10000 7.2 230 19:22 05.04.2020
6248 Clouds 21 1016 60 10000 4.6 200 18:46 05.04.2020
6249 Clouds 21 1016 60 10000 4.6 200 18:46 05.04.2020
6250 Clouds 21 1016 60 10000 4.6 200 18:46 05.04.2020
6251 Clouds 21 1016 56 10000 6.7 220 17:58 05.04.2020
6252 Rain 22 1016 53 10000 6.2 220 17:39 05.04.2020
6253 Rain 22 1016 53 10000 6.2 220 17:20 05.04.2020
6254 Rain 22 1016 49 10000 5.7 220 16:45 05.04.2020
6255 Rain 22 1016 49 10000 5.7 220 16:45 05.04.2020
6256 Rain 22 1016 49 10000 5.7 220 16:45 05.04.2020
6257 Rain 22 1016 49 10000 5.7 220 16:45 05.04.2020
6258 Rain 22 1016 49 10000 5.7 220 16:45 05.04.2020
6259 Clouds 22 1016 53 10000 5.7 220 16:18 05.04.2020
6260 Clouds 22 1017 46 10000 4.6 240 15:44 05.04.2020
6261 Clouds 22 1017 53 10000 5.7 230 15:25 05.04.2020
6262 Clouds 22 1017 53 10000 5.7 230 15:25 05.04.2020
6263 Clouds 22 1017 53 10000 5.7 230 15:25 05.04.2020
6264 Clouds 21 1017 49 10000 3.6 220 14:47 05.04.2020
6265 Clouds 22 1017 46 10000 3.6 210 14:47 05.04.2020
6266 Clouds 21 1017 49 10000 3.6 220 14:47 05.04.2020
6267 Clouds 21 1017 49 10000 3.6 220 14:47 05.04.2020
6268 Clouds 21 1017 52 10000 3.1 170 13:45 05.04.2020
6269 Clouds 19 1018 59 10000 3.29 188 12:56 05.04.2020
6270 Clouds 17 1018 67 10000 1 0 11:58 05.04.2020
6271 Clouds 17 1018 67 10000 1 0 11:58 05.04.2020
6272 Clouds 17 1018 67 10000 1 0 11:58 05.04.2020
6273 Clouds 17 1018 67 10000 1 0 11:58 05.04.2020
6274 Clouds 16 1018 67 10000 2.6 50 11:38 05.04.2020
6275 Clouds 16 1018 67 10000 2.6 50 11:19 05.04.2020
6276 Clouds 15 1017 82 10000 3.1 40 10:44 05.04.2020
6277 Clouds 15 1017 82 10000 3.1 40 10:44 05.04.2020
6278 Clouds 15 1017 77 10000 3.1 50 10:44 05.04.2020
6279 Clouds 15 1017 77 10000 3.1 50 10:44 05.04.2020
6280 Clouds 14 1017 82 10000 3.1 40 10:19 05.04.2020
6281 -273 0 0 0 0 0 09:52 05.04.2020
6282 Clouds 13 1017 82 10000 3.1 60 09:52 05.04.2020
6283 Clouds 13 1017 82 10000 3.1 60 09:52 05.04.2020
6284 Clouds 13 1017 82 10000 3.1 60 09:52 05.04.2020
6285 Clouds 13 1017 82 10000 3.1 60 09:52 05.04.2020
6286 Clouds 13 1017 87 10000 3.6 60 09:25 05.04.2020
6287 Clouds 13 1017 87 10000 3.6 60 09:25 05.04.2020
6288 Clouds 13 1017 87 10000 3.6 60 09:25 05.04.2020
6289 Clouds 13 1017 87 10000 3.6 60 09:25 05.04.2020
6290 Clouds 13 1017 87 10000 3.6 60 09:25 05.04.2020
6291 Clouds 11 1015 93 10000 2.6 50 07:58 05.04.2020
6292 Clouds 11 1015 93 10000 2.6 50 07:58 05.04.2020
6293 Clouds 12 1015 87 10000 2.6 330 04:56 05.04.2020
6294 Clouds 12 1015 87 10000 1.5 360 03:35 05.04.2020
6295 Clouds 12 1015 87 10000 1.5 360 03:35 05.04.2020
6296 Clouds 12 1015 87 10000 1.5 360 03:35 05.04.2020
6297 Clouds 13 1015 87 10000 2.1 350 02:53 05.04.2020
6298 Clouds 13 1015 93 10000 1 0 01:51 05.04.2020
6299 Clouds 13 1015 87 10000 1.73 48 01:32 05.04.2020
6300 Clouds 13 1015 87 10000 1.5 30 00:48 05.04.2020
6301 Clouds 14 1015 87 10000 1 0 00:22 05.04.2020
6302 Clouds 14 1015 72 10000 1.5 290 23:58 04.04.2020
6303 Clouds 14 1015 72 10000 2.1 290 23:38 04.04.2020
6304 Clouds 16 1015 72 10000 2.1 290 23:20 04.04.2020
6305 Clouds 16 1015 67 10000 2.1 280 22:56 04.04.2020
6306 Clouds 16 1014 67 10000 2.6 240 22:38 04.04.2020
6307 Clouds 17 1014 67 10000 2.6 240 22:19 04.04.2020
6308 Clouds 17 1014 67 10000 1.5 200 21:55 04.04.2020
6309 Clouds 17 1013 68 10000 1.5 230 21:37 04.04.2020
6310 Clouds 18 1013 68 10000 1.5 230 21:18 04.04.2020
6311 Clouds 18 1013 63 10000 3.1 20 20:43 04.04.2020
6312 Clouds 19 1013 56 10000 3.6 30 20:23 04.04.2020
6313 Clouds 20 1013 52 10000 1.5 280 19:59 04.04.2020
6314 Clouds 20 1013 52 10000 1.5 280 19:59 04.04.2020
6315 Clouds 20 1013 46 10000 2.1 180 19:39 04.04.2020
6316 Clouds 20 1012 52 10000 2.1 50 19:20 04.04.2020
6317 Clouds 20 1012 52 10000 2.1 50 18:59 04.04.2020
6318 Clouds 20 1012 49 10000 1.5 70 18:39 04.04.2020
6319 Clouds 20 1012 49 10000 1.5 70 18:39 04.04.2020
6320 Clouds 20 1012 49 10000 1.5 70 18:20 04.04.2020
6321 Clouds 20 1012 49 10000 3.1 70 17:58 04.04.2020
6322 Clouds 20 1012 49 10000 3.6 60 17:38 04.04.2020
6323 Clouds 19 1012 49 10000 3.6 60 17:19 04.04.2020
6324 Clouds 19 1012 55 10000 3.1 70 16:45 04.04.2020
6325 Clouds 19 1012 48 10000 2.6 50 16:27 04.04.2020
6326 Clouds 19 1013 45 10000 2.1 70 15:59 04.04.2020
6327 Clouds 19 1013 45 10000 2.1 70 15:59 04.04.2020
6328 Clouds 19 1012 48 10000 2.6 80 15:39 04.04.2020
6329 Clouds 18 1012 48 10000 2.6 80 15:19 04.04.2020
6330 Clouds 18 1013 42 10000 1 0 14:55 04.04.2020
6331 Clouds 19 1013 42 10000 1 0 14:37 04.04.2020
6332 Clouds 19 1013 37 10000 1 0 14:18 04.04.2020
6333 Clouds 19 1013 40 10000 1.5 180 13:42 04.04.2020
6334 Clouds 19 1013 40 10000 1.5 180 13:22 04.04.2020
6335 Clouds 19 1013 42 10000 2.6 150 12:58 04.04.2020
6336 Clouds 18 1013 55 10000 3.1 90 12:40 04.04.2020
6337 Clouds 17 1013 55 10000 3.1 90 12:21 04.04.2020
6338 Clouds 16 1013 63 10000 4.1 70 11:42 04.04.2020
6339 Clouds 16 1013 63 10000 4.1 70 11:23 04.04.2020
6340 Clouds 14 1012 67 10000 4.1 70 10:59 04.04.2020
6341 Clouds 14 1012 62 10000 3.6 70 10:41 04.04.2020
6342 Clouds 14 1012 62 10000 3.6 70 10:23 04.04.2020
6343 Clouds 13 1012 67 10000 4.6 80 09:57 04.04.2020
6344 Clouds 12 1012 76 10000 4.1 50 09:39 04.04.2020
6345 Clouds 12 1012 76 10000 4.1 50 09:21 04.04.2020
6346 Clouds 11 1012 81 10000 5.1 50 08:45 04.04.2020
6347 Clouds 11 1012 81 10000 4.1 60 08:25 04.04.2020
6348 Clouds 11 1011 76 10000 4.6 70 07:59 04.04.2020
6349 Clouds 11 1011 67 10000 6.2 80 07:40 04.04.2020
6350 Clouds 12 1011 67 10000 6.2 80 07:21 04.04.2020
6351 Clouds 12 1012 67 10000 5.7 80 06:40 04.04.2020
6352 Clouds 12 1012 76 10000 4.1 80 05:52 04.04.2020
6353 Clouds 11 1012 71 10000 4.6 70 05:33 04.04.2020
6354 Clouds 12 1013 76 10000 3.6 80 04:40 04.04.2020
6355 Clouds 12 1013 76 10000 3.6 80 04:20 04.04.2020
6356 Clouds 12 1013 76 10000 3.6 80 03:45 04.04.2020
6357 Clear 13 1013 76 10000 4.6 100 02:49 04.04.2020
6358 Clear 13 1013 71 10000 3.6 100 02:30 04.04.2020
6359 Clear 13 1014 71 10000 2.6 110 01:48 04.04.2020
6360 Clear 13 1014 71 10000 3.1 100 01:21 04.04.2020
6361 Clear 14 1014 72 10000 2.6 110 00:45 04.04.2020
6362 Clear 14 1014 72 10000 2.6 110 00:26 04.04.2020
6363 Clear 15 1014 72 10000 2.1 140 23:38 03.04.2020
6364 Clear 15 1014 72 10000 2.1 140 23:19 03.04.2020
6365 Clear 16 1014 67 10000 3.1 130 22:55 03.04.2020
6366 Clear 16 1013 63 10000 4.1 120 22:36 03.04.2020
6367 Clear 16 1013 63 10000 4.1 120 22:18 03.04.2020
6368 Clear 18 1013 56 10000 3.1 70 21:42 03.04.2020
6369 Clear 20 1013 49 10000 3.1 70 21:22 03.04.2020
6370 Clear 20 1013 49 10000 3.1 70 20:56 03.04.2020
6371 Clear 20 1013 49 10000 3.6 80 20:36 03.04.2020
6372 Clear 21 1013 49 10000 3.6 80 20:18 03.04.2020
6373 Clear 21 1013 43 10000 4.1 70 19:56 03.04.2020
6374 Clear 22 1013 40 10000 4.1 80 19:37 03.04.2020
6375 Clear 22 1013 40 10000 4.1 80 19:19 03.04.2020
6376 Clear 22 1013 43 10000 3.6 90 18:58 03.04.2020
6377 Clear 22 1013 46 10000 4.1 80 18:40 03.04.2020
6378 Clear 22 1013 46 10000 2.6 80 18:22 03.04.2020
6379 Clear 21 1014 46 10000 2.6 110 17:43 03.04.2020
6380 Clear 21 1014 46 10000 2.6 110 17:21 03.04.2020
6381 Clear 21 1014 46 10000 2.6 110 17:21 03.04.2020
6382 Clear 21 1014 46 10000 3.1 80 16:58 03.04.2020
6383 Clouds 21 1014 49 10000 3.1 50 16:40 03.04.2020
6384 Clear 21 1015 56 10000 3.1 40 16:21 03.04.2020
6385 Clear 21 1015 56 10000 3.1 40 15:57 03.04.2020
6386 Clear 20 1015 56 10000 3.1 40 15:38 03.04.2020
6387 Clear 20 1015 56 10000 3.1 40 15:19 03.04.2020
6388 Clear 20 1015 56 10000 3.1 40 15:19 03.04.2020
6389 Clear 19 1015 57 0 1.79 111 14:41 03.04.2020
6390 Clear 19 1016 72 10000 2.6 50 14:22 03.04.2020
6391 Clear 18 1016 72 10000 2.6 50 13:59 03.04.2020
6392 Clear 18 1016 72 10000 2.6 50 13:40 03.04.2020
6393 Clear 18 1016 72 10000 2.6 50 13:22 03.04.2020
6394 Clear 16 1017 77 10000 3.1 40 12:43 03.04.2020
6395 Clear 16 1017 77 10000 3.1 40 12:20 03.04.2020
6396 Clear 15 1017 87 10000 2.6 0 11:57 03.04.2020
6397 Clear 14 1017 87 10000 1 0 11:38 03.04.2020
6398 Clear 14 1017 87 10000 1 0 11:38 03.04.2020
6399 Clear 14 1017 87 10000 2.6 0 11:20 03.04.2020
6400 Clear 13 1016 87 10000 1.5 30 10:59 03.04.2020
6401 Clear 12 1016 87 10000 1.5 30 10:38 03.04.2020
6402 Clear 11 1016 87 10000 1.5 30 10:20 03.04.2020
6403 Clear 10 1016 93 10000 2.1 20 09:59 03.04.2020
6404 Clear 10 1016 93 10000 2.1 20 09:40 03.04.2020
6405 Clear 9 1016 93 10000 2.1 20 09:21 03.04.2020
6406 Clear 9 1015 100 10000 1.5 330 08:55 03.04.2020
6407 Clear 9 1015 100 10000 1.5 330 08:37 03.04.2020
6408 Clear 9 1015 100 10000 1.5 330 08:37 03.04.2020
6409 Rain 9 1015 100 10000 1.5 330 08:18 03.04.2020
6410 Rain 8 1015 100 9000 2.1 30 07:46 03.04.2020
6411 Clear 8 1015 100 9000 2.1 30 07:27 03.04.2020
6412 Clear 9 1015 93 9000 0.5 0 06:40 03.04.2020
6413 Clear 9 1015 93 9000 0.5 0 06:22 03.04.2020
6414 Clear 10 1015 93 10000 1.5 190 05:39 03.04.2020
6415 Clear 11 1016 93 10000 0.5 0 03:42 03.04.2020
6416 Clear 11 1016 93 10000 1 0 02:55 03.04.2020
6417 Clear 11 1016 93 10000 1.5 210 02:18 03.04.2020
6418 Clear 12 1016 87 10000 1 0 01:20 03.04.2020
6419 Clear 12 1016 87 10000 1 0 01:20 03.04.2020
6420 Clear 12 1016 87 10000 3.1 190 00:34 03.04.2020
6421 Clear 13 1015 82 10000 3.1 180 23:58 02.04.2020
6422 Clear 13 1015 82 10000 2.6 180 23:39 02.04.2020
6423 Clear 13 1015 82 10000 2.6 180 23:39 02.04.2020
6424 Clear 13 1015 82 10000 2.6 180 23:21 02.04.2020
6425 Clear 14 1015 76 10000 2.6 180 22:57 02.04.2020
6426 Clear 14 1015 76 10000 2.6 180 22:37 02.04.2020
6427 Clear 14 1015 76 10000 2.6 180 22:18 02.04.2020
6428 Clear 15 1014 63 10000 1.5 200 21:38 02.04.2020
6429 Clouds 15 1014 63 10000 1.5 200 21:19 02.04.2020
6430 Clouds 15 1014 63 10000 1.5 200 21:19 02.04.2020
6431 Clouds 16 1014 59 10000 1.5 210 20:57 02.04.2020
6432 Clouds 16 1013 59 10000 1.5 200 20:39 02.04.2020
6433 Clouds 16 1013 59 10000 1.5 200 20:19 02.04.2020
6434 Clouds 17 1013 59 10000 2.1 180 19:43 02.04.2020
6435 Clouds 17 1013 59 10000 2.1 180 19:21 02.04.2020
6436 Clouds 17 1013 59 10000 2.1 180 19:21 02.04.2020
6437 Clouds 17 1013 59 10000 1 0 18:58 02.04.2020
6438 Clouds 16 1013 59 10000 1.5 130 18:39 02.04.2020
6439 Rain 16 1013 67 10000 2.6 110 18:20 02.04.2020
6440 Rain 16 1013 67 10000 2.6 110 17:56 02.04.2020
6441 Clouds 16 1013 67 10000 3.1 110 17:38 02.04.2020
6442 Clouds 16 1013 67 10000 3.1 110 17:18 02.04.2020
6443 Clouds 16 1013 67 10000 3.1 110 17:18 02.04.2020
6444 Clouds 16 1012 67 10000 3.1 80 16:55 02.04.2020
6445 Rain 16 1012 63 10000 1.5 110 16:36 02.04.2020
6446 Rain 16 1012 59 10000 1.5 70 16:18 02.04.2020
6447 Clouds 16 1012 59 10000 1.5 70 15:44 02.04.2020
6448 Clouds 16 1012 59 10000 1.5 70 15:44 02.04.2020
6449 Clouds 16 1012 59 10000 1.5 70 15:44 02.04.2020
6450 Rain 16 1012 59 10000 1.5 70 15:21 02.04.2020
6451 Clouds 16 1012 76 10000 3.6 80 14:58 02.04.2020
6452 Clouds 16 1012 76 10000 3.6 80 14:39 02.04.2020
6453 Rain 15 1012 76 10000 3.6 80 14:19 02.04.2020
6454 Thunderstorm 14 1012 71 10000 1 0 13:56 02.04.2020
6455 Thunderstorm 13 1012 71 10000 1 0 13:38 02.04.2020
6456 Thunderstorm 14 1012 71 10000 1 0 13:20 02.04.2020
6457 Rain 14 1012 87 10000 1 0 12:55 02.04.2020
6458 Rain 14 1012 87 10000 1 0 12:36 02.04.2020
6459 Clouds 13 1011 93 10000 1 0 12:18 02.04.2020
6460 Clouds 12 1011 93 10000 1 0 11:55 02.04.2020
6461 Clouds 12 1011 93 10000 1 0 11:55 02.04.2020
6462 Clouds 12 1011 93 10000 1 0 11:36 02.04.2020
6463 Clouds 11 1011 93 10000 1 0 11:18 02.04.2020
6464 Clouds 10 1011 100 8000 1.41 308 10:54 02.04.2020
6465 Clouds 10 1011 100 8000 1.41 308 10:36 02.04.2020
6466 Mist 10 1010 100 5000 1.41 308 10:18 02.04.2020
6467 Rain 10 1010 100 3000 0.5 30 09:42 02.04.2020
6468 Rain 10 1010 100 3000 0.5 30 09:24 02.04.2020
6469 Mist 9 1010 100 3000 0.5 350 08:58 02.04.2020
6470 Fog 9 1010 100 1500 1 160 08:40 02.04.2020
6471 Fog 9 1010 100 1500 1 160 08:20 02.04.2020
6472 Clouds 10 1010 100 10000 1 280 07:43 02.04.2020
6473 Clouds 10 1010 100 10000 1 280 07:20 02.04.2020
6474 Clouds 10 1009 93 10000 2.1 280 06:57 02.04.2020
6475 Clouds 11 1009 100 10000 1.5 190 06:21 02.04.2020
6476 Clouds 11 1010 100 10000 2.6 210 05:42 02.04.2020
6477 Rain 12 1011 100 10000 4.6 180 03:24 02.04.2020
6478 Rain 11 1012 93 10000 4.6 180 01:31 02.04.2020
6479 Rain 11 1013 93 7000 3.6 170 00:46 02.04.2020
6480 Rain 12 1013 93 10000 3.6 200 00:26 02.04.2020
6481 Rain 11 1013 87 10000 4.1 170 23:41 01.04.2020
6482 Rain 12 1013 87 10000 3.1 170 23:20 01.04.2020
6483 Clouds 12 1013 87 10000 3.1 180 22:59 01.04.2020
6484 Clouds 12 1012 82 10000 2.1 170 22:39 01.04.2020
6485 Clouds 12 1012 82 10000 2.1 170 22:21 01.04.2020
6486 Clouds 13 1012 76 10000 2.1 210 21:55 01.04.2020
6487 Clouds 13 1012 67 10000 3.6 210 21:36 01.04.2020
6488 Clouds 14 1012 67 10000 3.6 210 21:18 01.04.2020
6489 Clouds 14 1012 77 10000 2.1 220 20:54 01.04.2020
6490 Clouds 14 1012 82 10000 2.6 110 20:36 01.04.2020
6491 Clouds 14 1012 82 10000 2.6 110 20:18 01.04.2020
6492 Clouds 14 1012 82 10000 1.5 40 19:41 01.04.2020
6493 Clouds 15 1012 82 10000 1.5 40 19:21 01.04.2020
6494 Rain 14 1012 82 10000 1.5 310 18:46 01.04.2020
6495 Rain 14 1012 87 10000 2.6 330 18:27 01.04.2020
6496 Rain 14 1012 62 10000 3.1 210 17:59 01.04.2020
6497 Rain 14 1012 62 10000 3.1 210 17:59 01.04.2020
6498 Rain 15 1012 72 10000 2.6 210 17:39 01.04.2020
6499 Clouds 15 1012 72 10000 2.6 210 17:21 01.04.2020
6500 Rain 15 1012 77 10000 5.7 290 16:59 01.04.2020
6501 Clouds 14 1013 62 10000 8.7 250 16:41 01.04.2020
6502 Clouds 15 1013 51 10000 3.1 220 16:22 01.04.2020
6503 Rain 15 1013 51 10000 3.1 220 15:58 01.04.2020
6504 Rain 15 1013 51 10000 3.1 220 15:40 01.04.2020
6505 Rain 15 1013 51 10000 3.1 220 15:21 01.04.2020
6506 Clouds 16 1013 55 10000 3.1 200 14:57 01.04.2020
6507 Clouds 16 1013 55 10000 3.1 200 14:57 01.04.2020
6508 Clouds 16 1013 55 10000 3.1 200 14:38 01.04.2020
6509 Clouds 16 1013 55 10000 3.1 200 14:19 01.04.2020
6510 Clouds 16 1013 55 10000 3.1 200 14:19 01.04.2020
6511 Clouds 16 1013 58 10000 1.5 210 13:58 01.04.2020
6512 Clouds 16 1013 58 10000 1.5 210 13:38 01.04.2020
6513 Clouds 16 1013 58 10000 1.5 210 13:19 01.04.2020
6514 Clouds 15 1014 58 10000 2.1 200 12:56 01.04.2020
6515 Clouds 15 1014 58 10000 2.1 200 12:36 01.04.2020
6516 Rain 14 1014 58 10000 2.1 200 12:18 01.04.2020
6517 Clouds 14 1014 62 10000 1.5 190 11:44 01.04.2020
6518 Clouds 13 1014 62 10000 1.5 190 11:24 01.04.2020
6519 Clouds 12 1014 66 10000 1.5 210 10:59 01.04.2020
6520 Clouds 12 1013 93 10000 0.5 0 10:38 01.04.2020
6521 Rain 11 1013 93 10000 0.5 0 10:20 01.04.2020
6522 Rain 10 1013 100 10000 1.5 240 09:57 01.04.2020
6523 Rain 10 1013 100 10000 1.5 240 09:39 01.04.2020
6524 Rain 10 1013 100 10000 1.5 240 09:19 01.04.2020
6525 Rain 10 1012 100 10000 1 190 08:43 01.04.2020
6526 Clouds 9 1012 100 10000 1 190 08:18 01.04.2020
6527 Clouds 9 1012 100 9000 0.5 0 07:48 01.04.2020
6528 Clouds 9 1012 93 10000 1.05 356 07:23 01.04.2020
6529 Clouds 9 1011 93 10000 1.05 356 06:59 01.04.2020
6530 Clouds 9 1011 93 10000 1.05 356 06:38 01.04.2020
6531 Clouds 9 1011 93 10000 0.67 233 06:20 01.04.2020
6532 Clouds 10 1011 93 10000 1 220 04:55 01.04.2020
6533 Clouds 11 1011 82 10000 2.1 300 03:36 01.04.2020
6534 Clouds 12 1011 87 10000 2.1 210 02:59 01.04.2020
6535 Clouds 12 1011 87 10000 2.6 220 02:24 01.04.2020
6536 Rain 12 1011 87 10000 3.1 220 01:46 01.04.2020
6537 Clouds 12 1011 87 10000 3.6 230 01:23 01.04.2020
6538 Clouds 12 1010 87 10000 2.6 200 00:47 01.04.2020
6539 Clouds 13 1010 87 10000 3.1 210 00:21 01.04.2020
6540 Clouds 13 1010 87 10000 3.6 220 23:54 31.03.2020
6541 Clouds 13 1010 82 10000 4.1 220 23:36 31.03.2020
6542 Clouds 13 1010 82 10000 4.1 220 23:18 31.03.2020
6543 Rain 13 1009 82 10000 4.1 220 22:40 31.03.2020
6544 Rain 13 1009 82 10000 4.1 220 22:40 31.03.2020
6545 Clouds 14 1009 77 10000 4.6 220 22:20 31.03.2020
6546 Rain 14 1008 77 10000 5.1 220 21:57 31.03.2020
6547 Rain 15 1007 72 10000 5.7 220 21:39 31.03.2020
6548 Rain 15 1007 72 10000 5.7 220 21:21 31.03.2020
6549 Rain 15 1007 67 10000 7.2 220 20:56 31.03.2020
6550 Rain 15 1007 67 10000 7.2 220 20:37 31.03.2020
6551 Rain 16 1006 63 10000 7.2 220 20:18 31.03.2020
6552 Rain 16 1006 63 10000 7.2 220 19:55 31.03.2020
6553 Clouds 16 1006 77 10000 7.2 230 19:37 31.03.2020
6554 Clouds 17 1005 68 10000 8.7 220 19:18 31.03.2020
6555 Clouds 17 1005 68 10000 8.7 220 19:18 31.03.2020
6556 Clouds 17 1005 63 10000 8.7 220 18:43 31.03.2020
6557 Clouds 18 1005 63 10000 8.7 220 18:20 31.03.2020
6558 Clouds 18 1004 63 10000 9.3 220 17:56 31.03.2020
6559 Clouds 18 1004 63 10000 9.3 220 17:56 31.03.2020
6560 Clouds 18 1005 63 10000 8.7 230 17:38 31.03.2020
6561 Clouds 18 1005 63 10000 8.7 230 17:38 31.03.2020
6562 Clouds 18 1005 63 10000 8.7 230 17:20 31.03.2020
6563 Rain 18 1004 63 10000 8.7 220 16:56 31.03.2020
6564 Rain 18 1004 72 10000 7.2 220 16:36 31.03.2020
6565 Rain 17 1004 87 10000 4.1 230 16:18 31.03.2020
6566 Clouds 18 1004 77 10000 7.2 230 15:54 31.03.2020
6567 Rain 17 1004 87 10000 4.1 230 15:36 31.03.2020
6568 Rain 18 1004 63 10000 6.2 220 15:18 31.03.2020
6569 Rain 18 1004 63 10000 6.2 220 14:42 31.03.2020
6570 Rain 18 1004 63 10000 6.2 220 14:22 31.03.2020
6571 Rain 18 1004 77 10000 4.6 220 13:58 31.03.2020
6572 Rain 17 1004 77 10000 4.6 220 13:40 31.03.2020
6573 Rain 16 1004 77 10000 4.6 220 13:19 31.03.2020
6574 Rain 16 1004 77 10000 4.6 220 13:19 31.03.2020
6575 Clouds 16 1004 77 10000 5.7 190 12:45 31.03.2020
6576 Rain 16 1004 77 10000 5.7 190 12:20 31.03.2020
6577 Rain 16 1004 87 10000 3.6 190 11:58 31.03.2020
6578 Rain 15 1004 87 10000 3.6 190 11:38 31.03.2020
6579 Rain 15 1004 87 10000 3.6 190 11:19 31.03.2020
6580 Rain 14 1004 93 10000 2.1 200 10:55 31.03.2020
6581 Clouds 14 1004 93 10000 2.1 200 10:37 31.03.2020
6582 Clouds 13 1004 93 10000 2.1 200 10:19 31.03.2020
6583 Clouds 12 1003 93 10000 2.1 200 09:44 31.03.2020
6584 Clouds 12 1003 93 10000 2.1 200 09:25 31.03.2020
6585 Clouds 12 1003 93 10000 3.1 190 08:59 31.03.2020
6586 Clouds 12 1003 93 10000 3.1 190 08:41 31.03.2020
6587 Clouds 12 1003 93 10000 3.1 190 08:20 31.03.2020
6588 Clouds 12 1002 100 10000 4.1 200 07:59 31.03.2020
6589 Clouds 12 1002 100 10000 4.1 200 07:41 31.03.2020
6590 Clouds 12 1002 100 10000 4.1 200 07:22 31.03.2020
6591 Rain 12 1002 87 10000 5.7 190 06:55 31.03.2020
6592 Rain 12 1002 87 10000 5.7 190 06:36 31.03.2020
6593 Rain 12 1002 93 10000 3.6 140 05:42 31.03.2020
6594 Rain 12 1002 93 10000 3.6 140 05:20 31.03.2020
6595 Rain 12 1004 93 6000 5.1 130 02:53 31.03.2020
6596 Rain 12 1004 93 10000 6.2 120 01:47 31.03.2020
6597 Rain 12 1005 93 8000 4.6 110 01:19 31.03.2020
6598 Rain 12 1006 93 9000 5.1 140 00:43 31.03.2020
6599 Rain 12 1006 93 9000 5.1 140 00:20 31.03.2020
6600 Rain 12 1007 93 9000 3.1 110 23:40 30.03.2020
6601 Rain 12 1007 93 9000 3.1 110 23:20 30.03.2020
6602 Rain 12 1007 93 8000 2.6 80 22:57 30.03.2020
6603 Rain 12 1007 93 8000 3.1 90 22:38 30.03.2020
6604 Rain 12 1007 93 6000 2.1 110 22:19 30.03.2020
6605 Rain 12 1007 93 10000 2.6 100 21:57 30.03.2020
6606 Clouds 12 1007 93 10000 2.1 70 21:38 30.03.2020
6607 Rain 12 1007 93 10000 2.1 70 21:20 30.03.2020
6608 Rain 13 1008 87 10000 1.5 50 20:57 30.03.2020
6609 Rain 13 1008 87 10000 2.1 30 20:38 30.03.2020
6610 Rain 13 1008 87 10000 2.1 30 20:19 30.03.2020
6611 Rain 13 1008 87 10000 2.1 300 19:41 30.03.2020
6612 Rain 13 1008 87 10000 2.1 300 19:22 30.03.2020
6613 Rain 13 1008 87 10000 2.1 300 19:22 30.03.2020
6614 Rain 13 1009 82 8000 4.1 260 18:59 30.03.2020
6615 Rain 13 1009 72 9000 6.7 280 18:41 30.03.2020
6616 Rain 14 1009 72 9000 6.7 280 18:22 30.03.2020
6617 Rain 15 1009 82 10000 6.7 250 17:57 30.03.2020
6618 Rain 15 1009 82 10000 3.6 220 17:39 30.03.2020
6619 Rain 15 1009 82 10000 3.6 220 17:39 30.03.2020
6620 Rain 15 1009 72 10000 5.1 250 17:19 30.03.2020
6621 Rain 16 1009 77 10000 3.6 260 16:57 30.03.2020
6622 Rain 16 1009 82 9000 3.1 290 16:38 30.03.2020
6623 Rain 17 1010 59 10000 2.6 210 16:20 30.03.2020
6624 Rain 17 1010 59 10000 2.6 210 15:55 30.03.2020
6625 Rain 17 1010 59 10000 2.6 210 15:37 30.03.2020
6626 Rain 18 1010 59 10000 2.6 210 15:18 30.03.2020
6627 Clouds 18 1011 59 10000 3.6 200 14:55 30.03.2020
6628 Clouds 18 1011 59 10000 3.6 200 14:36 30.03.2020
6629 Clouds 18 1011 59 10000 3.6 200 14:18 30.03.2020
6630 Clouds 18 1011 59 10000 3.6 200 14:18 30.03.2020
6631 Clouds 18 1012 67 10000 2.6 200 13:54 30.03.2020
6632 Clouds 17 1012 67 10000 2.6 200 13:36 30.03.2020
6633 Clouds 17 1012 67 10000 2.6 200 13:18 30.03.2020
6634 Clouds 17 1012 82 10000 0.5 0 12:41 30.03.2020
6635 Clouds 16 1012 82 10000 0.5 0 12:20 30.03.2020
6636 Clouds 15 1013 82 10000 1.5 170 11:57 30.03.2020
6637 Clouds 14 1013 87 10000 1.5 90 11:39 30.03.2020
6638 Clouds 14 1013 87 10000 1.5 90 11:20 30.03.2020
6639 Clouds 12 1013 93 10000 0.5 0 10:41 30.03.2020
6640 Clouds 12 1013 93 10000 1.74 158 10:22 30.03.2020
6641 Clouds 12 1013 100 10000 1 30 09:57 30.03.2020
6642 Clouds 12 1013 100 10000 1 30 09:57 30.03.2020
6643 Clouds 11 1013 100 10000 1 30 09:38 30.03.2020
6644 Clouds 10 1013 100 6000 0.5 160 09:19 30.03.2020
6645 Clouds 10 1013 100 10000 0.99 152 08:42 30.03.2020
6646 Clouds 10 1013 100 10000 0.99 152 08:23 30.03.2020
6647 Clouds 10 1013 100 9000 0.5 210 07:53 30.03.2020
6648 Clouds 10 1013 100 9000 0.5 210 07:34 30.03.2020
6649 Clouds 11 1013 93 10000 0.99 152 06:57 30.03.2020
6650 Clouds 11 1013 100 10000 0.99 152 06:33 30.03.2020
6651 Clear 11 1013 93 10000 1 0 05:59 30.03.2020
6652 Clear 11 1014 93 10000 0.5 0 05:34 30.03.2020
6653 Clear 12 1015 93 10000 1.5 210 04:26 30.03.2020
6654 Clear 13 1015 100 10000 2.1 230 03:50 30.03.2020
6655 Clouds 13 1016 93 10000 3.6 210 02:43 30.03.2020
6656 Clouds 13 1016 87 10000 3.6 220 01:52 30.03.2020
6657 Clouds 14 1016 82 10000 2.6 230 00:56 30.03.2020
6658 Clouds 14 1016 82 10000 3.1 220 00:25 30.03.2020
6659 Clouds 14 1016 77 10000 3.6 220 23:55 29.03.2020
6660 Clouds 14 1016 77 10000 2.6 200 23:36 29.03.2020
6661 Clouds 15 1016 67 10000 2.6 230 23:18 29.03.2020
6662 Clouds 16 1016 67 10000 3.6 250 22:39 29.03.2020
6663 Clouds 16 1016 67 10000 3.6 250 22:20 29.03.2020
6664 Clouds 16 1016 72 10000 4.1 230 21:58 29.03.2020
6665 Clouds 17 1016 68 10000 5.1 220 21:37 29.03.2020
6666 Clouds 17 1016 67 10000 3.6 250 21:19 29.03.2020
6667 Clouds 17 1016 63 10000 6.2 250 20:55 29.03.2020
6668 Clouds 17 1016 63 10000 6.2 250 20:37 29.03.2020
6669 Clouds 18 1016 45 10000 3.1 240 20:18 29.03.2020
6670 Clouds 19 1015 45 10000 3.1 230 19:55 29.03.2020
6671 Clouds 19 1016 45 10000 3.1 240 19:37 29.03.2020
6672 Clouds 20 1016 45 10000 1.5 0 19:18 29.03.2020
6673 Clouds 20 1016 45 10000 1.5 0 18:55 29.03.2020
6674 Clouds 20 1016 45 10000 1.5 0 18:37 29.03.2020
6675 Clouds 20 1016 43 10000 2.6 220 18:18 29.03.2020
6676 Clouds 20 1016 43 10000 2.6 220 17:54 29.03.2020
6677 Clouds 20 1016 40 10000 2.6 220 17:36 29.03.2020
6678 Clouds 20 1016 40 10000 2.6 220 17:18 29.03.2020
6679 Clouds 20 1016 40 10000 2.6 220 17:18 29.03.2020
6680 Clouds 20 1016 43 10000 0.5 180 16:55 29.03.2020
6681 Clouds 21 1017 43 10000 2.6 250 16:36 29.03.2020
6682 Clouds 21 1017 43 10000 2.6 250 16:36 29.03.2020
6683 Clouds 21 1017 43 10000 2.6 250 16:36 29.03.2020
6684 Clouds 21 1017 43 10000 2.6 250 16:36 29.03.2020
6685 Clouds 21 1017 43 10000 2.6 250 16:36 29.03.2020
6686 Clouds 20 1017 49 10000 1.5 30 16:18 29.03.2020
6687 Clouds 20 1018 46 10000 0.5 70 15:41 29.03.2020
6688 Clouds 20 1017 49 10000 0.5 180 15:22 29.03.2020
6689 Clouds 20 1018 49